<?xml version="1.0" encoding="UTF-8" standalone="no" ?>
<gpx xmlns="http://www.topografix.com/GPX/1/1" xmlns:xsi="http://www.w3.org/2001/XMLSchema-instance" xsi:schemaLocation="http://www.topografix.com/GPX/1/1 http://www.topografix.com/GPX/1/1/gpx.xsd" version="1.1" creator="VisuGPX - https://www.visugpx.com">
  <metadata>
    <name>Tro Ménez Arrée 2017</name>
    <desc><![CDATA[Une superbe rando à travers les Mts D'Arrée superbe sous soleil éclatant. 
Hervé]]></desc>
  </metadata>
  <trk>
    <name><![CDATA[Tro Ménez Arrée Cloitre St Thégonnec 25/5/17]]></name>
    <trkseg>
      <trkpt lat="48.47962" lon="-3.79422">
        <ele>233.73767089844</ele>
        <time>2017-05-25T07:06:17Z</time>
      </trkpt>
      <trkpt lat="48.47785" lon="-3.7935">
        <ele>233.73767089844</ele>
        <time>2017-05-25T07:06:18Z</time>
      </trkpt>
      <trkpt lat="48.47779" lon="-3.79348">
        <ele>234.21838378906</ele>
        <time>2017-05-25T07:06:24Z</time>
      </trkpt>
      <trkpt lat="48.47774" lon="-3.79346">
        <ele>234.21838378906</ele>
        <time>2017-05-25T07:06:30Z</time>
      </trkpt>
      <trkpt lat="48.47767" lon="-3.79343">
        <ele>235.1796875</ele>
        <time>2017-05-25T07:06:37Z</time>
      </trkpt>
      <trkpt lat="48.47756" lon="-3.7934">
        <ele>236.14099121094</ele>
        <time>2017-05-25T07:06:47Z</time>
      </trkpt>
      <trkpt lat="48.47747" lon="-3.79337">
        <ele>235.66027832031</ele>
        <time>2017-05-25T07:06:57Z</time>
      </trkpt>
      <trkpt lat="48.47738" lon="-3.79331">
        <ele>235.1796875</ele>
        <time>2017-05-25T07:07:05Z</time>
      </trkpt>
      <trkpt lat="48.47732" lon="-3.79328">
        <ele>235.1796875</ele>
        <time>2017-05-25T07:07:11Z</time>
      </trkpt>
      <trkpt lat="48.47723" lon="-3.79323">
        <ele>235.66027832031</ele>
        <time>2017-05-25T07:07:20Z</time>
      </trkpt>
      <trkpt lat="48.47717" lon="-3.79321">
        <ele>236.14099121094</ele>
        <time>2017-05-25T07:07:26Z</time>
      </trkpt>
      <trkpt lat="48.47711" lon="-3.79318">
        <ele>237.10229492188</ele>
        <time>2017-05-25T07:07:32Z</time>
      </trkpt>
      <trkpt lat="48.47704" lon="-3.79316">
        <ele>237.58288574219</ele>
        <time>2017-05-25T07:07:39Z</time>
      </trkpt>
      <trkpt lat="48.47696" lon="-3.79313">
        <ele>238.06359863281</ele>
        <time>2017-05-25T07:07:47Z</time>
      </trkpt>
      <trkpt lat="48.47691" lon="-3.79312">
        <ele>239.98620605469</ele>
        <time>2017-05-25T07:07:51Z</time>
      </trkpt>
      <trkpt lat="48.47687" lon="-3.79309">
        <ele>243.35083007812</ele>
        <time>2017-05-25T07:07:56Z</time>
      </trkpt>
      <trkpt lat="48.4768" lon="-3.79305">
        <ele>243.35083007812</ele>
        <time>2017-05-25T07:08:01Z</time>
      </trkpt>
      <trkpt lat="48.47677" lon="-3.79303">
        <ele>243.83154296875</ele>
        <time>2017-05-25T07:08:05Z</time>
      </trkpt>
      <trkpt lat="48.47671" lon="-3.79302">
        <ele>243.35083007812</ele>
        <time>2017-05-25T07:08:10Z</time>
      </trkpt>
      <trkpt lat="48.47664" lon="-3.793">
        <ele>243.35083007812</ele>
        <time>2017-05-25T07:08:17Z</time>
      </trkpt>
      <trkpt lat="48.47659" lon="-3.793">
        <ele>241.90893554688</ele>
        <time>2017-05-25T07:08:21Z</time>
      </trkpt>
      <trkpt lat="48.47654" lon="-3.79299">
        <ele>241.90893554688</ele>
        <time>2017-05-25T07:08:27Z</time>
      </trkpt>
      <trkpt lat="48.47651" lon="-3.79297">
        <ele>241.90893554688</ele>
        <time>2017-05-25T07:08:30Z</time>
      </trkpt>
      <trkpt lat="48.47645" lon="-3.79295">
        <ele>241.42822265625</ele>
        <time>2017-05-25T07:08:36Z</time>
      </trkpt>
      <trkpt lat="48.4764" lon="-3.79292">
        <ele>241.90893554688</ele>
        <time>2017-05-25T07:08:40Z</time>
      </trkpt>
      <trkpt lat="48.47637" lon="-3.7929">
        <ele>243.35083007812</ele>
        <time>2017-05-25T07:08:46Z</time>
      </trkpt>
      <trkpt lat="48.47633" lon="-3.7929">
        <ele>243.35083007812</ele>
        <time>2017-05-25T07:08:50Z</time>
      </trkpt>
      <trkpt lat="48.47627" lon="-3.79283">
        <ele>246.71545410156</ele>
        <time>2017-05-25T07:08:57Z</time>
      </trkpt>
      <trkpt lat="48.47623" lon="-3.79279">
        <ele>249.11877441406</ele>
        <time>2017-05-25T07:09:02Z</time>
      </trkpt>
      <trkpt lat="48.47616" lon="-3.79276">
        <ele>247.19604492188</ele>
        <time>2017-05-25T07:09:08Z</time>
      </trkpt>
      <trkpt lat="48.47607" lon="-3.79271">
        <ele>245.2734375</ele>
        <time>2017-05-25T07:09:15Z</time>
      </trkpt>
      <trkpt lat="48.47602" lon="-3.79271">
        <ele>244.79284667969</ele>
        <time>2017-05-25T07:09:20Z</time>
      </trkpt>
      <trkpt lat="48.47598" lon="-3.7927">
        <ele>244.79284667969</ele>
        <time>2017-05-25T07:09:23Z</time>
      </trkpt>
      <trkpt lat="48.47592" lon="-3.79272">
        <ele>245.75415039062</ele>
        <time>2017-05-25T07:09:28Z</time>
      </trkpt>
      <trkpt lat="48.47588" lon="-3.79273">
        <ele>246.71545410156</ele>
        <time>2017-05-25T07:09:31Z</time>
      </trkpt>
      <trkpt lat="48.47586" lon="-3.79275">
        <ele>247.6767578125</ele>
        <time>2017-05-25T07:09:34Z</time>
      </trkpt>
      <trkpt lat="48.4758" lon="-3.7928">
        <ele>250.08020019531</ele>
        <time>2017-05-25T07:09:40Z</time>
      </trkpt>
      <trkpt lat="48.47577" lon="-3.79283">
        <ele>250.56079101562</ele>
        <time>2017-05-25T07:09:43Z</time>
      </trkpt>
      <trkpt lat="48.47571" lon="-3.79292">
        <ele>251.52209472656</ele>
        <time>2017-05-25T07:09:51Z</time>
      </trkpt>
      <trkpt lat="48.47567" lon="-3.79298">
        <ele>254.88659667969</ele>
        <time>2017-05-25T07:09:57Z</time>
      </trkpt>
      <trkpt lat="48.47563" lon="-3.79303">
        <ele>255.84802246094</ele>
        <time>2017-05-25T07:10:03Z</time>
      </trkpt>
      <trkpt lat="48.47557" lon="-3.79306">
        <ele>257.2900390625</ele>
        <time>2017-05-25T07:10:10Z</time>
      </trkpt>
      <trkpt lat="48.47551" lon="-3.79304">
        <ele>258.73193359375</ele>
        <time>2017-05-25T07:10:15Z</time>
      </trkpt>
      <trkpt lat="48.47542" lon="-3.79302">
        <ele>259.693359375</ele>
        <time>2017-05-25T07:10:24Z</time>
      </trkpt>
      <trkpt lat="48.47535" lon="-3.793">
        <ele>259.21264648438</ele>
        <time>2017-05-25T07:10:31Z</time>
      </trkpt>
      <trkpt lat="48.47529" lon="-3.79297">
        <ele>260.17395019531</ele>
        <time>2017-05-25T07:10:37Z</time>
      </trkpt>
      <trkpt lat="48.47524" lon="-3.79297">
        <ele>259.693359375</ele>
        <time>2017-05-25T07:10:41Z</time>
      </trkpt>
      <trkpt lat="48.47516" lon="-3.79295">
        <ele>258.73193359375</ele>
        <time>2017-05-25T07:10:49Z</time>
      </trkpt>
      <trkpt lat="48.47508" lon="-3.79295">
        <ele>259.21264648438</ele>
        <time>2017-05-25T07:10:56Z</time>
      </trkpt>
      <trkpt lat="48.47501" lon="-3.79295">
        <ele>258.73193359375</ele>
        <time>2017-05-25T07:11:02Z</time>
      </trkpt>
      <trkpt lat="48.47495" lon="-3.79295">
        <ele>259.21264648438</ele>
        <time>2017-05-25T07:11:07Z</time>
      </trkpt>
      <trkpt lat="48.47488" lon="-3.79296">
        <ele>258.73193359375</ele>
        <time>2017-05-25T07:11:13Z</time>
      </trkpt>
      <trkpt lat="48.47482" lon="-3.79297">
        <ele>259.693359375</ele>
        <time>2017-05-25T07:11:18Z</time>
      </trkpt>
      <trkpt lat="48.47478" lon="-3.79298">
        <ele>260.65454101562</ele>
        <time>2017-05-25T07:11:24Z</time>
      </trkpt>
      <trkpt lat="48.47474" lon="-3.79299">
        <ele>259.693359375</ele>
        <time>2017-05-25T07:11:29Z</time>
      </trkpt>
      <trkpt lat="48.4747" lon="-3.79296">
        <ele>257.77075195312</ele>
        <time>2017-05-25T07:11:36Z</time>
      </trkpt>
      <trkpt lat="48.47466" lon="-3.79297">
        <ele>256.80932617188</ele>
        <time>2017-05-25T07:11:42Z</time>
      </trkpt>
      <trkpt lat="48.47462" lon="-3.79295">
        <ele>257.2900390625</ele>
        <time>2017-05-25T07:11:45Z</time>
      </trkpt>
      <trkpt lat="48.47456" lon="-3.79295">
        <ele>256.80932617188</ele>
        <time>2017-05-25T07:11:51Z</time>
      </trkpt>
      <trkpt lat="48.47454" lon="-3.79294">
        <ele>256.80932617188</ele>
        <time>2017-05-25T07:11:53Z</time>
      </trkpt>
      <trkpt lat="48.47449" lon="-3.79291">
        <ele>257.77075195312</ele>
        <time>2017-05-25T07:11:59Z</time>
      </trkpt>
      <trkpt lat="48.47441" lon="-3.79289">
        <ele>257.2900390625</ele>
        <time>2017-05-25T07:12:06Z</time>
      </trkpt>
      <trkpt lat="48.4744" lon="-3.79288">
        <ele>256.80932617188</ele>
        <time>2017-05-25T07:12:07Z</time>
      </trkpt>
      <trkpt lat="48.47435" lon="-3.79286">
        <ele>254.88659667969</ele>
        <time>2017-05-25T07:12:11Z</time>
      </trkpt>
      <trkpt lat="48.47426" lon="-3.79282">
        <ele>252.96398925781</ele>
        <time>2017-05-25T07:12:19Z</time>
      </trkpt>
      <trkpt lat="48.47418" lon="-3.79279">
        <ele>253.92541503906</ele>
        <time>2017-05-25T07:12:26Z</time>
      </trkpt>
      <trkpt lat="48.47412" lon="-3.7928">
        <ele>255.36730957031</ele>
        <time>2017-05-25T07:12:31Z</time>
      </trkpt>
      <trkpt lat="48.47409" lon="-3.79285">
        <ele>255.36730957031</ele>
        <time>2017-05-25T07:12:35Z</time>
      </trkpt>
      <trkpt lat="48.47404" lon="-3.79296">
        <ele>257.2900390625</ele>
        <time>2017-05-25T07:12:43Z</time>
      </trkpt>
      <trkpt lat="48.474" lon="-3.79307">
        <ele>257.77075195312</ele>
        <time>2017-05-25T07:12:50Z</time>
      </trkpt>
      <trkpt lat="48.47398" lon="-3.7932">
        <ele>258.25134277344</ele>
        <time>2017-05-25T07:12:58Z</time>
      </trkpt>
      <trkpt lat="48.47397" lon="-3.79324">
        <ele>258.25134277344</ele>
        <time>2017-05-25T07:13:00Z</time>
      </trkpt>
      <trkpt lat="48.47396" lon="-3.79336">
        <ele>259.21264648438</ele>
        <time>2017-05-25T07:13:07Z</time>
      </trkpt>
      <trkpt lat="48.47396" lon="-3.79348">
        <ele>258.25134277344</ele>
        <time>2017-05-25T07:13:14Z</time>
      </trkpt>
      <trkpt lat="48.47397" lon="-3.79357">
        <ele>257.2900390625</ele>
        <time>2017-05-25T07:13:18Z</time>
      </trkpt>
      <trkpt lat="48.47397" lon="-3.79365">
        <ele>257.77075195312</ele>
        <time>2017-05-25T07:13:23Z</time>
      </trkpt>
      <trkpt lat="48.47397" lon="-3.79372">
        <ele>256.32873535156</ele>
        <time>2017-05-25T07:13:27Z</time>
      </trkpt>
      <trkpt lat="48.47395" lon="-3.79376">
        <ele>255.36730957031</ele>
        <time>2017-05-25T07:13:30Z</time>
      </trkpt>
      <trkpt lat="48.47391" lon="-3.79379">
        <ele>254.88659667969</ele>
        <time>2017-05-25T07:13:37Z</time>
      </trkpt>
      <trkpt lat="48.47386" lon="-3.79379">
        <ele>252.4833984375</ele>
        <time>2017-05-25T07:13:43Z</time>
      </trkpt>
      <trkpt lat="48.47381" lon="-3.79379">
        <ele>252.4833984375</ele>
        <time>2017-05-25T07:13:48Z</time>
      </trkpt>
      <trkpt lat="48.47374" lon="-3.79379">
        <ele>249.59948730469</ele>
        <time>2017-05-25T07:13:55Z</time>
      </trkpt>
      <trkpt lat="48.47371" lon="-3.7938">
        <ele>249.11877441406</ele>
        <time>2017-05-25T07:13:58Z</time>
      </trkpt>
      <trkpt lat="48.47365" lon="-3.79383">
        <ele>248.63818359375</ele>
        <time>2017-05-25T07:14:04Z</time>
      </trkpt>
      <trkpt lat="48.47359" lon="-3.79384">
        <ele>248.15759277344</ele>
        <time>2017-05-25T07:14:08Z</time>
      </trkpt>
      <trkpt lat="48.47351" lon="-3.79392">
        <ele>250.08020019531</ele>
        <time>2017-05-25T07:14:16Z</time>
      </trkpt>
      <trkpt lat="48.4735" lon="-3.79396">
        <ele>250.08020019531</ele>
        <time>2017-05-25T07:14:19Z</time>
      </trkpt>
      <trkpt lat="48.47348" lon="-3.79404">
        <ele>250.56079101562</ele>
        <time>2017-05-25T07:14:26Z</time>
      </trkpt>
      <trkpt lat="48.47349" lon="-3.79407">
        <ele>250.08020019531</ele>
        <time>2017-05-25T07:14:28Z</time>
      </trkpt>
      <trkpt lat="48.47347" lon="-3.79414">
        <ele>249.11877441406</ele>
        <time>2017-05-25T07:14:33Z</time>
      </trkpt>
      <trkpt lat="48.47336" lon="-3.79416">
        <ele>251.52209472656</ele>
        <time>2017-05-25T07:14:42Z</time>
      </trkpt>
      <trkpt lat="48.47328" lon="-3.79423">
        <ele>254.40600585938</ele>
        <time>2017-05-25T07:14:48Z</time>
      </trkpt>
      <trkpt lat="48.47322" lon="-3.7943">
        <ele>254.40600585938</ele>
        <time>2017-05-25T07:14:55Z</time>
      </trkpt>
      <trkpt lat="48.47315" lon="-3.79437">
        <ele>255.36730957031</ele>
        <time>2017-05-25T07:15:02Z</time>
      </trkpt>
      <trkpt lat="48.47312" lon="-3.79441">
        <ele>254.40600585938</ele>
        <time>2017-05-25T07:15:06Z</time>
      </trkpt>
      <trkpt lat="48.47308" lon="-3.7945">
        <ele>253.44470214844</ele>
        <time>2017-05-25T07:15:13Z</time>
      </trkpt>
      <trkpt lat="48.47302" lon="-3.7946">
        <ele>253.44470214844</ele>
        <time>2017-05-25T07:15:20Z</time>
      </trkpt>
      <trkpt lat="48.47296" lon="-3.79469">
        <ele>253.44470214844</ele>
        <time>2017-05-25T07:15:27Z</time>
      </trkpt>
      <trkpt lat="48.47289" lon="-3.79474">
        <ele>253.44470214844</ele>
        <time>2017-05-25T07:15:34Z</time>
      </trkpt>
      <trkpt lat="48.47284" lon="-3.79475">
        <ele>253.92541503906</ele>
        <time>2017-05-25T07:15:39Z</time>
      </trkpt>
      <trkpt lat="48.4728" lon="-3.79478">
        <ele>252.4833984375</ele>
        <time>2017-05-25T07:15:43Z</time>
      </trkpt>
      <trkpt lat="48.47274" lon="-3.79478">
        <ele>252.4833984375</ele>
        <time>2017-05-25T07:15:49Z</time>
      </trkpt>
      <trkpt lat="48.47273" lon="-3.79477">
        <ele>252.4833984375</ele>
        <time>2017-05-25T07:15:50Z</time>
      </trkpt>
      <trkpt lat="48.47269" lon="-3.7947">
        <ele>253.44470214844</ele>
        <time>2017-05-25T07:15:57Z</time>
      </trkpt>
      <trkpt lat="48.47263" lon="-3.79461">
        <ele>252.00280761719</ele>
        <time>2017-05-25T07:16:04Z</time>
      </trkpt>
      <trkpt lat="48.47262" lon="-3.7946">
        <ele>251.04138183594</ele>
        <time>2017-05-25T07:16:06Z</time>
      </trkpt>
      <trkpt lat="48.47255" lon="-3.79455">
        <ele>248.15759277344</ele>
        <time>2017-05-25T07:16:13Z</time>
      </trkpt>
      <trkpt lat="48.4725" lon="-3.79452">
        <ele>247.6767578125</ele>
        <time>2017-05-25T07:16:17Z</time>
      </trkpt>
      <trkpt lat="48.47248" lon="-3.79451">
        <ele>247.6767578125</ele>
        <time>2017-05-25T07:16:19Z</time>
      </trkpt>
      <trkpt lat="48.47242" lon="-3.79447">
        <ele>248.63818359375</ele>
        <time>2017-05-25T07:16:24Z</time>
      </trkpt>
      <trkpt lat="48.47234" lon="-3.79444">
        <ele>248.63818359375</ele>
        <time>2017-05-25T07:16:31Z</time>
      </trkpt>
      <trkpt lat="48.47231" lon="-3.79442">
        <ele>249.11877441406</ele>
        <time>2017-05-25T07:16:33Z</time>
      </trkpt>
      <trkpt lat="48.4722" lon="-3.79436">
        <ele>249.59948730469</ele>
        <time>2017-05-25T07:16:41Z</time>
      </trkpt>
      <trkpt lat="48.47218" lon="-3.79435">
        <ele>249.59948730469</ele>
        <time>2017-05-25T07:16:42Z</time>
      </trkpt>
      <trkpt lat="48.47211" lon="-3.79427">
        <ele>249.11877441406</ele>
        <time>2017-05-25T07:16:49Z</time>
      </trkpt>
      <trkpt lat="48.47207" lon="-3.79422">
        <ele>250.08020019531</ele>
        <time>2017-05-25T07:16:53Z</time>
      </trkpt>
      <trkpt lat="48.472" lon="-3.79415">
        <ele>250.56079101562</ele>
        <time>2017-05-25T07:17:00Z</time>
      </trkpt>
      <trkpt lat="48.47195" lon="-3.79411">
        <ele>251.04138183594</ele>
        <time>2017-05-25T07:17:05Z</time>
      </trkpt>
      <trkpt lat="48.4719" lon="-3.79405">
        <ele>250.08020019531</ele>
        <time>2017-05-25T07:17:11Z</time>
      </trkpt>
      <trkpt lat="48.47185" lon="-3.794">
        <ele>249.11877441406</ele>
        <time>2017-05-25T07:17:16Z</time>
      </trkpt>
      <trkpt lat="48.47182" lon="-3.79398">
        <ele>248.63818359375</ele>
        <time>2017-05-25T07:17:19Z</time>
      </trkpt>
      <trkpt lat="48.4718" lon="-3.79396">
        <ele>249.11877441406</ele>
        <time>2017-05-25T07:17:22Z</time>
      </trkpt>
      <trkpt lat="48.47175" lon="-3.7939">
        <ele>247.6767578125</ele>
        <time>2017-05-25T07:17:28Z</time>
      </trkpt>
      <trkpt lat="48.47171" lon="-3.79387">
        <ele>245.75415039062</ele>
        <time>2017-05-25T07:17:33Z</time>
      </trkpt>
      <trkpt lat="48.47171" lon="-3.79386">
        <ele>245.75415039062</ele>
        <time>2017-05-25T07:17:34Z</time>
      </trkpt>
      <trkpt lat="48.47163" lon="-3.79378">
        <ele>244.79284667969</ele>
        <time>2017-05-25T07:17:43Z</time>
      </trkpt>
      <trkpt lat="48.47158" lon="-3.7937">
        <ele>242.87023925781</ele>
        <time>2017-05-25T07:17:50Z</time>
      </trkpt>
      <trkpt lat="48.47158" lon="-3.79362">
        <ele>240.94763183594</ele>
        <time>2017-05-25T07:17:55Z</time>
      </trkpt>
      <trkpt lat="48.47157" lon="-3.79353">
        <ele>241.42822265625</ele>
        <time>2017-05-25T07:18:01Z</time>
      </trkpt>
      <trkpt lat="48.47152" lon="-3.79346">
        <ele>240.46704101562</ele>
        <time>2017-05-25T07:18:06Z</time>
      </trkpt>
      <trkpt lat="48.47145" lon="-3.79354">
        <ele>239.50549316406</ele>
        <time>2017-05-25T07:18:14Z</time>
      </trkpt>
      <trkpt lat="48.47143" lon="-3.79356">
        <ele>239.50549316406</ele>
        <time>2017-05-25T07:18:16Z</time>
      </trkpt>
      <trkpt lat="48.47142" lon="-3.79359">
        <ele>239.50549316406</ele>
        <time>2017-05-25T07:18:18Z</time>
      </trkpt>
      <trkpt lat="48.47139" lon="-3.7937">
        <ele>236.14099121094</ele>
        <time>2017-05-25T07:18:25Z</time>
      </trkpt>
      <trkpt lat="48.47135" lon="-3.79377">
        <ele>235.66027832031</ele>
        <time>2017-05-25T07:18:30Z</time>
      </trkpt>
      <trkpt lat="48.47132" lon="-3.79384">
        <ele>235.66027832031</ele>
        <time>2017-05-25T07:18:35Z</time>
      </trkpt>
      <trkpt lat="48.47129" lon="-3.7939">
        <ele>236.14099121094</ele>
        <time>2017-05-25T07:18:40Z</time>
      </trkpt>
      <trkpt lat="48.47127" lon="-3.79393">
        <ele>237.10229492188</ele>
        <time>2017-05-25T07:18:42Z</time>
      </trkpt>
      <trkpt lat="48.47124" lon="-3.79398">
        <ele>235.1796875</ele>
        <time>2017-05-25T07:18:47Z</time>
      </trkpt>
      <trkpt lat="48.47122" lon="-3.79404">
        <ele>234.69909667969</ele>
        <time>2017-05-25T07:18:50Z</time>
      </trkpt>
      <trkpt lat="48.47115" lon="-3.79414">
        <ele>234.21838378906</ele>
        <time>2017-05-25T07:18:57Z</time>
      </trkpt>
      <trkpt lat="48.47114" lon="-3.79415">
        <ele>233.25708007812</ele>
        <time>2017-05-25T07:18:58Z</time>
      </trkpt>
      <trkpt lat="48.47111" lon="-3.79425">
        <ele>229.89233398438</ele>
        <time>2017-05-25T07:19:05Z</time>
      </trkpt>
      <trkpt lat="48.47109" lon="-3.79432">
        <ele>229.89233398438</ele>
        <time>2017-05-25T07:19:10Z</time>
      </trkpt>
      <trkpt lat="48.47109" lon="-3.79436">
        <ele>228.45043945312</ele>
        <time>2017-05-25T07:19:13Z</time>
      </trkpt>
      <trkpt lat="48.47106" lon="-3.79447">
        <ele>228.93115234375</ele>
        <time>2017-05-25T07:19:19Z</time>
      </trkpt>
      <trkpt lat="48.47105" lon="-3.79452">
        <ele>229.41174316406</ele>
        <time>2017-05-25T07:19:21Z</time>
      </trkpt>
      <trkpt lat="48.47105" lon="-3.79455">
        <ele>229.41174316406</ele>
        <time>2017-05-25T07:19:23Z</time>
      </trkpt>
      <trkpt lat="48.47104" lon="-3.79462">
        <ele>227.48913574219</ele>
        <time>2017-05-25T07:19:28Z</time>
      </trkpt>
      <trkpt lat="48.47102" lon="-3.7947">
        <ele>227.48913574219</ele>
        <time>2017-05-25T07:19:33Z</time>
      </trkpt>
      <trkpt lat="48.47098" lon="-3.79485">
        <ele>227.48913574219</ele>
        <time>2017-05-25T07:19:40Z</time>
      </trkpt>
      <trkpt lat="48.47097" lon="-3.79497">
        <ele>227.9697265625</ele>
        <time>2017-05-25T07:19:46Z</time>
      </trkpt>
      <trkpt lat="48.47096" lon="-3.79513">
        <ele>226.52783203125</ele>
        <time>2017-05-25T07:19:55Z</time>
      </trkpt>
      <trkpt lat="48.47096" lon="-3.79514">
        <ele>226.04711914062</ele>
        <time>2017-05-25T07:19:56Z</time>
      </trkpt>
      <trkpt lat="48.47094" lon="-3.79526">
        <ele>225.56652832031</ele>
        <time>2017-05-25T07:20:03Z</time>
      </trkpt>
      <trkpt lat="48.47091" lon="-3.79537">
        <ele>223.64379882812</ele>
        <time>2017-05-25T07:20:10Z</time>
      </trkpt>
      <trkpt lat="48.47088" lon="-3.79545">
        <ele>222.68249511719</ele>
        <time>2017-05-25T07:20:16Z</time>
      </trkpt>
      <trkpt lat="48.47086" lon="-3.79556">
        <ele>221.72119140625</ele>
        <time>2017-05-25T07:20:23Z</time>
      </trkpt>
      <trkpt lat="48.47083" lon="-3.79571">
        <ele>221.24060058594</ele>
        <time>2017-05-25T07:20:30Z</time>
      </trkpt>
      <trkpt lat="48.4708" lon="-3.7958">
        <ele>220.27917480469</ele>
        <time>2017-05-25T07:20:36Z</time>
      </trkpt>
      <trkpt lat="48.47074" lon="-3.79599">
        <ele>222.68249511719</ele>
        <time>2017-05-25T07:20:46Z</time>
      </trkpt>
      <trkpt lat="48.47072" lon="-3.79607">
        <ele>221.72119140625</ele>
        <time>2017-05-25T07:20:51Z</time>
      </trkpt>
      <trkpt lat="48.47069" lon="-3.79615">
        <ele>221.72119140625</ele>
        <time>2017-05-25T07:20:56Z</time>
      </trkpt>
      <trkpt lat="48.47069" lon="-3.79616">
        <ele>221.72119140625</ele>
        <time>2017-05-25T07:20:57Z</time>
      </trkpt>
      <trkpt lat="48.47064" lon="-3.79629">
        <ele>221.72119140625</ele>
        <time>2017-05-25T07:21:05Z</time>
      </trkpt>
      <trkpt lat="48.47058" lon="-3.7964">
        <ele>223.16320800781</ele>
        <time>2017-05-25T07:21:12Z</time>
      </trkpt>
      <trkpt lat="48.47058" lon="-3.79642">
        <ele>223.16320800781</ele>
        <time>2017-05-25T07:21:13Z</time>
      </trkpt>
      <trkpt lat="48.47055" lon="-3.79653">
        <ele>223.16320800781</ele>
        <time>2017-05-25T07:21:21Z</time>
      </trkpt>
      <trkpt lat="48.47051" lon="-3.79665">
        <ele>225.0859375</ele>
        <time>2017-05-25T07:21:28Z</time>
      </trkpt>
      <trkpt lat="48.47048" lon="-3.79673">
        <ele>226.04711914062</ele>
        <time>2017-05-25T07:21:33Z</time>
      </trkpt>
      <trkpt lat="48.47043" lon="-3.79685">
        <ele>225.0859375</ele>
        <time>2017-05-25T07:21:40Z</time>
      </trkpt>
      <trkpt lat="48.4704" lon="-3.79694">
        <ele>224.12451171875</ele>
        <time>2017-05-25T07:21:46Z</time>
      </trkpt>
      <trkpt lat="48.47037" lon="-3.79696">
        <ele>225.0859375</ele>
        <time>2017-05-25T07:21:48Z</time>
      </trkpt>
      <trkpt lat="48.47034" lon="-3.79702">
        <ele>226.04711914062</ele>
        <time>2017-05-25T07:21:52Z</time>
      </trkpt>
      <trkpt lat="48.4703" lon="-3.79716">
        <ele>223.16320800781</ele>
        <time>2017-05-25T07:22:01Z</time>
      </trkpt>
      <trkpt lat="48.47027" lon="-3.79726">
        <ele>224.60522460938</ele>
        <time>2017-05-25T07:22:07Z</time>
      </trkpt>
      <trkpt lat="48.47026" lon="-3.79727">
        <ele>224.60522460938</ele>
        <time>2017-05-25T07:22:08Z</time>
      </trkpt>
      <trkpt lat="48.47022" lon="-3.79738">
        <ele>222.20178222656</ele>
        <time>2017-05-25T07:22:15Z</time>
      </trkpt>
      <trkpt lat="48.47019" lon="-3.79744">
        <ele>221.24060058594</ele>
        <time>2017-05-25T07:22:19Z</time>
      </trkpt>
      <trkpt lat="48.47016" lon="-3.79751">
        <ele>217.8759765625</ele>
        <time>2017-05-25T07:22:25Z</time>
      </trkpt>
      <trkpt lat="48.47016" lon="-3.79753">
        <ele>216.43395996094</ele>
        <time>2017-05-25T07:22:27Z</time>
      </trkpt>
      <trkpt lat="48.47016" lon="-3.79756">
        <ele>218.35656738281</ele>
        <time>2017-05-25T07:22:31Z</time>
      </trkpt>
      <trkpt lat="48.47015" lon="-3.7977">
        <ele>217.39538574219</ele>
        <time>2017-05-25T07:22:40Z</time>
      </trkpt>
      <trkpt lat="48.47014" lon="-3.79774">
        <ele>215.47265625</ele>
        <time>2017-05-25T07:22:43Z</time>
      </trkpt>
      <trkpt lat="48.47012" lon="-3.79779">
        <ele>214.03063964844</ele>
        <time>2017-05-25T07:22:47Z</time>
      </trkpt>
      <trkpt lat="48.47011" lon="-3.79788">
        <ele>213.0693359375</ele>
        <time>2017-05-25T07:22:52Z</time>
      </trkpt>
      <trkpt lat="48.4701" lon="-3.79791">
        <ele>212.58862304688</ele>
        <time>2017-05-25T07:22:54Z</time>
      </trkpt>
      <trkpt lat="48.47007" lon="-3.79804">
        <ele>212.10803222656</ele>
        <time>2017-05-25T07:23:01Z</time>
      </trkpt>
      <trkpt lat="48.47006" lon="-3.79805">
        <ele>212.10803222656</ele>
        <time>2017-05-25T07:23:02Z</time>
      </trkpt>
      <trkpt lat="48.47" lon="-3.7982">
        <ele>214.51123046875</ele>
        <time>2017-05-25T07:23:09Z</time>
      </trkpt>
      <trkpt lat="48.46997" lon="-3.7983">
        <ele>214.03063964844</ele>
        <time>2017-05-25T07:23:15Z</time>
      </trkpt>
      <trkpt lat="48.46994" lon="-3.79844">
        <ele>214.03063964844</ele>
        <time>2017-05-25T07:23:22Z</time>
      </trkpt>
      <trkpt lat="48.46991" lon="-3.79854">
        <ele>212.10803222656</ele>
        <time>2017-05-25T07:23:28Z</time>
      </trkpt>
      <trkpt lat="48.46991" lon="-3.79857">
        <ele>211.62744140625</ele>
        <time>2017-05-25T07:23:30Z</time>
      </trkpt>
      <trkpt lat="48.46985" lon="-3.79871">
        <ele>214.03063964844</ele>
        <time>2017-05-25T07:23:37Z</time>
      </trkpt>
      <trkpt lat="48.46983" lon="-3.79877">
        <ele>213.55004882812</ele>
        <time>2017-05-25T07:23:40Z</time>
      </trkpt>
      <trkpt lat="48.4698" lon="-3.7989">
        <ele>212.10803222656</ele>
        <time>2017-05-25T07:23:48Z</time>
      </trkpt>
      <trkpt lat="48.46979" lon="-3.79903">
        <ele>210.666015625</ele>
        <time>2017-05-25T07:23:56Z</time>
      </trkpt>
      <trkpt lat="48.46979" lon="-3.7991">
        <ele>210.18542480469</ele>
        <time>2017-05-25T07:24:00Z</time>
      </trkpt>
      <trkpt lat="48.46979" lon="-3.79917">
        <ele>210.666015625</ele>
        <time>2017-05-25T07:24:04Z</time>
      </trkpt>
      <trkpt lat="48.46979" lon="-3.79932">
        <ele>208.26281738281</ele>
        <time>2017-05-25T07:24:13Z</time>
      </trkpt>
      <trkpt lat="48.4698" lon="-3.79946">
        <ele>205.85949707031</ele>
        <time>2017-05-25T07:24:21Z</time>
      </trkpt>
      <trkpt lat="48.4698" lon="-3.79948">
        <ele>205.85949707031</ele>
        <time>2017-05-25T07:24:22Z</time>
      </trkpt>
      <trkpt lat="48.4698" lon="-3.79955">
        <ele>206.34008789062</ele>
        <time>2017-05-25T07:24:26Z</time>
      </trkpt>
      <trkpt lat="48.46982" lon="-3.79969">
        <ele>204.89807128906</ele>
        <time>2017-05-25T07:24:34Z</time>
      </trkpt>
      <trkpt lat="48.46985" lon="-3.79982">
        <ele>203.93688964844</ele>
        <time>2017-05-25T07:24:42Z</time>
      </trkpt>
      <trkpt lat="48.4699" lon="-3.79993">
        <ele>203.45617675781</ele>
        <time>2017-05-25T07:24:49Z</time>
      </trkpt>
      <trkpt lat="48.46995" lon="-3.80003">
        <ele>204.41748046875</ele>
        <time>2017-05-25T07:24:55Z</time>
      </trkpt>
      <trkpt lat="48.46997" lon="-3.80008">
        <ele>204.89807128906</ele>
        <time>2017-05-25T07:24:58Z</time>
      </trkpt>
      <trkpt lat="48.47002" lon="-3.80019">
        <ele>206.34008789062</ele>
        <time>2017-05-25T07:25:05Z</time>
      </trkpt>
      <trkpt lat="48.47007" lon="-3.80033">
        <ele>209.70483398438</ele>
        <time>2017-05-25T07:25:13Z</time>
      </trkpt>
      <trkpt lat="48.47012" lon="-3.80039">
        <ele>209.22412109375</ele>
        <time>2017-05-25T07:25:18Z</time>
      </trkpt>
      <trkpt lat="48.47013" lon="-3.80041">
        <ele>209.22412109375</ele>
        <time>2017-05-25T07:25:19Z</time>
      </trkpt>
      <trkpt lat="48.47018" lon="-3.80048">
        <ele>209.70483398438</ele>
        <time>2017-05-25T07:25:25Z</time>
      </trkpt>
      <trkpt lat="48.47019" lon="-3.80051">
        <ele>210.666015625</ele>
        <time>2017-05-25T07:25:27Z</time>
      </trkpt>
      <trkpt lat="48.47025" lon="-3.80057">
        <ele>209.70483398438</ele>
        <time>2017-05-25T07:25:33Z</time>
      </trkpt>
      <trkpt lat="48.4703" lon="-3.80065">
        <ele>210.666015625</ele>
        <time>2017-05-25T07:25:39Z</time>
      </trkpt>
      <trkpt lat="48.47034" lon="-3.80072">
        <ele>211.62744140625</ele>
        <time>2017-05-25T07:25:45Z</time>
      </trkpt>
      <trkpt lat="48.47039" lon="-3.80079">
        <ele>211.14672851562</ele>
        <time>2017-05-25T07:25:51Z</time>
      </trkpt>
      <trkpt lat="48.47045" lon="-3.80087">
        <ele>208.26281738281</ele>
        <time>2017-05-25T07:25:58Z</time>
      </trkpt>
      <trkpt lat="48.47047" lon="-3.80093">
        <ele>209.22412109375</ele>
        <time>2017-05-25T07:26:01Z</time>
      </trkpt>
      <trkpt lat="48.47051" lon="-3.80101">
        <ele>208.74340820312</ele>
        <time>2017-05-25T07:26:07Z</time>
      </trkpt>
      <trkpt lat="48.47054" lon="-3.80106">
        <ele>205.85949707031</ele>
        <time>2017-05-25T07:26:13Z</time>
      </trkpt>
      <trkpt lat="48.47059" lon="-3.80117">
        <ele>201.05285644531</ele>
        <time>2017-05-25T07:26:21Z</time>
      </trkpt>
      <trkpt lat="48.47061" lon="-3.80123">
        <ele>198.64953613281</ele>
        <time>2017-05-25T07:26:25Z</time>
      </trkpt>
      <trkpt lat="48.47064" lon="-3.80127">
        <ele>197.20751953125</ele>
        <time>2017-05-25T07:26:29Z</time>
      </trkpt>
      <trkpt lat="48.47067" lon="-3.8013">
        <ele>195.765625</ele>
        <time>2017-05-25T07:26:32Z</time>
      </trkpt>
      <trkpt lat="48.4707" lon="-3.80134">
        <ele>194.32373046875</ele>
        <time>2017-05-25T07:26:36Z</time>
      </trkpt>
      <trkpt lat="48.47078" lon="-3.80143">
        <ele>195.28491210938</ele>
        <time>2017-05-25T07:26:44Z</time>
      </trkpt>
      <trkpt lat="48.47083" lon="-3.80148">
        <ele>192.40112304688</ele>
        <time>2017-05-25T07:26:51Z</time>
      </trkpt>
      <trkpt lat="48.4709" lon="-3.80152">
        <ele>189.03637695312</ele>
        <time>2017-05-25T07:26:58Z</time>
      </trkpt>
      <trkpt lat="48.47095" lon="-3.80154">
        <ele>189.03637695312</ele>
        <time>2017-05-25T07:27:02Z</time>
      </trkpt>
      <trkpt lat="48.47104" lon="-3.80166">
        <ele>192.88171386719</ele>
        <time>2017-05-25T07:27:09Z</time>
      </trkpt>
      <trkpt lat="48.47109" lon="-3.80175">
        <ele>196.72692871094</ele>
        <time>2017-05-25T07:27:15Z</time>
      </trkpt>
      <trkpt lat="48.47111" lon="-3.80177">
        <ele>197.68823242188</ele>
        <time>2017-05-25T07:27:17Z</time>
      </trkpt>
      <trkpt lat="48.47118" lon="-3.80184">
        <ele>198.1689453125</ele>
        <time>2017-05-25T07:27:24Z</time>
      </trkpt>
      <trkpt lat="48.47125" lon="-3.8019">
        <ele>199.61083984375</ele>
        <time>2017-05-25T07:27:32Z</time>
      </trkpt>
      <trkpt lat="48.47127" lon="-3.80192">
        <ele>199.13012695312</ele>
        <time>2017-05-25T07:27:34Z</time>
      </trkpt>
      <trkpt lat="48.47133" lon="-3.80197">
        <ele>199.13012695312</ele>
        <time>2017-05-25T07:27:39Z</time>
      </trkpt>
      <trkpt lat="48.47135" lon="-3.80199">
        <ele>198.64953613281</ele>
        <time>2017-05-25T07:27:41Z</time>
      </trkpt>
      <trkpt lat="48.47139" lon="-3.80205">
        <ele>198.1689453125</ele>
        <time>2017-05-25T07:27:45Z</time>
      </trkpt>
      <trkpt lat="48.47139" lon="-3.80209">
        <ele>198.1689453125</ele>
        <time>2017-05-25T07:27:47Z</time>
      </trkpt>
      <trkpt lat="48.47139" lon="-3.80218">
        <ele>200.09167480469</ele>
        <time>2017-05-25T07:27:52Z</time>
      </trkpt>
      <trkpt lat="48.47138" lon="-3.80226">
        <ele>200.572265625</ele>
        <time>2017-05-25T07:27:56Z</time>
      </trkpt>
      <trkpt lat="48.47134" lon="-3.80241">
        <ele>202.97546386719</ele>
        <time>2017-05-25T07:28:05Z</time>
      </trkpt>
      <trkpt lat="48.47131" lon="-3.80252">
        <ele>204.89807128906</ele>
        <time>2017-05-25T07:28:11Z</time>
      </trkpt>
      <trkpt lat="48.47128" lon="-3.80259">
        <ele>206.34008789062</ele>
        <time>2017-05-25T07:28:15Z</time>
      </trkpt>
      <trkpt lat="48.47125" lon="-3.80266">
        <ele>206.82067871094</ele>
        <time>2017-05-25T07:28:19Z</time>
      </trkpt>
      <trkpt lat="48.4712" lon="-3.80276">
        <ele>206.34008789062</ele>
        <time>2017-05-25T07:28:26Z</time>
      </trkpt>
      <trkpt lat="48.47119" lon="-3.80291">
        <ele>204.89807128906</ele>
        <time>2017-05-25T07:28:34Z</time>
      </trkpt>
      <trkpt lat="48.47118" lon="-3.80307">
        <ele>206.82067871094</ele>
        <time>2017-05-25T07:28:42Z</time>
      </trkpt>
      <trkpt lat="48.47114" lon="-3.80322">
        <ele>208.26281738281</ele>
        <time>2017-05-25T07:28:51Z</time>
      </trkpt>
      <trkpt lat="48.47115" lon="-3.80325">
        <ele>207.78210449219</ele>
        <time>2017-05-25T07:28:53Z</time>
      </trkpt>
      <trkpt lat="48.47119" lon="-3.80338">
        <ele>206.34008789062</ele>
        <time>2017-05-25T07:29:01Z</time>
      </trkpt>
      <trkpt lat="48.47123" lon="-3.80346">
        <ele>205.85949707031</ele>
        <time>2017-05-25T07:29:07Z</time>
      </trkpt>
      <trkpt lat="48.4713" lon="-3.80357">
        <ele>205.85949707031</ele>
        <time>2017-05-25T07:29:16Z</time>
      </trkpt>
      <trkpt lat="48.47135" lon="-3.80366">
        <ele>205.37878417969</ele>
        <time>2017-05-25T07:29:22Z</time>
      </trkpt>
      <trkpt lat="48.47138" lon="-3.80373">
        <ele>204.41748046875</ele>
        <time>2017-05-25T07:29:27Z</time>
      </trkpt>
      <trkpt lat="48.47144" lon="-3.80381">
        <ele>200.572265625</ele>
        <time>2017-05-25T07:29:34Z</time>
      </trkpt>
      <trkpt lat="48.47145" lon="-3.80384">
        <ele>200.572265625</ele>
        <time>2017-05-25T07:29:36Z</time>
      </trkpt>
      <trkpt lat="48.4715" lon="-3.80394">
        <ele>198.1689453125</ele>
        <time>2017-05-25T07:29:43Z</time>
      </trkpt>
      <trkpt lat="48.47155" lon="-3.80402">
        <ele>197.68823242188</ele>
        <time>2017-05-25T07:29:48Z</time>
      </trkpt>
      <trkpt lat="48.47158" lon="-3.80411">
        <ele>196.72692871094</ele>
        <time>2017-05-25T07:29:54Z</time>
      </trkpt>
      <trkpt lat="48.47161" lon="-3.8042">
        <ele>194.32373046875</ele>
        <time>2017-05-25T07:30:01Z</time>
      </trkpt>
      <trkpt lat="48.47163" lon="-3.80431">
        <ele>191.92028808594</ele>
        <time>2017-05-25T07:30:09Z</time>
      </trkpt>
      <trkpt lat="48.47162" lon="-3.80449">
        <ele>194.80432128906</ele>
        <time>2017-05-25T07:30:17Z</time>
      </trkpt>
      <trkpt lat="48.47163" lon="-3.80454">
        <ele>193.3623046875</ele>
        <time>2017-05-25T07:30:20Z</time>
      </trkpt>
      <trkpt lat="48.47163" lon="-3.8046">
        <ele>191.92028808594</ele>
        <time>2017-05-25T07:30:24Z</time>
      </trkpt>
      <trkpt lat="48.47163" lon="-3.8047">
        <ele>191.43957519531</ele>
        <time>2017-05-25T07:30:30Z</time>
      </trkpt>
      <trkpt lat="48.47161" lon="-3.80484">
        <ele>190.958984375</ele>
        <time>2017-05-25T07:30:39Z</time>
      </trkpt>
      <trkpt lat="48.4716" lon="-3.80493">
        <ele>190.47839355469</ele>
        <time>2017-05-25T07:30:44Z</time>
      </trkpt>
      <trkpt lat="48.47157" lon="-3.80515">
        <ele>204.41748046875</ele>
        <time>2017-05-25T07:30:51Z</time>
      </trkpt>
      <trkpt lat="48.47156" lon="-3.8052">
        <ele>206.34008789062</ele>
        <time>2017-05-25T07:30:54Z</time>
      </trkpt>
      <trkpt lat="48.47155" lon="-3.80533">
        <ele>204.89807128906</ele>
        <time>2017-05-25T07:31:01Z</time>
      </trkpt>
      <trkpt lat="48.47155" lon="-3.80535">
        <ele>204.89807128906</ele>
        <time>2017-05-25T07:31:02Z</time>
      </trkpt>
      <trkpt lat="48.47151" lon="-3.8055">
        <ele>207.78210449219</ele>
        <time>2017-05-25T07:31:10Z</time>
      </trkpt>
      <trkpt lat="48.4715" lon="-3.80553">
        <ele>207.78210449219</ele>
        <time>2017-05-25T07:31:12Z</time>
      </trkpt>
      <trkpt lat="48.47148" lon="-3.80561">
        <ele>208.26281738281</ele>
        <time>2017-05-25T07:31:17Z</time>
      </trkpt>
      <trkpt lat="48.47145" lon="-3.80573">
        <ele>209.70483398438</ele>
        <time>2017-05-25T07:31:25Z</time>
      </trkpt>
      <trkpt lat="48.47144" lon="-3.80584">
        <ele>210.18542480469</ele>
        <time>2017-05-25T07:31:32Z</time>
      </trkpt>
      <trkpt lat="48.47144" lon="-3.80594">
        <ele>210.666015625</ele>
        <time>2017-05-25T07:31:38Z</time>
      </trkpt>
      <trkpt lat="48.47143" lon="-3.80605">
        <ele>210.18542480469</ele>
        <time>2017-05-25T07:31:45Z</time>
      </trkpt>
      <trkpt lat="48.47141" lon="-3.80616">
        <ele>209.22412109375</ele>
        <time>2017-05-25T07:31:52Z</time>
      </trkpt>
      <trkpt lat="48.47141" lon="-3.80629">
        <ele>207.78210449219</ele>
        <time>2017-05-25T07:32:00Z</time>
      </trkpt>
      <trkpt lat="48.47141" lon="-3.80632">
        <ele>207.30139160156</ele>
        <time>2017-05-25T07:32:03Z</time>
      </trkpt>
      <trkpt lat="48.47138" lon="-3.80643">
        <ele>208.74340820312</ele>
        <time>2017-05-25T07:32:09Z</time>
      </trkpt>
      <trkpt lat="48.47135" lon="-3.80651">
        <ele>210.666015625</ele>
        <time>2017-05-25T07:32:14Z</time>
      </trkpt>
      <trkpt lat="48.47132" lon="-3.80658">
        <ele>213.0693359375</ele>
        <time>2017-05-25T07:32:19Z</time>
      </trkpt>
      <trkpt lat="48.4713" lon="-3.80665">
        <ele>214.51123046875</ele>
        <time>2017-05-25T07:32:23Z</time>
      </trkpt>
      <trkpt lat="48.4713" lon="-3.80675">
        <ele>212.58862304688</ele>
        <time>2017-05-25T07:32:30Z</time>
      </trkpt>
      <trkpt lat="48.47133" lon="-3.80683">
        <ele>210.666015625</ele>
        <time>2017-05-25T07:32:37Z</time>
      </trkpt>
      <trkpt lat="48.47138" lon="-3.8069">
        <ele>210.18542480469</ele>
        <time>2017-05-25T07:32:43Z</time>
      </trkpt>
      <trkpt lat="48.47141" lon="-3.80697">
        <ele>211.14672851562</ele>
        <time>2017-05-25T07:32:50Z</time>
      </trkpt>
      <trkpt lat="48.47144" lon="-3.80702">
        <ele>210.666015625</ele>
        <time>2017-05-25T07:32:56Z</time>
      </trkpt>
      <trkpt lat="48.4715" lon="-3.80708">
        <ele>209.70483398438</ele>
        <time>2017-05-25T07:33:03Z</time>
      </trkpt>
      <trkpt lat="48.47155" lon="-3.80716">
        <ele>210.18542480469</ele>
        <time>2017-05-25T07:33:11Z</time>
      </trkpt>
      <trkpt lat="48.47161" lon="-3.80723">
        <ele>212.10803222656</ele>
        <time>2017-05-25T07:33:18Z</time>
      </trkpt>
      <trkpt lat="48.47166" lon="-3.80731">
        <ele>211.14672851562</ele>
        <time>2017-05-25T07:33:25Z</time>
      </trkpt>
      <trkpt lat="48.47174" lon="-3.80741">
        <ele>207.78210449219</ele>
        <time>2017-05-25T07:33:33Z</time>
      </trkpt>
      <trkpt lat="48.47176" lon="-3.80744">
        <ele>206.34008789062</ele>
        <time>2017-05-25T07:33:35Z</time>
      </trkpt>
      <trkpt lat="48.47178" lon="-3.80749">
        <ele>206.82067871094</ele>
        <time>2017-05-25T07:33:38Z</time>
      </trkpt>
      <trkpt lat="48.47182" lon="-3.80755">
        <ele>207.30139160156</ele>
        <time>2017-05-25T07:33:42Z</time>
      </trkpt>
      <trkpt lat="48.47184" lon="-3.80758">
        <ele>207.78210449219</ele>
        <time>2017-05-25T07:33:45Z</time>
      </trkpt>
      <trkpt lat="48.47188" lon="-3.80766">
        <ele>208.74340820312</ele>
        <time>2017-05-25T07:33:51Z</time>
      </trkpt>
      <trkpt lat="48.47193" lon="-3.80774">
        <ele>207.30139160156</ele>
        <time>2017-05-25T07:33:58Z</time>
      </trkpt>
      <trkpt lat="48.47196" lon="-3.8078">
        <ele>207.78210449219</ele>
        <time>2017-05-25T07:34:02Z</time>
      </trkpt>
      <trkpt lat="48.472" lon="-3.80787">
        <ele>209.70483398438</ele>
        <time>2017-05-25T07:34:08Z</time>
      </trkpt>
      <trkpt lat="48.47201" lon="-3.80788">
        <ele>210.18542480469</ele>
        <time>2017-05-25T07:34:09Z</time>
      </trkpt>
      <trkpt lat="48.47205" lon="-3.80796">
        <ele>210.18542480469</ele>
        <time>2017-05-25T07:34:16Z</time>
      </trkpt>
      <trkpt lat="48.47211" lon="-3.80806">
        <ele>211.62744140625</ele>
        <time>2017-05-25T07:34:24Z</time>
      </trkpt>
      <trkpt lat="48.47216" lon="-3.80817">
        <ele>211.14672851562</ele>
        <time>2017-05-25T07:34:31Z</time>
      </trkpt>
      <trkpt lat="48.47218" lon="-3.80826">
        <ele>213.0693359375</ele>
        <time>2017-05-25T07:34:38Z</time>
      </trkpt>
      <trkpt lat="48.47218" lon="-3.80834">
        <ele>214.99194335938</ele>
        <time>2017-05-25T07:34:42Z</time>
      </trkpt>
      <trkpt lat="48.47222" lon="-3.80847">
        <ele>217.8759765625</ele>
        <time>2017-05-25T07:34:49Z</time>
      </trkpt>
      <trkpt lat="48.47225" lon="-3.80857">
        <ele>218.35656738281</ele>
        <time>2017-05-25T07:34:55Z</time>
      </trkpt>
      <trkpt lat="48.47227" lon="-3.8087">
        <ele>218.83728027344</ele>
        <time>2017-05-25T07:35:03Z</time>
      </trkpt>
      <trkpt lat="48.47227" lon="-3.80872">
        <ele>219.31799316406</ele>
        <time>2017-05-25T07:35:04Z</time>
      </trkpt>
      <trkpt lat="48.47227" lon="-3.8088">
        <ele>222.20178222656</ele>
        <time>2017-05-25T07:35:08Z</time>
      </trkpt>
      <trkpt lat="48.47226" lon="-3.80894">
        <ele>225.0859375</ele>
        <time>2017-05-25T07:35:15Z</time>
      </trkpt>
      <trkpt lat="48.47226" lon="-3.80899">
        <ele>225.56652832031</ele>
        <time>2017-05-25T07:35:18Z</time>
      </trkpt>
      <trkpt lat="48.47226" lon="-3.80903">
        <ele>225.0859375</ele>
        <time>2017-05-25T07:35:20Z</time>
      </trkpt>
      <trkpt lat="48.47227" lon="-3.80909">
        <ele>224.60522460938</ele>
        <time>2017-05-25T07:35:24Z</time>
      </trkpt>
      <trkpt lat="48.47227" lon="-3.80913">
        <ele>224.60522460938</ele>
        <time>2017-05-25T07:35:26Z</time>
      </trkpt>
      <trkpt lat="48.47227" lon="-3.8092">
        <ele>223.64379882812</ele>
        <time>2017-05-25T07:35:31Z</time>
      </trkpt>
      <trkpt lat="48.47226" lon="-3.80938">
        <ele>224.12451171875</ele>
        <time>2017-05-25T07:35:41Z</time>
      </trkpt>
      <trkpt lat="48.47225" lon="-3.80952">
        <ele>225.0859375</ele>
        <time>2017-05-25T07:35:48Z</time>
      </trkpt>
      <trkpt lat="48.47225" lon="-3.80961">
        <ele>224.60522460938</ele>
        <time>2017-05-25T07:35:53Z</time>
      </trkpt>
      <trkpt lat="48.47224" lon="-3.80971">
        <ele>223.64379882812</ele>
        <time>2017-05-25T07:35:59Z</time>
      </trkpt>
      <trkpt lat="48.47224" lon="-3.80984">
        <ele>221.24060058594</ele>
        <time>2017-05-25T07:36:06Z</time>
      </trkpt>
      <trkpt lat="48.47224" lon="-3.80992">
        <ele>222.20178222656</ele>
        <time>2017-05-25T07:36:10Z</time>
      </trkpt>
      <trkpt lat="48.47224" lon="-3.81002">
        <ele>221.72119140625</ele>
        <time>2017-05-25T07:36:16Z</time>
      </trkpt>
      <trkpt lat="48.47223" lon="-3.81012">
        <ele>223.16320800781</ele>
        <time>2017-05-25T07:36:22Z</time>
      </trkpt>
      <trkpt lat="48.47226" lon="-3.81021">
        <ele>224.60522460938</ele>
        <time>2017-05-25T07:36:27Z</time>
      </trkpt>
      <trkpt lat="48.47227" lon="-3.81022">
        <ele>224.60522460938</ele>
        <time>2017-05-25T07:36:28Z</time>
      </trkpt>
      <trkpt lat="48.47232" lon="-3.8103">
        <ele>224.60522460938</ele>
        <time>2017-05-25T07:36:35Z</time>
      </trkpt>
      <trkpt lat="48.47235" lon="-3.81035">
        <ele>224.60522460938</ele>
        <time>2017-05-25T07:36:39Z</time>
      </trkpt>
      <trkpt lat="48.47239" lon="-3.81043">
        <ele>222.68249511719</ele>
        <time>2017-05-25T07:36:45Z</time>
      </trkpt>
      <trkpt lat="48.4724" lon="-3.81044">
        <ele>222.20178222656</ele>
        <time>2017-05-25T07:36:46Z</time>
      </trkpt>
      <trkpt lat="48.47248" lon="-3.81049">
        <ele>220.27917480469</ele>
        <time>2017-05-25T07:36:53Z</time>
      </trkpt>
      <trkpt lat="48.47253" lon="-3.81054">
        <ele>218.83728027344</ele>
        <time>2017-05-25T07:36:58Z</time>
      </trkpt>
      <trkpt lat="48.47258" lon="-3.81057">
        <ele>219.31799316406</ele>
        <time>2017-05-25T07:37:04Z</time>
      </trkpt>
      <trkpt lat="48.4726" lon="-3.81059">
        <ele>217.8759765625</ele>
        <time>2017-05-25T07:37:06Z</time>
      </trkpt>
      <trkpt lat="48.47262" lon="-3.81062">
        <ele>216.43395996094</ele>
        <time>2017-05-25T07:37:09Z</time>
      </trkpt>
      <trkpt lat="48.47272" lon="-3.81066">
        <ele>214.03063964844</ele>
        <time>2017-05-25T07:37:17Z</time>
      </trkpt>
      <trkpt lat="48.47274" lon="-3.81066">
        <ele>214.03063964844</ele>
        <time>2017-05-25T07:37:19Z</time>
      </trkpt>
      <trkpt lat="48.4728" lon="-3.81071">
        <ele>213.0693359375</ele>
        <time>2017-05-25T07:37:24Z</time>
      </trkpt>
      <trkpt lat="48.47283" lon="-3.81075">
        <ele>212.58862304688</ele>
        <time>2017-05-25T07:37:28Z</time>
      </trkpt>
      <trkpt lat="48.47284" lon="-3.81078">
        <ele>213.0693359375</ele>
        <time>2017-05-25T07:37:31Z</time>
      </trkpt>
      <trkpt lat="48.47292" lon="-3.81082">
        <ele>212.10803222656</ele>
        <time>2017-05-25T07:37:38Z</time>
      </trkpt>
      <trkpt lat="48.473" lon="-3.81087">
        <ele>212.58862304688</ele>
        <time>2017-05-25T07:37:44Z</time>
      </trkpt>
      <trkpt lat="48.47301" lon="-3.81088">
        <ele>212.58862304688</ele>
        <time>2017-05-25T07:37:45Z</time>
      </trkpt>
      <trkpt lat="48.47304" lon="-3.81091">
        <ele>211.14672851562</ele>
        <time>2017-05-25T07:37:48Z</time>
      </trkpt>
      <trkpt lat="48.47312" lon="-3.81099">
        <ele>208.74340820312</ele>
        <time>2017-05-25T07:37:56Z</time>
      </trkpt>
      <trkpt lat="48.47317" lon="-3.81104">
        <ele>208.26281738281</ele>
        <time>2017-05-25T07:38:02Z</time>
      </trkpt>
      <trkpt lat="48.47321" lon="-3.81106">
        <ele>207.78210449219</ele>
        <time>2017-05-25T07:38:04Z</time>
      </trkpt>
      <trkpt lat="48.47327" lon="-3.81111">
        <ele>206.34008789062</ele>
        <time>2017-05-25T07:38:10Z</time>
      </trkpt>
      <trkpt lat="48.47332" lon="-3.81115">
        <ele>206.82067871094</ele>
        <time>2017-05-25T07:38:15Z</time>
      </trkpt>
      <trkpt lat="48.47333" lon="-3.81115">
        <ele>206.82067871094</ele>
        <time>2017-05-25T07:38:16Z</time>
      </trkpt>
      <trkpt lat="48.47337" lon="-3.81115">
        <ele>206.82067871094</ele>
        <time>2017-05-25T07:38:19Z</time>
      </trkpt>
      <trkpt lat="48.47341" lon="-3.8112">
        <ele>205.37878417969</ele>
        <time>2017-05-25T07:38:24Z</time>
      </trkpt>
      <trkpt lat="48.47343" lon="-3.81122">
        <ele>204.41748046875</ele>
        <time>2017-05-25T07:38:26Z</time>
      </trkpt>
      <trkpt lat="48.47347" lon="-3.81126">
        <ele>202.49487304688</ele>
        <time>2017-05-25T07:38:29Z</time>
      </trkpt>
      <trkpt lat="48.47354" lon="-3.8113">
        <ele>202.49487304688</ele>
        <time>2017-05-25T07:38:34Z</time>
      </trkpt>
      <trkpt lat="48.47358" lon="-3.81134">
        <ele>202.49487304688</ele>
        <time>2017-05-25T07:38:38Z</time>
      </trkpt>
      <trkpt lat="48.4736" lon="-3.8114">
        <ele>201.53356933594</ele>
        <time>2017-05-25T07:38:41Z</time>
      </trkpt>
      <trkpt lat="48.47368" lon="-3.81147">
        <ele>200.572265625</ele>
        <time>2017-05-25T07:38:47Z</time>
      </trkpt>
      <trkpt lat="48.4737" lon="-3.81151">
        <ele>201.05285644531</ele>
        <time>2017-05-25T07:38:50Z</time>
      </trkpt>
      <trkpt lat="48.47372" lon="-3.81154">
        <ele>200.572265625</ele>
        <time>2017-05-25T07:38:52Z</time>
      </trkpt>
      <trkpt lat="48.47371" lon="-3.81165">
        <ele>204.41748046875</ele>
        <time>2017-05-25T07:38:59Z</time>
      </trkpt>
      <trkpt lat="48.4737" lon="-3.81168">
        <ele>204.41748046875</ele>
        <time>2017-05-25T07:39:01Z</time>
      </trkpt>
      <trkpt lat="48.47365" lon="-3.81183">
        <ele>209.70483398438</ele>
        <time>2017-05-25T07:39:08Z</time>
      </trkpt>
      <trkpt lat="48.4736" lon="-3.81197">
        <ele>210.666015625</ele>
        <time>2017-05-25T07:39:15Z</time>
      </trkpt>
      <trkpt lat="48.47356" lon="-3.81218">
        <ele>211.14672851562</ele>
        <time>2017-05-25T07:39:26Z</time>
      </trkpt>
      <trkpt lat="48.47354" lon="-3.81238">
        <ele>210.666015625</ele>
        <time>2017-05-25T07:39:36Z</time>
      </trkpt>
      <trkpt lat="48.47352" lon="-3.81244">
        <ele>210.666015625</ele>
        <time>2017-05-25T07:39:41Z</time>
      </trkpt>
      <trkpt lat="48.47352" lon="-3.81261">
        <ele>210.666015625</ele>
        <time>2017-05-25T07:39:49Z</time>
      </trkpt>
      <trkpt lat="48.47351" lon="-3.81271">
        <ele>210.666015625</ele>
        <time>2017-05-25T07:39:54Z</time>
      </trkpt>
      <trkpt lat="48.47351" lon="-3.81281">
        <ele>210.18542480469</ele>
        <time>2017-05-25T07:39:59Z</time>
      </trkpt>
      <trkpt lat="48.47349" lon="-3.81294">
        <ele>210.18542480469</ele>
        <time>2017-05-25T07:40:06Z</time>
      </trkpt>
      <trkpt lat="48.47349" lon="-3.81295">
        <ele>210.18542480469</ele>
        <time>2017-05-25T07:40:07Z</time>
      </trkpt>
      <trkpt lat="48.47348" lon="-3.81305">
        <ele>209.70483398438</ele>
        <time>2017-05-25T07:40:13Z</time>
      </trkpt>
      <trkpt lat="48.47345" lon="-3.81314">
        <ele>209.70483398438</ele>
        <time>2017-05-25T07:40:18Z</time>
      </trkpt>
      <trkpt lat="48.47342" lon="-3.81324">
        <ele>209.70483398438</ele>
        <time>2017-05-25T07:40:24Z</time>
      </trkpt>
      <trkpt lat="48.47342" lon="-3.81326">
        <ele>209.70483398438</ele>
        <time>2017-05-25T07:40:25Z</time>
      </trkpt>
      <trkpt lat="48.47337" lon="-3.81339">
        <ele>211.62744140625</ele>
        <time>2017-05-25T07:40:32Z</time>
      </trkpt>
      <trkpt lat="48.47335" lon="-3.81346">
        <ele>211.62744140625</ele>
        <time>2017-05-25T07:40:36Z</time>
      </trkpt>
      <trkpt lat="48.4733" lon="-3.81358">
        <ele>212.58862304688</ele>
        <time>2017-05-25T07:40:42Z</time>
      </trkpt>
      <trkpt lat="48.47325" lon="-3.81367">
        <ele>211.62744140625</ele>
        <time>2017-05-25T07:40:48Z</time>
      </trkpt>
      <trkpt lat="48.47315" lon="-3.81369">
        <ele>211.14672851562</ele>
        <time>2017-05-25T07:40:56Z</time>
      </trkpt>
      <trkpt lat="48.47307" lon="-3.81362">
        <ele>210.666015625</ele>
        <time>2017-05-25T07:41:03Z</time>
      </trkpt>
      <trkpt lat="48.47301" lon="-3.81355">
        <ele>210.666015625</ele>
        <time>2017-05-25T07:41:10Z</time>
      </trkpt>
      <trkpt lat="48.47297" lon="-3.81351">
        <ele>210.666015625</ele>
        <time>2017-05-25T07:41:14Z</time>
      </trkpt>
      <trkpt lat="48.47292" lon="-3.81346">
        <ele>210.18542480469</ele>
        <time>2017-05-25T07:41:20Z</time>
      </trkpt>
      <trkpt lat="48.47283" lon="-3.81342">
        <ele>209.70483398438</ele>
        <time>2017-05-25T07:41:27Z</time>
      </trkpt>
      <trkpt lat="48.47274" lon="-3.81341">
        <ele>210.666015625</ele>
        <time>2017-05-25T07:41:34Z</time>
      </trkpt>
      <trkpt lat="48.47264" lon="-3.81339">
        <ele>211.14672851562</ele>
        <time>2017-05-25T07:41:43Z</time>
      </trkpt>
      <trkpt lat="48.47263" lon="-3.81338">
        <ele>211.14672851562</ele>
        <time>2017-05-25T07:41:44Z</time>
      </trkpt>
      <trkpt lat="48.4726" lon="-3.81338">
        <ele>210.666015625</ele>
        <time>2017-05-25T07:41:48Z</time>
      </trkpt>
      <trkpt lat="48.47257" lon="-3.81337">
        <ele>210.666015625</ele>
        <time>2017-05-25T07:41:50Z</time>
      </trkpt>
      <trkpt lat="48.47255" lon="-3.81336">
        <ele>210.18542480469</ele>
        <time>2017-05-25T07:41:52Z</time>
      </trkpt>
      <trkpt lat="48.4725" lon="-3.81335">
        <ele>210.18542480469</ele>
        <time>2017-05-25T07:41:56Z</time>
      </trkpt>
      <trkpt lat="48.47243" lon="-3.81332">
        <ele>210.666015625</ele>
        <time>2017-05-25T07:42:03Z</time>
      </trkpt>
      <trkpt lat="48.4724" lon="-3.81332">
        <ele>210.666015625</ele>
        <time>2017-05-25T07:42:05Z</time>
      </trkpt>
      <trkpt lat="48.47231" lon="-3.81329">
        <ele>211.62744140625</ele>
        <time>2017-05-25T07:42:12Z</time>
      </trkpt>
      <trkpt lat="48.47225" lon="-3.81328">
        <ele>211.14672851562</ele>
        <time>2017-05-25T07:42:18Z</time>
      </trkpt>
      <trkpt lat="48.47219" lon="-3.81326">
        <ele>211.14672851562</ele>
        <time>2017-05-25T07:42:22Z</time>
      </trkpt>
      <trkpt lat="48.47212" lon="-3.81322">
        <ele>211.14672851562</ele>
        <time>2017-05-25T07:42:29Z</time>
      </trkpt>
      <trkpt lat="48.47203" lon="-3.81321">
        <ele>211.62744140625</ele>
        <time>2017-05-25T07:42:36Z</time>
      </trkpt>
      <trkpt lat="48.47199" lon="-3.81321">
        <ele>211.62744140625</ele>
        <time>2017-05-25T07:42:39Z</time>
      </trkpt>
      <trkpt lat="48.47192" lon="-3.81319">
        <ele>211.14672851562</ele>
        <time>2017-05-25T07:42:44Z</time>
      </trkpt>
      <trkpt lat="48.47187" lon="-3.81319">
        <ele>210.18542480469</ele>
        <time>2017-05-25T07:42:49Z</time>
      </trkpt>
      <trkpt lat="48.47184" lon="-3.81324">
        <ele>210.666015625</ele>
        <time>2017-05-25T07:42:53Z</time>
      </trkpt>
      <trkpt lat="48.47181" lon="-3.81324">
        <ele>210.666015625</ele>
        <time>2017-05-25T07:42:55Z</time>
      </trkpt>
      <trkpt lat="48.47176" lon="-3.81323">
        <ele>212.58862304688</ele>
        <time>2017-05-25T07:42:59Z</time>
      </trkpt>
      <trkpt lat="48.47168" lon="-3.81325">
        <ele>213.0693359375</ele>
        <time>2017-05-25T07:43:05Z</time>
      </trkpt>
      <trkpt lat="48.47163" lon="-3.81328">
        <ele>212.58862304688</ele>
        <time>2017-05-25T07:43:10Z</time>
      </trkpt>
      <trkpt lat="48.4716" lon="-3.8133">
        <ele>213.0693359375</ele>
        <time>2017-05-25T07:43:13Z</time>
      </trkpt>
      <trkpt lat="48.47158" lon="-3.8133">
        <ele>213.0693359375</ele>
        <time>2017-05-25T07:43:14Z</time>
      </trkpt>
      <trkpt lat="48.47147" lon="-3.81331">
        <ele>214.99194335938</ele>
        <time>2017-05-25T07:43:23Z</time>
      </trkpt>
      <trkpt lat="48.47138" lon="-3.81334">
        <ele>215.95324707031</ele>
        <time>2017-05-25T07:43:31Z</time>
      </trkpt>
      <trkpt lat="48.47131" lon="-3.81336">
        <ele>217.39538574219</ele>
        <time>2017-05-25T07:43:38Z</time>
      </trkpt>
      <trkpt lat="48.47123" lon="-3.8134">
        <ele>217.39538574219</ele>
        <time>2017-05-25T07:43:45Z</time>
      </trkpt>
      <trkpt lat="48.47118" lon="-3.81342">
        <ele>216.91467285156</ele>
        <time>2017-05-25T07:43:49Z</time>
      </trkpt>
      <trkpt lat="48.47111" lon="-3.81343">
        <ele>216.91467285156</ele>
        <time>2017-05-25T07:43:55Z</time>
      </trkpt>
      <trkpt lat="48.47106" lon="-3.81345">
        <ele>216.43395996094</ele>
        <time>2017-05-25T07:43:59Z</time>
      </trkpt>
      <trkpt lat="48.471" lon="-3.8135">
        <ele>216.91467285156</ele>
        <time>2017-05-25T07:44:04Z</time>
      </trkpt>
      <trkpt lat="48.47097" lon="-3.81351">
        <ele>217.39538574219</ele>
        <time>2017-05-25T07:44:07Z</time>
      </trkpt>
      <trkpt lat="48.47096" lon="-3.81353">
        <ele>217.8759765625</ele>
        <time>2017-05-25T07:44:09Z</time>
      </trkpt>
      <trkpt lat="48.47087" lon="-3.81356">
        <ele>217.39538574219</ele>
        <time>2017-05-25T07:44:16Z</time>
      </trkpt>
      <trkpt lat="48.4708" lon="-3.81357">
        <ele>216.43395996094</ele>
        <time>2017-05-25T07:44:23Z</time>
      </trkpt>
      <trkpt lat="48.47076" lon="-3.81362">
        <ele>216.91467285156</ele>
        <time>2017-05-25T07:44:27Z</time>
      </trkpt>
      <trkpt lat="48.4707" lon="-3.81366">
        <ele>217.39538574219</ele>
        <time>2017-05-25T07:44:32Z</time>
      </trkpt>
      <trkpt lat="48.47065" lon="-3.81375">
        <ele>217.8759765625</ele>
        <time>2017-05-25T07:44:38Z</time>
      </trkpt>
      <trkpt lat="48.47061" lon="-3.81382">
        <ele>217.8759765625</ele>
        <time>2017-05-25T07:44:44Z</time>
      </trkpt>
      <trkpt lat="48.47057" lon="-3.81392">
        <ele>217.39538574219</ele>
        <time>2017-05-25T07:44:51Z</time>
      </trkpt>
      <trkpt lat="48.47053" lon="-3.81399">
        <ele>217.39538574219</ele>
        <time>2017-05-25T07:44:55Z</time>
      </trkpt>
      <trkpt lat="48.47048" lon="-3.81409">
        <ele>218.35656738281</ele>
        <time>2017-05-25T07:45:03Z</time>
      </trkpt>
      <trkpt lat="48.47044" lon="-3.81416">
        <ele>218.35656738281</ele>
        <time>2017-05-25T07:45:10Z</time>
      </trkpt>
      <trkpt lat="48.47038" lon="-3.81422">
        <ele>216.91467285156</ele>
        <time>2017-05-25T07:45:18Z</time>
      </trkpt>
      <trkpt lat="48.47031" lon="-3.8143">
        <ele>217.8759765625</ele>
        <time>2017-05-25T07:45:26Z</time>
      </trkpt>
      <trkpt lat="48.47024" lon="-3.81437">
        <ele>218.83728027344</ele>
        <time>2017-05-25T07:45:34Z</time>
      </trkpt>
      <trkpt lat="48.47015" lon="-3.81445">
        <ele>220.75988769531</ele>
        <time>2017-05-25T07:45:42Z</time>
      </trkpt>
      <trkpt lat="48.47011" lon="-3.81447">
        <ele>221.72119140625</ele>
        <time>2017-05-25T07:45:45Z</time>
      </trkpt>
      <trkpt lat="48.47009" lon="-3.81454">
        <ele>221.24060058594</ele>
        <time>2017-05-25T07:45:49Z</time>
      </trkpt>
      <trkpt lat="48.47005" lon="-3.8146">
        <ele>220.75988769531</ele>
        <time>2017-05-25T07:45:54Z</time>
      </trkpt>
      <trkpt lat="48.46999" lon="-3.81467">
        <ele>221.72119140625</ele>
        <time>2017-05-25T07:46:00Z</time>
      </trkpt>
      <trkpt lat="48.46998" lon="-3.81468">
        <ele>222.68249511719</ele>
        <time>2017-05-25T07:46:01Z</time>
      </trkpt>
      <trkpt lat="48.46992" lon="-3.81471">
        <ele>224.60522460938</ele>
        <time>2017-05-25T07:46:07Z</time>
      </trkpt>
      <trkpt lat="48.46981" lon="-3.81473">
        <ele>224.12451171875</ele>
        <time>2017-05-25T07:46:15Z</time>
      </trkpt>
      <trkpt lat="48.46971" lon="-3.81473">
        <ele>223.64379882812</ele>
        <time>2017-05-25T07:46:23Z</time>
      </trkpt>
      <trkpt lat="48.46968" lon="-3.81473">
        <ele>223.64379882812</ele>
        <time>2017-05-25T07:46:25Z</time>
      </trkpt>
      <trkpt lat="48.4696" lon="-3.81474">
        <ele>223.64379882812</ele>
        <time>2017-05-25T07:46:32Z</time>
      </trkpt>
      <trkpt lat="48.46953" lon="-3.81473">
        <ele>224.12451171875</ele>
        <time>2017-05-25T07:46:37Z</time>
      </trkpt>
      <trkpt lat="48.46946" lon="-3.81472">
        <ele>224.12451171875</ele>
        <time>2017-05-25T07:46:43Z</time>
      </trkpt>
      <trkpt lat="48.46939" lon="-3.8147">
        <ele>223.64379882812</ele>
        <time>2017-05-25T07:46:49Z</time>
      </trkpt>
      <trkpt lat="48.46935" lon="-3.81467">
        <ele>223.64379882812</ele>
        <time>2017-05-25T07:46:54Z</time>
      </trkpt>
      <trkpt lat="48.46927" lon="-3.81463">
        <ele>223.64379882812</ele>
        <time>2017-05-25T07:47:00Z</time>
      </trkpt>
      <trkpt lat="48.46926" lon="-3.81463">
        <ele>223.16320800781</ele>
        <time>2017-05-25T07:47:01Z</time>
      </trkpt>
      <trkpt lat="48.4692" lon="-3.8146">
        <ele>221.24060058594</ele>
        <time>2017-05-25T07:47:07Z</time>
      </trkpt>
      <trkpt lat="48.46912" lon="-3.81457">
        <ele>220.27917480469</ele>
        <time>2017-05-25T07:47:15Z</time>
      </trkpt>
      <trkpt lat="48.46908" lon="-3.81455">
        <ele>219.31799316406</ele>
        <time>2017-05-25T07:47:19Z</time>
      </trkpt>
      <trkpt lat="48.46899" lon="-3.81451">
        <ele>219.79858398438</ele>
        <time>2017-05-25T07:47:26Z</time>
      </trkpt>
      <trkpt lat="48.46892" lon="-3.81447">
        <ele>219.31799316406</ele>
        <time>2017-05-25T07:47:33Z</time>
      </trkpt>
      <trkpt lat="48.46885" lon="-3.81445">
        <ele>219.31799316406</ele>
        <time>2017-05-25T07:47:39Z</time>
      </trkpt>
      <trkpt lat="48.46878" lon="-3.81444">
        <ele>220.27917480469</ele>
        <time>2017-05-25T07:47:45Z</time>
      </trkpt>
      <trkpt lat="48.4687" lon="-3.81438">
        <ele>222.20178222656</ele>
        <time>2017-05-25T07:47:52Z</time>
      </trkpt>
      <trkpt lat="48.46863" lon="-3.81436">
        <ele>222.20178222656</ele>
        <time>2017-05-25T07:47:58Z</time>
      </trkpt>
      <trkpt lat="48.46856" lon="-3.81434">
        <ele>222.68249511719</ele>
        <time>2017-05-25T07:48:04Z</time>
      </trkpt>
      <trkpt lat="48.46847" lon="-3.81428">
        <ele>224.12451171875</ele>
        <time>2017-05-25T07:48:11Z</time>
      </trkpt>
      <trkpt lat="48.4684" lon="-3.81423">
        <ele>222.68249511719</ele>
        <time>2017-05-25T07:48:17Z</time>
      </trkpt>
      <trkpt lat="48.46837" lon="-3.81422">
        <ele>222.68249511719</ele>
        <time>2017-05-25T07:48:19Z</time>
      </trkpt>
      <trkpt lat="48.46831" lon="-3.81417">
        <ele>223.16320800781</ele>
        <time>2017-05-25T07:48:25Z</time>
      </trkpt>
      <trkpt lat="48.46829" lon="-3.81416">
        <ele>222.68249511719</ele>
        <time>2017-05-25T07:48:27Z</time>
      </trkpt>
      <trkpt lat="48.4682" lon="-3.81413">
        <ele>223.16320800781</ele>
        <time>2017-05-25T07:48:34Z</time>
      </trkpt>
      <trkpt lat="48.46814" lon="-3.81409">
        <ele>223.64379882812</ele>
        <time>2017-05-25T07:48:39Z</time>
      </trkpt>
      <trkpt lat="48.46811" lon="-3.81408">
        <ele>223.16320800781</ele>
        <time>2017-05-25T07:48:41Z</time>
      </trkpt>
      <trkpt lat="48.46804" lon="-3.81403">
        <ele>223.64379882812</ele>
        <time>2017-05-25T07:48:47Z</time>
      </trkpt>
      <trkpt lat="48.46795" lon="-3.81397">
        <ele>224.60522460938</ele>
        <time>2017-05-25T07:48:53Z</time>
      </trkpt>
      <trkpt lat="48.46792" lon="-3.81395">
        <ele>224.60522460938</ele>
        <time>2017-05-25T07:48:55Z</time>
      </trkpt>
      <trkpt lat="48.46784" lon="-3.8139">
        <ele>223.64379882812</ele>
        <time>2017-05-25T07:49:02Z</time>
      </trkpt>
      <trkpt lat="48.46779" lon="-3.81389">
        <ele>223.16320800781</ele>
        <time>2017-05-25T07:49:06Z</time>
      </trkpt>
      <trkpt lat="48.46771" lon="-3.81383">
        <ele>222.68249511719</ele>
        <time>2017-05-25T07:49:14Z</time>
      </trkpt>
      <trkpt lat="48.46768" lon="-3.81381">
        <ele>222.68249511719</ele>
        <time>2017-05-25T07:49:16Z</time>
      </trkpt>
      <trkpt lat="48.46758" lon="-3.81377">
        <ele>225.0859375</ele>
        <time>2017-05-25T07:49:24Z</time>
      </trkpt>
      <trkpt lat="48.46751" lon="-3.81373">
        <ele>226.04711914062</ele>
        <time>2017-05-25T07:49:31Z</time>
      </trkpt>
      <trkpt lat="48.46743" lon="-3.81368">
        <ele>224.12451171875</ele>
        <time>2017-05-25T07:49:38Z</time>
      </trkpt>
      <trkpt lat="48.46738" lon="-3.81364">
        <ele>224.12451171875</ele>
        <time>2017-05-25T07:49:42Z</time>
      </trkpt>
      <trkpt lat="48.46734" lon="-3.81362">
        <ele>223.64379882812</ele>
        <time>2017-05-25T07:49:47Z</time>
      </trkpt>
      <trkpt lat="48.46725" lon="-3.81359">
        <ele>220.75988769531</ele>
        <time>2017-05-25T07:49:55Z</time>
      </trkpt>
      <trkpt lat="48.46717" lon="-3.81353">
        <ele>220.27917480469</ele>
        <time>2017-05-25T07:50:02Z</time>
      </trkpt>
      <trkpt lat="48.46708" lon="-3.81349">
        <ele>219.79858398438</ele>
        <time>2017-05-25T07:50:09Z</time>
      </trkpt>
      <trkpt lat="48.46701" lon="-3.81347">
        <ele>218.83728027344</ele>
        <time>2017-05-25T07:50:16Z</time>
      </trkpt>
      <trkpt lat="48.46695" lon="-3.81343">
        <ele>221.24060058594</ele>
        <time>2017-05-25T07:50:19Z</time>
      </trkpt>
      <trkpt lat="48.46689" lon="-3.81342">
        <ele>221.24060058594</ele>
        <time>2017-05-25T07:50:25Z</time>
      </trkpt>
      <trkpt lat="48.46683" lon="-3.8134">
        <ele>222.68249511719</ele>
        <time>2017-05-25T07:50:29Z</time>
      </trkpt>
      <trkpt lat="48.46677" lon="-3.81336">
        <ele>222.68249511719</ele>
        <time>2017-05-25T07:50:34Z</time>
      </trkpt>
      <trkpt lat="48.46673" lon="-3.81335">
        <ele>222.20178222656</ele>
        <time>2017-05-25T07:50:38Z</time>
      </trkpt>
      <trkpt lat="48.46664" lon="-3.8133">
        <ele>223.16320800781</ele>
        <time>2017-05-25T07:50:45Z</time>
      </trkpt>
      <trkpt lat="48.46659" lon="-3.81327">
        <ele>221.72119140625</ele>
        <time>2017-05-25T07:50:49Z</time>
      </trkpt>
      <trkpt lat="48.46656" lon="-3.81323">
        <ele>222.20178222656</ele>
        <time>2017-05-25T07:50:52Z</time>
      </trkpt>
      <trkpt lat="48.46651" lon="-3.8132">
        <ele>222.68249511719</ele>
        <time>2017-05-25T07:50:56Z</time>
      </trkpt>
      <trkpt lat="48.46644" lon="-3.81316">
        <ele>222.68249511719</ele>
        <time>2017-05-25T07:51:03Z</time>
      </trkpt>
      <trkpt lat="48.46638" lon="-3.81312">
        <ele>220.75988769531</ele>
        <time>2017-05-25T07:51:09Z</time>
      </trkpt>
      <trkpt lat="48.4663" lon="-3.81306">
        <ele>221.72119140625</ele>
        <time>2017-05-25T07:51:15Z</time>
      </trkpt>
      <trkpt lat="48.46624" lon="-3.81301">
        <ele>222.68249511719</ele>
        <time>2017-05-25T07:51:21Z</time>
      </trkpt>
      <trkpt lat="48.46618" lon="-3.81296">
        <ele>221.24060058594</ele>
        <time>2017-05-25T07:51:26Z</time>
      </trkpt>
      <trkpt lat="48.46617" lon="-3.81296">
        <ele>220.75988769531</ele>
        <time>2017-05-25T07:51:27Z</time>
      </trkpt>
      <trkpt lat="48.4661" lon="-3.81286">
        <ele>218.35656738281</ele>
        <time>2017-05-25T07:51:35Z</time>
      </trkpt>
      <trkpt lat="48.46608" lon="-3.81284">
        <ele>218.83728027344</ele>
        <time>2017-05-25T07:51:37Z</time>
      </trkpt>
      <trkpt lat="48.46603" lon="-3.81277">
        <ele>219.31799316406</ele>
        <time>2017-05-25T07:51:42Z</time>
      </trkpt>
      <trkpt lat="48.46599" lon="-3.81268">
        <ele>217.8759765625</ele>
        <time>2017-05-25T07:51:49Z</time>
      </trkpt>
      <trkpt lat="48.46598" lon="-3.81268">
        <ele>217.39538574219</ele>
        <time>2017-05-25T07:51:50Z</time>
      </trkpt>
      <trkpt lat="48.46592" lon="-3.81261">
        <ele>219.31799316406</ele>
        <time>2017-05-25T07:51:56Z</time>
      </trkpt>
      <trkpt lat="48.46591" lon="-3.8126">
        <ele>219.31799316406</ele>
        <time>2017-05-25T07:51:57Z</time>
      </trkpt>
      <trkpt lat="48.46587" lon="-3.81258">
        <ele>218.83728027344</ele>
        <time>2017-05-25T07:52:01Z</time>
      </trkpt>
      <trkpt lat="48.46585" lon="-3.81256">
        <ele>219.31799316406</ele>
        <time>2017-05-25T07:52:03Z</time>
      </trkpt>
      <trkpt lat="48.46578" lon="-3.81251">
        <ele>216.43395996094</ele>
        <time>2017-05-25T07:52:10Z</time>
      </trkpt>
      <trkpt lat="48.4657" lon="-3.81242">
        <ele>217.39538574219</ele>
        <time>2017-05-25T07:52:15Z</time>
      </trkpt>
      <trkpt lat="48.46569" lon="-3.81241">
        <ele>217.8759765625</ele>
        <time>2017-05-25T07:52:16Z</time>
      </trkpt>
      <trkpt lat="48.46565" lon="-3.81239">
        <ele>218.35656738281</ele>
        <time>2017-05-25T07:52:21Z</time>
      </trkpt>
      <trkpt lat="48.46559" lon="-3.81234">
        <ele>214.51123046875</ele>
        <time>2017-05-25T07:52:27Z</time>
      </trkpt>
      <trkpt lat="48.46555" lon="-3.81232">
        <ele>212.58862304688</ele>
        <time>2017-05-25T07:52:33Z</time>
      </trkpt>
      <trkpt lat="48.46551" lon="-3.81231">
        <ele>213.0693359375</ele>
        <time>2017-05-25T07:52:41Z</time>
      </trkpt>
      <trkpt lat="48.46546" lon="-3.81229">
        <ele>213.55004882812</ele>
        <time>2017-05-25T07:52:47Z</time>
      </trkpt>
      <trkpt lat="48.46544" lon="-3.81227">
        <ele>214.03063964844</ele>
        <time>2017-05-25T07:52:49Z</time>
      </trkpt>
      <trkpt lat="48.46541" lon="-3.81224">
        <ele>211.62744140625</ele>
        <time>2017-05-25T07:52:55Z</time>
      </trkpt>
      <trkpt lat="48.46539" lon="-3.81222">
        <ele>210.18542480469</ele>
        <time>2017-05-25T07:53:00Z</time>
      </trkpt>
      <trkpt lat="48.46535" lon="-3.81222">
        <ele>207.78210449219</ele>
        <time>2017-05-25T07:53:05Z</time>
      </trkpt>
      <trkpt lat="48.46531" lon="-3.81219">
        <ele>206.34008789062</ele>
        <time>2017-05-25T07:53:10Z</time>
      </trkpt>
      <trkpt lat="48.46527" lon="-3.81216">
        <ele>206.82067871094</ele>
        <time>2017-05-25T07:53:13Z</time>
      </trkpt>
      <trkpt lat="48.46526" lon="-3.81215">
        <ele>207.30139160156</ele>
        <time>2017-05-25T07:53:15Z</time>
      </trkpt>
      <trkpt lat="48.46522" lon="-3.8121">
        <ele>205.85949707031</ele>
        <time>2017-05-25T07:53:21Z</time>
      </trkpt>
      <trkpt lat="48.46518" lon="-3.81205">
        <ele>205.85949707031</ele>
        <time>2017-05-25T07:53:27Z</time>
      </trkpt>
      <trkpt lat="48.46515" lon="-3.812">
        <ele>206.82067871094</ele>
        <time>2017-05-25T07:53:34Z</time>
      </trkpt>
      <trkpt lat="48.46514" lon="-3.812">
        <ele>206.82067871094</ele>
        <time>2017-05-25T07:53:35Z</time>
      </trkpt>
      <trkpt lat="48.4651" lon="-3.81197">
        <ele>206.34008789062</ele>
        <time>2017-05-25T07:53:38Z</time>
      </trkpt>
      <trkpt lat="48.46506" lon="-3.81192">
        <ele>203.45617675781</ele>
        <time>2017-05-25T07:53:43Z</time>
      </trkpt>
      <trkpt lat="48.46501" lon="-3.81189">
        <ele>201.53356933594</ele>
        <time>2017-05-25T07:53:50Z</time>
      </trkpt>
      <trkpt lat="48.46495" lon="-3.81185">
        <ele>200.09167480469</ele>
        <time>2017-05-25T07:53:57Z</time>
      </trkpt>
      <trkpt lat="48.46494" lon="-3.81183">
        <ele>200.09167480469</ele>
        <time>2017-05-25T07:53:59Z</time>
      </trkpt>
      <trkpt lat="48.4649" lon="-3.81182">
        <ele>200.09167480469</ele>
        <time>2017-05-25T07:54:05Z</time>
      </trkpt>
      <trkpt lat="48.46487" lon="-3.81182">
        <ele>201.53356933594</ele>
        <time>2017-05-25T07:54:10Z</time>
      </trkpt>
      <trkpt lat="48.46482" lon="-3.81188">
        <ele>200.572265625</ele>
        <time>2017-05-25T07:54:15Z</time>
      </trkpt>
      <trkpt lat="48.46478" lon="-3.8119">
        <ele>199.13012695312</ele>
        <time>2017-05-25T07:54:20Z</time>
      </trkpt>
      <trkpt lat="48.46475" lon="-3.81194">
        <ele>197.20751953125</ele>
        <time>2017-05-25T07:54:25Z</time>
      </trkpt>
      <trkpt lat="48.4647" lon="-3.812">
        <ele>198.1689453125</ele>
        <time>2017-05-25T07:54:30Z</time>
      </trkpt>
      <trkpt lat="48.46468" lon="-3.81202">
        <ele>199.13012695312</ele>
        <time>2017-05-25T07:54:32Z</time>
      </trkpt>
      <trkpt lat="48.46465" lon="-3.8121">
        <ele>200.572265625</ele>
        <time>2017-05-25T07:54:38Z</time>
      </trkpt>
      <trkpt lat="48.46462" lon="-3.81209">
        <ele>200.572265625</ele>
        <time>2017-05-25T07:54:44Z</time>
      </trkpt>
      <trkpt lat="48.4646" lon="-3.81211">
        <ele>199.61083984375</ele>
        <time>2017-05-25T07:54:46Z</time>
      </trkpt>
      <trkpt lat="48.46456" lon="-3.81215">
        <ele>198.64953613281</ele>
        <time>2017-05-25T07:54:51Z</time>
      </trkpt>
      <trkpt lat="48.46452" lon="-3.81216">
        <ele>197.68823242188</ele>
        <time>2017-05-25T07:54:57Z</time>
      </trkpt>
      <trkpt lat="48.46448" lon="-3.81221">
        <ele>198.64953613281</ele>
        <time>2017-05-25T07:55:04Z</time>
      </trkpt>
      <trkpt lat="48.46443" lon="-3.81223">
        <ele>199.61083984375</ele>
        <time>2017-05-25T07:55:09Z</time>
      </trkpt>
      <trkpt lat="48.46433" lon="-3.81225">
        <ele>192.40112304688</ele>
        <time>2017-05-25T07:55:16Z</time>
      </trkpt>
      <trkpt lat="48.46432" lon="-3.81225">
        <ele>191.43957519531</ele>
        <time>2017-05-25T07:55:17Z</time>
      </trkpt>
      <trkpt lat="48.46425" lon="-3.81226">
        <ele>188.55578613281</ele>
        <time>2017-05-25T07:55:24Z</time>
      </trkpt>
      <trkpt lat="48.46422" lon="-3.81226">
        <ele>186.63317871094</ele>
        <time>2017-05-25T07:55:28Z</time>
      </trkpt>
      <trkpt lat="48.46417" lon="-3.81226">
        <ele>187.59436035156</ele>
        <time>2017-05-25T07:55:33Z</time>
      </trkpt>
      <trkpt lat="48.46412" lon="-3.81227">
        <ele>188.55578613281</ele>
        <time>2017-05-25T07:55:36Z</time>
      </trkpt>
      <trkpt lat="48.46404" lon="-3.81228">
        <ele>186.15246582031</ele>
        <time>2017-05-25T07:55:41Z</time>
      </trkpt>
      <trkpt lat="48.46399" lon="-3.81227">
        <ele>185.67175292969</ele>
        <time>2017-05-25T07:55:46Z</time>
      </trkpt>
      <trkpt lat="48.46395" lon="-3.81223">
        <ele>184.22985839844</ele>
        <time>2017-05-25T07:55:50Z</time>
      </trkpt>
      <trkpt lat="48.46382" lon="-3.81221">
        <ele>189.99768066406</ele>
        <time>2017-05-25T07:55:58Z</time>
      </trkpt>
      <trkpt lat="48.46381" lon="-3.81222">
        <ele>189.99768066406</ele>
        <time>2017-05-25T07:55:59Z</time>
      </trkpt>
      <trkpt lat="48.46375" lon="-3.81222">
        <ele>188.55578613281</ele>
        <time>2017-05-25T07:56:03Z</time>
      </trkpt>
      <trkpt lat="48.46365" lon="-3.81221">
        <ele>188.07507324219</ele>
        <time>2017-05-25T07:56:10Z</time>
      </trkpt>
      <trkpt lat="48.46361" lon="-3.81219">
        <ele>187.59436035156</ele>
        <time>2017-05-25T07:56:14Z</time>
      </trkpt>
      <trkpt lat="48.46359" lon="-3.81218">
        <ele>187.59436035156</ele>
        <time>2017-05-25T07:56:16Z</time>
      </trkpt>
      <trkpt lat="48.46354" lon="-3.81213">
        <ele>187.11376953125</ele>
        <time>2017-05-25T07:56:22Z</time>
      </trkpt>
      <trkpt lat="48.46351" lon="-3.81213">
        <ele>186.63317871094</ele>
        <time>2017-05-25T07:56:24Z</time>
      </trkpt>
      <trkpt lat="48.46346" lon="-3.81219">
        <ele>186.15246582031</ele>
        <time>2017-05-25T07:56:30Z</time>
      </trkpt>
      <trkpt lat="48.46342" lon="-3.81226">
        <ele>187.11376953125</ele>
        <time>2017-05-25T07:56:37Z</time>
      </trkpt>
      <trkpt lat="48.4634" lon="-3.81235">
        <ele>187.11376953125</ele>
        <time>2017-05-25T07:56:43Z</time>
      </trkpt>
      <trkpt lat="48.46336" lon="-3.81245">
        <ele>187.59436035156</ele>
        <time>2017-05-25T07:56:49Z</time>
      </trkpt>
      <trkpt lat="48.46335" lon="-3.81248">
        <ele>188.07507324219</ele>
        <time>2017-05-25T07:56:51Z</time>
      </trkpt>
      <trkpt lat="48.46331" lon="-3.81259">
        <ele>188.55578613281</ele>
        <time>2017-05-25T07:56:57Z</time>
      </trkpt>
      <trkpt lat="48.4633" lon="-3.81261">
        <ele>188.55578613281</ele>
        <time>2017-05-25T07:57:03Z</time>
      </trkpt>
      <trkpt lat="48.46329" lon="-3.81261">
        <ele>189.51696777344</ele>
        <time>2017-05-25T07:57:09Z</time>
      </trkpt>
      <trkpt lat="48.46326" lon="-3.81264">
        <ele>188.55578613281</ele>
        <time>2017-05-25T07:57:12Z</time>
      </trkpt>
      <trkpt lat="48.4632" lon="-3.81272">
        <ele>187.59436035156</ele>
        <time>2017-05-25T07:57:20Z</time>
      </trkpt>
      <trkpt lat="48.4631" lon="-3.81282">
        <ele>186.63317871094</ele>
        <time>2017-05-25T07:57:30Z</time>
      </trkpt>
      <trkpt lat="48.46301" lon="-3.81289">
        <ele>186.15246582031</ele>
        <time>2017-05-25T07:57:38Z</time>
      </trkpt>
      <trkpt lat="48.46297" lon="-3.81289">
        <ele>185.67175292969</ele>
        <time>2017-05-25T07:57:41Z</time>
      </trkpt>
      <trkpt lat="48.46291" lon="-3.81292">
        <ele>184.71057128906</ele>
        <time>2017-05-25T07:57:47Z</time>
      </trkpt>
      <trkpt lat="48.46285" lon="-3.81298">
        <ele>182.78784179688</ele>
        <time>2017-05-25T07:57:53Z</time>
      </trkpt>
      <trkpt lat="48.46282" lon="-3.81303">
        <ele>183.26843261719</ele>
        <time>2017-05-25T07:57:57Z</time>
      </trkpt>
      <trkpt lat="48.46281" lon="-3.81309">
        <ele>183.7490234375</ele>
        <time>2017-05-25T07:58:03Z</time>
      </trkpt>
      <trkpt lat="48.46281" lon="-3.81317">
        <ele>183.7490234375</ele>
        <time>2017-05-25T07:58:08Z</time>
      </trkpt>
      <trkpt lat="48.46279" lon="-3.81326">
        <ele>184.22985839844</ele>
        <time>2017-05-25T07:58:14Z</time>
      </trkpt>
      <trkpt lat="48.46279" lon="-3.81328">
        <ele>184.22985839844</ele>
        <time>2017-05-25T07:58:15Z</time>
      </trkpt>
      <trkpt lat="48.46279" lon="-3.81331">
        <ele>185.67175292969</ele>
        <time>2017-05-25T07:58:23Z</time>
      </trkpt>
      <trkpt lat="48.46278" lon="-3.81337">
        <ele>186.63317871094</ele>
        <time>2017-05-25T07:58:29Z</time>
      </trkpt>
      <trkpt lat="48.46276" lon="-3.81343">
        <ele>188.07507324219</ele>
        <time>2017-05-25T07:58:36Z</time>
      </trkpt>
      <trkpt lat="48.46277" lon="-3.81349">
        <ele>187.59436035156</ele>
        <time>2017-05-25T07:58:42Z</time>
      </trkpt>
      <trkpt lat="48.46277" lon="-3.81351">
        <ele>188.55578613281</ele>
        <time>2017-05-25T07:58:49Z</time>
      </trkpt>
      <trkpt lat="48.46277" lon="-3.81351">
        <ele>189.51696777344</ele>
        <time>2017-05-25T07:58:57Z</time>
      </trkpt>
      <trkpt lat="48.46279" lon="-3.81351">
        <ele>189.03637695312</ele>
        <time>2017-05-25T07:59:04Z</time>
      </trkpt>
      <trkpt lat="48.46284" lon="-3.81351">
        <ele>188.55578613281</ele>
        <time>2017-05-25T07:59:10Z</time>
      </trkpt>
      <trkpt lat="48.46284" lon="-3.81351">
        <ele>189.51696777344</ele>
        <time>2017-05-25T07:59:18Z</time>
      </trkpt>
      <trkpt lat="48.46284" lon="-3.8135">
        <ele>189.51696777344</ele>
        <time>2017-05-25T07:59:36Z</time>
      </trkpt>
      <trkpt lat="48.46284" lon="-3.81349">
        <ele>189.03637695312</ele>
        <time>2017-05-25T07:59:40Z</time>
      </trkpt>
      <trkpt lat="48.46284" lon="-3.81348">
        <ele>189.51696777344</ele>
        <time>2017-05-25T07:59:53Z</time>
      </trkpt>
      <trkpt lat="48.46284" lon="-3.81348">
        <ele>189.51696777344</ele>
        <time>2017-05-25T08:00:02Z</time>
      </trkpt>
      <trkpt lat="48.46282" lon="-3.81349">
        <ele>189.03637695312</ele>
        <time>2017-05-25T08:00:10Z</time>
      </trkpt>
      <trkpt lat="48.46278" lon="-3.81351">
        <ele>189.03637695312</ele>
        <time>2017-05-25T08:00:17Z</time>
      </trkpt>
      <trkpt lat="48.46277" lon="-3.81351">
        <ele>188.55578613281</ele>
        <time>2017-05-25T08:00:24Z</time>
      </trkpt>
      <trkpt lat="48.46279" lon="-3.81348">
        <ele>187.59436035156</ele>
        <time>2017-05-25T08:00:36Z</time>
      </trkpt>
      <trkpt lat="48.46282" lon="-3.8135">
        <ele>186.63317871094</ele>
        <time>2017-05-25T08:00:41Z</time>
      </trkpt>
      <trkpt lat="48.46283" lon="-3.8135">
        <ele>187.11376953125</ele>
        <time>2017-05-25T08:00:46Z</time>
      </trkpt>
      <trkpt lat="48.46283" lon="-3.81349">
        <ele>189.03637695312</ele>
        <time>2017-05-25T08:00:55Z</time>
      </trkpt>
      <trkpt lat="48.46282" lon="-3.81352">
        <ele>191.92028808594</ele>
        <time>2017-05-25T08:01:32Z</time>
      </trkpt>
      <trkpt lat="48.46281" lon="-3.81354">
        <ele>194.80432128906</ele>
        <time>2017-05-25T08:01:42Z</time>
      </trkpt>
      <trkpt lat="48.46279" lon="-3.81355">
        <ele>194.80432128906</ele>
        <time>2017-05-25T08:01:59Z</time>
      </trkpt>
      <trkpt lat="48.4628" lon="-3.81355">
        <ele>190.958984375</ele>
        <time>2017-05-25T08:02:11Z</time>
      </trkpt>
      <trkpt lat="48.4628" lon="-3.81353">
        <ele>189.03637695312</ele>
        <time>2017-05-25T08:02:20Z</time>
      </trkpt>
      <trkpt lat="48.4628" lon="-3.81352">
        <ele>189.03637695312</ele>
        <time>2017-05-25T08:02:28Z</time>
      </trkpt>
      <trkpt lat="48.4628" lon="-3.81352">
        <ele>188.07507324219</ele>
        <time>2017-05-25T08:02:34Z</time>
      </trkpt>
      <trkpt lat="48.4628" lon="-3.81352">
        <ele>188.07507324219</ele>
        <time>2017-05-25T08:02:40Z</time>
      </trkpt>
      <trkpt lat="48.46281" lon="-3.81351">
        <ele>187.11376953125</ele>
        <time>2017-05-25T08:02:48Z</time>
      </trkpt>
      <trkpt lat="48.46281" lon="-3.8135">
        <ele>187.11376953125</ele>
        <time>2017-05-25T08:02:57Z</time>
      </trkpt>
      <trkpt lat="48.46281" lon="-3.8135">
        <ele>186.63317871094</ele>
        <time>2017-05-25T08:03:06Z</time>
      </trkpt>
      <trkpt lat="48.46282" lon="-3.81351">
        <ele>186.15246582031</ele>
        <time>2017-05-25T08:03:27Z</time>
      </trkpt>
      <trkpt lat="48.46282" lon="-3.8135">
        <ele>186.15246582031</ele>
        <time>2017-05-25T08:03:32Z</time>
      </trkpt>
      <trkpt lat="48.46282" lon="-3.8135">
        <ele>187.59436035156</ele>
        <time>2017-05-25T08:03:40Z</time>
      </trkpt>
      <trkpt lat="48.46282" lon="-3.8135">
        <ele>188.07507324219</ele>
        <time>2017-05-25T08:03:57Z</time>
      </trkpt>
      <trkpt lat="48.46282" lon="-3.8135">
        <ele>188.55578613281</ele>
        <time>2017-05-25T08:04:08Z</time>
      </trkpt>
      <trkpt lat="48.46282" lon="-3.8135">
        <ele>187.59436035156</ele>
        <time>2017-05-25T08:04:20Z</time>
      </trkpt>
      <trkpt lat="48.4628" lon="-3.81347">
        <ele>188.07507324219</ele>
        <time>2017-05-25T08:04:31Z</time>
      </trkpt>
      <trkpt lat="48.46281" lon="-3.81343">
        <ele>188.55578613281</ele>
        <time>2017-05-25T08:04:36Z</time>
      </trkpt>
      <trkpt lat="48.4628" lon="-3.81337">
        <ele>189.03637695312</ele>
        <time>2017-05-25T08:04:41Z</time>
      </trkpt>
      <trkpt lat="48.4628" lon="-3.81336">
        <ele>189.03637695312</ele>
        <time>2017-05-25T08:04:47Z</time>
      </trkpt>
      <trkpt lat="48.46279" lon="-3.81333">
        <ele>189.51696777344</ele>
        <time>2017-05-25T08:04:54Z</time>
      </trkpt>
      <trkpt lat="48.4628" lon="-3.81331">
        <ele>191.92028808594</ele>
        <time>2017-05-25T08:05:22Z</time>
      </trkpt>
      <trkpt lat="48.46279" lon="-3.81332">
        <ele>192.40112304688</ele>
        <time>2017-05-25T08:05:52Z</time>
      </trkpt>
      <trkpt lat="48.46279" lon="-3.81329">
        <ele>192.88171386719</ele>
        <time>2017-05-25T08:06:19Z</time>
      </trkpt>
      <trkpt lat="48.46278" lon="-3.81326">
        <ele>193.3623046875</ele>
        <time>2017-05-25T08:06:23Z</time>
      </trkpt>
      <trkpt lat="48.46279" lon="-3.81314">
        <ele>193.3623046875</ele>
        <time>2017-05-25T08:06:30Z</time>
      </trkpt>
      <trkpt lat="48.4628" lon="-3.81311">
        <ele>193.3623046875</ele>
        <time>2017-05-25T08:06:32Z</time>
      </trkpt>
      <trkpt lat="48.46282" lon="-3.81302">
        <ele>193.84301757812</ele>
        <time>2017-05-25T08:06:40Z</time>
      </trkpt>
      <trkpt lat="48.46287" lon="-3.81296">
        <ele>193.3623046875</ele>
        <time>2017-05-25T08:06:46Z</time>
      </trkpt>
      <trkpt lat="48.46288" lon="-3.81295">
        <ele>193.3623046875</ele>
        <time>2017-05-25T08:06:47Z</time>
      </trkpt>
      <trkpt lat="48.46299" lon="-3.81287">
        <ele>193.3623046875</ele>
        <time>2017-05-25T08:06:56Z</time>
      </trkpt>
      <trkpt lat="48.46304" lon="-3.81282">
        <ele>191.43957519531</ele>
        <time>2017-05-25T08:07:02Z</time>
      </trkpt>
      <trkpt lat="48.46311" lon="-3.81275">
        <ele>190.47839355469</ele>
        <time>2017-05-25T08:07:09Z</time>
      </trkpt>
      <trkpt lat="48.46314" lon="-3.81273">
        <ele>191.43957519531</ele>
        <time>2017-05-25T08:07:11Z</time>
      </trkpt>
      <trkpt lat="48.4632" lon="-3.81269">
        <ele>191.43957519531</ele>
        <time>2017-05-25T08:07:16Z</time>
      </trkpt>
      <trkpt lat="48.46325" lon="-3.81263">
        <ele>191.43957519531</ele>
        <time>2017-05-25T08:07:22Z</time>
      </trkpt>
      <trkpt lat="48.4633" lon="-3.81259">
        <ele>192.40112304688</ele>
        <time>2017-05-25T08:07:27Z</time>
      </trkpt>
      <trkpt lat="48.46334" lon="-3.81258">
        <ele>191.43957519531</ele>
        <time>2017-05-25T08:07:34Z</time>
      </trkpt>
      <trkpt lat="48.46336" lon="-3.81258">
        <ele>189.51696777344</ele>
        <time>2017-05-25T08:07:40Z</time>
      </trkpt>
      <trkpt lat="48.4634" lon="-3.81257">
        <ele>188.55578613281</ele>
        <time>2017-05-25T08:07:46Z</time>
      </trkpt>
      <trkpt lat="48.46345" lon="-3.81256">
        <ele>189.03637695312</ele>
        <time>2017-05-25T08:07:52Z</time>
      </trkpt>
      <trkpt lat="48.4635" lon="-3.81256">
        <ele>184.22985839844</ele>
        <time>2017-05-25T08:07:58Z</time>
      </trkpt>
      <trkpt lat="48.46353" lon="-3.81259">
        <ele>182.78784179688</ele>
        <time>2017-05-25T08:08:01Z</time>
      </trkpt>
      <trkpt lat="48.46361" lon="-3.81265">
        <ele>182.30712890625</ele>
        <time>2017-05-25T08:08:08Z</time>
      </trkpt>
      <trkpt lat="48.46366" lon="-3.81272">
        <ele>181.34582519531</ele>
        <time>2017-05-25T08:08:14Z</time>
      </trkpt>
      <trkpt lat="48.4637" lon="-3.81281">
        <ele>179.90380859375</ele>
        <time>2017-05-25T08:08:21Z</time>
      </trkpt>
      <trkpt lat="48.46373" lon="-3.81289">
        <ele>177.50061035156</ele>
        <time>2017-05-25T08:08:29Z</time>
      </trkpt>
      <trkpt lat="48.46377" lon="-3.81296">
        <ele>175.09729003906</ele>
        <time>2017-05-25T08:08:35Z</time>
      </trkpt>
      <trkpt lat="48.46379" lon="-3.81304">
        <ele>175.09729003906</ele>
        <time>2017-05-25T08:08:40Z</time>
      </trkpt>
      <trkpt lat="48.4638" lon="-3.81305">
        <ele>174.61657714844</ele>
        <time>2017-05-25T08:08:41Z</time>
      </trkpt>
      <trkpt lat="48.46383" lon="-3.81316">
        <ele>173.17468261719</ele>
        <time>2017-05-25T08:08:47Z</time>
      </trkpt>
      <trkpt lat="48.46384" lon="-3.81321">
        <ele>171.73266601562</ele>
        <time>2017-05-25T08:08:50Z</time>
      </trkpt>
      <trkpt lat="48.46386" lon="-3.81335">
        <ele>171.73266601562</ele>
        <time>2017-05-25T08:08:57Z</time>
      </trkpt>
      <trkpt lat="48.46387" lon="-3.81337">
        <ele>171.25207519531</ele>
        <time>2017-05-25T08:08:58Z</time>
      </trkpt>
      <trkpt lat="48.46389" lon="-3.8134">
        <ele>171.25207519531</ele>
        <time>2017-05-25T08:09:01Z</time>
      </trkpt>
      <trkpt lat="48.46388" lon="-3.81353">
        <ele>173.17468261719</ele>
        <time>2017-05-25T08:09:05Z</time>
      </trkpt>
      <trkpt lat="48.46387" lon="-3.8136">
        <ele>174.13586425781</ele>
        <time>2017-05-25T08:09:07Z</time>
      </trkpt>
      <trkpt lat="48.46387" lon="-3.81367">
        <ele>176.05859375</ele>
        <time>2017-05-25T08:09:10Z</time>
      </trkpt>
      <trkpt lat="48.46391" lon="-3.81377">
        <ele>176.05859375</ele>
        <time>2017-05-25T08:09:16Z</time>
      </trkpt>
      <trkpt lat="48.46394" lon="-3.8139">
        <ele>174.61657714844</ele>
        <time>2017-05-25T08:09:23Z</time>
      </trkpt>
      <trkpt lat="48.46394" lon="-3.81392">
        <ele>174.61657714844</ele>
        <time>2017-05-25T08:09:24Z</time>
      </trkpt>
      <trkpt lat="48.46395" lon="-3.81397">
        <ele>174.61657714844</ele>
        <time>2017-05-25T08:09:26Z</time>
      </trkpt>
      <trkpt lat="48.46396" lon="-3.81406">
        <ele>174.61657714844</ele>
        <time>2017-05-25T08:09:30Z</time>
      </trkpt>
      <trkpt lat="48.46396" lon="-3.81424">
        <ele>176.53930664062</ele>
        <time>2017-05-25T08:09:38Z</time>
      </trkpt>
      <trkpt lat="48.46402" lon="-3.81437">
        <ele>176.53930664062</ele>
        <time>2017-05-25T08:09:45Z</time>
      </trkpt>
      <trkpt lat="48.46406" lon="-3.81455">
        <ele>175.57788085938</ele>
        <time>2017-05-25T08:09:55Z</time>
      </trkpt>
      <trkpt lat="48.46401" lon="-3.81468">
        <ele>174.61657714844</ele>
        <time>2017-05-25T08:10:03Z</time>
      </trkpt>
      <trkpt lat="48.46393" lon="-3.81478">
        <ele>174.13586425781</ele>
        <time>2017-05-25T08:10:11Z</time>
      </trkpt>
      <trkpt lat="48.46386" lon="-3.81487">
        <ele>174.13586425781</ele>
        <time>2017-05-25T08:10:18Z</time>
      </trkpt>
      <trkpt lat="48.46379" lon="-3.81497">
        <ele>174.13586425781</ele>
        <time>2017-05-25T08:10:25Z</time>
      </trkpt>
      <trkpt lat="48.46369" lon="-3.81509">
        <ele>173.6552734375</ele>
        <time>2017-05-25T08:10:34Z</time>
      </trkpt>
      <trkpt lat="48.46362" lon="-3.81519">
        <ele>174.13586425781</ele>
        <time>2017-05-25T08:10:41Z</time>
      </trkpt>
      <trkpt lat="48.46357" lon="-3.81531">
        <ele>174.13586425781</ele>
        <time>2017-05-25T08:10:49Z</time>
      </trkpt>
      <trkpt lat="48.46351" lon="-3.8154">
        <ele>174.13586425781</ele>
        <time>2017-05-25T08:10:56Z</time>
      </trkpt>
      <trkpt lat="48.46343" lon="-3.81547">
        <ele>173.17468261719</ele>
        <time>2017-05-25T08:11:03Z</time>
      </trkpt>
      <trkpt lat="48.46338" lon="-3.81559">
        <ele>173.6552734375</ele>
        <time>2017-05-25T08:11:09Z</time>
      </trkpt>
      <trkpt lat="48.46335" lon="-3.81568">
        <ele>173.6552734375</ele>
        <time>2017-05-25T08:11:14Z</time>
      </trkpt>
      <trkpt lat="48.46329" lon="-3.8158">
        <ele>173.17468261719</ele>
        <time>2017-05-25T08:11:22Z</time>
      </trkpt>
      <trkpt lat="48.46322" lon="-3.81589">
        <ele>173.17468261719</ele>
        <time>2017-05-25T08:11:28Z</time>
      </trkpt>
      <trkpt lat="48.46315" lon="-3.81599">
        <ele>172.69396972656</ele>
        <time>2017-05-25T08:11:36Z</time>
      </trkpt>
      <trkpt lat="48.46308" lon="-3.81612">
        <ele>171.73266601562</ele>
        <time>2017-05-25T08:11:44Z</time>
      </trkpt>
      <trkpt lat="48.46302" lon="-3.81627">
        <ele>170.77136230469</ele>
        <time>2017-05-25T08:11:53Z</time>
      </trkpt>
      <trkpt lat="48.46301" lon="-3.81631">
        <ele>171.25207519531</ele>
        <time>2017-05-25T08:11:55Z</time>
      </trkpt>
      <trkpt lat="48.46297" lon="-3.81639">
        <ele>171.73266601562</ele>
        <time>2017-05-25T08:12:01Z</time>
      </trkpt>
      <trkpt lat="48.46296" lon="-3.81643">
        <ele>171.73266601562</ele>
        <time>2017-05-25T08:12:03Z</time>
      </trkpt>
      <trkpt lat="48.46295" lon="-3.81654">
        <ele>171.25207519531</ele>
        <time>2017-05-25T08:12:09Z</time>
      </trkpt>
      <trkpt lat="48.46295" lon="-3.81657">
        <ele>171.73266601562</ele>
        <time>2017-05-25T08:12:11Z</time>
      </trkpt>
      <trkpt lat="48.46292" lon="-3.81663">
        <ele>172.69396972656</ele>
        <time>2017-05-25T08:12:15Z</time>
      </trkpt>
      <trkpt lat="48.46291" lon="-3.81675">
        <ele>170.77136230469</ele>
        <time>2017-05-25T08:12:22Z</time>
      </trkpt>
      <trkpt lat="48.46292" lon="-3.8168">
        <ele>168.36804199219</ele>
        <time>2017-05-25T08:12:25Z</time>
      </trkpt>
      <trkpt lat="48.46292" lon="-3.81685">
        <ele>166.92602539062</ele>
        <time>2017-05-25T08:12:28Z</time>
      </trkpt>
      <trkpt lat="48.46292" lon="-3.81696">
        <ele>163.08081054688</ele>
        <time>2017-05-25T08:12:34Z</time>
      </trkpt>
      <trkpt lat="48.46293" lon="-3.81708">
        <ele>160.19689941406</ele>
        <time>2017-05-25T08:12:40Z</time>
      </trkpt>
      <trkpt lat="48.46293" lon="-3.81712">
        <ele>160.19689941406</ele>
        <time>2017-05-25T08:12:42Z</time>
      </trkpt>
      <trkpt lat="48.46291" lon="-3.81726">
        <ele>160.67749023438</ele>
        <time>2017-05-25T08:12:49Z</time>
      </trkpt>
      <trkpt lat="48.4629" lon="-3.81734">
        <ele>162.60009765625</ele>
        <time>2017-05-25T08:12:52Z</time>
      </trkpt>
      <trkpt lat="48.46287" lon="-3.81746">
        <ele>164.52270507812</ele>
        <time>2017-05-25T08:12:58Z</time>
      </trkpt>
      <trkpt lat="48.46282" lon="-3.8176">
        <ele>164.52270507812</ele>
        <time>2017-05-25T08:13:05Z</time>
      </trkpt>
      <trkpt lat="48.46277" lon="-3.81771">
        <ele>165.00341796875</ele>
        <time>2017-05-25T08:13:13Z</time>
      </trkpt>
      <trkpt lat="48.46274" lon="-3.81776">
        <ele>165.96472167969</ele>
        <time>2017-05-25T08:13:19Z</time>
      </trkpt>
      <trkpt lat="48.46269" lon="-3.81783">
        <ele>164.52270507812</ele>
        <time>2017-05-25T08:13:25Z</time>
      </trkpt>
      <trkpt lat="48.46264" lon="-3.8179">
        <ele>164.52270507812</ele>
        <time>2017-05-25T08:13:30Z</time>
      </trkpt>
      <trkpt lat="48.46259" lon="-3.81797">
        <ele>165.00341796875</ele>
        <time>2017-05-25T08:13:35Z</time>
      </trkpt>
      <trkpt lat="48.46251" lon="-3.81807">
        <ele>165.48413085938</ele>
        <time>2017-05-25T08:13:42Z</time>
      </trkpt>
      <trkpt lat="48.46247" lon="-3.8181">
        <ele>165.00341796875</ele>
        <time>2017-05-25T08:13:47Z</time>
      </trkpt>
      <trkpt lat="48.46241" lon="-3.81816">
        <ele>165.48413085938</ele>
        <time>2017-05-25T08:13:53Z</time>
      </trkpt>
      <trkpt lat="48.46234" lon="-3.81823">
        <ele>165.96472167969</ele>
        <time>2017-05-25T08:14:00Z</time>
      </trkpt>
      <trkpt lat="48.46228" lon="-3.81831">
        <ele>166.4453125</ele>
        <time>2017-05-25T08:14:06Z</time>
      </trkpt>
      <trkpt lat="48.46221" lon="-3.81838">
        <ele>166.4453125</ele>
        <time>2017-05-25T08:14:12Z</time>
      </trkpt>
      <trkpt lat="48.46214" lon="-3.81849">
        <ele>166.4453125</ele>
        <time>2017-05-25T08:14:20Z</time>
      </trkpt>
      <trkpt lat="48.46209" lon="-3.81861">
        <ele>165.48413085938</ele>
        <time>2017-05-25T08:14:28Z</time>
      </trkpt>
      <trkpt lat="48.46208" lon="-3.81862">
        <ele>165.96472167969</ele>
        <time>2017-05-25T08:14:29Z</time>
      </trkpt>
      <trkpt lat="48.46204" lon="-3.81869">
        <ele>167.40673828125</ele>
        <time>2017-05-25T08:14:33Z</time>
      </trkpt>
      <trkpt lat="48.46203" lon="-3.81873">
        <ele>166.92602539062</ele>
        <time>2017-05-25T08:14:35Z</time>
      </trkpt>
      <trkpt lat="48.462" lon="-3.81881">
        <ele>166.4453125</ele>
        <time>2017-05-25T08:14:41Z</time>
      </trkpt>
      <trkpt lat="48.46196" lon="-3.81888">
        <ele>165.00341796875</ele>
        <time>2017-05-25T08:14:47Z</time>
      </trkpt>
      <trkpt lat="48.4619" lon="-3.81897">
        <ele>166.92602539062</ele>
        <time>2017-05-25T08:14:54Z</time>
      </trkpt>
      <trkpt lat="48.46185" lon="-3.81907">
        <ele>168.36804199219</ele>
        <time>2017-05-25T08:15:01Z</time>
      </trkpt>
      <trkpt lat="48.46181" lon="-3.81915">
        <ele>168.36804199219</ele>
        <time>2017-05-25T08:15:07Z</time>
      </trkpt>
      <trkpt lat="48.46179" lon="-3.81918">
        <ele>167.88732910156</ele>
        <time>2017-05-25T08:15:10Z</time>
      </trkpt>
      <trkpt lat="48.46172" lon="-3.81928">
        <ele>169.81005859375</ele>
        <time>2017-05-25T08:15:18Z</time>
      </trkpt>
      <trkpt lat="48.46167" lon="-3.81935">
        <ele>169.32946777344</ele>
        <time>2017-05-25T08:15:24Z</time>
      </trkpt>
      <trkpt lat="48.46162" lon="-3.81943">
        <ele>167.88732910156</ele>
        <time>2017-05-25T08:15:31Z</time>
      </trkpt>
      <trkpt lat="48.46159" lon="-3.81947">
        <ele>167.88732910156</ele>
        <time>2017-05-25T08:15:34Z</time>
      </trkpt>
      <trkpt lat="48.46155" lon="-3.81952">
        <ele>168.84875488281</ele>
        <time>2017-05-25T08:15:38Z</time>
      </trkpt>
      <trkpt lat="48.46149" lon="-3.81961">
        <ele>167.88732910156</ele>
        <time>2017-05-25T08:15:45Z</time>
      </trkpt>
      <trkpt lat="48.46149" lon="-3.81963">
        <ele>167.88732910156</ele>
        <time>2017-05-25T08:15:46Z</time>
      </trkpt>
      <trkpt lat="48.46146" lon="-3.81968">
        <ele>167.40673828125</ele>
        <time>2017-05-25T08:15:50Z</time>
      </trkpt>
      <trkpt lat="48.46137" lon="-3.81979">
        <ele>166.4453125</ele>
        <time>2017-05-25T08:16:00Z</time>
      </trkpt>
      <trkpt lat="48.46131" lon="-3.81983">
        <ele>167.40673828125</ele>
        <time>2017-05-25T08:16:05Z</time>
      </trkpt>
      <trkpt lat="48.46123" lon="-3.81988">
        <ele>168.36804199219</ele>
        <time>2017-05-25T08:16:12Z</time>
      </trkpt>
      <trkpt lat="48.46118" lon="-3.81993">
        <ele>169.32946777344</ele>
        <time>2017-05-25T08:16:18Z</time>
      </trkpt>
      <trkpt lat="48.46113" lon="-3.81998">
        <ele>169.32946777344</ele>
        <time>2017-05-25T08:16:22Z</time>
      </trkpt>
      <trkpt lat="48.46111" lon="-3.82005">
        <ele>169.32946777344</ele>
        <time>2017-05-25T08:16:27Z</time>
      </trkpt>
      <trkpt lat="48.46109" lon="-3.82013">
        <ele>167.88732910156</ele>
        <time>2017-05-25T08:16:34Z</time>
      </trkpt>
      <trkpt lat="48.46109" lon="-3.82019">
        <ele>167.88732910156</ele>
        <time>2017-05-25T08:16:39Z</time>
      </trkpt>
      <trkpt lat="48.46104" lon="-3.82032">
        <ele>170.29064941406</ele>
        <time>2017-05-25T08:16:45Z</time>
      </trkpt>
      <trkpt lat="48.46102" lon="-3.82045">
        <ele>173.17468261719</ele>
        <time>2017-05-25T08:16:52Z</time>
      </trkpt>
      <trkpt lat="48.46099" lon="-3.82058">
        <ele>175.57788085938</ele>
        <time>2017-05-25T08:16:59Z</time>
      </trkpt>
      <trkpt lat="48.46099" lon="-3.82059">
        <ele>175.57788085938</ele>
        <time>2017-05-25T08:17:00Z</time>
      </trkpt>
      <trkpt lat="48.46096" lon="-3.82069">
        <ele>176.53930664062</ele>
        <time>2017-05-25T08:17:06Z</time>
      </trkpt>
      <trkpt lat="48.46096" lon="-3.82071">
        <ele>176.53930664062</ele>
        <time>2017-05-25T08:17:07Z</time>
      </trkpt>
      <trkpt lat="48.46093" lon="-3.82082">
        <ele>177.50061035156</ele>
        <time>2017-05-25T08:17:14Z</time>
      </trkpt>
      <trkpt lat="48.46091" lon="-3.82091">
        <ele>177.98120117188</ele>
        <time>2017-05-25T08:17:20Z</time>
      </trkpt>
      <trkpt lat="48.46089" lon="-3.82097">
        <ele>177.50061035156</ele>
        <time>2017-05-25T08:17:25Z</time>
      </trkpt>
      <trkpt lat="48.46088" lon="-3.82106">
        <ele>178.4619140625</ele>
        <time>2017-05-25T08:17:31Z</time>
      </trkpt>
      <trkpt lat="48.46088" lon="-3.8211">
        <ele>177.98120117188</ele>
        <time>2017-05-25T08:17:33Z</time>
      </trkpt>
      <trkpt lat="48.46087" lon="-3.82118">
        <ele>177.98120117188</ele>
        <time>2017-05-25T08:17:37Z</time>
      </trkpt>
      <trkpt lat="48.46088" lon="-3.82128">
        <ele>177.98120117188</ele>
        <time>2017-05-25T08:17:43Z</time>
      </trkpt>
      <trkpt lat="48.46088" lon="-3.8214">
        <ele>177.02001953125</ele>
        <time>2017-05-25T08:17:52Z</time>
      </trkpt>
      <trkpt lat="48.46089" lon="-3.82154">
        <ele>178.94262695312</ele>
        <time>2017-05-25T08:17:59Z</time>
      </trkpt>
      <trkpt lat="48.46088" lon="-3.82168">
        <ele>180.865234375</ele>
        <time>2017-05-25T08:18:06Z</time>
      </trkpt>
      <trkpt lat="48.46088" lon="-3.82184">
        <ele>181.82641601562</ele>
        <time>2017-05-25T08:18:14Z</time>
      </trkpt>
      <trkpt lat="48.46089" lon="-3.82191">
        <ele>180.865234375</ele>
        <time>2017-05-25T08:18:20Z</time>
      </trkpt>
      <trkpt lat="48.46089" lon="-3.82202">
        <ele>181.34582519531</ele>
        <time>2017-05-25T08:18:27Z</time>
      </trkpt>
      <trkpt lat="48.46088" lon="-3.82217">
        <ele>183.7490234375</ele>
        <time>2017-05-25T08:18:35Z</time>
      </trkpt>
      <trkpt lat="48.46088" lon="-3.82232">
        <ele>185.67175292969</ele>
        <time>2017-05-25T08:18:42Z</time>
      </trkpt>
      <trkpt lat="48.46088" lon="-3.82235">
        <ele>185.67175292969</ele>
        <time>2017-05-25T08:18:43Z</time>
      </trkpt>
      <trkpt lat="48.46089" lon="-3.82237">
        <ele>184.71057128906</ele>
        <time>2017-05-25T08:18:45Z</time>
      </trkpt>
      <trkpt lat="48.4609" lon="-3.82243">
        <ele>182.78784179688</ele>
        <time>2017-05-25T08:18:49Z</time>
      </trkpt>
      <trkpt lat="48.46094" lon="-3.82252">
        <ele>181.82641601562</ele>
        <time>2017-05-25T08:18:55Z</time>
      </trkpt>
      <trkpt lat="48.46098" lon="-3.82262">
        <ele>183.26843261719</ele>
        <time>2017-05-25T08:19:02Z</time>
      </trkpt>
      <trkpt lat="48.46101" lon="-3.82273">
        <ele>184.22985839844</ele>
        <time>2017-05-25T08:19:09Z</time>
      </trkpt>
      <trkpt lat="48.46106" lon="-3.82283">
        <ele>186.15246582031</ele>
        <time>2017-05-25T08:19:16Z</time>
      </trkpt>
      <trkpt lat="48.46109" lon="-3.82292">
        <ele>186.63317871094</ele>
        <time>2017-05-25T08:19:22Z</time>
      </trkpt>
      <trkpt lat="48.46113" lon="-3.82301">
        <ele>188.55578613281</ele>
        <time>2017-05-25T08:19:29Z</time>
      </trkpt>
      <trkpt lat="48.46113" lon="-3.82307">
        <ele>189.99768066406</ele>
        <time>2017-05-25T08:19:32Z</time>
      </trkpt>
      <trkpt lat="48.46114" lon="-3.82315">
        <ele>191.43957519531</ele>
        <time>2017-05-25T08:19:37Z</time>
      </trkpt>
      <trkpt lat="48.46114" lon="-3.82319">
        <ele>192.40112304688</ele>
        <time>2017-05-25T08:19:40Z</time>
      </trkpt>
      <trkpt lat="48.46112" lon="-3.8233">
        <ele>193.84301757812</ele>
        <time>2017-05-25T08:19:46Z</time>
      </trkpt>
      <trkpt lat="48.46111" lon="-3.82333">
        <ele>193.3623046875</ele>
        <time>2017-05-25T08:19:48Z</time>
      </trkpt>
      <trkpt lat="48.461" lon="-3.82346">
        <ele>195.765625</ele>
        <time>2017-05-25T08:19:56Z</time>
      </trkpt>
      <trkpt lat="48.46098" lon="-3.82348">
        <ele>195.28491210938</ele>
        <time>2017-05-25T08:19:58Z</time>
      </trkpt>
      <trkpt lat="48.46092" lon="-3.82352">
        <ele>194.32373046875</ele>
        <time>2017-05-25T08:20:05Z</time>
      </trkpt>
      <trkpt lat="48.46087" lon="-3.82353">
        <ele>193.3623046875</ele>
        <time>2017-05-25T08:20:10Z</time>
      </trkpt>
      <trkpt lat="48.46081" lon="-3.82352">
        <ele>191.43957519531</ele>
        <time>2017-05-25T08:20:15Z</time>
      </trkpt>
      <trkpt lat="48.46077" lon="-3.82352">
        <ele>190.958984375</ele>
        <time>2017-05-25T08:20:19Z</time>
      </trkpt>
      <trkpt lat="48.46066" lon="-3.82354">
        <ele>190.47839355469</ele>
        <time>2017-05-25T08:20:26Z</time>
      </trkpt>
      <trkpt lat="48.46065" lon="-3.82355">
        <ele>190.47839355469</ele>
        <time>2017-05-25T08:20:27Z</time>
      </trkpt>
      <trkpt lat="48.46056" lon="-3.82359">
        <ele>191.43957519531</ele>
        <time>2017-05-25T08:20:34Z</time>
      </trkpt>
      <trkpt lat="48.46051" lon="-3.82363">
        <ele>192.40112304688</ele>
        <time>2017-05-25T08:20:38Z</time>
      </trkpt>
      <trkpt lat="48.46048" lon="-3.8237">
        <ele>193.3623046875</ele>
        <time>2017-05-25T08:20:44Z</time>
      </trkpt>
      <trkpt lat="48.46041" lon="-3.8238">
        <ele>193.84301757812</ele>
        <time>2017-05-25T08:20:52Z</time>
      </trkpt>
      <trkpt lat="48.46036" lon="-3.82387">
        <ele>193.84301757812</ele>
        <time>2017-05-25T08:20:58Z</time>
      </trkpt>
      <trkpt lat="48.4603" lon="-3.82398">
        <ele>193.3623046875</ele>
        <time>2017-05-25T08:21:05Z</time>
      </trkpt>
      <trkpt lat="48.46025" lon="-3.82407">
        <ele>193.3623046875</ele>
        <time>2017-05-25T08:21:12Z</time>
      </trkpt>
      <trkpt lat="48.4602" lon="-3.82412">
        <ele>193.3623046875</ele>
        <time>2017-05-25T08:21:18Z</time>
      </trkpt>
      <trkpt lat="48.46018" lon="-3.82414">
        <ele>193.84301757812</ele>
        <time>2017-05-25T08:21:20Z</time>
      </trkpt>
      <trkpt lat="48.46013" lon="-3.82421">
        <ele>194.80432128906</ele>
        <time>2017-05-25T08:21:26Z</time>
      </trkpt>
      <trkpt lat="48.46007" lon="-3.82424">
        <ele>195.28491210938</ele>
        <time>2017-05-25T08:21:31Z</time>
      </trkpt>
      <trkpt lat="48.46" lon="-3.82428">
        <ele>194.80432128906</ele>
        <time>2017-05-25T08:21:37Z</time>
      </trkpt>
      <trkpt lat="48.45997" lon="-3.8243">
        <ele>195.765625</ele>
        <time>2017-05-25T08:21:40Z</time>
      </trkpt>
      <trkpt lat="48.45992" lon="-3.82433">
        <ele>196.72692871094</ele>
        <time>2017-05-25T08:21:45Z</time>
      </trkpt>
      <trkpt lat="48.45984" lon="-3.82437">
        <ele>199.13012695312</ele>
        <time>2017-05-25T08:21:53Z</time>
      </trkpt>
      <trkpt lat="48.45979" lon="-3.82441">
        <ele>199.13012695312</ele>
        <time>2017-05-25T08:21:58Z</time>
      </trkpt>
      <trkpt lat="48.45975" lon="-3.82445">
        <ele>197.20751953125</ele>
        <time>2017-05-25T08:22:02Z</time>
      </trkpt>
      <trkpt lat="48.45971" lon="-3.82452">
        <ele>196.24633789062</ele>
        <time>2017-05-25T08:22:09Z</time>
      </trkpt>
      <trkpt lat="48.45967" lon="-3.8246">
        <ele>197.20751953125</ele>
        <time>2017-05-25T08:22:16Z</time>
      </trkpt>
      <trkpt lat="48.45962" lon="-3.82468">
        <ele>196.24633789062</ele>
        <time>2017-05-25T08:22:22Z</time>
      </trkpt>
      <trkpt lat="48.4596" lon="-3.82472">
        <ele>194.80432128906</ele>
        <time>2017-05-25T08:22:25Z</time>
      </trkpt>
      <trkpt lat="48.45958" lon="-3.82475">
        <ele>193.3623046875</ele>
        <time>2017-05-25T08:22:28Z</time>
      </trkpt>
      <trkpt lat="48.45955" lon="-3.82482">
        <ele>193.84301757812</ele>
        <time>2017-05-25T08:22:32Z</time>
      </trkpt>
      <trkpt lat="48.45952" lon="-3.8249">
        <ele>196.24633789062</ele>
        <time>2017-05-25T08:22:39Z</time>
      </trkpt>
      <trkpt lat="48.45948" lon="-3.825">
        <ele>197.68823242188</ele>
        <time>2017-05-25T08:22:46Z</time>
      </trkpt>
      <trkpt lat="48.45943" lon="-3.82512">
        <ele>201.05285644531</ele>
        <time>2017-05-25T08:22:52Z</time>
      </trkpt>
      <trkpt lat="48.45939" lon="-3.82522">
        <ele>201.05285644531</ele>
        <time>2017-05-25T08:22:58Z</time>
      </trkpt>
      <trkpt lat="48.45938" lon="-3.82529">
        <ele>201.05285644531</ele>
        <time>2017-05-25T08:23:02Z</time>
      </trkpt>
      <trkpt lat="48.45935" lon="-3.82538">
        <ele>199.61083984375</ele>
        <time>2017-05-25T08:23:08Z</time>
      </trkpt>
      <trkpt lat="48.45933" lon="-3.82548">
        <ele>199.61083984375</ele>
        <time>2017-05-25T08:23:15Z</time>
      </trkpt>
      <trkpt lat="48.45933" lon="-3.82558">
        <ele>199.13012695312</ele>
        <time>2017-05-25T08:23:21Z</time>
      </trkpt>
      <trkpt lat="48.45933" lon="-3.82563">
        <ele>200.572265625</ele>
        <time>2017-05-25T08:23:24Z</time>
      </trkpt>
      <trkpt lat="48.45934" lon="-3.8257">
        <ele>202.01428222656</ele>
        <time>2017-05-25T08:23:28Z</time>
      </trkpt>
      <trkpt lat="48.45934" lon="-3.8258">
        <ele>202.49487304688</ele>
        <time>2017-05-25T08:23:35Z</time>
      </trkpt>
      <trkpt lat="48.45933" lon="-3.82582">
        <ele>202.97546386719</ele>
        <time>2017-05-25T08:23:36Z</time>
      </trkpt>
      <trkpt lat="48.45927" lon="-3.82589">
        <ele>203.45617675781</ele>
        <time>2017-05-25T08:23:42Z</time>
      </trkpt>
      <trkpt lat="48.45927" lon="-3.8259">
        <ele>202.97546386719</ele>
        <time>2017-05-25T08:23:43Z</time>
      </trkpt>
      <trkpt lat="48.45919" lon="-3.82596">
        <ele>202.49487304688</ele>
        <time>2017-05-25T08:23:50Z</time>
      </trkpt>
      <trkpt lat="48.45913" lon="-3.82594">
        <ele>203.45617675781</ele>
        <time>2017-05-25T08:23:55Z</time>
      </trkpt>
      <trkpt lat="48.45906" lon="-3.82587">
        <ele>203.93688964844</ele>
        <time>2017-05-25T08:24:03Z</time>
      </trkpt>
      <trkpt lat="48.45899" lon="-3.82584">
        <ele>204.41748046875</ele>
        <time>2017-05-25T08:24:10Z</time>
      </trkpt>
      <trkpt lat="48.45893" lon="-3.82581">
        <ele>202.97546386719</ele>
        <time>2017-05-25T08:24:15Z</time>
      </trkpt>
      <trkpt lat="48.45889" lon="-3.8258">
        <ele>202.49487304688</ele>
        <time>2017-05-25T08:24:18Z</time>
      </trkpt>
      <trkpt lat="48.45884" lon="-3.82579">
        <ele>202.49487304688</ele>
        <time>2017-05-25T08:24:22Z</time>
      </trkpt>
      <trkpt lat="48.45873" lon="-3.82573">
        <ele>202.01428222656</ele>
        <time>2017-05-25T08:24:32Z</time>
      </trkpt>
      <trkpt lat="48.45868" lon="-3.82567">
        <ele>201.53356933594</ele>
        <time>2017-05-25T08:24:37Z</time>
      </trkpt>
      <trkpt lat="48.45862" lon="-3.8256">
        <ele>201.05285644531</ele>
        <time>2017-05-25T08:24:43Z</time>
      </trkpt>
      <trkpt lat="48.45855" lon="-3.82555">
        <ele>201.53356933594</ele>
        <time>2017-05-25T08:24:49Z</time>
      </trkpt>
      <trkpt lat="48.45848" lon="-3.82551">
        <ele>201.53356933594</ele>
        <time>2017-05-25T08:24:55Z</time>
      </trkpt>
      <trkpt lat="48.45839" lon="-3.82545">
        <ele>201.53356933594</ele>
        <time>2017-05-25T08:25:02Z</time>
      </trkpt>
      <trkpt lat="48.45837" lon="-3.82545">
        <ele>200.572265625</ele>
        <time>2017-05-25T08:25:06Z</time>
      </trkpt>
      <trkpt lat="48.45835" lon="-3.82543">
        <ele>199.61083984375</ele>
        <time>2017-05-25T08:25:11Z</time>
      </trkpt>
      <trkpt lat="48.45831" lon="-3.82542">
        <ele>198.1689453125</ele>
        <time>2017-05-25T08:25:15Z</time>
      </trkpt>
      <trkpt lat="48.45825" lon="-3.82539">
        <ele>196.72692871094</ele>
        <time>2017-05-25T08:25:20Z</time>
      </trkpt>
      <trkpt lat="48.45819" lon="-3.82539">
        <ele>195.28491210938</ele>
        <time>2017-05-25T08:25:25Z</time>
      </trkpt>
      <trkpt lat="48.45811" lon="-3.82537">
        <ele>193.84301757812</ele>
        <time>2017-05-25T08:25:30Z</time>
      </trkpt>
      <trkpt lat="48.45804" lon="-3.82538">
        <ele>192.40112304688</ele>
        <time>2017-05-25T08:25:35Z</time>
      </trkpt>
      <trkpt lat="48.45795" lon="-3.82537">
        <ele>192.88171386719</ele>
        <time>2017-05-25T08:25:42Z</time>
      </trkpt>
      <trkpt lat="48.45787" lon="-3.82536">
        <ele>191.43957519531</ele>
        <time>2017-05-25T08:25:48Z</time>
      </trkpt>
      <trkpt lat="48.45779" lon="-3.82537">
        <ele>189.03637695312</ele>
        <time>2017-05-25T08:25:55Z</time>
      </trkpt>
      <trkpt lat="48.45777" lon="-3.82539">
        <ele>189.51696777344</ele>
        <time>2017-05-25T08:25:59Z</time>
      </trkpt>
      <trkpt lat="48.45769" lon="-3.82542">
        <ele>189.99768066406</ele>
        <time>2017-05-25T08:26:06Z</time>
      </trkpt>
      <trkpt lat="48.45759" lon="-3.82545">
        <ele>189.51696777344</ele>
        <time>2017-05-25T08:26:13Z</time>
      </trkpt>
      <trkpt lat="48.45755" lon="-3.82546">
        <ele>189.51696777344</ele>
        <time>2017-05-25T08:26:17Z</time>
      </trkpt>
      <trkpt lat="48.45751" lon="-3.82548">
        <ele>189.99768066406</ele>
        <time>2017-05-25T08:26:21Z</time>
      </trkpt>
      <trkpt lat="48.45743" lon="-3.82552">
        <ele>190.47839355469</ele>
        <time>2017-05-25T08:26:27Z</time>
      </trkpt>
      <trkpt lat="48.45734" lon="-3.8256">
        <ele>191.43957519531</ele>
        <time>2017-05-25T08:26:35Z</time>
      </trkpt>
      <trkpt lat="48.45726" lon="-3.82565">
        <ele>190.958984375</ele>
        <time>2017-05-25T08:26:41Z</time>
      </trkpt>
      <trkpt lat="48.45719" lon="-3.8257">
        <ele>189.51696777344</ele>
        <time>2017-05-25T08:26:46Z</time>
      </trkpt>
      <trkpt lat="48.45715" lon="-3.82574">
        <ele>189.03637695312</ele>
        <time>2017-05-25T08:26:49Z</time>
      </trkpt>
      <trkpt lat="48.45709" lon="-3.82578">
        <ele>188.55578613281</ele>
        <time>2017-05-25T08:26:53Z</time>
      </trkpt>
      <trkpt lat="48.45704" lon="-3.82582">
        <ele>188.55578613281</ele>
        <time>2017-05-25T08:27:00Z</time>
      </trkpt>
      <trkpt lat="48.45702" lon="-3.82583">
        <ele>187.11376953125</ele>
        <time>2017-05-25T08:27:05Z</time>
      </trkpt>
      <trkpt lat="48.45697" lon="-3.82583">
        <ele>183.7490234375</ele>
        <time>2017-05-25T08:27:10Z</time>
      </trkpt>
      <trkpt lat="48.45694" lon="-3.82582">
        <ele>182.78784179688</ele>
        <time>2017-05-25T08:27:12Z</time>
      </trkpt>
      <trkpt lat="48.45688" lon="-3.82581">
        <ele>181.82641601562</ele>
        <time>2017-05-25T08:27:17Z</time>
      </trkpt>
      <trkpt lat="48.45683" lon="-3.82573">
        <ele>182.30712890625</ele>
        <time>2017-05-25T08:27:23Z</time>
      </trkpt>
      <trkpt lat="48.4568" lon="-3.82571">
        <ele>182.30712890625</ele>
        <time>2017-05-25T08:27:25Z</time>
      </trkpt>
      <trkpt lat="48.45677" lon="-3.82569">
        <ele>180.865234375</ele>
        <time>2017-05-25T08:27:28Z</time>
      </trkpt>
      <trkpt lat="48.45673" lon="-3.82567">
        <ele>179.42321777344</ele>
        <time>2017-05-25T08:27:32Z</time>
      </trkpt>
      <trkpt lat="48.45669" lon="-3.82562">
        <ele>178.4619140625</ele>
        <time>2017-05-25T08:27:36Z</time>
      </trkpt>
      <trkpt lat="48.45668" lon="-3.82556">
        <ele>177.98120117188</ele>
        <time>2017-05-25T08:27:40Z</time>
      </trkpt>
      <trkpt lat="48.45663" lon="-3.82554">
        <ele>176.05859375</ele>
        <time>2017-05-25T08:27:44Z</time>
      </trkpt>
      <trkpt lat="48.45653" lon="-3.82554">
        <ele>177.02001953125</ele>
        <time>2017-05-25T08:27:51Z</time>
      </trkpt>
      <trkpt lat="48.45651" lon="-3.82554">
        <ele>176.53930664062</ele>
        <time>2017-05-25T08:27:53Z</time>
      </trkpt>
      <trkpt lat="48.45644" lon="-3.82557">
        <ele>177.50061035156</ele>
        <time>2017-05-25T08:27:59Z</time>
      </trkpt>
      <trkpt lat="48.45637" lon="-3.82562">
        <ele>177.50061035156</ele>
        <time>2017-05-25T08:28:05Z</time>
      </trkpt>
      <trkpt lat="48.45635" lon="-3.82563">
        <ele>177.98120117188</ele>
        <time>2017-05-25T08:28:10Z</time>
      </trkpt>
      <trkpt lat="48.45635" lon="-3.82562">
        <ele>177.98120117188</ele>
        <time>2017-05-25T08:28:19Z</time>
      </trkpt>
      <trkpt lat="48.45631" lon="-3.82564">
        <ele>177.02001953125</ele>
        <time>2017-05-25T08:28:26Z</time>
      </trkpt>
      <trkpt lat="48.4563" lon="-3.82566">
        <ele>178.94262695312</ele>
        <time>2017-05-25T08:28:31Z</time>
      </trkpt>
      <trkpt lat="48.4563" lon="-3.82565">
        <ele>180.865234375</ele>
        <time>2017-05-25T08:28:37Z</time>
      </trkpt>
      <trkpt lat="48.45628" lon="-3.82565">
        <ele>181.82641601562</ele>
        <time>2017-05-25T08:28:45Z</time>
      </trkpt>
      <trkpt lat="48.45626" lon="-3.82566">
        <ele>181.34582519531</ele>
        <time>2017-05-25T08:28:51Z</time>
      </trkpt>
      <trkpt lat="48.45626" lon="-3.82569">
        <ele>180.38452148438</ele>
        <time>2017-05-25T08:28:57Z</time>
      </trkpt>
      <trkpt lat="48.45628" lon="-3.82575">
        <ele>178.4619140625</ele>
        <time>2017-05-25T08:29:05Z</time>
      </trkpt>
      <trkpt lat="48.45627" lon="-3.82577">
        <ele>177.98120117188</ele>
        <time>2017-05-25T08:29:10Z</time>
      </trkpt>
      <trkpt lat="48.45627" lon="-3.8258">
        <ele>177.02001953125</ele>
        <time>2017-05-25T08:29:18Z</time>
      </trkpt>
      <trkpt lat="48.45619" lon="-3.82592">
        <ele>176.53930664062</ele>
        <time>2017-05-25T08:29:27Z</time>
      </trkpt>
      <trkpt lat="48.45615" lon="-3.82596">
        <ele>175.57788085938</ele>
        <time>2017-05-25T08:29:31Z</time>
      </trkpt>
      <trkpt lat="48.45614" lon="-3.82598">
        <ele>175.09729003906</ele>
        <time>2017-05-25T08:29:33Z</time>
      </trkpt>
      <trkpt lat="48.45609" lon="-3.826">
        <ele>174.61657714844</ele>
        <time>2017-05-25T08:29:40Z</time>
      </trkpt>
      <trkpt lat="48.45602" lon="-3.82602">
        <ele>173.6552734375</ele>
        <time>2017-05-25T08:29:46Z</time>
      </trkpt>
      <trkpt lat="48.45601" lon="-3.82602">
        <ele>173.6552734375</ele>
        <time>2017-05-25T08:29:47Z</time>
      </trkpt>
      <trkpt lat="48.45599" lon="-3.82606">
        <ele>173.6552734375</ele>
        <time>2017-05-25T08:29:51Z</time>
      </trkpt>
      <trkpt lat="48.45592" lon="-3.82612">
        <ele>174.13586425781</ele>
        <time>2017-05-25T08:29:58Z</time>
      </trkpt>
      <trkpt lat="48.45587" lon="-3.82621">
        <ele>173.17468261719</ele>
        <time>2017-05-25T08:30:04Z</time>
      </trkpt>
      <trkpt lat="48.45585" lon="-3.82623">
        <ele>172.69396972656</ele>
        <time>2017-05-25T08:30:07Z</time>
      </trkpt>
      <trkpt lat="48.45578" lon="-3.8263">
        <ele>173.6552734375</ele>
        <time>2017-05-25T08:30:14Z</time>
      </trkpt>
      <trkpt lat="48.45572" lon="-3.82633">
        <ele>174.61657714844</ele>
        <time>2017-05-25T08:30:21Z</time>
      </trkpt>
      <trkpt lat="48.45566" lon="-3.82638">
        <ele>174.13586425781</ele>
        <time>2017-05-25T08:30:28Z</time>
      </trkpt>
      <trkpt lat="48.45563" lon="-3.82643">
        <ele>175.09729003906</ele>
        <time>2017-05-25T08:30:32Z</time>
      </trkpt>
      <trkpt lat="48.45557" lon="-3.82651">
        <ele>178.4619140625</ele>
        <time>2017-05-25T08:30:39Z</time>
      </trkpt>
      <trkpt lat="48.45552" lon="-3.82657">
        <ele>178.94262695312</ele>
        <time>2017-05-25T08:30:44Z</time>
      </trkpt>
      <trkpt lat="48.45547" lon="-3.82664">
        <ele>181.34582519531</ele>
        <time>2017-05-25T08:30:50Z</time>
      </trkpt>
      <trkpt lat="48.45541" lon="-3.82671">
        <ele>184.22985839844</ele>
        <time>2017-05-25T08:30:56Z</time>
      </trkpt>
      <trkpt lat="48.45539" lon="-3.82674">
        <ele>184.71057128906</ele>
        <time>2017-05-25T08:30:58Z</time>
      </trkpt>
      <trkpt lat="48.45539" lon="-3.82678">
        <ele>185.67175292969</ele>
        <time>2017-05-25T08:31:01Z</time>
      </trkpt>
      <trkpt lat="48.45537" lon="-3.82681">
        <ele>186.15246582031</ele>
        <time>2017-05-25T08:31:04Z</time>
      </trkpt>
      <trkpt lat="48.45535" lon="-3.82686">
        <ele>189.99768066406</ele>
        <time>2017-05-25T08:31:10Z</time>
      </trkpt>
      <trkpt lat="48.45532" lon="-3.82693">
        <ele>191.43957519531</ele>
        <time>2017-05-25T08:31:16Z</time>
      </trkpt>
      <trkpt lat="48.45529" lon="-3.82698">
        <ele>191.92028808594</ele>
        <time>2017-05-25T08:31:20Z</time>
      </trkpt>
      <trkpt lat="48.45524" lon="-3.82708">
        <ele>190.958984375</ele>
        <time>2017-05-25T08:31:27Z</time>
      </trkpt>
      <trkpt lat="48.45522" lon="-3.82714">
        <ele>189.99768066406</ele>
        <time>2017-05-25T08:31:32Z</time>
      </trkpt>
      <trkpt lat="48.45516" lon="-3.82724">
        <ele>189.99768066406</ele>
        <time>2017-05-25T08:31:40Z</time>
      </trkpt>
      <trkpt lat="48.45512" lon="-3.82729">
        <ele>189.03637695312</ele>
        <time>2017-05-25T08:31:44Z</time>
      </trkpt>
      <trkpt lat="48.4551" lon="-3.82733">
        <ele>189.99768066406</ele>
        <time>2017-05-25T08:31:47Z</time>
      </trkpt>
      <trkpt lat="48.45508" lon="-3.82737">
        <ele>190.958984375</ele>
        <time>2017-05-25T08:31:50Z</time>
      </trkpt>
      <trkpt lat="48.45505" lon="-3.8274">
        <ele>190.47839355469</ele>
        <time>2017-05-25T08:31:54Z</time>
      </trkpt>
      <trkpt lat="48.45497" lon="-3.82747">
        <ele>190.958984375</ele>
        <time>2017-05-25T08:32:01Z</time>
      </trkpt>
      <trkpt lat="48.45493" lon="-3.82751">
        <ele>190.47839355469</ele>
        <time>2017-05-25T08:32:05Z</time>
      </trkpt>
      <trkpt lat="48.45486" lon="-3.82759">
        <ele>190.47839355469</ele>
        <time>2017-05-25T08:32:11Z</time>
      </trkpt>
      <trkpt lat="48.4548" lon="-3.82767">
        <ele>193.84301757812</ele>
        <time>2017-05-25T08:32:17Z</time>
      </trkpt>
      <trkpt lat="48.45477" lon="-3.82772">
        <ele>192.40112304688</ele>
        <time>2017-05-25T08:32:22Z</time>
      </trkpt>
      <trkpt lat="48.45475" lon="-3.82774">
        <ele>192.40112304688</ele>
        <time>2017-05-25T08:32:24Z</time>
      </trkpt>
      <trkpt lat="48.4547" lon="-3.82782">
        <ele>192.40112304688</ele>
        <time>2017-05-25T08:32:31Z</time>
      </trkpt>
      <trkpt lat="48.45469" lon="-3.82784">
        <ele>192.40112304688</ele>
        <time>2017-05-25T08:32:32Z</time>
      </trkpt>
      <trkpt lat="48.45468" lon="-3.82785">
        <ele>192.88171386719</ele>
        <time>2017-05-25T08:32:34Z</time>
      </trkpt>
      <trkpt lat="48.45464" lon="-3.8279">
        <ele>193.3623046875</ele>
        <time>2017-05-25T08:32:38Z</time>
      </trkpt>
      <trkpt lat="48.45459" lon="-3.82796">
        <ele>194.32373046875</ele>
        <time>2017-05-25T08:32:44Z</time>
      </trkpt>
      <trkpt lat="48.45457" lon="-3.828">
        <ele>195.28491210938</ele>
        <time>2017-05-25T08:32:48Z</time>
      </trkpt>
      <trkpt lat="48.45454" lon="-3.82803">
        <ele>195.765625</ele>
        <time>2017-05-25T08:32:51Z</time>
      </trkpt>
      <trkpt lat="48.45452" lon="-3.82807">
        <ele>196.72692871094</ele>
        <time>2017-05-25T08:32:54Z</time>
      </trkpt>
      <trkpt lat="48.45445" lon="-3.82811">
        <ele>196.72692871094</ele>
        <time>2017-05-25T08:32:59Z</time>
      </trkpt>
      <trkpt lat="48.45437" lon="-3.82819">
        <ele>195.28491210938</ele>
        <time>2017-05-25T08:33:07Z</time>
      </trkpt>
      <trkpt lat="48.45435" lon="-3.8282">
        <ele>195.765625</ele>
        <time>2017-05-25T08:33:09Z</time>
      </trkpt>
      <trkpt lat="48.45431" lon="-3.82824">
        <ele>197.20751953125</ele>
        <time>2017-05-25T08:33:13Z</time>
      </trkpt>
      <trkpt lat="48.45429" lon="-3.82825">
        <ele>197.20751953125</ele>
        <time>2017-05-25T08:33:15Z</time>
      </trkpt>
      <trkpt lat="48.45423" lon="-3.82832">
        <ele>197.68823242188</ele>
        <time>2017-05-25T08:33:22Z</time>
      </trkpt>
      <trkpt lat="48.45421" lon="-3.82834">
        <ele>198.64953613281</ele>
        <time>2017-05-25T08:33:25Z</time>
      </trkpt>
      <trkpt lat="48.45414" lon="-3.8284">
        <ele>198.64953613281</ele>
        <time>2017-05-25T08:33:32Z</time>
      </trkpt>
      <trkpt lat="48.4541" lon="-3.82845">
        <ele>198.64953613281</ele>
        <time>2017-05-25T08:33:37Z</time>
      </trkpt>
      <trkpt lat="48.45403" lon="-3.82852">
        <ele>199.61083984375</ele>
        <time>2017-05-25T08:33:44Z</time>
      </trkpt>
      <trkpt lat="48.45402" lon="-3.82853">
        <ele>199.13012695312</ele>
        <time>2017-05-25T08:33:45Z</time>
      </trkpt>
      <trkpt lat="48.45396" lon="-3.82858">
        <ele>199.13012695312</ele>
        <time>2017-05-25T08:33:51Z</time>
      </trkpt>
      <trkpt lat="48.45388" lon="-3.82866">
        <ele>198.1689453125</ele>
        <time>2017-05-25T08:34:00Z</time>
      </trkpt>
      <trkpt lat="48.45383" lon="-3.82869">
        <ele>197.20751953125</ele>
        <time>2017-05-25T08:34:05Z</time>
      </trkpt>
      <trkpt lat="48.45375" lon="-3.82874">
        <ele>196.24633789062</ele>
        <time>2017-05-25T08:34:13Z</time>
      </trkpt>
      <trkpt lat="48.4537" lon="-3.82879">
        <ele>196.24633789062</ele>
        <time>2017-05-25T08:34:18Z</time>
      </trkpt>
      <trkpt lat="48.4537" lon="-3.8288">
        <ele>195.765625</ele>
        <time>2017-05-25T08:34:19Z</time>
      </trkpt>
      <trkpt lat="48.45363" lon="-3.82884">
        <ele>195.765625</ele>
        <time>2017-05-25T08:34:25Z</time>
      </trkpt>
      <trkpt lat="48.45353" lon="-3.82889">
        <ele>195.765625</ele>
        <time>2017-05-25T08:34:32Z</time>
      </trkpt>
      <trkpt lat="48.45346" lon="-3.82891">
        <ele>197.20751953125</ele>
        <time>2017-05-25T08:34:39Z</time>
      </trkpt>
      <trkpt lat="48.45345" lon="-3.82892">
        <ele>197.20751953125</ele>
        <time>2017-05-25T08:34:40Z</time>
      </trkpt>
      <trkpt lat="48.45337" lon="-3.82894">
        <ele>196.72692871094</ele>
        <time>2017-05-25T08:34:47Z</time>
      </trkpt>
      <trkpt lat="48.45331" lon="-3.82897">
        <ele>194.80432128906</ele>
        <time>2017-05-25T08:34:52Z</time>
      </trkpt>
      <trkpt lat="48.4533" lon="-3.82897">
        <ele>194.32373046875</ele>
        <time>2017-05-25T08:34:53Z</time>
      </trkpt>
      <trkpt lat="48.45323" lon="-3.82899">
        <ele>194.80432128906</ele>
        <time>2017-05-25T08:35:00Z</time>
      </trkpt>
      <trkpt lat="48.45314" lon="-3.82902">
        <ele>192.88171386719</ele>
        <time>2017-05-25T08:35:08Z</time>
      </trkpt>
      <trkpt lat="48.45307" lon="-3.82904">
        <ele>194.32373046875</ele>
        <time>2017-05-25T08:35:14Z</time>
      </trkpt>
      <trkpt lat="48.45299" lon="-3.82904">
        <ele>194.32373046875</ele>
        <time>2017-05-25T08:35:20Z</time>
      </trkpt>
      <trkpt lat="48.4529" lon="-3.82906">
        <ele>192.88171386719</ele>
        <time>2017-05-25T08:35:27Z</time>
      </trkpt>
      <trkpt lat="48.45282" lon="-3.82909">
        <ele>191.92028808594</ele>
        <time>2017-05-25T08:35:33Z</time>
      </trkpt>
      <trkpt lat="48.45282" lon="-3.82908">
        <ele>192.88171386719</ele>
        <time>2017-05-25T08:35:34Z</time>
      </trkpt>
      <trkpt lat="48.4528" lon="-3.82907">
        <ele>194.80432128906</ele>
        <time>2017-05-25T08:35:37Z</time>
      </trkpt>
      <trkpt lat="48.45272" lon="-3.82906">
        <ele>194.80432128906</ele>
        <time>2017-05-25T08:35:44Z</time>
      </trkpt>
      <trkpt lat="48.45262" lon="-3.82907">
        <ele>196.72692871094</ele>
        <time>2017-05-25T08:35:52Z</time>
      </trkpt>
      <trkpt lat="48.45256" lon="-3.82908">
        <ele>195.765625</ele>
        <time>2017-05-25T08:35:57Z</time>
      </trkpt>
      <trkpt lat="48.45245" lon="-3.82908">
        <ele>197.68823242188</ele>
        <time>2017-05-25T08:36:04Z</time>
      </trkpt>
      <trkpt lat="48.45234" lon="-3.82911">
        <ele>196.72692871094</ele>
        <time>2017-05-25T08:36:12Z</time>
      </trkpt>
      <trkpt lat="48.4523" lon="-3.82911">
        <ele>198.64953613281</ele>
        <time>2017-05-25T08:36:15Z</time>
      </trkpt>
      <trkpt lat="48.45228" lon="-3.82912">
        <ele>197.68823242188</ele>
        <time>2017-05-25T08:36:17Z</time>
      </trkpt>
      <trkpt lat="48.45225" lon="-3.82913">
        <ele>197.20751953125</ele>
        <time>2017-05-25T08:36:20Z</time>
      </trkpt>
      <trkpt lat="48.45217" lon="-3.82915">
        <ele>197.20751953125</ele>
        <time>2017-05-25T08:36:27Z</time>
      </trkpt>
      <trkpt lat="48.45213" lon="-3.82917">
        <ele>196.72692871094</ele>
        <time>2017-05-25T08:36:30Z</time>
      </trkpt>
      <trkpt lat="48.45207" lon="-3.82918">
        <ele>197.68823242188</ele>
        <time>2017-05-25T08:36:36Z</time>
      </trkpt>
      <trkpt lat="48.45205" lon="-3.82918">
        <ele>197.68823242188</ele>
        <time>2017-05-25T08:36:37Z</time>
      </trkpt>
      <trkpt lat="48.45196" lon="-3.82917">
        <ele>199.13012695312</ele>
        <time>2017-05-25T08:36:44Z</time>
      </trkpt>
      <trkpt lat="48.45187" lon="-3.82916">
        <ele>200.09167480469</ele>
        <time>2017-05-25T08:36:51Z</time>
      </trkpt>
      <trkpt lat="48.45181" lon="-3.8292">
        <ele>199.61083984375</ele>
        <time>2017-05-25T08:36:56Z</time>
      </trkpt>
      <trkpt lat="48.45169" lon="-3.82921">
        <ele>199.61083984375</ele>
        <time>2017-05-25T08:37:04Z</time>
      </trkpt>
      <trkpt lat="48.45161" lon="-3.82925">
        <ele>201.05285644531</ele>
        <time>2017-05-25T08:37:11Z</time>
      </trkpt>
      <trkpt lat="48.45158" lon="-3.82926">
        <ele>201.05285644531</ele>
        <time>2017-05-25T08:37:13Z</time>
      </trkpt>
      <trkpt lat="48.45155" lon="-3.82928">
        <ele>202.49487304688</ele>
        <time>2017-05-25T08:37:16Z</time>
      </trkpt>
      <trkpt lat="48.45153" lon="-3.82929">
        <ele>202.97546386719</ele>
        <time>2017-05-25T08:37:18Z</time>
      </trkpt>
      <trkpt lat="48.45145" lon="-3.82935">
        <ele>205.37878417969</ele>
        <time>2017-05-25T08:37:25Z</time>
      </trkpt>
      <trkpt lat="48.45141" lon="-3.82938">
        <ele>205.85949707031</ele>
        <time>2017-05-25T08:37:28Z</time>
      </trkpt>
      <trkpt lat="48.45133" lon="-3.82945">
        <ele>208.26281738281</ele>
        <time>2017-05-25T08:37:36Z</time>
      </trkpt>
      <trkpt lat="48.45127" lon="-3.82951">
        <ele>210.18542480469</ele>
        <time>2017-05-25T08:37:41Z</time>
      </trkpt>
      <trkpt lat="48.4512" lon="-3.82956">
        <ele>211.62744140625</ele>
        <time>2017-05-25T08:37:46Z</time>
      </trkpt>
      <trkpt lat="48.45118" lon="-3.82957">
        <ele>212.58862304688</ele>
        <time>2017-05-25T08:37:48Z</time>
      </trkpt>
      <trkpt lat="48.45112" lon="-3.82962">
        <ele>212.10803222656</ele>
        <time>2017-05-25T08:37:53Z</time>
      </trkpt>
      <trkpt lat="48.4511" lon="-3.82964">
        <ele>211.62744140625</ele>
        <time>2017-05-25T08:37:55Z</time>
      </trkpt>
      <trkpt lat="48.45104" lon="-3.8297">
        <ele>213.0693359375</ele>
        <time>2017-05-25T08:38:01Z</time>
      </trkpt>
      <trkpt lat="48.45103" lon="-3.82973">
        <ele>214.03063964844</ele>
        <time>2017-05-25T08:38:03Z</time>
      </trkpt>
      <trkpt lat="48.45095" lon="-3.82985">
        <ele>213.0693359375</ele>
        <time>2017-05-25T08:38:12Z</time>
      </trkpt>
      <trkpt lat="48.45092" lon="-3.82992">
        <ele>214.03063964844</ele>
        <time>2017-05-25T08:38:18Z</time>
      </trkpt>
      <trkpt lat="48.45089" lon="-3.83001">
        <ele>214.51123046875</ele>
        <time>2017-05-25T08:38:24Z</time>
      </trkpt>
      <trkpt lat="48.45086" lon="-3.8301">
        <ele>213.0693359375</ele>
        <time>2017-05-25T08:38:31Z</time>
      </trkpt>
      <trkpt lat="48.45086" lon="-3.83012">
        <ele>212.58862304688</ele>
        <time>2017-05-25T08:38:32Z</time>
      </trkpt>
      <trkpt lat="48.45085" lon="-3.83019">
        <ele>206.82067871094</ele>
        <time>2017-05-25T08:38:38Z</time>
      </trkpt>
      <trkpt lat="48.45081" lon="-3.83027">
        <ele>207.30139160156</ele>
        <time>2017-05-25T08:38:42Z</time>
      </trkpt>
      <trkpt lat="48.45077" lon="-3.83035">
        <ele>203.45617675781</ele>
        <time>2017-05-25T08:38:48Z</time>
      </trkpt>
      <trkpt lat="48.45075" lon="-3.83041">
        <ele>204.41748046875</ele>
        <time>2017-05-25T08:38:52Z</time>
      </trkpt>
      <trkpt lat="48.45068" lon="-3.83054">
        <ele>208.74340820312</ele>
        <time>2017-05-25T08:38:59Z</time>
      </trkpt>
      <trkpt lat="48.45068" lon="-3.83056">
        <ele>209.70483398438</ele>
        <time>2017-05-25T08:39:00Z</time>
      </trkpt>
      <trkpt lat="48.45065" lon="-3.83063">
        <ele>214.51123046875</ele>
        <time>2017-05-25T08:39:06Z</time>
      </trkpt>
      <trkpt lat="48.45064" lon="-3.83068">
        <ele>215.47265625</ele>
        <time>2017-05-25T08:39:09Z</time>
      </trkpt>
      <trkpt lat="48.45062" lon="-3.83077">
        <ele>214.51123046875</ele>
        <time>2017-05-25T08:39:16Z</time>
      </trkpt>
      <trkpt lat="48.45058" lon="-3.83082">
        <ele>214.51123046875</ele>
        <time>2017-05-25T08:39:20Z</time>
      </trkpt>
      <trkpt lat="48.45053" lon="-3.83091">
        <ele>214.51123046875</ele>
        <time>2017-05-25T08:39:26Z</time>
      </trkpt>
      <trkpt lat="48.45049" lon="-3.83101">
        <ele>215.47265625</ele>
        <time>2017-05-25T08:39:33Z</time>
      </trkpt>
      <trkpt lat="48.45046" lon="-3.83106">
        <ele>215.47265625</ele>
        <time>2017-05-25T08:39:37Z</time>
      </trkpt>
      <trkpt lat="48.45045" lon="-3.83117">
        <ele>209.70483398438</ele>
        <time>2017-05-25T08:39:44Z</time>
      </trkpt>
      <trkpt lat="48.45045" lon="-3.83119">
        <ele>209.22412109375</ele>
        <time>2017-05-25T08:39:45Z</time>
      </trkpt>
      <trkpt lat="48.45045" lon="-3.83126">
        <ele>206.82067871094</ele>
        <time>2017-05-25T08:39:51Z</time>
      </trkpt>
      <trkpt lat="48.45044" lon="-3.8313">
        <ele>205.37878417969</ele>
        <time>2017-05-25T08:39:53Z</time>
      </trkpt>
      <trkpt lat="48.45043" lon="-3.83144">
        <ele>202.01428222656</ele>
        <time>2017-05-25T08:40:01Z</time>
      </trkpt>
      <trkpt lat="48.45042" lon="-3.8315">
        <ele>200.572265625</ele>
        <time>2017-05-25T08:40:05Z</time>
      </trkpt>
      <trkpt lat="48.45039" lon="-3.83163">
        <ele>202.01428222656</ele>
        <time>2017-05-25T08:40:12Z</time>
      </trkpt>
      <trkpt lat="48.45039" lon="-3.83165">
        <ele>202.49487304688</ele>
        <time>2017-05-25T08:40:13Z</time>
      </trkpt>
      <trkpt lat="48.45036" lon="-3.8317">
        <ele>202.97546386719</ele>
        <time>2017-05-25T08:40:18Z</time>
      </trkpt>
      <trkpt lat="48.4503" lon="-3.83179">
        <ele>207.30139160156</ele>
        <time>2017-05-25T08:40:24Z</time>
      </trkpt>
      <trkpt lat="48.45027" lon="-3.83185">
        <ele>208.26281738281</ele>
        <time>2017-05-25T08:40:28Z</time>
      </trkpt>
      <trkpt lat="48.45026" lon="-3.83192">
        <ele>207.30139160156</ele>
        <time>2017-05-25T08:40:32Z</time>
      </trkpt>
      <trkpt lat="48.45021" lon="-3.83204">
        <ele>208.74340820312</ele>
        <time>2017-05-25T08:40:38Z</time>
      </trkpt>
      <trkpt lat="48.4502" lon="-3.83208">
        <ele>209.70483398438</ele>
        <time>2017-05-25T08:40:40Z</time>
      </trkpt>
      <trkpt lat="48.45018" lon="-3.83219">
        <ele>209.22412109375</ele>
        <time>2017-05-25T08:40:48Z</time>
      </trkpt>
      <trkpt lat="48.45016" lon="-3.83221">
        <ele>211.14672851562</ele>
        <time>2017-05-25T08:40:50Z</time>
      </trkpt>
      <trkpt lat="48.4501" lon="-3.83233">
        <ele>214.51123046875</ele>
        <time>2017-05-25T08:40:57Z</time>
      </trkpt>
      <trkpt lat="48.45008" lon="-3.83241">
        <ele>216.43395996094</ele>
        <time>2017-05-25T08:41:01Z</time>
      </trkpt>
      <trkpt lat="48.45005" lon="-3.83245">
        <ele>218.35656738281</ele>
        <time>2017-05-25T08:41:04Z</time>
      </trkpt>
      <trkpt lat="48.45" lon="-3.83256">
        <ele>216.43395996094</ele>
        <time>2017-05-25T08:41:11Z</time>
      </trkpt>
      <trkpt lat="48.45" lon="-3.83266">
        <ele>210.666015625</ele>
        <time>2017-05-25T08:41:20Z</time>
      </trkpt>
      <trkpt lat="48.44999" lon="-3.83274">
        <ele>207.78210449219</ele>
        <time>2017-05-25T08:41:25Z</time>
      </trkpt>
      <trkpt lat="48.44997" lon="-3.8328">
        <ele>208.26281738281</ele>
        <time>2017-05-25T08:41:28Z</time>
      </trkpt>
      <trkpt lat="48.4499" lon="-3.83296">
        <ele>211.62744140625</ele>
        <time>2017-05-25T08:41:34Z</time>
      </trkpt>
      <trkpt lat="48.44987" lon="-3.83308">
        <ele>210.18542480469</ele>
        <time>2017-05-25T08:41:41Z</time>
      </trkpt>
      <trkpt lat="48.44986" lon="-3.83312">
        <ele>208.74340820312</ele>
        <time>2017-05-25T08:41:44Z</time>
      </trkpt>
      <trkpt lat="48.44984" lon="-3.83319">
        <ele>206.34008789062</ele>
        <time>2017-05-25T08:41:48Z</time>
      </trkpt>
      <trkpt lat="48.44983" lon="-3.83322">
        <ele>205.85949707031</ele>
        <time>2017-05-25T08:41:50Z</time>
      </trkpt>
      <trkpt lat="48.44983" lon="-3.83324">
        <ele>205.85949707031</ele>
        <time>2017-05-25T08:41:52Z</time>
      </trkpt>
      <trkpt lat="48.4498" lon="-3.8333">
        <ele>205.85949707031</ele>
        <time>2017-05-25T08:41:56Z</time>
      </trkpt>
      <trkpt lat="48.44977" lon="-3.83335">
        <ele>207.78210449219</ele>
        <time>2017-05-25T08:42:00Z</time>
      </trkpt>
      <trkpt lat="48.44975" lon="-3.83339">
        <ele>208.74340820312</ele>
        <time>2017-05-25T08:42:03Z</time>
      </trkpt>
      <trkpt lat="48.44973" lon="-3.83341">
        <ele>208.74340820312</ele>
        <time>2017-05-25T08:42:05Z</time>
      </trkpt>
      <trkpt lat="48.44969" lon="-3.83349">
        <ele>208.74340820312</ele>
        <time>2017-05-25T08:42:09Z</time>
      </trkpt>
      <trkpt lat="48.44963" lon="-3.83365">
        <ele>209.22412109375</ele>
        <time>2017-05-25T08:42:17Z</time>
      </trkpt>
      <trkpt lat="48.44959" lon="-3.83375">
        <ele>209.22412109375</ele>
        <time>2017-05-25T08:42:22Z</time>
      </trkpt>
      <trkpt lat="48.44956" lon="-3.83383">
        <ele>210.18542480469</ele>
        <time>2017-05-25T08:42:27Z</time>
      </trkpt>
      <trkpt lat="48.44953" lon="-3.83393">
        <ele>209.70483398438</ele>
        <time>2017-05-25T08:42:34Z</time>
      </trkpt>
      <trkpt lat="48.4495" lon="-3.83397">
        <ele>209.70483398438</ele>
        <time>2017-05-25T08:42:38Z</time>
      </trkpt>
      <trkpt lat="48.44947" lon="-3.83402">
        <ele>211.14672851562</ele>
        <time>2017-05-25T08:42:41Z</time>
      </trkpt>
      <trkpt lat="48.44941" lon="-3.83412">
        <ele>212.58862304688</ele>
        <time>2017-05-25T08:42:47Z</time>
      </trkpt>
      <trkpt lat="48.44936" lon="-3.83416">
        <ele>211.62744140625</ele>
        <time>2017-05-25T08:42:52Z</time>
      </trkpt>
      <trkpt lat="48.44931" lon="-3.83421">
        <ele>212.10803222656</ele>
        <time>2017-05-25T08:42:57Z</time>
      </trkpt>
      <trkpt lat="48.44923" lon="-3.83427">
        <ele>212.10803222656</ele>
        <time>2017-05-25T08:43:04Z</time>
      </trkpt>
      <trkpt lat="48.4492" lon="-3.83432">
        <ele>212.10803222656</ele>
        <time>2017-05-25T08:43:08Z</time>
      </trkpt>
      <trkpt lat="48.44918" lon="-3.83435">
        <ele>212.10803222656</ele>
        <time>2017-05-25T08:43:10Z</time>
      </trkpt>
      <trkpt lat="48.44909" lon="-3.83441">
        <ele>212.10803222656</ele>
        <time>2017-05-25T08:43:15Z</time>
      </trkpt>
      <trkpt lat="48.44905" lon="-3.83446">
        <ele>210.18542480469</ele>
        <time>2017-05-25T08:43:19Z</time>
      </trkpt>
      <trkpt lat="48.44903" lon="-3.83451">
        <ele>207.30139160156</ele>
        <time>2017-05-25T08:43:23Z</time>
      </trkpt>
      <trkpt lat="48.44902" lon="-3.83458">
        <ele>202.97546386719</ele>
        <time>2017-05-25T08:43:28Z</time>
      </trkpt>
      <trkpt lat="48.44899" lon="-3.83466">
        <ele>202.01428222656</ele>
        <time>2017-05-25T08:43:33Z</time>
      </trkpt>
      <trkpt lat="48.44896" lon="-3.83473">
        <ele>199.61083984375</ele>
        <time>2017-05-25T08:43:38Z</time>
      </trkpt>
      <trkpt lat="48.44893" lon="-3.83483">
        <ele>201.05285644531</ele>
        <time>2017-05-25T08:43:44Z</time>
      </trkpt>
      <trkpt lat="48.44889" lon="-3.83488">
        <ele>203.93688964844</ele>
        <time>2017-05-25T08:43:54Z</time>
      </trkpt>
      <trkpt lat="48.44886" lon="-3.83485">
        <ele>199.61083984375</ele>
        <time>2017-05-25T08:44:01Z</time>
      </trkpt>
      <trkpt lat="48.44879" lon="-3.83485">
        <ele>196.72692871094</ele>
        <time>2017-05-25T08:44:07Z</time>
      </trkpt>
      <trkpt lat="48.44875" lon="-3.83482">
        <ele>195.28491210938</ele>
        <time>2017-05-25T08:44:12Z</time>
      </trkpt>
      <trkpt lat="48.44867" lon="-3.83473">
        <ele>195.28491210938</ele>
        <time>2017-05-25T08:44:21Z</time>
      </trkpt>
      <trkpt lat="48.4486" lon="-3.83472">
        <ele>192.88171386719</ele>
        <time>2017-05-25T08:44:29Z</time>
      </trkpt>
      <trkpt lat="48.44855" lon="-3.83471">
        <ele>191.43957519531</ele>
        <time>2017-05-25T08:44:35Z</time>
      </trkpt>
      <trkpt lat="48.44852" lon="-3.83468">
        <ele>189.51696777344</ele>
        <time>2017-05-25T08:44:40Z</time>
      </trkpt>
      <trkpt lat="48.44848" lon="-3.83472">
        <ele>188.07507324219</ele>
        <time>2017-05-25T08:44:47Z</time>
      </trkpt>
      <trkpt lat="48.44841" lon="-3.83474">
        <ele>187.11376953125</ele>
        <time>2017-05-25T08:44:53Z</time>
      </trkpt>
      <trkpt lat="48.44836" lon="-3.83473">
        <ele>186.15246582031</ele>
        <time>2017-05-25T08:44:59Z</time>
      </trkpt>
      <trkpt lat="48.44833" lon="-3.83474">
        <ele>185.19116210938</ele>
        <time>2017-05-25T08:45:02Z</time>
      </trkpt>
      <trkpt lat="48.44829" lon="-3.83475">
        <ele>184.22985839844</ele>
        <time>2017-05-25T08:45:08Z</time>
      </trkpt>
      <trkpt lat="48.44825" lon="-3.83471">
        <ele>184.22985839844</ele>
        <time>2017-05-25T08:45:16Z</time>
      </trkpt>
      <trkpt lat="48.4482" lon="-3.83469">
        <ele>185.67175292969</ele>
        <time>2017-05-25T08:45:23Z</time>
      </trkpt>
      <trkpt lat="48.44815" lon="-3.83472">
        <ele>186.63317871094</ele>
        <time>2017-05-25T08:45:29Z</time>
      </trkpt>
      <trkpt lat="48.44811" lon="-3.83477">
        <ele>189.03637695312</ele>
        <time>2017-05-25T08:45:34Z</time>
      </trkpt>
      <trkpt lat="48.44808" lon="-3.83483">
        <ele>190.47839355469</ele>
        <time>2017-05-25T08:45:38Z</time>
      </trkpt>
      <trkpt lat="48.44805" lon="-3.83487">
        <ele>190.47839355469</ele>
        <time>2017-05-25T08:45:43Z</time>
      </trkpt>
      <trkpt lat="48.44797" lon="-3.83485">
        <ele>186.63317871094</ele>
        <time>2017-05-25T08:45:52Z</time>
      </trkpt>
      <trkpt lat="48.44793" lon="-3.83483">
        <ele>184.22985839844</ele>
        <time>2017-05-25T08:45:58Z</time>
      </trkpt>
      <trkpt lat="48.44787" lon="-3.83481">
        <ele>182.78784179688</ele>
        <time>2017-05-25T08:46:03Z</time>
      </trkpt>
      <trkpt lat="48.4478" lon="-3.83477">
        <ele>181.82641601562</ele>
        <time>2017-05-25T08:46:10Z</time>
      </trkpt>
      <trkpt lat="48.44776" lon="-3.83475">
        <ele>180.865234375</ele>
        <time>2017-05-25T08:46:13Z</time>
      </trkpt>
      <trkpt lat="48.44767" lon="-3.83472">
        <ele>183.26843261719</ele>
        <time>2017-05-25T08:46:21Z</time>
      </trkpt>
      <trkpt lat="48.44764" lon="-3.8347">
        <ele>183.7490234375</ele>
        <time>2017-05-25T08:46:23Z</time>
      </trkpt>
      <trkpt lat="48.44758" lon="-3.83465">
        <ele>186.15246582031</ele>
        <time>2017-05-25T08:46:29Z</time>
      </trkpt>
      <trkpt lat="48.44753" lon="-3.83462">
        <ele>187.59436035156</ele>
        <time>2017-05-25T08:46:34Z</time>
      </trkpt>
      <trkpt lat="48.44748" lon="-3.83459">
        <ele>188.07507324219</ele>
        <time>2017-05-25T08:46:40Z</time>
      </trkpt>
      <trkpt lat="48.4474" lon="-3.83454">
        <ele>189.51696777344</ele>
        <time>2017-05-25T08:46:46Z</time>
      </trkpt>
      <trkpt lat="48.4473" lon="-3.83447">
        <ele>190.47839355469</ele>
        <time>2017-05-25T08:46:55Z</time>
      </trkpt>
      <trkpt lat="48.44726" lon="-3.83451">
        <ele>189.99768066406</ele>
        <time>2017-05-25T08:47:00Z</time>
      </trkpt>
      <trkpt lat="48.44719" lon="-3.83456">
        <ele>189.03637695312</ele>
        <time>2017-05-25T08:47:06Z</time>
      </trkpt>
      <trkpt lat="48.44715" lon="-3.83458">
        <ele>188.55578613281</ele>
        <time>2017-05-25T08:47:12Z</time>
      </trkpt>
      <trkpt lat="48.44709" lon="-3.83467">
        <ele>189.99768066406</ele>
        <time>2017-05-25T08:47:20Z</time>
      </trkpt>
      <trkpt lat="48.44707" lon="-3.83472">
        <ele>190.47839355469</ele>
        <time>2017-05-25T08:47:23Z</time>
      </trkpt>
      <trkpt lat="48.44703" lon="-3.8348">
        <ele>191.43957519531</ele>
        <time>2017-05-25T08:47:28Z</time>
      </trkpt>
      <trkpt lat="48.44698" lon="-3.8349">
        <ele>191.43957519531</ele>
        <time>2017-05-25T08:47:35Z</time>
      </trkpt>
      <trkpt lat="48.44697" lon="-3.83494">
        <ele>191.92028808594</ele>
        <time>2017-05-25T08:47:37Z</time>
      </trkpt>
      <trkpt lat="48.44691" lon="-3.83511">
        <ele>191.92028808594</ele>
        <time>2017-05-25T08:47:47Z</time>
      </trkpt>
      <trkpt lat="48.44684" lon="-3.83518">
        <ele>193.84301757812</ele>
        <time>2017-05-25T08:47:54Z</time>
      </trkpt>
      <trkpt lat="48.44676" lon="-3.83515">
        <ele>195.28491210938</ele>
        <time>2017-05-25T08:48:01Z</time>
      </trkpt>
      <trkpt lat="48.44675" lon="-3.83515">
        <ele>195.28491210938</ele>
        <time>2017-05-25T08:48:02Z</time>
      </trkpt>
      <trkpt lat="48.4467" lon="-3.8351">
        <ele>196.24633789062</ele>
        <time>2017-05-25T08:48:07Z</time>
      </trkpt>
      <trkpt lat="48.44666" lon="-3.83509">
        <ele>197.20751953125</ele>
        <time>2017-05-25T08:48:10Z</time>
      </trkpt>
      <trkpt lat="48.44659" lon="-3.83504">
        <ele>198.1689453125</ele>
        <time>2017-05-25T08:48:16Z</time>
      </trkpt>
      <trkpt lat="48.44655" lon="-3.83502">
        <ele>198.1689453125</ele>
        <time>2017-05-25T08:48:20Z</time>
      </trkpt>
      <trkpt lat="48.44647" lon="-3.83498">
        <ele>198.64953613281</ele>
        <time>2017-05-25T08:48:28Z</time>
      </trkpt>
      <trkpt lat="48.44645" lon="-3.83496">
        <ele>199.61083984375</ele>
        <time>2017-05-25T08:48:30Z</time>
      </trkpt>
      <trkpt lat="48.44639" lon="-3.83492">
        <ele>201.53356933594</ele>
        <time>2017-05-25T08:48:37Z</time>
      </trkpt>
      <trkpt lat="48.44635" lon="-3.83491">
        <ele>202.01428222656</ele>
        <time>2017-05-25T08:48:41Z</time>
      </trkpt>
      <trkpt lat="48.44629" lon="-3.83492">
        <ele>202.01428222656</ele>
        <time>2017-05-25T08:48:47Z</time>
      </trkpt>
      <trkpt lat="48.44627" lon="-3.83489">
        <ele>203.45617675781</ele>
        <time>2017-05-25T08:48:51Z</time>
      </trkpt>
      <trkpt lat="48.44623" lon="-3.83491">
        <ele>202.49487304688</ele>
        <time>2017-05-25T08:48:56Z</time>
      </trkpt>
      <trkpt lat="48.44617" lon="-3.83494">
        <ele>202.49487304688</ele>
        <time>2017-05-25T08:49:01Z</time>
      </trkpt>
      <trkpt lat="48.44612" lon="-3.83495">
        <ele>202.01428222656</ele>
        <time>2017-05-25T08:49:06Z</time>
      </trkpt>
      <trkpt lat="48.44603" lon="-3.83498">
        <ele>201.05285644531</ele>
        <time>2017-05-25T08:49:14Z</time>
      </trkpt>
      <trkpt lat="48.44602" lon="-3.83498">
        <ele>201.05285644531</ele>
        <time>2017-05-25T08:49:15Z</time>
      </trkpt>
      <trkpt lat="48.44597" lon="-3.83499">
        <ele>202.01428222656</ele>
        <time>2017-05-25T08:49:19Z</time>
      </trkpt>
      <trkpt lat="48.44592" lon="-3.83501">
        <ele>201.05285644531</ele>
        <time>2017-05-25T08:49:25Z</time>
      </trkpt>
      <trkpt lat="48.44586" lon="-3.83499">
        <ele>202.01428222656</ele>
        <time>2017-05-25T08:49:31Z</time>
      </trkpt>
      <trkpt lat="48.44584" lon="-3.83499">
        <ele>202.01428222656</ele>
        <time>2017-05-25T08:49:32Z</time>
      </trkpt>
      <trkpt lat="48.44575" lon="-3.83497">
        <ele>203.45617675781</ele>
        <time>2017-05-25T08:49:39Z</time>
      </trkpt>
      <trkpt lat="48.44569" lon="-3.83495">
        <ele>204.41748046875</ele>
        <time>2017-05-25T08:49:45Z</time>
      </trkpt>
      <trkpt lat="48.44563" lon="-3.83495">
        <ele>203.93688964844</ele>
        <time>2017-05-25T08:49:50Z</time>
      </trkpt>
      <trkpt lat="48.44557" lon="-3.83489">
        <ele>204.41748046875</ele>
        <time>2017-05-25T08:49:56Z</time>
      </trkpt>
      <trkpt lat="48.44554" lon="-3.83488">
        <ele>204.41748046875</ele>
        <time>2017-05-25T08:49:59Z</time>
      </trkpt>
      <trkpt lat="48.44547" lon="-3.83484">
        <ele>205.37878417969</ele>
        <time>2017-05-25T08:50:06Z</time>
      </trkpt>
      <trkpt lat="48.44537" lon="-3.83478">
        <ele>204.89807128906</ele>
        <time>2017-05-25T08:50:15Z</time>
      </trkpt>
      <trkpt lat="48.44536" lon="-3.83478">
        <ele>204.41748046875</ele>
        <time>2017-05-25T08:50:16Z</time>
      </trkpt>
      <trkpt lat="48.44533" lon="-3.83475">
        <ele>204.41748046875</ele>
        <time>2017-05-25T08:50:20Z</time>
      </trkpt>
      <trkpt lat="48.4453" lon="-3.83473">
        <ele>204.89807128906</ele>
        <time>2017-05-25T08:50:24Z</time>
      </trkpt>
      <trkpt lat="48.44522" lon="-3.83469">
        <ele>201.53356933594</ele>
        <time>2017-05-25T08:50:30Z</time>
      </trkpt>
      <trkpt lat="48.44519" lon="-3.83468">
        <ele>201.53356933594</ele>
        <time>2017-05-25T08:50:33Z</time>
      </trkpt>
      <trkpt lat="48.44514" lon="-3.83465">
        <ele>201.05285644531</ele>
        <time>2017-05-25T08:50:39Z</time>
      </trkpt>
      <trkpt lat="48.44509" lon="-3.83462">
        <ele>200.572265625</ele>
        <time>2017-05-25T08:50:44Z</time>
      </trkpt>
      <trkpt lat="48.445" lon="-3.8346">
        <ele>198.64953613281</ele>
        <time>2017-05-25T08:50:52Z</time>
      </trkpt>
      <trkpt lat="48.44495" lon="-3.83458">
        <ele>197.20751953125</ele>
        <time>2017-05-25T08:50:57Z</time>
      </trkpt>
      <trkpt lat="48.44492" lon="-3.83456">
        <ele>197.68823242188</ele>
        <time>2017-05-25T08:50:59Z</time>
      </trkpt>
      <trkpt lat="48.44483" lon="-3.83451">
        <ele>195.765625</ele>
        <time>2017-05-25T08:51:07Z</time>
      </trkpt>
      <trkpt lat="48.44479" lon="-3.83449">
        <ele>194.80432128906</ele>
        <time>2017-05-25T08:51:10Z</time>
      </trkpt>
      <trkpt lat="48.44474" lon="-3.83448">
        <ele>193.3623046875</ele>
        <time>2017-05-25T08:51:14Z</time>
      </trkpt>
      <trkpt lat="48.44467" lon="-3.83444">
        <ele>192.88171386719</ele>
        <time>2017-05-25T08:51:21Z</time>
      </trkpt>
      <trkpt lat="48.44464" lon="-3.83442">
        <ele>193.3623046875</ele>
        <time>2017-05-25T08:51:24Z</time>
      </trkpt>
      <trkpt lat="48.44455" lon="-3.83437">
        <ele>194.80432128906</ele>
        <time>2017-05-25T08:51:33Z</time>
      </trkpt>
      <trkpt lat="48.44449" lon="-3.83434">
        <ele>195.28491210938</ele>
        <time>2017-05-25T08:51:38Z</time>
      </trkpt>
      <trkpt lat="48.44442" lon="-3.83429">
        <ele>194.80432128906</ele>
        <time>2017-05-25T08:51:45Z</time>
      </trkpt>
      <trkpt lat="48.44436" lon="-3.83424">
        <ele>201.05285644531</ele>
        <time>2017-05-25T08:51:49Z</time>
      </trkpt>
      <trkpt lat="48.44433" lon="-3.83419">
        <ele>203.93688964844</ele>
        <time>2017-05-25T08:51:53Z</time>
      </trkpt>
      <trkpt lat="48.44433" lon="-3.83413">
        <ele>203.93688964844</ele>
        <time>2017-05-25T08:51:57Z</time>
      </trkpt>
      <trkpt lat="48.44434" lon="-3.83407">
        <ele>204.89807128906</ele>
        <time>2017-05-25T08:52:02Z</time>
      </trkpt>
      <trkpt lat="48.44436" lon="-3.83399">
        <ele>204.89807128906</ele>
        <time>2017-05-25T08:52:07Z</time>
      </trkpt>
      <trkpt lat="48.44439" lon="-3.83386">
        <ele>205.85949707031</ele>
        <time>2017-05-25T08:52:15Z</time>
      </trkpt>
      <trkpt lat="48.44439" lon="-3.83383">
        <ele>205.85949707031</ele>
        <time>2017-05-25T08:52:17Z</time>
      </trkpt>
      <trkpt lat="48.44444" lon="-3.83373">
        <ele>202.97546386719</ele>
        <time>2017-05-25T08:52:23Z</time>
      </trkpt>
      <trkpt lat="48.44447" lon="-3.83365">
        <ele>203.93688964844</ele>
        <time>2017-05-25T08:52:28Z</time>
      </trkpt>
      <trkpt lat="48.44448" lon="-3.83363">
        <ele>203.45617675781</ele>
        <time>2017-05-25T08:52:29Z</time>
      </trkpt>
      <trkpt lat="48.44451" lon="-3.83353">
        <ele>202.97546386719</ele>
        <time>2017-05-25T08:52:35Z</time>
      </trkpt>
      <trkpt lat="48.44454" lon="-3.83345">
        <ele>201.05285644531</ele>
        <time>2017-05-25T08:52:41Z</time>
      </trkpt>
      <trkpt lat="48.44455" lon="-3.83343">
        <ele>200.09167480469</ele>
        <time>2017-05-25T08:52:43Z</time>
      </trkpt>
      <trkpt lat="48.4446" lon="-3.83332">
        <ele>199.13012695312</ele>
        <time>2017-05-25T08:52:50Z</time>
      </trkpt>
      <trkpt lat="48.44461" lon="-3.83328">
        <ele>198.64953613281</ele>
        <time>2017-05-25T08:52:53Z</time>
      </trkpt>
      <trkpt lat="48.44464" lon="-3.83322">
        <ele>197.20751953125</ele>
        <time>2017-05-25T08:52:57Z</time>
      </trkpt>
      <trkpt lat="48.44466" lon="-3.8331">
        <ele>193.84301757812</ele>
        <time>2017-05-25T08:53:03Z</time>
      </trkpt>
      <trkpt lat="48.44468" lon="-3.83305">
        <ele>193.84301757812</ele>
        <time>2017-05-25T08:53:06Z</time>
      </trkpt>
      <trkpt lat="48.44472" lon="-3.83299">
        <ele>195.765625</ele>
        <time>2017-05-25T08:53:10Z</time>
      </trkpt>
      <trkpt lat="48.44476" lon="-3.8329">
        <ele>193.3623046875</ele>
        <time>2017-05-25T08:53:16Z</time>
      </trkpt>
      <trkpt lat="48.4448" lon="-3.83286">
        <ele>191.92028808594</ele>
        <time>2017-05-25T08:53:19Z</time>
      </trkpt>
      <trkpt lat="48.44481" lon="-3.83283">
        <ele>190.47839355469</ele>
        <time>2017-05-25T08:53:22Z</time>
      </trkpt>
      <trkpt lat="48.44486" lon="-3.8327">
        <ele>192.40112304688</ele>
        <time>2017-05-25T08:53:29Z</time>
      </trkpt>
      <trkpt lat="48.44487" lon="-3.83268">
        <ele>192.40112304688</ele>
        <time>2017-05-25T08:53:30Z</time>
      </trkpt>
      <trkpt lat="48.44491" lon="-3.83258">
        <ele>191.92028808594</ele>
        <time>2017-05-25T08:53:36Z</time>
      </trkpt>
      <trkpt lat="48.44497" lon="-3.8325">
        <ele>189.51696777344</ele>
        <time>2017-05-25T08:53:43Z</time>
      </trkpt>
      <trkpt lat="48.44498" lon="-3.83246">
        <ele>188.55578613281</ele>
        <time>2017-05-25T08:53:45Z</time>
      </trkpt>
      <trkpt lat="48.44504" lon="-3.83241">
        <ele>185.67175292969</ele>
        <time>2017-05-25T08:53:51Z</time>
      </trkpt>
      <trkpt lat="48.44505" lon="-3.83238">
        <ele>185.19116210938</ele>
        <time>2017-05-25T08:53:54Z</time>
      </trkpt>
      <trkpt lat="48.44511" lon="-3.83226">
        <ele>184.71057128906</ele>
        <time>2017-05-25T08:54:03Z</time>
      </trkpt>
      <trkpt lat="48.44516" lon="-3.83218">
        <ele>185.19116210938</ele>
        <time>2017-05-25T08:54:09Z</time>
      </trkpt>
      <trkpt lat="48.44521" lon="-3.83203">
        <ele>186.63317871094</ele>
        <time>2017-05-25T08:54:18Z</time>
      </trkpt>
      <trkpt lat="48.44524" lon="-3.83197">
        <ele>189.51696777344</ele>
        <time>2017-05-25T08:54:22Z</time>
      </trkpt>
      <trkpt lat="48.44527" lon="-3.83192">
        <ele>190.958984375</ele>
        <time>2017-05-25T08:54:25Z</time>
      </trkpt>
      <trkpt lat="48.44533" lon="-3.83183">
        <ele>189.99768066406</ele>
        <time>2017-05-25T08:54:31Z</time>
      </trkpt>
      <trkpt lat="48.44534" lon="-3.83182">
        <ele>189.51696777344</ele>
        <time>2017-05-25T08:54:32Z</time>
      </trkpt>
      <trkpt lat="48.44538" lon="-3.83176">
        <ele>189.03637695312</ele>
        <time>2017-05-25T08:54:38Z</time>
      </trkpt>
      <trkpt lat="48.44539" lon="-3.83174">
        <ele>189.03637695312</ele>
        <time>2017-05-25T08:54:40Z</time>
      </trkpt>
      <trkpt lat="48.44542" lon="-3.83168">
        <ele>189.03637695312</ele>
        <time>2017-05-25T08:54:46Z</time>
      </trkpt>
      <trkpt lat="48.44547" lon="-3.83163">
        <ele>186.63317871094</ele>
        <time>2017-05-25T08:54:52Z</time>
      </trkpt>
      <trkpt lat="48.44549" lon="-3.8316">
        <ele>186.15246582031</ele>
        <time>2017-05-25T08:54:54Z</time>
      </trkpt>
      <trkpt lat="48.44557" lon="-3.83154">
        <ele>191.92028808594</ele>
        <time>2017-05-25T08:55:02Z</time>
      </trkpt>
      <trkpt lat="48.4456" lon="-3.83153">
        <ele>193.3623046875</ele>
        <time>2017-05-25T08:55:06Z</time>
      </trkpt>
      <trkpt lat="48.44564" lon="-3.83152">
        <ele>197.20751953125</ele>
        <time>2017-05-25T08:55:11Z</time>
      </trkpt>
      <trkpt lat="48.44568" lon="-3.83151">
        <ele>198.64953613281</ele>
        <time>2017-05-25T08:55:16Z</time>
      </trkpt>
      <trkpt lat="48.44575" lon="-3.83152">
        <ele>200.09167480469</ele>
        <time>2017-05-25T08:55:21Z</time>
      </trkpt>
      <trkpt lat="48.44581" lon="-3.8315">
        <ele>202.01428222656</ele>
        <time>2017-05-25T08:55:27Z</time>
      </trkpt>
      <trkpt lat="48.44586" lon="-3.83147">
        <ele>202.01428222656</ele>
        <time>2017-05-25T08:55:31Z</time>
      </trkpt>
      <trkpt lat="48.4459" lon="-3.83142">
        <ele>202.01428222656</ele>
        <time>2017-05-25T08:55:37Z</time>
      </trkpt>
      <trkpt lat="48.44591" lon="-3.83141">
        <ele>201.53356933594</ele>
        <time>2017-05-25T08:55:38Z</time>
      </trkpt>
      <trkpt lat="48.44597" lon="-3.83136">
        <ele>202.01428222656</ele>
        <time>2017-05-25T08:55:44Z</time>
      </trkpt>
      <trkpt lat="48.44603" lon="-3.8313">
        <ele>202.01428222656</ele>
        <time>2017-05-25T08:55:52Z</time>
      </trkpt>
      <trkpt lat="48.44608" lon="-3.8312">
        <ele>202.97546386719</ele>
        <time>2017-05-25T08:56:00Z</time>
      </trkpt>
      <trkpt lat="48.44609" lon="-3.83119">
        <ele>202.97546386719</ele>
        <time>2017-05-25T08:56:01Z</time>
      </trkpt>
      <trkpt lat="48.44613" lon="-3.83111">
        <ele>203.45617675781</ele>
        <time>2017-05-25T08:56:08Z</time>
      </trkpt>
      <trkpt lat="48.44615" lon="-3.83105">
        <ele>203.45617675781</ele>
        <time>2017-05-25T08:56:12Z</time>
      </trkpt>
      <trkpt lat="48.44621" lon="-3.83096">
        <ele>204.89807128906</ele>
        <time>2017-05-25T08:56:20Z</time>
      </trkpt>
      <trkpt lat="48.44623" lon="-3.83094">
        <ele>205.37878417969</ele>
        <time>2017-05-25T08:56:22Z</time>
      </trkpt>
      <trkpt lat="48.44623" lon="-3.83084">
        <ele>206.82067871094</ele>
        <time>2017-05-25T08:56:29Z</time>
      </trkpt>
      <trkpt lat="48.44623" lon="-3.83083">
        <ele>206.82067871094</ele>
        <time>2017-05-25T08:56:30Z</time>
      </trkpt>
      <trkpt lat="48.4462" lon="-3.83073">
        <ele>206.82067871094</ele>
        <time>2017-05-25T08:56:37Z</time>
      </trkpt>
      <trkpt lat="48.4462" lon="-3.8307">
        <ele>206.82067871094</ele>
        <time>2017-05-25T08:56:39Z</time>
      </trkpt>
      <trkpt lat="48.4462" lon="-3.83059">
        <ele>206.34008789062</ele>
        <time>2017-05-25T08:56:45Z</time>
      </trkpt>
      <trkpt lat="48.44621" lon="-3.83051">
        <ele>205.85949707031</ele>
        <time>2017-05-25T08:56:50Z</time>
      </trkpt>
      <trkpt lat="48.44622" lon="-3.83043">
        <ele>206.82067871094</ele>
        <time>2017-05-25T08:56:54Z</time>
      </trkpt>
      <trkpt lat="48.44623" lon="-3.83034">
        <ele>207.30139160156</ele>
        <time>2017-05-25T08:56:59Z</time>
      </trkpt>
      <trkpt lat="48.44623" lon="-3.83022">
        <ele>208.74340820312</ele>
        <time>2017-05-25T08:57:06Z</time>
      </trkpt>
      <trkpt lat="48.44623" lon="-3.83012">
        <ele>210.18542480469</ele>
        <time>2017-05-25T08:57:12Z</time>
      </trkpt>
      <trkpt lat="48.44623" lon="-3.83002">
        <ele>211.14672851562</ele>
        <time>2017-05-25T08:57:18Z</time>
      </trkpt>
      <trkpt lat="48.44624" lon="-3.82995">
        <ele>210.666015625</ele>
        <time>2017-05-25T08:57:22Z</time>
      </trkpt>
      <trkpt lat="48.44622" lon="-3.82984">
        <ele>211.62744140625</ele>
        <time>2017-05-25T08:57:29Z</time>
      </trkpt>
      <trkpt lat="48.44622" lon="-3.82966">
        <ele>211.14672851562</ele>
        <time>2017-05-25T08:57:40Z</time>
      </trkpt>
      <trkpt lat="48.44622" lon="-3.82952">
        <ele>212.10803222656</ele>
        <time>2017-05-25T08:57:48Z</time>
      </trkpt>
      <trkpt lat="48.44621" lon="-3.82941">
        <ele>213.0693359375</ele>
        <time>2017-05-25T08:57:55Z</time>
      </trkpt>
      <trkpt lat="48.44618" lon="-3.82929">
        <ele>213.0693359375</ele>
        <time>2017-05-25T08:58:02Z</time>
      </trkpt>
      <trkpt lat="48.44615" lon="-3.82924">
        <ele>213.55004882812</ele>
        <time>2017-05-25T08:58:08Z</time>
      </trkpt>
      <trkpt lat="48.44614" lon="-3.82917">
        <ele>214.51123046875</ele>
        <time>2017-05-25T08:58:12Z</time>
      </trkpt>
      <trkpt lat="48.44607" lon="-3.82907">
        <ele>214.99194335938</ele>
        <time>2017-05-25T08:58:20Z</time>
      </trkpt>
      <trkpt lat="48.446" lon="-3.82898">
        <ele>215.95324707031</ele>
        <time>2017-05-25T08:58:27Z</time>
      </trkpt>
      <trkpt lat="48.44593" lon="-3.8289">
        <ele>216.43395996094</ele>
        <time>2017-05-25T08:58:35Z</time>
      </trkpt>
      <trkpt lat="48.44588" lon="-3.82882">
        <ele>217.39538574219</ele>
        <time>2017-05-25T08:58:41Z</time>
      </trkpt>
      <trkpt lat="48.44581" lon="-3.82872">
        <ele>218.83728027344</ele>
        <time>2017-05-25T08:58:49Z</time>
      </trkpt>
      <trkpt lat="48.44575" lon="-3.82863">
        <ele>218.83728027344</ele>
        <time>2017-05-25T08:58:56Z</time>
      </trkpt>
      <trkpt lat="48.44575" lon="-3.82861">
        <ele>216.91467285156</ele>
        <time>2017-05-25T08:59:00Z</time>
      </trkpt>
      <trkpt lat="48.44572" lon="-3.82856">
        <ele>216.91467285156</ele>
        <time>2017-05-25T08:59:04Z</time>
      </trkpt>
      <trkpt lat="48.44568" lon="-3.82849">
        <ele>218.35656738281</ele>
        <time>2017-05-25T08:59:10Z</time>
      </trkpt>
      <trkpt lat="48.44564" lon="-3.82842">
        <ele>217.8759765625</ele>
        <time>2017-05-25T08:59:16Z</time>
      </trkpt>
      <trkpt lat="48.44559" lon="-3.82835">
        <ele>218.83728027344</ele>
        <time>2017-05-25T08:59:22Z</time>
      </trkpt>
      <trkpt lat="48.44555" lon="-3.82826">
        <ele>218.35656738281</ele>
        <time>2017-05-25T08:59:28Z</time>
      </trkpt>
      <trkpt lat="48.4455" lon="-3.82821">
        <ele>219.31799316406</ele>
        <time>2017-05-25T08:59:33Z</time>
      </trkpt>
      <trkpt lat="48.44548" lon="-3.8282">
        <ele>218.83728027344</ele>
        <time>2017-05-25T08:59:36Z</time>
      </trkpt>
      <trkpt lat="48.44542" lon="-3.82824">
        <ele>218.83728027344</ele>
        <time>2017-05-25T08:59:42Z</time>
      </trkpt>
      <trkpt lat="48.4454" lon="-3.82826">
        <ele>218.83728027344</ele>
        <time>2017-05-25T08:59:44Z</time>
      </trkpt>
      <trkpt lat="48.44537" lon="-3.82832">
        <ele>219.31799316406</ele>
        <time>2017-05-25T08:59:50Z</time>
      </trkpt>
      <trkpt lat="48.44531" lon="-3.82839">
        <ele>220.27917480469</ele>
        <time>2017-05-25T08:59:57Z</time>
      </trkpt>
      <trkpt lat="48.44521" lon="-3.82849">
        <ele>221.24060058594</ele>
        <time>2017-05-25T09:00:07Z</time>
      </trkpt>
      <trkpt lat="48.44512" lon="-3.8285">
        <ele>222.68249511719</ele>
        <time>2017-05-25T09:00:14Z</time>
      </trkpt>
      <trkpt lat="48.44505" lon="-3.82848">
        <ele>222.68249511719</ele>
        <time>2017-05-25T09:00:20Z</time>
      </trkpt>
      <trkpt lat="48.44498" lon="-3.82847">
        <ele>220.75988769531</ele>
        <time>2017-05-25T09:00:26Z</time>
      </trkpt>
      <trkpt lat="48.44491" lon="-3.82844">
        <ele>216.43395996094</ele>
        <time>2017-05-25T09:00:33Z</time>
      </trkpt>
      <trkpt lat="48.44486" lon="-3.8284">
        <ele>212.58862304688</ele>
        <time>2017-05-25T09:00:39Z</time>
      </trkpt>
      <trkpt lat="48.44476" lon="-3.82831">
        <ele>216.43395996094</ele>
        <time>2017-05-25T09:00:48Z</time>
      </trkpt>
      <trkpt lat="48.44473" lon="-3.82826">
        <ele>219.79858398438</ele>
        <time>2017-05-25T09:00:51Z</time>
      </trkpt>
      <trkpt lat="48.44469" lon="-3.82821">
        <ele>222.68249511719</ele>
        <time>2017-05-25T09:00:55Z</time>
      </trkpt>
      <trkpt lat="48.44463" lon="-3.82817">
        <ele>223.64379882812</ele>
        <time>2017-05-25T09:01:01Z</time>
      </trkpt>
      <trkpt lat="48.44458" lon="-3.82812">
        <ele>225.0859375</ele>
        <time>2017-05-25T09:01:07Z</time>
      </trkpt>
      <trkpt lat="48.44449" lon="-3.82805">
        <ele>224.60522460938</ele>
        <time>2017-05-25T09:01:14Z</time>
      </trkpt>
      <trkpt lat="48.44442" lon="-3.82799">
        <ele>224.12451171875</ele>
        <time>2017-05-25T09:01:20Z</time>
      </trkpt>
      <trkpt lat="48.4444" lon="-3.82797">
        <ele>223.16320800781</ele>
        <time>2017-05-25T09:01:22Z</time>
      </trkpt>
      <trkpt lat="48.44433" lon="-3.82793">
        <ele>220.27917480469</ele>
        <time>2017-05-25T09:01:28Z</time>
      </trkpt>
      <trkpt lat="48.44428" lon="-3.82789">
        <ele>221.24060058594</ele>
        <time>2017-05-25T09:01:34Z</time>
      </trkpt>
      <trkpt lat="48.44424" lon="-3.82785">
        <ele>221.24060058594</ele>
        <time>2017-05-25T09:01:38Z</time>
      </trkpt>
      <trkpt lat="48.44416" lon="-3.82774">
        <ele>227.9697265625</ele>
        <time>2017-05-25T09:01:45Z</time>
      </trkpt>
      <trkpt lat="48.4441" lon="-3.82771">
        <ele>227.9697265625</ele>
        <time>2017-05-25T09:01:49Z</time>
      </trkpt>
      <trkpt lat="48.44405" lon="-3.82764">
        <ele>230.85375976562</ele>
        <time>2017-05-25T09:01:55Z</time>
      </trkpt>
      <trkpt lat="48.44399" lon="-3.8276">
        <ele>228.45043945312</ele>
        <time>2017-05-25T09:02:02Z</time>
      </trkpt>
      <trkpt lat="48.44395" lon="-3.82757">
        <ele>227.00854492188</ele>
        <time>2017-05-25T09:02:06Z</time>
      </trkpt>
      <trkpt lat="48.44392" lon="-3.82755">
        <ele>227.48913574219</ele>
        <time>2017-05-25T09:02:09Z</time>
      </trkpt>
      <trkpt lat="48.4439" lon="-3.82754">
        <ele>227.00854492188</ele>
        <time>2017-05-25T09:02:11Z</time>
      </trkpt>
      <trkpt lat="48.44384" lon="-3.8275">
        <ele>223.16320800781</ele>
        <time>2017-05-25T09:02:17Z</time>
      </trkpt>
      <trkpt lat="48.44376" lon="-3.82742">
        <ele>221.24060058594</ele>
        <time>2017-05-25T09:02:25Z</time>
      </trkpt>
      <trkpt lat="48.44372" lon="-3.82739">
        <ele>219.79858398438</ele>
        <time>2017-05-25T09:02:29Z</time>
      </trkpt>
      <trkpt lat="48.44368" lon="-3.82736">
        <ele>218.35656738281</ele>
        <time>2017-05-25T09:02:33Z</time>
      </trkpt>
      <trkpt lat="48.44357" lon="-3.82729">
        <ele>214.99194335938</ele>
        <time>2017-05-25T09:02:42Z</time>
      </trkpt>
      <trkpt lat="48.44348" lon="-3.82722">
        <ele>214.03063964844</ele>
        <time>2017-05-25T09:02:50Z</time>
      </trkpt>
      <trkpt lat="48.44338" lon="-3.82714">
        <ele>213.55004882812</ele>
        <time>2017-05-25T09:02:59Z</time>
      </trkpt>
      <trkpt lat="48.44329" lon="-3.82703">
        <ele>217.39538574219</ele>
        <time>2017-05-25T09:03:07Z</time>
      </trkpt>
      <trkpt lat="48.4432" lon="-3.82692">
        <ele>219.79858398438</ele>
        <time>2017-05-25T09:03:15Z</time>
      </trkpt>
      <trkpt lat="48.44312" lon="-3.82684">
        <ele>217.8759765625</ele>
        <time>2017-05-25T09:03:23Z</time>
      </trkpt>
      <trkpt lat="48.44302" lon="-3.82673">
        <ele>217.8759765625</ele>
        <time>2017-05-25T09:03:32Z</time>
      </trkpt>
      <trkpt lat="48.44294" lon="-3.82663">
        <ele>217.8759765625</ele>
        <time>2017-05-25T09:03:40Z</time>
      </trkpt>
      <trkpt lat="48.44287" lon="-3.82651">
        <ele>219.31799316406</ele>
        <time>2017-05-25T09:03:48Z</time>
      </trkpt>
      <trkpt lat="48.44284" lon="-3.82644">
        <ele>223.16320800781</ele>
        <time>2017-05-25T09:03:51Z</time>
      </trkpt>
      <trkpt lat="48.44279" lon="-3.82636">
        <ele>223.64379882812</ele>
        <time>2017-05-25T09:03:56Z</time>
      </trkpt>
      <trkpt lat="48.44273" lon="-3.82624">
        <ele>225.56652832031</ele>
        <time>2017-05-25T09:04:04Z</time>
      </trkpt>
      <trkpt lat="48.44268" lon="-3.82615">
        <ele>226.52783203125</ele>
        <time>2017-05-25T09:04:10Z</time>
      </trkpt>
      <trkpt lat="48.44262" lon="-3.82607">
        <ele>225.0859375</ele>
        <time>2017-05-25T09:04:17Z</time>
      </trkpt>
      <trkpt lat="48.44257" lon="-3.826">
        <ele>222.68249511719</ele>
        <time>2017-05-25T09:04:23Z</time>
      </trkpt>
      <trkpt lat="48.44254" lon="-3.82596">
        <ele>221.72119140625</ele>
        <time>2017-05-25T09:04:26Z</time>
      </trkpt>
      <trkpt lat="48.44248" lon="-3.8259">
        <ele>220.27917480469</ele>
        <time>2017-05-25T09:04:33Z</time>
      </trkpt>
      <trkpt lat="48.44242" lon="-3.82583">
        <ele>218.35656738281</ele>
        <time>2017-05-25T09:04:40Z</time>
      </trkpt>
      <trkpt lat="48.44236" lon="-3.82572">
        <ele>221.72119140625</ele>
        <time>2017-05-25T09:04:47Z</time>
      </trkpt>
      <trkpt lat="48.44231" lon="-3.82558">
        <ele>228.93115234375</ele>
        <time>2017-05-25T09:04:53Z</time>
      </trkpt>
      <trkpt lat="48.44228" lon="-3.82551">
        <ele>225.56652832031</ele>
        <time>2017-05-25T09:04:59Z</time>
      </trkpt>
      <trkpt lat="48.44226" lon="-3.82547">
        <ele>226.52783203125</ele>
        <time>2017-05-25T09:05:01Z</time>
      </trkpt>
      <trkpt lat="48.44222" lon="-3.82536">
        <ele>226.04711914062</ele>
        <time>2017-05-25T09:05:08Z</time>
      </trkpt>
      <trkpt lat="48.44219" lon="-3.82527">
        <ele>227.00854492188</ele>
        <time>2017-05-25T09:05:13Z</time>
      </trkpt>
      <trkpt lat="48.44217" lon="-3.82518">
        <ele>222.68249511719</ele>
        <time>2017-05-25T09:05:21Z</time>
      </trkpt>
      <trkpt lat="48.44216" lon="-3.8251">
        <ele>220.75988769531</ele>
        <time>2017-05-25T09:05:27Z</time>
      </trkpt>
      <trkpt lat="48.44214" lon="-3.825">
        <ele>220.75988769531</ele>
        <time>2017-05-25T09:05:33Z</time>
      </trkpt>
      <trkpt lat="48.4421" lon="-3.82491">
        <ele>225.0859375</ele>
        <time>2017-05-25T09:05:37Z</time>
      </trkpt>
      <trkpt lat="48.44208" lon="-3.82482">
        <ele>223.64379882812</ele>
        <time>2017-05-25T09:05:44Z</time>
      </trkpt>
      <trkpt lat="48.44205" lon="-3.82473">
        <ele>220.27917480469</ele>
        <time>2017-05-25T09:05:51Z</time>
      </trkpt>
      <trkpt lat="48.44202" lon="-3.82463">
        <ele>226.52783203125</ele>
        <time>2017-05-25T09:05:55Z</time>
      </trkpt>
      <trkpt lat="48.442" lon="-3.82451">
        <ele>227.00854492188</ele>
        <time>2017-05-25T09:06:01Z</time>
      </trkpt>
      <trkpt lat="48.44198" lon="-3.82444">
        <ele>228.93115234375</ele>
        <time>2017-05-25T09:06:05Z</time>
      </trkpt>
      <trkpt lat="48.44196" lon="-3.82438">
        <ele>230.373046875</ele>
        <time>2017-05-25T09:06:08Z</time>
      </trkpt>
      <trkpt lat="48.44194" lon="-3.82429">
        <ele>230.85375976562</ele>
        <time>2017-05-25T09:06:13Z</time>
      </trkpt>
      <trkpt lat="48.44194" lon="-3.8242">
        <ele>232.29577636719</ele>
        <time>2017-05-25T09:06:18Z</time>
      </trkpt>
      <trkpt lat="48.44193" lon="-3.82411">
        <ele>232.77648925781</ele>
        <time>2017-05-25T09:06:23Z</time>
      </trkpt>
      <trkpt lat="48.44192" lon="-3.82395">
        <ele>234.21838378906</ele>
        <time>2017-05-25T09:06:32Z</time>
      </trkpt>
      <trkpt lat="48.44191" lon="-3.82384">
        <ele>235.1796875</ele>
        <time>2017-05-25T09:06:38Z</time>
      </trkpt>
      <trkpt lat="48.44188" lon="-3.82374">
        <ele>236.14099121094</ele>
        <time>2017-05-25T09:06:44Z</time>
      </trkpt>
      <trkpt lat="48.44184" lon="-3.82364">
        <ele>236.14099121094</ele>
        <time>2017-05-25T09:06:50Z</time>
      </trkpt>
      <trkpt lat="48.44182" lon="-3.8236">
        <ele>236.14099121094</ele>
        <time>2017-05-25T09:06:53Z</time>
      </trkpt>
      <trkpt lat="48.4418" lon="-3.82351">
        <ele>237.10229492188</ele>
        <time>2017-05-25T09:06:59Z</time>
      </trkpt>
      <trkpt lat="48.44178" lon="-3.82341">
        <ele>238.54431152344</ele>
        <time>2017-05-25T09:07:05Z</time>
      </trkpt>
      <trkpt lat="48.44174" lon="-3.82331">
        <ele>239.50549316406</ele>
        <time>2017-05-25T09:07:12Z</time>
      </trkpt>
      <trkpt lat="48.4417" lon="-3.82318">
        <ele>239.98620605469</ele>
        <time>2017-05-25T09:07:20Z</time>
      </trkpt>
      <trkpt lat="48.44166" lon="-3.82311">
        <ele>239.98620605469</ele>
        <time>2017-05-25T09:07:25Z</time>
      </trkpt>
      <trkpt lat="48.44163" lon="-3.823">
        <ele>239.98620605469</ele>
        <time>2017-05-25T09:07:32Z</time>
      </trkpt>
      <trkpt lat="48.44159" lon="-3.82292">
        <ele>240.46704101562</ele>
        <time>2017-05-25T09:07:38Z</time>
      </trkpt>
      <trkpt lat="48.44156" lon="-3.82282">
        <ele>240.94763183594</ele>
        <time>2017-05-25T09:07:45Z</time>
      </trkpt>
      <trkpt lat="48.44154" lon="-3.82276">
        <ele>239.98620605469</ele>
        <time>2017-05-25T09:07:49Z</time>
      </trkpt>
      <trkpt lat="48.44152" lon="-3.82268">
        <ele>240.94763183594</ele>
        <time>2017-05-25T09:07:54Z</time>
      </trkpt>
      <trkpt lat="48.4415" lon="-3.8226">
        <ele>242.3896484375</ele>
        <time>2017-05-25T09:07:59Z</time>
      </trkpt>
      <trkpt lat="48.44145" lon="-3.82247">
        <ele>243.83154296875</ele>
        <time>2017-05-25T09:08:07Z</time>
      </trkpt>
      <trkpt lat="48.44145" lon="-3.82245">
        <ele>243.83154296875</ele>
        <time>2017-05-25T09:08:08Z</time>
      </trkpt>
      <trkpt lat="48.4414" lon="-3.82236">
        <ele>243.35083007812</ele>
        <time>2017-05-25T09:08:14Z</time>
      </trkpt>
      <trkpt lat="48.4414" lon="-3.82235">
        <ele>243.35083007812</ele>
        <time>2017-05-25T09:08:15Z</time>
      </trkpt>
      <trkpt lat="48.44135" lon="-3.82227">
        <ele>242.87023925781</ele>
        <time>2017-05-25T09:08:21Z</time>
      </trkpt>
      <trkpt lat="48.44134" lon="-3.82225">
        <ele>241.90893554688</ele>
        <time>2017-05-25T09:08:23Z</time>
      </trkpt>
      <trkpt lat="48.44131" lon="-3.82218">
        <ele>239.50549316406</ele>
        <time>2017-05-25T09:08:29Z</time>
      </trkpt>
      <trkpt lat="48.44125" lon="-3.82209">
        <ele>237.58288574219</ele>
        <time>2017-05-25T09:08:37Z</time>
      </trkpt>
      <trkpt lat="48.44121" lon="-3.82202">
        <ele>236.62170410156</ele>
        <time>2017-05-25T09:08:44Z</time>
      </trkpt>
      <trkpt lat="48.44116" lon="-3.82195">
        <ele>234.21838378906</ele>
        <time>2017-05-25T09:08:51Z</time>
      </trkpt>
      <trkpt lat="48.44111" lon="-3.82186">
        <ele>236.14099121094</ele>
        <time>2017-05-25T09:08:57Z</time>
      </trkpt>
      <trkpt lat="48.44106" lon="-3.82179">
        <ele>237.10229492188</ele>
        <time>2017-05-25T09:09:03Z</time>
      </trkpt>
      <trkpt lat="48.44099" lon="-3.82171">
        <ele>237.10229492188</ele>
        <time>2017-05-25T09:09:10Z</time>
      </trkpt>
      <trkpt lat="48.44094" lon="-3.82166">
        <ele>236.62170410156</ele>
        <time>2017-05-25T09:09:15Z</time>
      </trkpt>
      <trkpt lat="48.44087" lon="-3.82157">
        <ele>240.46704101562</ele>
        <time>2017-05-25T09:09:22Z</time>
      </trkpt>
      <trkpt lat="48.44082" lon="-3.82151">
        <ele>239.02490234375</ele>
        <time>2017-05-25T09:09:28Z</time>
      </trkpt>
      <trkpt lat="48.44076" lon="-3.82144">
        <ele>239.02490234375</ele>
        <time>2017-05-25T09:09:35Z</time>
      </trkpt>
      <trkpt lat="48.44071" lon="-3.82138">
        <ele>238.54431152344</ele>
        <time>2017-05-25T09:09:41Z</time>
      </trkpt>
      <trkpt lat="48.4407" lon="-3.82137">
        <ele>238.54431152344</ele>
        <time>2017-05-25T09:09:43Z</time>
      </trkpt>
      <trkpt lat="48.44066" lon="-3.82133">
        <ele>237.58288574219</ele>
        <time>2017-05-25T09:09:47Z</time>
      </trkpt>
      <trkpt lat="48.4406" lon="-3.82126">
        <ele>237.58288574219</ele>
        <time>2017-05-25T09:09:54Z</time>
      </trkpt>
      <trkpt lat="48.44052" lon="-3.82119">
        <ele>236.62170410156</ele>
        <time>2017-05-25T09:10:02Z</time>
      </trkpt>
      <trkpt lat="48.44043" lon="-3.82105">
        <ele>245.75415039062</ele>
        <time>2017-05-25T09:10:10Z</time>
      </trkpt>
      <trkpt lat="48.44037" lon="-3.82097">
        <ele>248.15759277344</ele>
        <time>2017-05-25T09:10:15Z</time>
      </trkpt>
      <trkpt lat="48.44032" lon="-3.82095">
        <ele>251.04138183594</ele>
        <time>2017-05-25T09:10:19Z</time>
      </trkpt>
      <trkpt lat="48.44023" lon="-3.82092">
        <ele>252.96398925781</ele>
        <time>2017-05-25T09:10:27Z</time>
      </trkpt>
      <trkpt lat="48.44016" lon="-3.82085">
        <ele>254.88659667969</ele>
        <time>2017-05-25T09:10:34Z</time>
      </trkpt>
      <trkpt lat="48.44009" lon="-3.82081">
        <ele>254.88659667969</ele>
        <time>2017-05-25T09:10:41Z</time>
      </trkpt>
      <trkpt lat="48.44005" lon="-3.82074">
        <ele>254.40600585938</ele>
        <time>2017-05-25T09:10:47Z</time>
      </trkpt>
      <trkpt lat="48.43999" lon="-3.82069">
        <ele>251.52209472656</ele>
        <time>2017-05-25T09:10:53Z</time>
      </trkpt>
      <trkpt lat="48.43993" lon="-3.82062">
        <ele>251.04138183594</ele>
        <time>2017-05-25T09:11:00Z</time>
      </trkpt>
      <trkpt lat="48.43989" lon="-3.82059">
        <ele>250.56079101562</ele>
        <time>2017-05-25T09:11:05Z</time>
      </trkpt>
      <trkpt lat="48.43983" lon="-3.82055">
        <ele>250.56079101562</ele>
        <time>2017-05-25T09:11:12Z</time>
      </trkpt>
      <trkpt lat="48.43979" lon="-3.82053">
        <ele>248.63818359375</ele>
        <time>2017-05-25T09:11:17Z</time>
      </trkpt>
      <trkpt lat="48.43977" lon="-3.82051">
        <ele>249.11877441406</ele>
        <time>2017-05-25T09:11:19Z</time>
      </trkpt>
      <trkpt lat="48.43972" lon="-3.82048">
        <ele>249.11877441406</ele>
        <time>2017-05-25T09:11:24Z</time>
      </trkpt>
      <trkpt lat="48.43969" lon="-3.82044">
        <ele>249.11877441406</ele>
        <time>2017-05-25T09:11:29Z</time>
      </trkpt>
      <trkpt lat="48.43966" lon="-3.82042">
        <ele>248.63818359375</ele>
        <time>2017-05-25T09:11:31Z</time>
      </trkpt>
      <trkpt lat="48.43956" lon="-3.82032">
        <ele>254.88659667969</ele>
        <time>2017-05-25T09:11:40Z</time>
      </trkpt>
      <trkpt lat="48.43956" lon="-3.82031">
        <ele>254.88659667969</ele>
        <time>2017-05-25T09:11:41Z</time>
      </trkpt>
      <trkpt lat="48.43949" lon="-3.82024">
        <ele>256.80932617188</ele>
        <time>2017-05-25T09:11:48Z</time>
      </trkpt>
      <trkpt lat="48.43944" lon="-3.82018">
        <ele>257.77075195312</ele>
        <time>2017-05-25T09:11:54Z</time>
      </trkpt>
      <trkpt lat="48.43938" lon="-3.82012">
        <ele>258.25134277344</ele>
        <time>2017-05-25T09:12:01Z</time>
      </trkpt>
      <trkpt lat="48.43934" lon="-3.82009">
        <ele>259.693359375</ele>
        <time>2017-05-25T09:12:06Z</time>
      </trkpt>
      <trkpt lat="48.4393" lon="-3.82004">
        <ele>261.13525390625</ele>
        <time>2017-05-25T09:12:12Z</time>
      </trkpt>
      <trkpt lat="48.43927" lon="-3.82">
        <ele>261.61596679688</ele>
        <time>2017-05-25T09:12:16Z</time>
      </trkpt>
      <trkpt lat="48.43925" lon="-3.81998">
        <ele>261.13525390625</ele>
        <time>2017-05-25T09:12:20Z</time>
      </trkpt>
      <trkpt lat="48.43922" lon="-3.81995">
        <ele>262.09655761719</ele>
        <time>2017-05-25T09:12:23Z</time>
      </trkpt>
      <trkpt lat="48.43917" lon="-3.8199">
        <ele>263.53857421875</ele>
        <time>2017-05-25T09:12:29Z</time>
      </trkpt>
      <trkpt lat="48.43912" lon="-3.81984">
        <ele>264.01928710938</ele>
        <time>2017-05-25T09:12:35Z</time>
      </trkpt>
      <trkpt lat="48.43908" lon="-3.8198">
        <ele>265.46130371094</ele>
        <time>2017-05-25T09:12:41Z</time>
      </trkpt>
      <trkpt lat="48.43904" lon="-3.81976">
        <ele>266.42248535156</ele>
        <time>2017-05-25T09:12:46Z</time>
      </trkpt>
      <trkpt lat="48.43899" lon="-3.81973">
        <ele>266.90319824219</ele>
        <time>2017-05-25T09:12:52Z</time>
      </trkpt>
      <trkpt lat="48.43896" lon="-3.81969">
        <ele>267.38391113281</ele>
        <time>2017-05-25T09:12:57Z</time>
      </trkpt>
      <trkpt lat="48.43891" lon="-3.81966">
        <ele>267.38391113281</ele>
        <time>2017-05-25T09:13:03Z</time>
      </trkpt>
      <trkpt lat="48.43887" lon="-3.81963">
        <ele>267.86450195312</ele>
        <time>2017-05-25T09:13:08Z</time>
      </trkpt>
      <trkpt lat="48.43882" lon="-3.81959">
        <ele>267.86450195312</ele>
        <time>2017-05-25T09:13:14Z</time>
      </trkpt>
      <trkpt lat="48.43875" lon="-3.81955">
        <ele>268.82580566406</ele>
        <time>2017-05-25T09:13:21Z</time>
      </trkpt>
      <trkpt lat="48.43869" lon="-3.81951">
        <ele>268.82580566406</ele>
        <time>2017-05-25T09:13:27Z</time>
      </trkpt>
      <trkpt lat="48.43861" lon="-3.81946">
        <ele>269.787109375</ele>
        <time>2017-05-25T09:13:34Z</time>
      </trkpt>
      <trkpt lat="48.43856" lon="-3.81943">
        <ele>269.787109375</ele>
        <time>2017-05-25T09:13:39Z</time>
      </trkpt>
      <trkpt lat="48.4385" lon="-3.81938">
        <ele>271.22912597656</ele>
        <time>2017-05-25T09:13:45Z</time>
      </trkpt>
      <trkpt lat="48.43842" lon="-3.81933">
        <ele>270.74841308594</ele>
        <time>2017-05-25T09:13:52Z</time>
      </trkpt>
      <trkpt lat="48.43832" lon="-3.81926">
        <ele>271.70971679688</ele>
        <time>2017-05-25T09:14:01Z</time>
      </trkpt>
      <trkpt lat="48.43825" lon="-3.81921">
        <ele>271.70971679688</ele>
        <time>2017-05-25T09:14:07Z</time>
      </trkpt>
      <trkpt lat="48.43821" lon="-3.81918">
        <ele>271.22912597656</ele>
        <time>2017-05-25T09:14:11Z</time>
      </trkpt>
      <trkpt lat="48.43815" lon="-3.81914">
        <ele>272.1904296875</ele>
        <time>2017-05-25T09:14:17Z</time>
      </trkpt>
      <trkpt lat="48.4381" lon="-3.81912">
        <ele>271.70971679688</ele>
        <time>2017-05-25T09:14:22Z</time>
      </trkpt>
      <trkpt lat="48.43802" lon="-3.81906">
        <ele>271.22912597656</ele>
        <time>2017-05-25T09:14:30Z</time>
      </trkpt>
      <trkpt lat="48.43798" lon="-3.81903">
        <ele>270.74841308594</ele>
        <time>2017-05-25T09:14:34Z</time>
      </trkpt>
      <trkpt lat="48.43792" lon="-3.81899">
        <ele>271.70971679688</ele>
        <time>2017-05-25T09:14:39Z</time>
      </trkpt>
      <trkpt lat="48.43784" lon="-3.81893">
        <ele>272.1904296875</ele>
        <time>2017-05-25T09:14:46Z</time>
      </trkpt>
      <trkpt lat="48.43773" lon="-3.81884">
        <ele>271.22912597656</ele>
        <time>2017-05-25T09:14:56Z</time>
      </trkpt>
      <trkpt lat="48.43765" lon="-3.81879">
        <ele>269.787109375</ele>
        <time>2017-05-25T09:15:03Z</time>
      </trkpt>
      <trkpt lat="48.43758" lon="-3.81873">
        <ele>270.26770019531</ele>
        <time>2017-05-25T09:15:09Z</time>
      </trkpt>
      <trkpt lat="48.43747" lon="-3.81865">
        <ele>268.82580566406</ele>
        <time>2017-05-25T09:15:19Z</time>
      </trkpt>
      <trkpt lat="48.43738" lon="-3.81859">
        <ele>269.787109375</ele>
        <time>2017-05-25T09:15:27Z</time>
      </trkpt>
      <trkpt lat="48.43728" lon="-3.81854">
        <ele>268.82580566406</ele>
        <time>2017-05-25T09:15:35Z</time>
      </trkpt>
      <trkpt lat="48.43727" lon="-3.81854">
        <ele>268.34509277344</ele>
        <time>2017-05-25T09:15:36Z</time>
      </trkpt>
      <trkpt lat="48.43712" lon="-3.81848">
        <ele>267.38391113281</ele>
        <time>2017-05-25T09:15:48Z</time>
      </trkpt>
      <trkpt lat="48.437" lon="-3.81842">
        <ele>266.90319824219</ele>
        <time>2017-05-25T09:15:57Z</time>
      </trkpt>
      <trkpt lat="48.43695" lon="-3.8184">
        <ele>267.38391113281</ele>
        <time>2017-05-25T09:16:01Z</time>
      </trkpt>
      <trkpt lat="48.43686" lon="-3.81836">
        <ele>266.90319824219</ele>
        <time>2017-05-25T09:16:08Z</time>
      </trkpt>
      <trkpt lat="48.43681" lon="-3.81833">
        <ele>266.90319824219</ele>
        <time>2017-05-25T09:16:12Z</time>
      </trkpt>
      <trkpt lat="48.43672" lon="-3.8183">
        <ele>266.90319824219</ele>
        <time>2017-05-25T09:16:19Z</time>
      </trkpt>
      <trkpt lat="48.43663" lon="-3.81824">
        <ele>267.38391113281</ele>
        <time>2017-05-25T09:16:27Z</time>
      </trkpt>
      <trkpt lat="48.43654" lon="-3.8182">
        <ele>266.90319824219</ele>
        <time>2017-05-25T09:16:34Z</time>
      </trkpt>
      <trkpt lat="48.4365" lon="-3.81818">
        <ele>266.90319824219</ele>
        <time>2017-05-25T09:16:37Z</time>
      </trkpt>
      <trkpt lat="48.43645" lon="-3.81815">
        <ele>266.42248535156</ele>
        <time>2017-05-25T09:16:41Z</time>
      </trkpt>
      <trkpt lat="48.43631" lon="-3.81809">
        <ele>267.38391113281</ele>
        <time>2017-05-25T09:16:51Z</time>
      </trkpt>
      <trkpt lat="48.43621" lon="-3.81803">
        <ele>267.38391113281</ele>
        <time>2017-05-25T09:17:00Z</time>
      </trkpt>
      <trkpt lat="48.43609" lon="-3.81796">
        <ele>267.38391113281</ele>
        <time>2017-05-25T09:17:10Z</time>
      </trkpt>
      <trkpt lat="48.436" lon="-3.81791">
        <ele>267.86450195312</ele>
        <time>2017-05-25T09:17:18Z</time>
      </trkpt>
      <trkpt lat="48.43591" lon="-3.81784">
        <ele>268.34509277344</ele>
        <time>2017-05-25T09:17:25Z</time>
      </trkpt>
      <trkpt lat="48.43581" lon="-3.8178">
        <ele>268.34509277344</ele>
        <time>2017-05-25T09:17:33Z</time>
      </trkpt>
      <trkpt lat="48.43578" lon="-3.81779">
        <ele>268.82580566406</ele>
        <time>2017-05-25T09:17:35Z</time>
      </trkpt>
      <trkpt lat="48.4357" lon="-3.81772">
        <ele>268.82580566406</ele>
        <time>2017-05-25T09:17:42Z</time>
      </trkpt>
      <trkpt lat="48.43565" lon="-3.81767">
        <ele>268.82580566406</ele>
        <time>2017-05-25T09:17:48Z</time>
      </trkpt>
      <trkpt lat="48.43558" lon="-3.81762">
        <ele>270.26770019531</ele>
        <time>2017-05-25T09:17:54Z</time>
      </trkpt>
      <trkpt lat="48.43551" lon="-3.81756">
        <ele>271.70971679688</ele>
        <time>2017-05-25T09:18:01Z</time>
      </trkpt>
      <trkpt lat="48.43543" lon="-3.81749">
        <ele>272.1904296875</ele>
        <time>2017-05-25T09:18:09Z</time>
      </trkpt>
      <trkpt lat="48.43535" lon="-3.81743">
        <ele>273.15185546875</ele>
        <time>2017-05-25T09:18:16Z</time>
      </trkpt>
      <trkpt lat="48.43526" lon="-3.81737">
        <ele>273.15185546875</ele>
        <time>2017-05-25T09:18:24Z</time>
      </trkpt>
      <trkpt lat="48.43518" lon="-3.81731">
        <ele>274.11303710938</ele>
        <time>2017-05-25T09:18:32Z</time>
      </trkpt>
      <trkpt lat="48.43508" lon="-3.81723">
        <ele>274.59375</ele>
        <time>2017-05-25T09:18:41Z</time>
      </trkpt>
      <trkpt lat="48.435" lon="-3.81715">
        <ele>275.55505371094</ele>
        <time>2017-05-25T09:18:49Z</time>
      </trkpt>
      <trkpt lat="48.4349" lon="-3.81707">
        <ele>276.51635742188</ele>
        <time>2017-05-25T09:18:58Z</time>
      </trkpt>
      <trkpt lat="48.43483" lon="-3.817">
        <ele>276.51635742188</ele>
        <time>2017-05-25T09:19:05Z</time>
      </trkpt>
      <trkpt lat="48.43474" lon="-3.81692">
        <ele>276.9970703125</ele>
        <time>2017-05-25T09:19:13Z</time>
      </trkpt>
      <trkpt lat="48.43468" lon="-3.81686">
        <ele>276.51635742188</ele>
        <time>2017-05-25T09:19:19Z</time>
      </trkpt>
      <trkpt lat="48.43461" lon="-3.8168">
        <ele>275.55505371094</ele>
        <time>2017-05-25T09:19:25Z</time>
      </trkpt>
      <trkpt lat="48.43454" lon="-3.81674">
        <ele>275.55505371094</ele>
        <time>2017-05-25T09:19:31Z</time>
      </trkpt>
      <trkpt lat="48.43448" lon="-3.81671">
        <ele>275.55505371094</ele>
        <time>2017-05-25T09:19:36Z</time>
      </trkpt>
      <trkpt lat="48.4344" lon="-3.81665">
        <ele>275.07446289062</ele>
        <time>2017-05-25T09:19:42Z</time>
      </trkpt>
      <trkpt lat="48.43434" lon="-3.8166">
        <ele>276.03564453125</ele>
        <time>2017-05-25T09:19:48Z</time>
      </trkpt>
      <trkpt lat="48.43428" lon="-3.81654">
        <ele>275.55505371094</ele>
        <time>2017-05-25T09:19:54Z</time>
      </trkpt>
      <trkpt lat="48.43424" lon="-3.81651">
        <ele>275.07446289062</ele>
        <time>2017-05-25T09:19:59Z</time>
      </trkpt>
      <trkpt lat="48.43415" lon="-3.81643">
        <ele>276.51635742188</ele>
        <time>2017-05-25T09:20:08Z</time>
      </trkpt>
      <trkpt lat="48.43409" lon="-3.81637">
        <ele>276.9970703125</ele>
        <time>2017-05-25T09:20:14Z</time>
      </trkpt>
      <trkpt lat="48.43402" lon="-3.81631">
        <ele>276.9970703125</ele>
        <time>2017-05-25T09:20:21Z</time>
      </trkpt>
      <trkpt lat="48.43397" lon="-3.81626">
        <ele>276.9970703125</ele>
        <time>2017-05-25T09:20:26Z</time>
      </trkpt>
      <trkpt lat="48.43394" lon="-3.81622">
        <ele>278.91967773438</ele>
        <time>2017-05-25T09:20:28Z</time>
      </trkpt>
      <trkpt lat="48.43393" lon="-3.81618">
        <ele>278.43896484375</ele>
        <time>2017-05-25T09:20:30Z</time>
      </trkpt>
      <trkpt lat="48.43389" lon="-3.81611">
        <ele>276.9970703125</ele>
        <time>2017-05-25T09:20:36Z</time>
      </trkpt>
      <trkpt lat="48.43383" lon="-3.81606">
        <ele>276.51635742188</ele>
        <time>2017-05-25T09:20:42Z</time>
      </trkpt>
      <trkpt lat="48.43382" lon="-3.81605">
        <ele>276.51635742188</ele>
        <time>2017-05-25T09:20:43Z</time>
      </trkpt>
      <trkpt lat="48.43372" lon="-3.81602">
        <ele>276.51635742188</ele>
        <time>2017-05-25T09:20:51Z</time>
      </trkpt>
      <trkpt lat="48.43363" lon="-3.81601">
        <ele>276.9970703125</ele>
        <time>2017-05-25T09:20:59Z</time>
      </trkpt>
      <trkpt lat="48.43354" lon="-3.81599">
        <ele>278.43896484375</ele>
        <time>2017-05-25T09:21:06Z</time>
      </trkpt>
      <trkpt lat="48.43345" lon="-3.81594">
        <ele>278.91967773438</ele>
        <time>2017-05-25T09:21:14Z</time>
      </trkpt>
      <trkpt lat="48.43341" lon="-3.81589">
        <ele>279.40026855469</ele>
        <time>2017-05-25T09:21:19Z</time>
      </trkpt>
      <trkpt lat="48.4334" lon="-3.81586">
        <ele>278.91967773438</ele>
        <time>2017-05-25T09:21:26Z</time>
      </trkpt>
      <trkpt lat="48.43342" lon="-3.81585">
        <ele>278.43896484375</ele>
        <time>2017-05-25T09:21:30Z</time>
      </trkpt>
      <trkpt lat="48.43351" lon="-3.81576">
        <ele>278.43896484375</ele>
        <time>2017-05-25T09:21:39Z</time>
      </trkpt>
      <trkpt lat="48.43361" lon="-3.81567">
        <ele>278.43896484375</ele>
        <time>2017-05-25T09:21:48Z</time>
      </trkpt>
      <trkpt lat="48.43368" lon="-3.81564">
        <ele>279.40026855469</ele>
        <time>2017-05-25T09:21:53Z</time>
      </trkpt>
      <trkpt lat="48.43374" lon="-3.8156">
        <ele>279.40026855469</ele>
        <time>2017-05-25T09:21:59Z</time>
      </trkpt>
      <trkpt lat="48.4338" lon="-3.81558">
        <ele>279.40026855469</ele>
        <time>2017-05-25T09:22:04Z</time>
      </trkpt>
      <trkpt lat="48.43383" lon="-3.81557">
        <ele>279.40026855469</ele>
        <time>2017-05-25T09:22:06Z</time>
      </trkpt>
      <trkpt lat="48.43392" lon="-3.8155">
        <ele>278.91967773438</ele>
        <time>2017-05-25T09:22:14Z</time>
      </trkpt>
      <trkpt lat="48.434" lon="-3.81546">
        <ele>279.40026855469</ele>
        <time>2017-05-25T09:22:20Z</time>
      </trkpt>
      <trkpt lat="48.43406" lon="-3.81543">
        <ele>278.91967773438</ele>
        <time>2017-05-25T09:22:25Z</time>
      </trkpt>
      <trkpt lat="48.43407" lon="-3.81543">
        <ele>278.91967773438</ele>
        <time>2017-05-25T09:22:26Z</time>
      </trkpt>
      <trkpt lat="48.4341" lon="-3.81539">
        <ele>279.40026855469</ele>
        <time>2017-05-25T09:22:30Z</time>
      </trkpt>
      <trkpt lat="48.43418" lon="-3.81536">
        <ele>278.91967773438</ele>
        <time>2017-05-25T09:22:37Z</time>
      </trkpt>
      <trkpt lat="48.43422" lon="-3.81536">
        <ele>278.91967773438</ele>
        <time>2017-05-25T09:22:40Z</time>
      </trkpt>
      <trkpt lat="48.43428" lon="-3.81538">
        <ele>278.43896484375</ele>
        <time>2017-05-25T09:22:46Z</time>
      </trkpt>
      <trkpt lat="48.43438" lon="-3.81542">
        <ele>276.51635742188</ele>
        <time>2017-05-25T09:22:53Z</time>
      </trkpt>
      <trkpt lat="48.43444" lon="-3.81544">
        <ele>276.03564453125</ele>
        <time>2017-05-25T09:22:59Z</time>
      </trkpt>
      <trkpt lat="48.43452" lon="-3.81543">
        <ele>276.03564453125</ele>
        <time>2017-05-25T09:23:05Z</time>
      </trkpt>
      <trkpt lat="48.43461" lon="-3.81539">
        <ele>276.03564453125</ele>
        <time>2017-05-25T09:23:12Z</time>
      </trkpt>
      <trkpt lat="48.43466" lon="-3.81534">
        <ele>276.9970703125</ele>
        <time>2017-05-25T09:23:16Z</time>
      </trkpt>
      <trkpt lat="48.43472" lon="-3.81529">
        <ele>277.47766113281</ele>
        <time>2017-05-25T09:23:21Z</time>
      </trkpt>
      <trkpt lat="48.43473" lon="-3.81528">
        <ele>277.47766113281</ele>
        <time>2017-05-25T09:23:22Z</time>
      </trkpt>
      <trkpt lat="48.43482" lon="-3.81519">
        <ele>277.95825195312</ele>
        <time>2017-05-25T09:23:30Z</time>
      </trkpt>
      <trkpt lat="48.4349" lon="-3.81511">
        <ele>277.47766113281</ele>
        <time>2017-05-25T09:23:37Z</time>
      </trkpt>
      <trkpt lat="48.43501" lon="-3.81501">
        <ele>276.51635742188</ele>
        <time>2017-05-25T09:23:47Z</time>
      </trkpt>
      <trkpt lat="48.4351" lon="-3.81492">
        <ele>276.03564453125</ele>
        <time>2017-05-25T09:23:56Z</time>
      </trkpt>
      <trkpt lat="48.43521" lon="-3.81482">
        <ele>275.07446289062</ele>
        <time>2017-05-25T09:24:06Z</time>
      </trkpt>
      <trkpt lat="48.43532" lon="-3.81473">
        <ele>275.07446289062</ele>
        <time>2017-05-25T09:24:15Z</time>
      </trkpt>
      <trkpt lat="48.43541" lon="-3.81465">
        <ele>275.55505371094</ele>
        <time>2017-05-25T09:24:23Z</time>
      </trkpt>
      <trkpt lat="48.43552" lon="-3.81454">
        <ele>275.07446289062</ele>
        <time>2017-05-25T09:24:33Z</time>
      </trkpt>
      <trkpt lat="48.43564" lon="-3.81442">
        <ele>274.11303710938</ele>
        <time>2017-05-25T09:24:44Z</time>
      </trkpt>
      <trkpt lat="48.43572" lon="-3.81434">
        <ele>274.11303710938</ele>
        <time>2017-05-25T09:24:51Z</time>
      </trkpt>
      <trkpt lat="48.43578" lon="-3.81428">
        <ele>274.11303710938</ele>
        <time>2017-05-25T09:24:57Z</time>
      </trkpt>
      <trkpt lat="48.43584" lon="-3.81422">
        <ele>274.59375</ele>
        <time>2017-05-25T09:25:02Z</time>
      </trkpt>
      <trkpt lat="48.43594" lon="-3.81411">
        <ele>275.55505371094</ele>
        <time>2017-05-25T09:25:11Z</time>
      </trkpt>
      <trkpt lat="48.43601" lon="-3.81404">
        <ele>275.55505371094</ele>
        <time>2017-05-25T09:25:18Z</time>
      </trkpt>
      <trkpt lat="48.43607" lon="-3.81397">
        <ele>275.55505371094</ele>
        <time>2017-05-25T09:25:24Z</time>
      </trkpt>
      <trkpt lat="48.43615" lon="-3.81392">
        <ele>275.07446289062</ele>
        <time>2017-05-25T09:25:29Z</time>
      </trkpt>
      <trkpt lat="48.43623" lon="-3.81381">
        <ele>275.55505371094</ele>
        <time>2017-05-25T09:25:38Z</time>
      </trkpt>
      <trkpt lat="48.43627" lon="-3.81376">
        <ele>276.03564453125</ele>
        <time>2017-05-25T09:25:42Z</time>
      </trkpt>
      <trkpt lat="48.43636" lon="-3.81369">
        <ele>276.51635742188</ele>
        <time>2017-05-25T09:25:50Z</time>
      </trkpt>
      <trkpt lat="48.4364" lon="-3.81366">
        <ele>276.9970703125</ele>
        <time>2017-05-25T09:25:53Z</time>
      </trkpt>
      <trkpt lat="48.43644" lon="-3.81362">
        <ele>276.9970703125</ele>
        <time>2017-05-25T09:25:57Z</time>
      </trkpt>
      <trkpt lat="48.43652" lon="-3.81355">
        <ele>276.51635742188</ele>
        <time>2017-05-25T09:26:04Z</time>
      </trkpt>
      <trkpt lat="48.43658" lon="-3.81348">
        <ele>276.03564453125</ele>
        <time>2017-05-25T09:26:10Z</time>
      </trkpt>
      <trkpt lat="48.43664" lon="-3.81342">
        <ele>276.51635742188</ele>
        <time>2017-05-25T09:26:16Z</time>
      </trkpt>
      <trkpt lat="48.43671" lon="-3.81334">
        <ele>276.51635742188</ele>
        <time>2017-05-25T09:26:23Z</time>
      </trkpt>
      <trkpt lat="48.43678" lon="-3.81324">
        <ele>276.9970703125</ele>
        <time>2017-05-25T09:26:31Z</time>
      </trkpt>
      <trkpt lat="48.43687" lon="-3.81313">
        <ele>276.51635742188</ele>
        <time>2017-05-25T09:26:40Z</time>
      </trkpt>
      <trkpt lat="48.43696" lon="-3.81304">
        <ele>276.51635742188</ele>
        <time>2017-05-25T09:26:48Z</time>
      </trkpt>
      <trkpt lat="48.43701" lon="-3.81298">
        <ele>276.03564453125</ele>
        <time>2017-05-25T09:26:54Z</time>
      </trkpt>
      <trkpt lat="48.43709" lon="-3.81289">
        <ele>276.51635742188</ele>
        <time>2017-05-25T09:27:02Z</time>
      </trkpt>
      <trkpt lat="48.43716" lon="-3.81283">
        <ele>277.47766113281</ele>
        <time>2017-05-25T09:27:08Z</time>
      </trkpt>
      <trkpt lat="48.43725" lon="-3.81274">
        <ele>278.43896484375</ele>
        <time>2017-05-25T09:27:16Z</time>
      </trkpt>
      <trkpt lat="48.43733" lon="-3.81266">
        <ele>279.40026855469</ele>
        <time>2017-05-25T09:27:24Z</time>
      </trkpt>
      <trkpt lat="48.4374" lon="-3.81257">
        <ele>278.91967773438</ele>
        <time>2017-05-25T09:27:31Z</time>
      </trkpt>
      <trkpt lat="48.43749" lon="-3.81246">
        <ele>278.91967773438</ele>
        <time>2017-05-25T09:27:40Z</time>
      </trkpt>
      <trkpt lat="48.43756" lon="-3.81237">
        <ele>279.40026855469</ele>
        <time>2017-05-25T09:27:48Z</time>
      </trkpt>
      <trkpt lat="48.43764" lon="-3.81229">
        <ele>279.40026855469</ele>
        <time>2017-05-25T09:27:56Z</time>
      </trkpt>
      <trkpt lat="48.43773" lon="-3.8122">
        <ele>279.880859375</ele>
        <time>2017-05-25T09:28:04Z</time>
      </trkpt>
      <trkpt lat="48.43777" lon="-3.81216">
        <ele>279.880859375</ele>
        <time>2017-05-25T09:28:08Z</time>
      </trkpt>
      <trkpt lat="48.43782" lon="-3.81212">
        <ele>280.36169433594</ele>
        <time>2017-05-25T09:28:12Z</time>
      </trkpt>
      <trkpt lat="48.43787" lon="-3.81206">
        <ele>281.32299804688</ele>
        <time>2017-05-25T09:28:18Z</time>
      </trkpt>
      <trkpt lat="48.43798" lon="-3.81199">
        <ele>282.28430175781</ele>
        <time>2017-05-25T09:28:26Z</time>
      </trkpt>
      <trkpt lat="48.43807" lon="-3.81191">
        <ele>282.28430175781</ele>
        <time>2017-05-25T09:28:34Z</time>
      </trkpt>
      <trkpt lat="48.43816" lon="-3.81183">
        <ele>282.76501464844</ele>
        <time>2017-05-25T09:28:42Z</time>
      </trkpt>
      <trkpt lat="48.43826" lon="-3.81176">
        <ele>283.24560546875</ele>
        <time>2017-05-25T09:28:50Z</time>
      </trkpt>
      <trkpt lat="48.43836" lon="-3.81168">
        <ele>283.24560546875</ele>
        <time>2017-05-25T09:28:59Z</time>
      </trkpt>
      <trkpt lat="48.43847" lon="-3.81159">
        <ele>283.24560546875</ele>
        <time>2017-05-25T09:29:08Z</time>
      </trkpt>
      <trkpt lat="48.43855" lon="-3.81153">
        <ele>282.76501464844</ele>
        <time>2017-05-25T09:29:15Z</time>
      </trkpt>
      <trkpt lat="48.43862" lon="-3.81146">
        <ele>282.76501464844</ele>
        <time>2017-05-25T09:29:21Z</time>
      </trkpt>
      <trkpt lat="48.43869" lon="-3.81139">
        <ele>282.28430175781</ele>
        <time>2017-05-25T09:29:28Z</time>
      </trkpt>
      <trkpt lat="48.43872" lon="-3.81137">
        <ele>282.28430175781</ele>
        <time>2017-05-25T09:29:30Z</time>
      </trkpt>
      <trkpt lat="48.4388" lon="-3.81127">
        <ele>281.32299804688</ele>
        <time>2017-05-25T09:29:38Z</time>
      </trkpt>
      <trkpt lat="48.43888" lon="-3.8112">
        <ele>281.32299804688</ele>
        <time>2017-05-25T09:29:45Z</time>
      </trkpt>
      <trkpt lat="48.43892" lon="-3.81116">
        <ele>281.32299804688</ele>
        <time>2017-05-25T09:29:49Z</time>
      </trkpt>
      <trkpt lat="48.43898" lon="-3.81111">
        <ele>280.84240722656</ele>
        <time>2017-05-25T09:29:54Z</time>
      </trkpt>
      <trkpt lat="48.43909" lon="-3.81102">
        <ele>280.36169433594</ele>
        <time>2017-05-25T09:30:04Z</time>
      </trkpt>
      <trkpt lat="48.43914" lon="-3.811">
        <ele>280.36169433594</ele>
        <time>2017-05-25T09:30:08Z</time>
      </trkpt>
      <trkpt lat="48.43917" lon="-3.81096">
        <ele>279.40026855469</ele>
        <time>2017-05-25T09:30:11Z</time>
      </trkpt>
      <trkpt lat="48.43921" lon="-3.81092">
        <ele>279.40026855469</ele>
        <time>2017-05-25T09:30:17Z</time>
      </trkpt>
      <trkpt lat="48.43925" lon="-3.8109">
        <ele>278.91967773438</ele>
        <time>2017-05-25T09:30:22Z</time>
      </trkpt>
      <trkpt lat="48.43931" lon="-3.81086">
        <ele>277.95825195312</ele>
        <time>2017-05-25T09:30:30Z</time>
      </trkpt>
      <trkpt lat="48.43937" lon="-3.81083">
        <ele>277.47766113281</ele>
        <time>2017-05-25T09:30:36Z</time>
      </trkpt>
      <trkpt lat="48.43943" lon="-3.8108">
        <ele>277.47766113281</ele>
        <time>2017-05-25T09:30:41Z</time>
      </trkpt>
      <trkpt lat="48.43951" lon="-3.81076">
        <ele>278.43896484375</ele>
        <time>2017-05-25T09:30:48Z</time>
      </trkpt>
      <trkpt lat="48.43958" lon="-3.81073">
        <ele>278.91967773438</ele>
        <time>2017-05-25T09:30:54Z</time>
      </trkpt>
      <trkpt lat="48.43965" lon="-3.81068">
        <ele>279.40026855469</ele>
        <time>2017-05-25T09:31:00Z</time>
      </trkpt>
      <trkpt lat="48.43971" lon="-3.81065">
        <ele>278.91967773438</ele>
        <time>2017-05-25T09:31:05Z</time>
      </trkpt>
      <trkpt lat="48.43978" lon="-3.81062">
        <ele>279.40026855469</ele>
        <time>2017-05-25T09:31:11Z</time>
      </trkpt>
      <trkpt lat="48.43986" lon="-3.81056">
        <ele>279.40026855469</ele>
        <time>2017-05-25T09:31:18Z</time>
      </trkpt>
      <trkpt lat="48.43994" lon="-3.8105">
        <ele>278.43896484375</ele>
        <time>2017-05-25T09:31:24Z</time>
      </trkpt>
      <trkpt lat="48.44005" lon="-3.81041">
        <ele>276.03564453125</ele>
        <time>2017-05-25T09:31:33Z</time>
      </trkpt>
      <trkpt lat="48.44015" lon="-3.81033">
        <ele>272.67114257812</ele>
        <time>2017-05-25T09:31:42Z</time>
      </trkpt>
      <trkpt lat="48.44025" lon="-3.81029">
        <ele>272.1904296875</ele>
        <time>2017-05-25T09:31:50Z</time>
      </trkpt>
      <trkpt lat="48.44035" lon="-3.81022">
        <ele>271.22912597656</ele>
        <time>2017-05-25T09:31:58Z</time>
      </trkpt>
      <trkpt lat="48.44041" lon="-3.81018">
        <ele>269.787109375</ele>
        <time>2017-05-25T09:32:04Z</time>
      </trkpt>
      <trkpt lat="48.44049" lon="-3.8101">
        <ele>268.82580566406</ele>
        <time>2017-05-25T09:32:11Z</time>
      </trkpt>
      <trkpt lat="48.44051" lon="-3.81009">
        <ele>268.34509277344</ele>
        <time>2017-05-25T09:32:12Z</time>
      </trkpt>
      <trkpt lat="48.44059" lon="-3.81008">
        <ele>268.34509277344</ele>
        <time>2017-05-25T09:32:17Z</time>
      </trkpt>
      <trkpt lat="48.44063" lon="-3.81004">
        <ele>268.82580566406</ele>
        <time>2017-05-25T09:32:21Z</time>
      </trkpt>
      <trkpt lat="48.44073" lon="-3.80996">
        <ele>269.30651855469</ele>
        <time>2017-05-25T09:32:29Z</time>
      </trkpt>
      <trkpt lat="48.4408" lon="-3.80991">
        <ele>269.787109375</ele>
        <time>2017-05-25T09:32:35Z</time>
      </trkpt>
      <trkpt lat="48.4409" lon="-3.80982">
        <ele>268.82580566406</ele>
        <time>2017-05-25T09:32:44Z</time>
      </trkpt>
      <trkpt lat="48.44096" lon="-3.80977">
        <ele>266.90319824219</ele>
        <time>2017-05-25T09:32:50Z</time>
      </trkpt>
      <trkpt lat="48.44105" lon="-3.80971">
        <ele>267.38391113281</ele>
        <time>2017-05-25T09:32:57Z</time>
      </trkpt>
      <trkpt lat="48.44115" lon="-3.80965">
        <ele>266.42248535156</ele>
        <time>2017-05-25T09:33:05Z</time>
      </trkpt>
      <trkpt lat="48.44123" lon="-3.80961">
        <ele>266.42248535156</ele>
        <time>2017-05-25T09:33:11Z</time>
      </trkpt>
      <trkpt lat="48.44132" lon="-3.80957">
        <ele>265.94189453125</ele>
        <time>2017-05-25T09:33:18Z</time>
      </trkpt>
      <trkpt lat="48.44138" lon="-3.80955">
        <ele>264.98059082031</ele>
        <time>2017-05-25T09:33:23Z</time>
      </trkpt>
      <trkpt lat="48.44146" lon="-3.80951">
        <ele>264.01928710938</ele>
        <time>2017-05-25T09:33:29Z</time>
      </trkpt>
      <trkpt lat="48.44157" lon="-3.80947">
        <ele>262.5771484375</ele>
        <time>2017-05-25T09:33:38Z</time>
      </trkpt>
      <trkpt lat="48.44165" lon="-3.80943">
        <ele>261.61596679688</ele>
        <time>2017-05-25T09:33:44Z</time>
      </trkpt>
      <trkpt lat="48.44168" lon="-3.80943">
        <ele>261.13525390625</ele>
        <time>2017-05-25T09:33:46Z</time>
      </trkpt>
      <trkpt lat="48.44175" lon="-3.80939">
        <ele>261.13525390625</ele>
        <time>2017-05-25T09:33:53Z</time>
      </trkpt>
      <trkpt lat="48.44185" lon="-3.80936">
        <ele>260.17395019531</ele>
        <time>2017-05-25T09:34:00Z</time>
      </trkpt>
      <trkpt lat="48.44193" lon="-3.80935">
        <ele>259.693359375</ele>
        <time>2017-05-25T09:34:06Z</time>
      </trkpt>
      <trkpt lat="48.44201" lon="-3.80932">
        <ele>258.25134277344</ele>
        <time>2017-05-25T09:34:12Z</time>
      </trkpt>
      <trkpt lat="48.44213" lon="-3.80928">
        <ele>258.25134277344</ele>
        <time>2017-05-25T09:34:21Z</time>
      </trkpt>
      <trkpt lat="48.44226" lon="-3.80925">
        <ele>257.77075195312</ele>
        <time>2017-05-25T09:34:30Z</time>
      </trkpt>
      <trkpt lat="48.44237" lon="-3.8092">
        <ele>256.32873535156</ele>
        <time>2017-05-25T09:34:39Z</time>
      </trkpt>
      <trkpt lat="48.44247" lon="-3.80917">
        <ele>256.32873535156</ele>
        <time>2017-05-25T09:34:46Z</time>
      </trkpt>
      <trkpt lat="48.44257" lon="-3.80912">
        <ele>256.80932617188</ele>
        <time>2017-05-25T09:34:54Z</time>
      </trkpt>
      <trkpt lat="48.44268" lon="-3.80907">
        <ele>255.84802246094</ele>
        <time>2017-05-25T09:35:03Z</time>
      </trkpt>
      <trkpt lat="48.44278" lon="-3.80903">
        <ele>254.40600585938</ele>
        <time>2017-05-25T09:35:11Z</time>
      </trkpt>
      <trkpt lat="48.44293" lon="-3.80899">
        <ele>253.92541503906</ele>
        <time>2017-05-25T09:35:22Z</time>
      </trkpt>
      <trkpt lat="48.44306" lon="-3.80895">
        <ele>253.92541503906</ele>
        <time>2017-05-25T09:35:32Z</time>
      </trkpt>
      <trkpt lat="48.44317" lon="-3.80892">
        <ele>252.96398925781</ele>
        <time>2017-05-25T09:35:41Z</time>
      </trkpt>
      <trkpt lat="48.44327" lon="-3.80889">
        <ele>252.4833984375</ele>
        <time>2017-05-25T09:35:49Z</time>
      </trkpt>
      <trkpt lat="48.44332" lon="-3.80888">
        <ele>251.52209472656</ele>
        <time>2017-05-25T09:35:54Z</time>
      </trkpt>
      <trkpt lat="48.4434" lon="-3.80888">
        <ele>252.00280761719</ele>
        <time>2017-05-25T09:36:00Z</time>
      </trkpt>
      <trkpt lat="48.44349" lon="-3.80886">
        <ele>252.00280761719</ele>
        <time>2017-05-25T09:36:07Z</time>
      </trkpt>
      <trkpt lat="48.44362" lon="-3.80883">
        <ele>252.00280761719</ele>
        <time>2017-05-25T09:36:16Z</time>
      </trkpt>
      <trkpt lat="48.44372" lon="-3.80884">
        <ele>252.00280761719</ele>
        <time>2017-05-25T09:36:24Z</time>
      </trkpt>
      <trkpt lat="48.44381" lon="-3.80884">
        <ele>252.00280761719</ele>
        <time>2017-05-25T09:36:31Z</time>
      </trkpt>
      <trkpt lat="48.44391" lon="-3.80883">
        <ele>251.04138183594</ele>
        <time>2017-05-25T09:36:39Z</time>
      </trkpt>
      <trkpt lat="48.44401" lon="-3.80882">
        <ele>251.04138183594</ele>
        <time>2017-05-25T09:36:46Z</time>
      </trkpt>
      <trkpt lat="48.44413" lon="-3.80881">
        <ele>251.52209472656</ele>
        <time>2017-05-25T09:36:55Z</time>
      </trkpt>
      <trkpt lat="48.44425" lon="-3.80876">
        <ele>250.56079101562</ele>
        <time>2017-05-25T09:37:04Z</time>
      </trkpt>
      <trkpt lat="48.44435" lon="-3.80872">
        <ele>249.59948730469</ele>
        <time>2017-05-25T09:37:12Z</time>
      </trkpt>
      <trkpt lat="48.44447" lon="-3.8087">
        <ele>248.63818359375</ele>
        <time>2017-05-25T09:37:21Z</time>
      </trkpt>
      <trkpt lat="48.44451" lon="-3.80869">
        <ele>248.15759277344</ele>
        <time>2017-05-25T09:37:24Z</time>
      </trkpt>
      <trkpt lat="48.44461" lon="-3.80869">
        <ele>248.15759277344</ele>
        <time>2017-05-25T09:37:32Z</time>
      </trkpt>
      <trkpt lat="48.44464" lon="-3.80868">
        <ele>248.15759277344</ele>
        <time>2017-05-25T09:37:34Z</time>
      </trkpt>
      <trkpt lat="48.44477" lon="-3.80867">
        <ele>248.15759277344</ele>
        <time>2017-05-25T09:37:44Z</time>
      </trkpt>
      <trkpt lat="48.4449" lon="-3.80863">
        <ele>248.63818359375</ele>
        <time>2017-05-25T09:37:54Z</time>
      </trkpt>
      <trkpt lat="48.44501" lon="-3.8086">
        <ele>248.15759277344</ele>
        <time>2017-05-25T09:38:03Z</time>
      </trkpt>
      <trkpt lat="48.44511" lon="-3.80856">
        <ele>248.15759277344</ele>
        <time>2017-05-25T09:38:11Z</time>
      </trkpt>
      <trkpt lat="48.44521" lon="-3.80854">
        <ele>247.6767578125</ele>
        <time>2017-05-25T09:38:19Z</time>
      </trkpt>
      <trkpt lat="48.44532" lon="-3.80853">
        <ele>247.19604492188</ele>
        <time>2017-05-25T09:38:27Z</time>
      </trkpt>
      <trkpt lat="48.44541" lon="-3.80852">
        <ele>247.19604492188</ele>
        <time>2017-05-25T09:38:34Z</time>
      </trkpt>
      <trkpt lat="48.44552" lon="-3.80851">
        <ele>247.6767578125</ele>
        <time>2017-05-25T09:38:43Z</time>
      </trkpt>
      <trkpt lat="48.44564" lon="-3.80849">
        <ele>247.19604492188</ele>
        <time>2017-05-25T09:38:52Z</time>
      </trkpt>
      <trkpt lat="48.44579" lon="-3.80848">
        <ele>247.19604492188</ele>
        <time>2017-05-25T09:39:04Z</time>
      </trkpt>
      <trkpt lat="48.44593" lon="-3.80846">
        <ele>246.23486328125</ele>
        <time>2017-05-25T09:39:15Z</time>
      </trkpt>
      <trkpt lat="48.4461" lon="-3.80842">
        <ele>245.2734375</ele>
        <time>2017-05-25T09:39:28Z</time>
      </trkpt>
      <trkpt lat="48.44626" lon="-3.80841">
        <ele>244.79284667969</ele>
        <time>2017-05-25T09:39:40Z</time>
      </trkpt>
      <trkpt lat="48.44641" lon="-3.80839">
        <ele>243.83154296875</ele>
        <time>2017-05-25T09:39:52Z</time>
      </trkpt>
      <trkpt lat="48.44652" lon="-3.80837">
        <ele>243.35083007812</ele>
        <time>2017-05-25T09:40:01Z</time>
      </trkpt>
      <trkpt lat="48.44656" lon="-3.80837">
        <ele>243.35083007812</ele>
        <time>2017-05-25T09:40:07Z</time>
      </trkpt>
      <trkpt lat="48.44661" lon="-3.80838">
        <ele>242.87023925781</ele>
        <time>2017-05-25T09:40:12Z</time>
      </trkpt>
      <trkpt lat="48.44674" lon="-3.8084">
        <ele>242.3896484375</ele>
        <time>2017-05-25T09:40:23Z</time>
      </trkpt>
      <trkpt lat="48.44686" lon="-3.80842">
        <ele>242.3896484375</ele>
        <time>2017-05-25T09:40:33Z</time>
      </trkpt>
      <trkpt lat="48.44699" lon="-3.80844">
        <ele>241.90893554688</ele>
        <time>2017-05-25T09:40:43Z</time>
      </trkpt>
      <trkpt lat="48.44715" lon="-3.80845">
        <ele>240.46704101562</ele>
        <time>2017-05-25T09:40:55Z</time>
      </trkpt>
      <trkpt lat="48.4473" lon="-3.80845">
        <ele>239.50549316406</ele>
        <time>2017-05-25T09:41:06Z</time>
      </trkpt>
      <trkpt lat="48.44743" lon="-3.80845">
        <ele>238.54431152344</ele>
        <time>2017-05-25T09:41:16Z</time>
      </trkpt>
      <trkpt lat="48.44756" lon="-3.80846">
        <ele>238.06359863281</ele>
        <time>2017-05-25T09:41:26Z</time>
      </trkpt>
      <trkpt lat="48.4477" lon="-3.80845">
        <ele>237.10229492188</ele>
        <time>2017-05-25T09:41:37Z</time>
      </trkpt>
      <trkpt lat="48.44781" lon="-3.80845">
        <ele>237.58288574219</ele>
        <time>2017-05-25T09:41:45Z</time>
      </trkpt>
      <trkpt lat="48.44791" lon="-3.80843">
        <ele>236.62170410156</ele>
        <time>2017-05-25T09:41:53Z</time>
      </trkpt>
      <trkpt lat="48.44797" lon="-3.80837">
        <ele>235.66027832031</ele>
        <time>2017-05-25T09:42:00Z</time>
      </trkpt>
      <trkpt lat="48.44798" lon="-3.80826">
        <ele>234.21838378906</ele>
        <time>2017-05-25T09:42:06Z</time>
      </trkpt>
      <trkpt lat="48.44797" lon="-3.8081">
        <ele>231.81494140625</ele>
        <time>2017-05-25T09:42:15Z</time>
      </trkpt>
      <trkpt lat="48.44796" lon="-3.80796">
        <ele>230.373046875</ele>
        <time>2017-05-25T09:42:25Z</time>
      </trkpt>
      <trkpt lat="48.44796" lon="-3.80789">
        <ele>229.89233398438</ele>
        <time>2017-05-25T09:42:32Z</time>
      </trkpt>
      <trkpt lat="48.44793" lon="-3.80772">
        <ele>227.9697265625</ele>
        <time>2017-05-25T09:42:41Z</time>
      </trkpt>
      <trkpt lat="48.44789" lon="-3.8075">
        <ele>225.0859375</ele>
        <time>2017-05-25T09:42:53Z</time>
      </trkpt>
      <trkpt lat="48.44788" lon="-3.8073">
        <ele>224.60522460938</ele>
        <time>2017-05-25T09:43:04Z</time>
      </trkpt>
      <trkpt lat="48.44787" lon="-3.80717">
        <ele>223.64379882812</ele>
        <time>2017-05-25T09:43:11Z</time>
      </trkpt>
      <trkpt lat="48.44783" lon="-3.80689">
        <ele>222.20178222656</ele>
        <time>2017-05-25T09:43:25Z</time>
      </trkpt>
      <trkpt lat="48.44782" lon="-3.80667">
        <ele>221.24060058594</ele>
        <time>2017-05-25T09:43:36Z</time>
      </trkpt>
      <trkpt lat="48.44783" lon="-3.80647">
        <ele>220.75988769531</ele>
        <time>2017-05-25T09:43:46Z</time>
      </trkpt>
      <trkpt lat="48.44783" lon="-3.80628">
        <ele>219.79858398438</ele>
        <time>2017-05-25T09:43:56Z</time>
      </trkpt>
      <trkpt lat="48.44784" lon="-3.80614">
        <ele>219.31799316406</ele>
        <time>2017-05-25T09:44:03Z</time>
      </trkpt>
      <trkpt lat="48.44785" lon="-3.80592">
        <ele>218.83728027344</ele>
        <time>2017-05-25T09:44:14Z</time>
      </trkpt>
      <trkpt lat="48.44786" lon="-3.80558">
        <ele>217.8759765625</ele>
        <time>2017-05-25T09:44:31Z</time>
      </trkpt>
      <trkpt lat="48.44787" lon="-3.80532">
        <ele>216.43395996094</ele>
        <time>2017-05-25T09:44:44Z</time>
      </trkpt>
      <trkpt lat="48.44787" lon="-3.80512">
        <ele>215.95324707031</ele>
        <time>2017-05-25T09:44:54Z</time>
      </trkpt>
      <trkpt lat="48.44786" lon="-3.80498">
        <ele>214.03063964844</ele>
        <time>2017-05-25T09:45:01Z</time>
      </trkpt>
      <trkpt lat="48.44786" lon="-3.80475">
        <ele>213.55004882812</ele>
        <time>2017-05-25T09:45:12Z</time>
      </trkpt>
      <trkpt lat="48.44787" lon="-3.80449">
        <ele>213.0693359375</ele>
        <time>2017-05-25T09:45:25Z</time>
      </trkpt>
      <trkpt lat="48.44789" lon="-3.80426">
        <ele>213.55004882812</ele>
        <time>2017-05-25T09:45:37Z</time>
      </trkpt>
      <trkpt lat="48.4479" lon="-3.80405">
        <ele>213.55004882812</ele>
        <time>2017-05-25T09:45:48Z</time>
      </trkpt>
      <trkpt lat="48.4479" lon="-3.80387">
        <ele>213.0693359375</ele>
        <time>2017-05-25T09:45:57Z</time>
      </trkpt>
      <trkpt lat="48.44791" lon="-3.80368">
        <ele>212.58862304688</ele>
        <time>2017-05-25T09:46:07Z</time>
      </trkpt>
      <trkpt lat="48.44791" lon="-3.80345">
        <ele>212.10803222656</ele>
        <time>2017-05-25T09:46:19Z</time>
      </trkpt>
      <trkpt lat="48.44791" lon="-3.80328">
        <ele>212.10803222656</ele>
        <time>2017-05-25T09:46:28Z</time>
      </trkpt>
      <trkpt lat="48.44792" lon="-3.80309">
        <ele>211.62744140625</ele>
        <time>2017-05-25T09:46:38Z</time>
      </trkpt>
      <trkpt lat="48.44792" lon="-3.803">
        <ele>211.62744140625</ele>
        <time>2017-05-25T09:46:43Z</time>
      </trkpt>
      <trkpt lat="48.44791" lon="-3.80297">
        <ele>210.666015625</ele>
        <time>2017-05-25T09:46:50Z</time>
      </trkpt>
      <trkpt lat="48.44791" lon="-3.80295">
        <ele>210.666015625</ele>
        <time>2017-05-25T09:46:51Z</time>
      </trkpt>
      <trkpt lat="48.44792" lon="-3.8027">
        <ele>209.70483398438</ele>
        <time>2017-05-25T09:47:04Z</time>
      </trkpt>
      <trkpt lat="48.44792" lon="-3.80249">
        <ele>208.26281738281</ele>
        <time>2017-05-25T09:47:14Z</time>
      </trkpt>
      <trkpt lat="48.44792" lon="-3.80243">
        <ele>208.26281738281</ele>
        <time>2017-05-25T09:47:17Z</time>
      </trkpt>
      <trkpt lat="48.44795" lon="-3.80225">
        <ele>209.22412109375</ele>
        <time>2017-05-25T09:47:26Z</time>
      </trkpt>
      <trkpt lat="48.44796" lon="-3.8022">
        <ele>210.18542480469</ele>
        <time>2017-05-25T09:47:29Z</time>
      </trkpt>
      <trkpt lat="48.448" lon="-3.80204">
        <ele>209.70483398438</ele>
        <time>2017-05-25T09:47:37Z</time>
      </trkpt>
      <trkpt lat="48.44804" lon="-3.8019">
        <ele>209.70483398438</ele>
        <time>2017-05-25T09:47:44Z</time>
      </trkpt>
      <trkpt lat="48.44812" lon="-3.80174">
        <ele>209.70483398438</ele>
        <time>2017-05-25T09:47:54Z</time>
      </trkpt>
      <trkpt lat="48.44821" lon="-3.80159">
        <ele>208.74340820312</ele>
        <time>2017-05-25T09:48:04Z</time>
      </trkpt>
      <trkpt lat="48.44827" lon="-3.8015">
        <ele>208.74340820312</ele>
        <time>2017-05-25T09:48:11Z</time>
      </trkpt>
      <trkpt lat="48.44835" lon="-3.80141">
        <ele>209.22412109375</ele>
        <time>2017-05-25T09:48:19Z</time>
      </trkpt>
      <trkpt lat="48.44843" lon="-3.80132">
        <ele>207.78210449219</ele>
        <time>2017-05-25T09:48:27Z</time>
      </trkpt>
      <trkpt lat="48.44851" lon="-3.80123">
        <ele>206.34008789062</ele>
        <time>2017-05-25T09:48:35Z</time>
      </trkpt>
      <trkpt lat="48.44855" lon="-3.80117">
        <ele>205.37878417969</ele>
        <time>2017-05-25T09:48:40Z</time>
      </trkpt>
      <trkpt lat="48.4486" lon="-3.80113">
        <ele>204.89807128906</ele>
        <time>2017-05-25T09:48:45Z</time>
      </trkpt>
      <trkpt lat="48.44862" lon="-3.8011">
        <ele>204.89807128906</ele>
        <time>2017-05-25T09:48:48Z</time>
      </trkpt>
      <trkpt lat="48.4487" lon="-3.80103">
        <ele>204.41748046875</ele>
        <time>2017-05-25T09:48:55Z</time>
      </trkpt>
      <trkpt lat="48.44875" lon="-3.80099">
        <ele>203.45617675781</ele>
        <time>2017-05-25T09:49:00Z</time>
      </trkpt>
      <trkpt lat="48.44877" lon="-3.80098">
        <ele>203.45617675781</ele>
        <time>2017-05-25T09:49:01Z</time>
      </trkpt>
      <trkpt lat="48.44883" lon="-3.80102">
        <ele>203.93688964844</ele>
        <time>2017-05-25T09:49:07Z</time>
      </trkpt>
      <trkpt lat="48.44886" lon="-3.80107">
        <ele>203.93688964844</ele>
        <time>2017-05-25T09:49:10Z</time>
      </trkpt>
      <trkpt lat="48.44889" lon="-3.80111">
        <ele>203.45617675781</ele>
        <time>2017-05-25T09:49:14Z</time>
      </trkpt>
      <trkpt lat="48.44896" lon="-3.80125">
        <ele>202.49487304688</ele>
        <time>2017-05-25T09:49:24Z</time>
      </trkpt>
      <trkpt lat="48.44901" lon="-3.80131">
        <ele>202.49487304688</ele>
        <time>2017-05-25T09:49:30Z</time>
      </trkpt>
      <trkpt lat="48.44901" lon="-3.80137">
        <ele>201.53356933594</ele>
        <time>2017-05-25T09:49:37Z</time>
      </trkpt>
      <trkpt lat="48.44902" lon="-3.80137">
        <ele>199.13012695312</ele>
        <time>2017-05-25T09:49:45Z</time>
      </trkpt>
      <trkpt lat="48.44906" lon="-3.8014">
        <ele>199.61083984375</ele>
        <time>2017-05-25T09:49:55Z</time>
      </trkpt>
      <trkpt lat="48.44902" lon="-3.80137">
        <ele>202.49487304688</ele>
        <time>2017-05-25T09:50:13Z</time>
      </trkpt>
      <trkpt lat="48.44899" lon="-3.80141">
        <ele>202.49487304688</ele>
        <time>2017-05-25T09:50:16Z</time>
      </trkpt>
      <trkpt lat="48.44896" lon="-3.80138">
        <ele>203.45617675781</ele>
        <time>2017-05-25T09:50:22Z</time>
      </trkpt>
      <trkpt lat="48.44893" lon="-3.80134">
        <ele>203.45617675781</ele>
        <time>2017-05-25T09:50:29Z</time>
      </trkpt>
      <trkpt lat="48.44892" lon="-3.80129">
        <ele>202.97546386719</ele>
        <time>2017-05-25T09:50:59Z</time>
      </trkpt>
      <trkpt lat="48.44893" lon="-3.80133">
        <ele>202.01428222656</ele>
        <time>2017-05-25T09:51:05Z</time>
      </trkpt>
      <trkpt lat="48.44895" lon="-3.80135">
        <ele>201.05285644531</ele>
        <time>2017-05-25T09:51:10Z</time>
      </trkpt>
      <trkpt lat="48.44897" lon="-3.80137">
        <ele>197.68823242188</ele>
        <time>2017-05-25T09:51:14Z</time>
      </trkpt>
      <trkpt lat="48.44899" lon="-3.80135">
        <ele>200.09167480469</ele>
        <time>2017-05-25T09:51:22Z</time>
      </trkpt>
      <trkpt lat="48.449" lon="-3.8013">
        <ele>202.01428222656</ele>
        <time>2017-05-25T09:51:32Z</time>
      </trkpt>
      <trkpt lat="48.44898" lon="-3.80128">
        <ele>201.05285644531</ele>
        <time>2017-05-25T09:51:40Z</time>
      </trkpt>
      <trkpt lat="48.44895" lon="-3.8013">
        <ele>198.1689453125</ele>
        <time>2017-05-25T09:51:46Z</time>
      </trkpt>
      <trkpt lat="48.44895" lon="-3.80134">
        <ele>196.72692871094</ele>
        <time>2017-05-25T09:51:52Z</time>
      </trkpt>
      <trkpt lat="48.44899" lon="-3.80146">
        <ele>196.72692871094</ele>
        <time>2017-05-25T09:52:22Z</time>
      </trkpt>
      <trkpt lat="48.44899" lon="-3.80149">
        <ele>201.05285644531</ele>
        <time>2017-05-25T09:52:44Z</time>
      </trkpt>
      <trkpt lat="48.44903" lon="-3.80145">
        <ele>201.05285644531</ele>
        <time>2017-05-25T09:52:53Z</time>
      </trkpt>
      <trkpt lat="48.44905" lon="-3.80143">
        <ele>201.05285644531</ele>
        <time>2017-05-25T09:53:01Z</time>
      </trkpt>
      <trkpt lat="48.44904" lon="-3.80141">
        <ele>200.09167480469</ele>
        <time>2017-05-25T09:53:02Z</time>
      </trkpt>
      <trkpt lat="48.44906" lon="-3.80135">
        <ele>202.01428222656</ele>
        <time>2017-05-25T09:53:08Z</time>
      </trkpt>
      <trkpt lat="48.44908" lon="-3.80128">
        <ele>202.97546386719</ele>
        <time>2017-05-25T09:53:13Z</time>
      </trkpt>
      <trkpt lat="48.44911" lon="-3.80127">
        <ele>202.01428222656</ele>
        <time>2017-05-25T09:53:19Z</time>
      </trkpt>
      <trkpt lat="48.44913" lon="-3.8013">
        <ele>201.05285644531</ele>
        <time>2017-05-25T09:53:25Z</time>
      </trkpt>
      <trkpt lat="48.44916" lon="-3.80136">
        <ele>201.05285644531</ele>
        <time>2017-05-25T09:53:33Z</time>
      </trkpt>
      <trkpt lat="48.44917" lon="-3.80139">
        <ele>201.05285644531</ele>
        <time>2017-05-25T09:53:43Z</time>
      </trkpt>
      <trkpt lat="48.44917" lon="-3.80136">
        <ele>201.05285644531</ele>
        <time>2017-05-25T09:54:09Z</time>
      </trkpt>
      <trkpt lat="48.44913" lon="-3.80131">
        <ele>201.05285644531</ele>
        <time>2017-05-25T09:54:15Z</time>
      </trkpt>
      <trkpt lat="48.44911" lon="-3.80131">
        <ele>200.09167480469</ele>
        <time>2017-05-25T09:54:19Z</time>
      </trkpt>
      <trkpt lat="48.44903" lon="-3.80135">
        <ele>200.572265625</ele>
        <time>2017-05-25T09:54:27Z</time>
      </trkpt>
      <trkpt lat="48.44901" lon="-3.80139">
        <ele>200.572265625</ele>
        <time>2017-05-25T09:54:32Z</time>
      </trkpt>
      <trkpt lat="48.44899" lon="-3.8014">
        <ele>197.20751953125</ele>
        <time>2017-05-25T09:54:38Z</time>
      </trkpt>
      <trkpt lat="48.44897" lon="-3.80142">
        <ele>196.24633789062</ele>
        <time>2017-05-25T09:54:43Z</time>
      </trkpt>
      <trkpt lat="48.44896" lon="-3.80145">
        <ele>192.40112304688</ele>
        <time>2017-05-25T09:54:50Z</time>
      </trkpt>
      <trkpt lat="48.44894" lon="-3.80147">
        <ele>196.24633789062</ele>
        <time>2017-05-25T09:55:18Z</time>
      </trkpt>
      <trkpt lat="48.44895" lon="-3.80149">
        <ele>198.64953613281</ele>
        <time>2017-05-25T09:55:45Z</time>
      </trkpt>
      <trkpt lat="48.44895" lon="-3.80149">
        <ele>202.97546386719</ele>
        <time>2017-05-25T09:56:01Z</time>
      </trkpt>
      <trkpt lat="48.44897" lon="-3.80148">
        <ele>188.55578613281</ele>
        <time>2017-05-25T09:56:18Z</time>
      </trkpt>
      <trkpt lat="48.44896" lon="-3.80147">
        <ele>189.51696777344</ele>
        <time>2017-05-25T09:56:34Z</time>
      </trkpt>
      <trkpt lat="48.44901" lon="-3.80146">
        <ele>198.1689453125</ele>
        <time>2017-05-25T09:57:09Z</time>
      </trkpt>
      <trkpt lat="48.44899" lon="-3.80144">
        <ele>198.1689453125</ele>
        <time>2017-05-25T09:57:19Z</time>
      </trkpt>
      <trkpt lat="48.44895" lon="-3.80139">
        <ele>194.80432128906</ele>
        <time>2017-05-25T09:57:24Z</time>
      </trkpt>
      <trkpt lat="48.44895" lon="-3.80139">
        <ele>193.3623046875</ele>
        <time>2017-05-25T09:57:30Z</time>
      </trkpt>
      <trkpt lat="48.44893" lon="-3.80141">
        <ele>190.958984375</ele>
        <time>2017-05-25T09:57:41Z</time>
      </trkpt>
      <trkpt lat="48.44899" lon="-3.80141">
        <ele>194.32373046875</ele>
        <time>2017-05-25T09:58:05Z</time>
      </trkpt>
      <trkpt lat="48.44897" lon="-3.80135">
        <ele>196.72692871094</ele>
        <time>2017-05-25T09:58:11Z</time>
      </trkpt>
      <trkpt lat="48.44895" lon="-3.80127">
        <ele>198.1689453125</ele>
        <time>2017-05-25T09:58:18Z</time>
      </trkpt>
      <trkpt lat="48.44895" lon="-3.80122">
        <ele>199.61083984375</ele>
        <time>2017-05-25T09:58:22Z</time>
      </trkpt>
      <trkpt lat="48.4489" lon="-3.80112">
        <ele>200.572265625</ele>
        <time>2017-05-25T09:58:31Z</time>
      </trkpt>
      <trkpt lat="48.44889" lon="-3.80107">
        <ele>201.05285644531</ele>
        <time>2017-05-25T09:58:34Z</time>
      </trkpt>
      <trkpt lat="48.44886" lon="-3.80094">
        <ele>201.53356933594</ele>
        <time>2017-05-25T09:58:42Z</time>
      </trkpt>
      <trkpt lat="48.44887" lon="-3.80087">
        <ele>201.53356933594</ele>
        <time>2017-05-25T09:58:46Z</time>
      </trkpt>
      <trkpt lat="48.44892" lon="-3.8008">
        <ele>202.01428222656</ele>
        <time>2017-05-25T09:58:52Z</time>
      </trkpt>
      <trkpt lat="48.44901" lon="-3.80069">
        <ele>202.49487304688</ele>
        <time>2017-05-25T09:59:01Z</time>
      </trkpt>
      <trkpt lat="48.44909" lon="-3.80059">
        <ele>202.01428222656</ele>
        <time>2017-05-25T09:59:09Z</time>
      </trkpt>
      <trkpt lat="48.44914" lon="-3.80055">
        <ele>200.09167480469</ele>
        <time>2017-05-25T09:59:15Z</time>
      </trkpt>
      <trkpt lat="48.44918" lon="-3.80049">
        <ele>197.68823242188</ele>
        <time>2017-05-25T09:59:24Z</time>
      </trkpt>
      <trkpt lat="48.44922" lon="-3.80046">
        <ele>197.20751953125</ele>
        <time>2017-05-25T09:59:32Z</time>
      </trkpt>
      <trkpt lat="48.44926" lon="-3.8004">
        <ele>194.80432128906</ele>
        <time>2017-05-25T09:59:39Z</time>
      </trkpt>
      <trkpt lat="48.44933" lon="-3.80034">
        <ele>192.88171386719</ele>
        <time>2017-05-25T09:59:48Z</time>
      </trkpt>
      <trkpt lat="48.44936" lon="-3.80032">
        <ele>192.40112304688</ele>
        <time>2017-05-25T09:59:53Z</time>
      </trkpt>
      <trkpt lat="48.4494" lon="-3.80029">
        <ele>192.40112304688</ele>
        <time>2017-05-25T09:59:57Z</time>
      </trkpt>
      <trkpt lat="48.44945" lon="-3.80025">
        <ele>193.3623046875</ele>
        <time>2017-05-25T10:00:02Z</time>
      </trkpt>
      <trkpt lat="48.44952" lon="-3.80023">
        <ele>196.72692871094</ele>
        <time>2017-05-25T10:00:06Z</time>
      </trkpt>
      <trkpt lat="48.4496" lon="-3.80013">
        <ele>196.72692871094</ele>
        <time>2017-05-25T10:00:15Z</time>
      </trkpt>
      <trkpt lat="48.44964" lon="-3.80009">
        <ele>196.24633789062</ele>
        <time>2017-05-25T10:00:21Z</time>
      </trkpt>
      <trkpt lat="48.44965" lon="-3.80006">
        <ele>196.24633789062</ele>
        <time>2017-05-25T10:00:23Z</time>
      </trkpt>
      <trkpt lat="48.44974" lon="-3.7999">
        <ele>194.32373046875</ele>
        <time>2017-05-25T10:00:34Z</time>
      </trkpt>
      <trkpt lat="48.44982" lon="-3.79974">
        <ele>194.80432128906</ele>
        <time>2017-05-25T10:00:45Z</time>
      </trkpt>
      <trkpt lat="48.44991" lon="-3.79964">
        <ele>196.72692871094</ele>
        <time>2017-05-25T10:00:55Z</time>
      </trkpt>
      <trkpt lat="48.45" lon="-3.79956">
        <ele>198.1689453125</ele>
        <time>2017-05-25T10:01:04Z</time>
      </trkpt>
      <trkpt lat="48.4501" lon="-3.79947">
        <ele>200.09167480469</ele>
        <time>2017-05-25T10:01:14Z</time>
      </trkpt>
      <trkpt lat="48.45017" lon="-3.79938">
        <ele>200.09167480469</ele>
        <time>2017-05-25T10:01:22Z</time>
      </trkpt>
      <trkpt lat="48.45022" lon="-3.79931">
        <ele>200.09167480469</ele>
        <time>2017-05-25T10:01:28Z</time>
      </trkpt>
      <trkpt lat="48.45027" lon="-3.79921">
        <ele>200.09167480469</ele>
        <time>2017-05-25T10:01:36Z</time>
      </trkpt>
      <trkpt lat="48.4503" lon="-3.79907">
        <ele>196.24633789062</ele>
        <time>2017-05-25T10:01:44Z</time>
      </trkpt>
      <trkpt lat="48.45036" lon="-3.79894">
        <ele>198.1689453125</ele>
        <time>2017-05-25T10:01:53Z</time>
      </trkpt>
      <trkpt lat="48.45043" lon="-3.79882">
        <ele>201.53356933594</ele>
        <time>2017-05-25T10:02:03Z</time>
      </trkpt>
      <trkpt lat="48.45044" lon="-3.79876">
        <ele>201.53356933594</ele>
        <time>2017-05-25T10:02:08Z</time>
      </trkpt>
      <trkpt lat="48.45048" lon="-3.79868">
        <ele>203.45617675781</ele>
        <time>2017-05-25T10:02:14Z</time>
      </trkpt>
      <trkpt lat="48.45055" lon="-3.79852">
        <ele>198.64953613281</ele>
        <time>2017-05-25T10:02:22Z</time>
      </trkpt>
      <trkpt lat="48.45059" lon="-3.79843">
        <ele>197.20751953125</ele>
        <time>2017-05-25T10:02:29Z</time>
      </trkpt>
      <trkpt lat="48.45065" lon="-3.7984">
        <ele>199.13012695312</ele>
        <time>2017-05-25T10:02:36Z</time>
      </trkpt>
      <trkpt lat="48.45069" lon="-3.79842">
        <ele>200.09167480469</ele>
        <time>2017-05-25T10:02:40Z</time>
      </trkpt>
      <trkpt lat="48.45082" lon="-3.79847">
        <ele>201.05285644531</ele>
        <time>2017-05-25T10:02:52Z</time>
      </trkpt>
      <trkpt lat="48.45086" lon="-3.79841">
        <ele>200.572265625</ele>
        <time>2017-05-25T10:02:57Z</time>
      </trkpt>
      <trkpt lat="48.45092" lon="-3.79819">
        <ele>198.64953613281</ele>
        <time>2017-05-25T10:03:09Z</time>
      </trkpt>
      <trkpt lat="48.45097" lon="-3.79799">
        <ele>198.1689453125</ele>
        <time>2017-05-25T10:03:20Z</time>
      </trkpt>
      <trkpt lat="48.45102" lon="-3.7978">
        <ele>195.765625</ele>
        <time>2017-05-25T10:03:30Z</time>
      </trkpt>
      <trkpt lat="48.45105" lon="-3.79764">
        <ele>195.765625</ele>
        <time>2017-05-25T10:03:40Z</time>
      </trkpt>
      <trkpt lat="48.4511" lon="-3.79754">
        <ele>198.1689453125</ele>
        <time>2017-05-25T10:03:48Z</time>
      </trkpt>
      <trkpt lat="48.45115" lon="-3.79739">
        <ele>198.64953613281</ele>
        <time>2017-05-25T10:03:58Z</time>
      </trkpt>
      <trkpt lat="48.45118" lon="-3.79727">
        <ele>197.20751953125</ele>
        <time>2017-05-25T10:04:05Z</time>
      </trkpt>
      <trkpt lat="48.4512" lon="-3.79705">
        <ele>196.72692871094</ele>
        <time>2017-05-25T10:04:16Z</time>
      </trkpt>
      <trkpt lat="48.45121" lon="-3.79689">
        <ele>197.68823242188</ele>
        <time>2017-05-25T10:04:26Z</time>
      </trkpt>
      <trkpt lat="48.45124" lon="-3.79678">
        <ele>199.61083984375</ele>
        <time>2017-05-25T10:04:35Z</time>
      </trkpt>
      <trkpt lat="48.4513" lon="-3.79667">
        <ele>200.572265625</ele>
        <time>2017-05-25T10:04:45Z</time>
      </trkpt>
      <trkpt lat="48.45134" lon="-3.7966">
        <ele>199.61083984375</ele>
        <time>2017-05-25T10:04:52Z</time>
      </trkpt>
      <trkpt lat="48.45138" lon="-3.79656">
        <ele>197.68823242188</ele>
        <time>2017-05-25T10:04:59Z</time>
      </trkpt>
      <trkpt lat="48.45143" lon="-3.7965">
        <ele>197.20751953125</ele>
        <time>2017-05-25T10:05:07Z</time>
      </trkpt>
      <trkpt lat="48.45146" lon="-3.79645">
        <ele>195.765625</ele>
        <time>2017-05-25T10:05:14Z</time>
      </trkpt>
      <trkpt lat="48.45147" lon="-3.79643">
        <ele>196.24633789062</ele>
        <time>2017-05-25T10:05:19Z</time>
      </trkpt>
      <trkpt lat="48.45145" lon="-3.79646">
        <ele>197.20751953125</ele>
        <time>2017-05-25T10:05:24Z</time>
      </trkpt>
      <trkpt lat="48.45142" lon="-3.79646">
        <ele>197.20751953125</ele>
        <time>2017-05-25T10:05:30Z</time>
      </trkpt>
      <trkpt lat="48.45141" lon="-3.79645">
        <ele>196.24633789062</ele>
        <time>2017-05-25T10:05:38Z</time>
      </trkpt>
      <trkpt lat="48.4514" lon="-3.79642">
        <ele>194.80432128906</ele>
        <time>2017-05-25T10:05:50Z</time>
      </trkpt>
      <trkpt lat="48.45141" lon="-3.79641">
        <ele>194.80432128906</ele>
        <time>2017-05-25T10:05:57Z</time>
      </trkpt>
      <trkpt lat="48.45141" lon="-3.79647">
        <ele>194.32373046875</ele>
        <time>2017-05-25T10:06:05Z</time>
      </trkpt>
      <trkpt lat="48.45142" lon="-3.79647">
        <ele>192.40112304688</ele>
        <time>2017-05-25T10:06:11Z</time>
      </trkpt>
      <trkpt lat="48.4514" lon="-3.79647">
        <ele>192.88171386719</ele>
        <time>2017-05-25T10:06:18Z</time>
      </trkpt>
      <trkpt lat="48.45135" lon="-3.79645">
        <ele>192.88171386719</ele>
        <time>2017-05-25T10:06:24Z</time>
      </trkpt>
      <trkpt lat="48.45135" lon="-3.79644">
        <ele>193.3623046875</ele>
        <time>2017-05-25T10:06:30Z</time>
      </trkpt>
      <trkpt lat="48.45129" lon="-3.79645">
        <ele>193.84301757812</ele>
        <time>2017-05-25T10:06:36Z</time>
      </trkpt>
      <trkpt lat="48.45123" lon="-3.79644">
        <ele>195.765625</ele>
        <time>2017-05-25T10:06:43Z</time>
      </trkpt>
      <trkpt lat="48.45119" lon="-3.79642">
        <ele>196.72692871094</ele>
        <time>2017-05-25T10:06:49Z</time>
      </trkpt>
      <trkpt lat="48.45115" lon="-3.79639">
        <ele>197.20751953125</ele>
        <time>2017-05-25T10:06:55Z</time>
      </trkpt>
      <trkpt lat="48.45108" lon="-3.79634">
        <ele>197.68823242188</ele>
        <time>2017-05-25T10:07:03Z</time>
      </trkpt>
      <trkpt lat="48.45097" lon="-3.79629">
        <ele>197.20751953125</ele>
        <time>2017-05-25T10:07:13Z</time>
      </trkpt>
      <trkpt lat="48.45095" lon="-3.79627">
        <ele>198.1689453125</ele>
        <time>2017-05-25T10:07:19Z</time>
      </trkpt>
      <trkpt lat="48.45087" lon="-3.79625">
        <ele>198.1689453125</ele>
        <time>2017-05-25T10:07:27Z</time>
      </trkpt>
      <trkpt lat="48.45077" lon="-3.79621">
        <ele>197.68823242188</ele>
        <time>2017-05-25T10:07:37Z</time>
      </trkpt>
      <trkpt lat="48.45068" lon="-3.79618">
        <ele>198.1689453125</ele>
        <time>2017-05-25T10:07:45Z</time>
      </trkpt>
      <trkpt lat="48.45058" lon="-3.79615">
        <ele>198.1689453125</ele>
        <time>2017-05-25T10:07:55Z</time>
      </trkpt>
      <trkpt lat="48.45047" lon="-3.79612">
        <ele>198.1689453125</ele>
        <time>2017-05-25T10:08:05Z</time>
      </trkpt>
      <trkpt lat="48.45037" lon="-3.79609">
        <ele>199.13012695312</ele>
        <time>2017-05-25T10:08:14Z</time>
      </trkpt>
      <trkpt lat="48.45024" lon="-3.79606">
        <ele>198.1689453125</ele>
        <time>2017-05-25T10:08:25Z</time>
      </trkpt>
      <trkpt lat="48.45012" lon="-3.79604">
        <ele>198.1689453125</ele>
        <time>2017-05-25T10:08:35Z</time>
      </trkpt>
      <trkpt lat="48.45002" lon="-3.79601">
        <ele>199.61083984375</ele>
        <time>2017-05-25T10:08:45Z</time>
      </trkpt>
      <trkpt lat="48.44993" lon="-3.79599">
        <ele>200.572265625</ele>
        <time>2017-05-25T10:08:54Z</time>
      </trkpt>
      <trkpt lat="48.44984" lon="-3.79599">
        <ele>202.01428222656</ele>
        <time>2017-05-25T10:09:03Z</time>
      </trkpt>
      <trkpt lat="48.44978" lon="-3.79595">
        <ele>203.45617675781</ele>
        <time>2017-05-25T10:09:10Z</time>
      </trkpt>
      <trkpt lat="48.44973" lon="-3.79594">
        <ele>204.41748046875</ele>
        <time>2017-05-25T10:09:15Z</time>
      </trkpt>
      <trkpt lat="48.44968" lon="-3.796">
        <ele>205.85949707031</ele>
        <time>2017-05-25T10:09:21Z</time>
      </trkpt>
      <trkpt lat="48.44964" lon="-3.79602">
        <ele>206.82067871094</ele>
        <time>2017-05-25T10:09:28Z</time>
      </trkpt>
      <trkpt lat="48.44961" lon="-3.796">
        <ele>206.82067871094</ele>
        <time>2017-05-25T10:09:32Z</time>
      </trkpt>
      <trkpt lat="48.44959" lon="-3.79592">
        <ele>206.82067871094</ele>
        <time>2017-05-25T10:09:37Z</time>
      </trkpt>
      <trkpt lat="48.44956" lon="-3.79584">
        <ele>205.85949707031</ele>
        <time>2017-05-25T10:09:42Z</time>
      </trkpt>
      <trkpt lat="48.44955" lon="-3.79577">
        <ele>205.85949707031</ele>
        <time>2017-05-25T10:09:46Z</time>
      </trkpt>
      <trkpt lat="48.44954" lon="-3.79564">
        <ele>207.78210449219</ele>
        <time>2017-05-25T10:09:54Z</time>
      </trkpt>
      <trkpt lat="48.44952" lon="-3.79552">
        <ele>207.78210449219</ele>
        <time>2017-05-25T10:10:01Z</time>
      </trkpt>
      <trkpt lat="48.44953" lon="-3.79538">
        <ele>208.74340820312</ele>
        <time>2017-05-25T10:10:09Z</time>
      </trkpt>
      <trkpt lat="48.44955" lon="-3.79525">
        <ele>208.26281738281</ele>
        <time>2017-05-25T10:10:17Z</time>
      </trkpt>
      <trkpt lat="48.44955" lon="-3.79521">
        <ele>208.26281738281</ele>
        <time>2017-05-25T10:10:19Z</time>
      </trkpt>
      <trkpt lat="48.44957" lon="-3.79509">
        <ele>208.26281738281</ele>
        <time>2017-05-25T10:10:25Z</time>
      </trkpt>
      <trkpt lat="48.44961" lon="-3.79494">
        <ele>208.26281738281</ele>
        <time>2017-05-25T10:10:33Z</time>
      </trkpt>
      <trkpt lat="48.44964" lon="-3.79482">
        <ele>209.22412109375</ele>
        <time>2017-05-25T10:10:40Z</time>
      </trkpt>
      <trkpt lat="48.44967" lon="-3.79469">
        <ele>209.70483398438</ele>
        <time>2017-05-25T10:10:47Z</time>
      </trkpt>
      <trkpt lat="48.4497" lon="-3.79454">
        <ele>208.26281738281</ele>
        <time>2017-05-25T10:10:55Z</time>
      </trkpt>
      <trkpt lat="48.44972" lon="-3.79442">
        <ele>208.26281738281</ele>
        <time>2017-05-25T10:11:02Z</time>
      </trkpt>
      <trkpt lat="48.44974" lon="-3.79428">
        <ele>207.30139160156</ele>
        <time>2017-05-25T10:11:09Z</time>
      </trkpt>
      <trkpt lat="48.44975" lon="-3.79426">
        <ele>206.82067871094</ele>
        <time>2017-05-25T10:11:10Z</time>
      </trkpt>
      <trkpt lat="48.44976" lon="-3.79422">
        <ele>207.30139160156</ele>
        <time>2017-05-25T10:11:12Z</time>
      </trkpt>
      <trkpt lat="48.4498" lon="-3.79412">
        <ele>207.30139160156</ele>
        <time>2017-05-25T10:11:18Z</time>
      </trkpt>
      <trkpt lat="48.44982" lon="-3.79409">
        <ele>208.26281738281</ele>
        <time>2017-05-25T10:11:20Z</time>
      </trkpt>
      <trkpt lat="48.44985" lon="-3.79395">
        <ele>208.26281738281</ele>
        <time>2017-05-25T10:11:28Z</time>
      </trkpt>
      <trkpt lat="48.44986" lon="-3.79386">
        <ele>207.78210449219</ele>
        <time>2017-05-25T10:11:33Z</time>
      </trkpt>
      <trkpt lat="48.44986" lon="-3.79377">
        <ele>207.30139160156</ele>
        <time>2017-05-25T10:11:39Z</time>
      </trkpt>
      <trkpt lat="48.44986" lon="-3.79373">
        <ele>208.26281738281</ele>
        <time>2017-05-25T10:11:44Z</time>
      </trkpt>
      <trkpt lat="48.44988" lon="-3.79362">
        <ele>208.26281738281</ele>
        <time>2017-05-25T10:11:51Z</time>
      </trkpt>
      <trkpt lat="48.44989" lon="-3.7936">
        <ele>208.74340820312</ele>
        <time>2017-05-25T10:11:52Z</time>
      </trkpt>
      <trkpt lat="48.4499" lon="-3.79353">
        <ele>208.26281738281</ele>
        <time>2017-05-25T10:11:56Z</time>
      </trkpt>
      <trkpt lat="48.44991" lon="-3.7934">
        <ele>208.74340820312</ele>
        <time>2017-05-25T10:12:03Z</time>
      </trkpt>
      <trkpt lat="48.44993" lon="-3.7933">
        <ele>209.22412109375</ele>
        <time>2017-05-25T10:12:09Z</time>
      </trkpt>
      <trkpt lat="48.44994" lon="-3.79328">
        <ele>209.22412109375</ele>
        <time>2017-05-25T10:12:10Z</time>
      </trkpt>
      <trkpt lat="48.44994" lon="-3.79309">
        <ele>212.10803222656</ele>
        <time>2017-05-25T10:12:19Z</time>
      </trkpt>
      <trkpt lat="48.44995" lon="-3.7929">
        <ele>214.51123046875</ele>
        <time>2017-05-25T10:12:29Z</time>
      </trkpt>
      <trkpt lat="48.44996" lon="-3.79273">
        <ele>218.35656738281</ele>
        <time>2017-05-25T10:12:39Z</time>
      </trkpt>
      <trkpt lat="48.44998" lon="-3.79254">
        <ele>218.35656738281</ele>
        <time>2017-05-25T10:12:49Z</time>
      </trkpt>
      <trkpt lat="48.44999" lon="-3.79235">
        <ele>216.91467285156</ele>
        <time>2017-05-25T10:12:58Z</time>
      </trkpt>
      <trkpt lat="48.45001" lon="-3.7922">
        <ele>216.43395996094</ele>
        <time>2017-05-25T10:13:06Z</time>
      </trkpt>
      <trkpt lat="48.45003" lon="-3.79198">
        <ele>214.99194335938</ele>
        <time>2017-05-25T10:13:17Z</time>
      </trkpt>
      <trkpt lat="48.45007" lon="-3.79175">
        <ele>214.03063964844</ele>
        <time>2017-05-25T10:13:29Z</time>
      </trkpt>
      <trkpt lat="48.4501" lon="-3.79155">
        <ele>213.0693359375</ele>
        <time>2017-05-25T10:13:40Z</time>
      </trkpt>
      <trkpt lat="48.45012" lon="-3.79137">
        <ele>212.58862304688</ele>
        <time>2017-05-25T10:13:50Z</time>
      </trkpt>
      <trkpt lat="48.45015" lon="-3.79118">
        <ele>213.55004882812</ele>
        <time>2017-05-25T10:14:01Z</time>
      </trkpt>
      <trkpt lat="48.45018" lon="-3.791">
        <ele>214.03063964844</ele>
        <time>2017-05-25T10:14:11Z</time>
      </trkpt>
      <trkpt lat="48.45022" lon="-3.79079">
        <ele>214.03063964844</ele>
        <time>2017-05-25T10:14:22Z</time>
      </trkpt>
      <trkpt lat="48.45026" lon="-3.79059">
        <ele>214.51123046875</ele>
        <time>2017-05-25T10:14:33Z</time>
      </trkpt>
      <trkpt lat="48.45028" lon="-3.79044">
        <ele>214.51123046875</ele>
        <time>2017-05-25T10:14:42Z</time>
      </trkpt>
      <trkpt lat="48.45033" lon="-3.79028">
        <ele>213.55004882812</ele>
        <time>2017-05-25T10:14:52Z</time>
      </trkpt>
      <trkpt lat="48.45037" lon="-3.79011">
        <ele>211.62744140625</ele>
        <time>2017-05-25T10:15:02Z</time>
      </trkpt>
      <trkpt lat="48.45043" lon="-3.78995">
        <ele>208.74340820312</ele>
        <time>2017-05-25T10:15:12Z</time>
      </trkpt>
      <trkpt lat="48.45049" lon="-3.78979">
        <ele>208.74340820312</ele>
        <time>2017-05-25T10:15:22Z</time>
      </trkpt>
      <trkpt lat="48.45056" lon="-3.78956">
        <ele>208.74340820312</ele>
        <time>2017-05-25T10:15:35Z</time>
      </trkpt>
      <trkpt lat="48.45062" lon="-3.78937">
        <ele>208.74340820312</ele>
        <time>2017-05-25T10:15:46Z</time>
      </trkpt>
      <trkpt lat="48.45067" lon="-3.7892">
        <ele>208.74340820312</ele>
        <time>2017-05-25T10:15:56Z</time>
      </trkpt>
      <trkpt lat="48.45071" lon="-3.78901">
        <ele>208.26281738281</ele>
        <time>2017-05-25T10:16:07Z</time>
      </trkpt>
      <trkpt lat="48.45077" lon="-3.78878">
        <ele>208.26281738281</ele>
        <time>2017-05-25T10:16:20Z</time>
      </trkpt>
      <trkpt lat="48.45082" lon="-3.78856">
        <ele>208.74340820312</ele>
        <time>2017-05-25T10:16:32Z</time>
      </trkpt>
      <trkpt lat="48.45086" lon="-3.78835">
        <ele>209.22412109375</ele>
        <time>2017-05-25T10:16:44Z</time>
      </trkpt>
      <trkpt lat="48.45091" lon="-3.78817">
        <ele>210.18542480469</ele>
        <time>2017-05-25T10:16:54Z</time>
      </trkpt>
      <trkpt lat="48.45094" lon="-3.78795">
        <ele>211.14672851562</ele>
        <time>2017-05-25T10:17:05Z</time>
      </trkpt>
      <trkpt lat="48.45096" lon="-3.78776">
        <ele>210.666015625</ele>
        <time>2017-05-25T10:17:15Z</time>
      </trkpt>
      <trkpt lat="48.45098" lon="-3.78757">
        <ele>210.18542480469</ele>
        <time>2017-05-25T10:17:25Z</time>
      </trkpt>
      <trkpt lat="48.45101" lon="-3.78738">
        <ele>210.666015625</ele>
        <time>2017-05-25T10:17:35Z</time>
      </trkpt>
      <trkpt lat="48.45104" lon="-3.7872">
        <ele>211.14672851562</ele>
        <time>2017-05-25T10:17:45Z</time>
      </trkpt>
      <trkpt lat="48.45107" lon="-3.78704">
        <ele>211.62744140625</ele>
        <time>2017-05-25T10:17:54Z</time>
      </trkpt>
      <trkpt lat="48.4511" lon="-3.78687">
        <ele>211.62744140625</ele>
        <time>2017-05-25T10:18:03Z</time>
      </trkpt>
      <trkpt lat="48.45112" lon="-3.78673">
        <ele>212.58862304688</ele>
        <time>2017-05-25T10:18:11Z</time>
      </trkpt>
      <trkpt lat="48.45116" lon="-3.78654">
        <ele>212.58862304688</ele>
        <time>2017-05-25T10:18:21Z</time>
      </trkpt>
      <trkpt lat="48.45118" lon="-3.78644">
        <ele>213.0693359375</ele>
        <time>2017-05-25T10:18:27Z</time>
      </trkpt>
      <trkpt lat="48.45123" lon="-3.78626">
        <ele>213.0693359375</ele>
        <time>2017-05-25T10:18:37Z</time>
      </trkpt>
      <trkpt lat="48.4513" lon="-3.78608">
        <ele>211.62744140625</ele>
        <time>2017-05-25T10:18:48Z</time>
      </trkpt>
      <trkpt lat="48.45142" lon="-3.78592">
        <ele>211.14672851562</ele>
        <time>2017-05-25T10:19:00Z</time>
      </trkpt>
      <trkpt lat="48.45153" lon="-3.78581">
        <ele>210.666015625</ele>
        <time>2017-05-25T10:19:10Z</time>
      </trkpt>
      <trkpt lat="48.45169" lon="-3.78573">
        <ele>211.14672851562</ele>
        <time>2017-05-25T10:19:23Z</time>
      </trkpt>
      <trkpt lat="48.45182" lon="-3.78571">
        <ele>211.14672851562</ele>
        <time>2017-05-25T10:19:34Z</time>
      </trkpt>
      <trkpt lat="48.45198" lon="-3.78573">
        <ele>211.62744140625</ele>
        <time>2017-05-25T10:19:46Z</time>
      </trkpt>
      <trkpt lat="48.45212" lon="-3.7858">
        <ele>211.62744140625</ele>
        <time>2017-05-25T10:19:58Z</time>
      </trkpt>
      <trkpt lat="48.45227" lon="-3.78593">
        <ele>211.62744140625</ele>
        <time>2017-05-25T10:20:11Z</time>
      </trkpt>
      <trkpt lat="48.45239" lon="-3.78606">
        <ele>212.10803222656</ele>
        <time>2017-05-25T10:20:23Z</time>
      </trkpt>
      <trkpt lat="48.45252" lon="-3.7862">
        <ele>211.62744140625</ele>
        <time>2017-05-25T10:20:35Z</time>
      </trkpt>
      <trkpt lat="48.45262" lon="-3.78632">
        <ele>214.03063964844</ele>
        <time>2017-05-25T10:20:46Z</time>
      </trkpt>
      <trkpt lat="48.45273" lon="-3.78645">
        <ele>215.95324707031</ele>
        <time>2017-05-25T10:20:57Z</time>
      </trkpt>
      <trkpt lat="48.45281" lon="-3.78654">
        <ele>216.91467285156</ele>
        <time>2017-05-25T10:21:05Z</time>
      </trkpt>
      <trkpt lat="48.45292" lon="-3.78665">
        <ele>216.91467285156</ele>
        <time>2017-05-25T10:21:15Z</time>
      </trkpt>
      <trkpt lat="48.45302" lon="-3.78676">
        <ele>218.35656738281</ele>
        <time>2017-05-25T10:21:24Z</time>
      </trkpt>
      <trkpt lat="48.45314" lon="-3.78686">
        <ele>219.31799316406</ele>
        <time>2017-05-25T10:21:35Z</time>
      </trkpt>
      <trkpt lat="48.45322" lon="-3.78688">
        <ele>219.31799316406</ele>
        <time>2017-05-25T10:21:42Z</time>
      </trkpt>
      <trkpt lat="48.45333" lon="-3.78692">
        <ele>218.35656738281</ele>
        <time>2017-05-25T10:21:51Z</time>
      </trkpt>
      <trkpt lat="48.45346" lon="-3.78696">
        <ele>217.39538574219</ele>
        <time>2017-05-25T10:22:01Z</time>
      </trkpt>
      <trkpt lat="48.45357" lon="-3.78699">
        <ele>216.91467285156</ele>
        <time>2017-05-25T10:22:10Z</time>
      </trkpt>
      <trkpt lat="48.45373" lon="-3.78705">
        <ele>216.43395996094</ele>
        <time>2017-05-25T10:22:23Z</time>
      </trkpt>
      <trkpt lat="48.45387" lon="-3.78709">
        <ele>216.43395996094</ele>
        <time>2017-05-25T10:22:35Z</time>
      </trkpt>
      <trkpt lat="48.454" lon="-3.78714">
        <ele>216.91467285156</ele>
        <time>2017-05-25T10:22:46Z</time>
      </trkpt>
      <trkpt lat="48.45413" lon="-3.78714">
        <ele>216.91467285156</ele>
        <time>2017-05-25T10:22:57Z</time>
      </trkpt>
      <trkpt lat="48.45414" lon="-3.78713">
        <ele>216.91467285156</ele>
        <time>2017-05-25T10:22:58Z</time>
      </trkpt>
      <trkpt lat="48.45412" lon="-3.78701">
        <ele>217.39538574219</ele>
        <time>2017-05-25T10:23:05Z</time>
      </trkpt>
      <trkpt lat="48.4541" lon="-3.78699">
        <ele>216.91467285156</ele>
        <time>2017-05-25T10:23:07Z</time>
      </trkpt>
      <trkpt lat="48.45405" lon="-3.78689">
        <ele>218.35656738281</ele>
        <time>2017-05-25T10:23:14Z</time>
      </trkpt>
      <trkpt lat="48.45403" lon="-3.78686">
        <ele>218.35656738281</ele>
        <time>2017-05-25T10:23:16Z</time>
      </trkpt>
      <trkpt lat="48.45396" lon="-3.78673">
        <ele>218.83728027344</ele>
        <time>2017-05-25T10:23:25Z</time>
      </trkpt>
      <trkpt lat="48.4539" lon="-3.78661">
        <ele>219.31799316406</ele>
        <time>2017-05-25T10:23:33Z</time>
      </trkpt>
      <trkpt lat="48.45385" lon="-3.78651">
        <ele>219.31799316406</ele>
        <time>2017-05-25T10:23:40Z</time>
      </trkpt>
      <trkpt lat="48.45379" lon="-3.78639">
        <ele>218.35656738281</ele>
        <time>2017-05-25T10:23:48Z</time>
      </trkpt>
      <trkpt lat="48.45372" lon="-3.78626">
        <ele>217.39538574219</ele>
        <time>2017-05-25T10:23:57Z</time>
      </trkpt>
      <trkpt lat="48.45371" lon="-3.78625">
        <ele>217.39538574219</ele>
        <time>2017-05-25T10:23:58Z</time>
      </trkpt>
      <trkpt lat="48.45365" lon="-3.78612">
        <ele>217.8759765625</ele>
        <time>2017-05-25T10:24:06Z</time>
      </trkpt>
      <trkpt lat="48.45361" lon="-3.78603">
        <ele>217.8759765625</ele>
        <time>2017-05-25T10:24:12Z</time>
      </trkpt>
      <trkpt lat="48.45354" lon="-3.78591">
        <ele>218.35656738281</ele>
        <time>2017-05-25T10:24:20Z</time>
      </trkpt>
      <trkpt lat="48.4535" lon="-3.78579">
        <ele>218.83728027344</ele>
        <time>2017-05-25T10:24:27Z</time>
      </trkpt>
      <trkpt lat="48.45346" lon="-3.78566">
        <ele>218.35656738281</ele>
        <time>2017-05-25T10:24:34Z</time>
      </trkpt>
      <trkpt lat="48.45341" lon="-3.78557">
        <ele>218.83728027344</ele>
        <time>2017-05-25T10:24:40Z</time>
      </trkpt>
      <trkpt lat="48.45336" lon="-3.7855">
        <ele>218.83728027344</ele>
        <time>2017-05-25T10:24:46Z</time>
      </trkpt>
      <trkpt lat="48.45334" lon="-3.78546">
        <ele>219.31799316406</ele>
        <time>2017-05-25T10:24:49Z</time>
      </trkpt>
      <trkpt lat="48.45327" lon="-3.78534">
        <ele>219.31799316406</ele>
        <time>2017-05-25T10:24:57Z</time>
      </trkpt>
      <trkpt lat="48.45321" lon="-3.78523">
        <ele>219.31799316406</ele>
        <time>2017-05-25T10:25:05Z</time>
      </trkpt>
      <trkpt lat="48.45316" lon="-3.78514">
        <ele>219.31799316406</ele>
        <time>2017-05-25T10:25:11Z</time>
      </trkpt>
      <trkpt lat="48.45312" lon="-3.78508">
        <ele>219.31799316406</ele>
        <time>2017-05-25T10:25:16Z</time>
      </trkpt>
      <trkpt lat="48.45308" lon="-3.785">
        <ele>220.75988769531</ele>
        <time>2017-05-25T10:25:22Z</time>
      </trkpt>
      <trkpt lat="48.45307" lon="-3.78498">
        <ele>221.24060058594</ele>
        <time>2017-05-25T10:25:23Z</time>
      </trkpt>
      <trkpt lat="48.45302" lon="-3.78488">
        <ele>221.24060058594</ele>
        <time>2017-05-25T10:25:28Z</time>
      </trkpt>
      <trkpt lat="48.453" lon="-3.78481">
        <ele>221.72119140625</ele>
        <time>2017-05-25T10:25:32Z</time>
      </trkpt>
      <trkpt lat="48.45295" lon="-3.78471">
        <ele>220.75988769531</ele>
        <time>2017-05-25T10:25:39Z</time>
      </trkpt>
      <trkpt lat="48.4529" lon="-3.78463">
        <ele>219.79858398438</ele>
        <time>2017-05-25T10:25:46Z</time>
      </trkpt>
      <trkpt lat="48.4529" lon="-3.78462">
        <ele>219.79858398438</ele>
        <time>2017-05-25T10:25:47Z</time>
      </trkpt>
      <trkpt lat="48.45285" lon="-3.78452">
        <ele>220.27917480469</ele>
        <time>2017-05-25T10:25:53Z</time>
      </trkpt>
      <trkpt lat="48.45279" lon="-3.78443">
        <ele>220.27917480469</ele>
        <time>2017-05-25T10:25:59Z</time>
      </trkpt>
      <trkpt lat="48.45276" lon="-3.78437">
        <ele>220.75988769531</ele>
        <time>2017-05-25T10:26:04Z</time>
      </trkpt>
      <trkpt lat="48.45273" lon="-3.78431">
        <ele>220.75988769531</ele>
        <time>2017-05-25T10:26:08Z</time>
      </trkpt>
      <trkpt lat="48.45271" lon="-3.7843">
        <ele>220.75988769531</ele>
        <time>2017-05-25T10:26:10Z</time>
      </trkpt>
      <trkpt lat="48.45264" lon="-3.78418">
        <ele>222.68249511719</ele>
        <time>2017-05-25T10:26:18Z</time>
      </trkpt>
      <trkpt lat="48.45263" lon="-3.78417">
        <ele>223.16320800781</ele>
        <time>2017-05-25T10:26:19Z</time>
      </trkpt>
      <trkpt lat="48.45263" lon="-3.78415">
        <ele>224.12451171875</ele>
        <time>2017-05-25T10:26:21Z</time>
      </trkpt>
      <trkpt lat="48.45256" lon="-3.78401">
        <ele>226.04711914062</ele>
        <time>2017-05-25T10:26:29Z</time>
      </trkpt>
      <trkpt lat="48.45255" lon="-3.784">
        <ele>226.04711914062</ele>
        <time>2017-05-25T10:26:30Z</time>
      </trkpt>
      <trkpt lat="48.4525" lon="-3.78389">
        <ele>226.52783203125</ele>
        <time>2017-05-25T10:26:37Z</time>
      </trkpt>
      <trkpt lat="48.45243" lon="-3.78378">
        <ele>227.00854492188</ele>
        <time>2017-05-25T10:26:45Z</time>
      </trkpt>
      <trkpt lat="48.4524" lon="-3.78368">
        <ele>227.48913574219</ele>
        <time>2017-05-25T10:26:51Z</time>
      </trkpt>
      <trkpt lat="48.45236" lon="-3.78357">
        <ele>227.9697265625</ele>
        <time>2017-05-25T10:26:58Z</time>
      </trkpt>
      <trkpt lat="48.45233" lon="-3.78348">
        <ele>227.9697265625</ele>
        <time>2017-05-25T10:27:04Z</time>
      </trkpt>
      <trkpt lat="48.45231" lon="-3.78342">
        <ele>228.45043945312</ele>
        <time>2017-05-25T10:27:08Z</time>
      </trkpt>
      <trkpt lat="48.45228" lon="-3.7833">
        <ele>228.45043945312</ele>
        <time>2017-05-25T10:27:15Z</time>
      </trkpt>
      <trkpt lat="48.45225" lon="-3.78318">
        <ele>228.93115234375</ele>
        <time>2017-05-25T10:27:22Z</time>
      </trkpt>
      <trkpt lat="48.45221" lon="-3.78303">
        <ele>230.373046875</ele>
        <time>2017-05-25T10:27:30Z</time>
      </trkpt>
      <trkpt lat="48.45219" lon="-3.78295">
        <ele>230.373046875</ele>
        <time>2017-05-25T10:27:35Z</time>
      </trkpt>
      <trkpt lat="48.45214" lon="-3.78286">
        <ele>230.85375976562</ele>
        <time>2017-05-25T10:27:41Z</time>
      </trkpt>
      <trkpt lat="48.45213" lon="-3.78282">
        <ele>230.85375976562</ele>
        <time>2017-05-25T10:27:43Z</time>
      </trkpt>
      <trkpt lat="48.4521" lon="-3.78271">
        <ele>230.373046875</ele>
        <time>2017-05-25T10:27:50Z</time>
      </trkpt>
      <trkpt lat="48.45207" lon="-3.78258">
        <ele>229.89233398438</ele>
        <time>2017-05-25T10:27:57Z</time>
      </trkpt>
      <trkpt lat="48.45203" lon="-3.78245">
        <ele>230.373046875</ele>
        <time>2017-05-25T10:28:04Z</time>
      </trkpt>
      <trkpt lat="48.45202" lon="-3.78244">
        <ele>229.89233398438</ele>
        <time>2017-05-25T10:28:05Z</time>
      </trkpt>
      <trkpt lat="48.45199" lon="-3.78234">
        <ele>230.373046875</ele>
        <time>2017-05-25T10:28:11Z</time>
      </trkpt>
      <trkpt lat="48.45199" lon="-3.78232">
        <ele>230.373046875</ele>
        <time>2017-05-25T10:28:12Z</time>
      </trkpt>
      <trkpt lat="48.45194" lon="-3.78223">
        <ele>229.89233398438</ele>
        <time>2017-05-25T10:28:18Z</time>
      </trkpt>
      <trkpt lat="48.45191" lon="-3.78215">
        <ele>230.373046875</ele>
        <time>2017-05-25T10:28:23Z</time>
      </trkpt>
      <trkpt lat="48.45189" lon="-3.78209">
        <ele>230.85375976562</ele>
        <time>2017-05-25T10:28:26Z</time>
      </trkpt>
      <trkpt lat="48.45185" lon="-3.78196">
        <ele>230.373046875</ele>
        <time>2017-05-25T10:28:34Z</time>
      </trkpt>
      <trkpt lat="48.45183" lon="-3.78184">
        <ele>230.85375976562</ele>
        <time>2017-05-25T10:28:41Z</time>
      </trkpt>
      <trkpt lat="48.45182" lon="-3.78176">
        <ele>229.89233398438</ele>
        <time>2017-05-25T10:28:46Z</time>
      </trkpt>
      <trkpt lat="48.4518" lon="-3.78168">
        <ele>229.89233398438</ele>
        <time>2017-05-25T10:28:50Z</time>
      </trkpt>
      <trkpt lat="48.45176" lon="-3.78156">
        <ele>229.41174316406</ele>
        <time>2017-05-25T10:28:57Z</time>
      </trkpt>
      <trkpt lat="48.45174" lon="-3.78151">
        <ele>229.41174316406</ele>
        <time>2017-05-25T10:29:00Z</time>
      </trkpt>
      <trkpt lat="48.45168" lon="-3.78141">
        <ele>228.93115234375</ele>
        <time>2017-05-25T10:29:07Z</time>
      </trkpt>
      <trkpt lat="48.45166" lon="-3.78132">
        <ele>228.93115234375</ele>
        <time>2017-05-25T10:29:12Z</time>
      </trkpt>
      <trkpt lat="48.45163" lon="-3.78121">
        <ele>227.9697265625</ele>
        <time>2017-05-25T10:29:19Z</time>
      </trkpt>
      <trkpt lat="48.45159" lon="-3.78113">
        <ele>227.00854492188</ele>
        <time>2017-05-25T10:29:24Z</time>
      </trkpt>
      <trkpt lat="48.45156" lon="-3.78107">
        <ele>227.48913574219</ele>
        <time>2017-05-25T10:29:28Z</time>
      </trkpt>
      <trkpt lat="48.45152" lon="-3.78094">
        <ele>227.9697265625</ele>
        <time>2017-05-25T10:29:37Z</time>
      </trkpt>
      <trkpt lat="48.45152" lon="-3.78093">
        <ele>227.9697265625</ele>
        <time>2017-05-25T10:29:38Z</time>
      </trkpt>
      <trkpt lat="48.45149" lon="-3.78083">
        <ele>228.93115234375</ele>
        <time>2017-05-25T10:29:44Z</time>
      </trkpt>
      <trkpt lat="48.45148" lon="-3.78075">
        <ele>229.41174316406</ele>
        <time>2017-05-25T10:29:48Z</time>
      </trkpt>
      <trkpt lat="48.45146" lon="-3.78065">
        <ele>230.85375976562</ele>
        <time>2017-05-25T10:29:54Z</time>
      </trkpt>
      <trkpt lat="48.45144" lon="-3.78059">
        <ele>231.33435058594</ele>
        <time>2017-05-25T10:29:58Z</time>
      </trkpt>
      <trkpt lat="48.45141" lon="-3.78047">
        <ele>231.33435058594</ele>
        <time>2017-05-25T10:30:05Z</time>
      </trkpt>
      <trkpt lat="48.45139" lon="-3.78042">
        <ele>231.33435058594</ele>
        <time>2017-05-25T10:30:09Z</time>
      </trkpt>
      <trkpt lat="48.45136" lon="-3.78034">
        <ele>230.373046875</ele>
        <time>2017-05-25T10:30:14Z</time>
      </trkpt>
      <trkpt lat="48.45131" lon="-3.78022">
        <ele>229.89233398438</ele>
        <time>2017-05-25T10:30:22Z</time>
      </trkpt>
      <trkpt lat="48.45128" lon="-3.78016">
        <ele>228.93115234375</ele>
        <time>2017-05-25T10:30:26Z</time>
      </trkpt>
      <trkpt lat="48.45126" lon="-3.78009">
        <ele>228.45043945312</ele>
        <time>2017-05-25T10:30:30Z</time>
      </trkpt>
      <trkpt lat="48.45122" lon="-3.78001">
        <ele>227.9697265625</ele>
        <time>2017-05-25T10:30:35Z</time>
      </trkpt>
      <trkpt lat="48.45121" lon="-3.77989">
        <ele>230.85375976562</ele>
        <time>2017-05-25T10:30:42Z</time>
      </trkpt>
      <trkpt lat="48.4512" lon="-3.77979">
        <ele>233.25708007812</ele>
        <time>2017-05-25T10:30:49Z</time>
      </trkpt>
      <trkpt lat="48.45117" lon="-3.77967">
        <ele>234.21838378906</ele>
        <time>2017-05-25T10:30:56Z</time>
      </trkpt>
      <trkpt lat="48.45117" lon="-3.77964">
        <ele>235.1796875</ele>
        <time>2017-05-25T10:30:58Z</time>
      </trkpt>
      <trkpt lat="48.45114" lon="-3.77952">
        <ele>236.14099121094</ele>
        <time>2017-05-25T10:31:05Z</time>
      </trkpt>
      <trkpt lat="48.4511" lon="-3.77947">
        <ele>236.14099121094</ele>
        <time>2017-05-25T10:31:09Z</time>
      </trkpt>
      <trkpt lat="48.45105" lon="-3.77943">
        <ele>235.1796875</ele>
        <time>2017-05-25T10:31:15Z</time>
      </trkpt>
      <trkpt lat="48.45101" lon="-3.77938">
        <ele>235.1796875</ele>
        <time>2017-05-25T10:31:20Z</time>
      </trkpt>
      <trkpt lat="48.45098" lon="-3.77933">
        <ele>235.1796875</ele>
        <time>2017-05-25T10:31:23Z</time>
      </trkpt>
      <trkpt lat="48.45094" lon="-3.77928">
        <ele>235.1796875</ele>
        <time>2017-05-25T10:31:27Z</time>
      </trkpt>
      <trkpt lat="48.45091" lon="-3.77925">
        <ele>235.1796875</ele>
        <time>2017-05-25T10:31:30Z</time>
      </trkpt>
      <trkpt lat="48.45082" lon="-3.77915">
        <ele>234.69909667969</ele>
        <time>2017-05-25T10:31:39Z</time>
      </trkpt>
      <trkpt lat="48.45077" lon="-3.77906">
        <ele>236.14099121094</ele>
        <time>2017-05-25T10:31:46Z</time>
      </trkpt>
      <trkpt lat="48.45071" lon="-3.77897">
        <ele>237.10229492188</ele>
        <time>2017-05-25T10:31:53Z</time>
      </trkpt>
      <trkpt lat="48.45066" lon="-3.7789">
        <ele>237.58288574219</ele>
        <time>2017-05-25T10:32:01Z</time>
      </trkpt>
      <trkpt lat="48.45065" lon="-3.77885">
        <ele>237.10229492188</ele>
        <time>2017-05-25T10:32:06Z</time>
      </trkpt>
      <trkpt lat="48.45062" lon="-3.77877">
        <ele>237.10229492188</ele>
        <time>2017-05-25T10:32:11Z</time>
      </trkpt>
      <trkpt lat="48.45058" lon="-3.77862">
        <ele>238.06359863281</ele>
        <time>2017-05-25T10:32:20Z</time>
      </trkpt>
      <trkpt lat="48.45056" lon="-3.7785">
        <ele>238.54431152344</ele>
        <time>2017-05-25T10:32:27Z</time>
      </trkpt>
      <trkpt lat="48.45053" lon="-3.77837">
        <ele>239.02490234375</ele>
        <time>2017-05-25T10:32:35Z</time>
      </trkpt>
      <trkpt lat="48.45052" lon="-3.77823">
        <ele>239.02490234375</ele>
        <time>2017-05-25T10:32:42Z</time>
      </trkpt>
      <trkpt lat="48.45052" lon="-3.7781">
        <ele>239.02490234375</ele>
        <time>2017-05-25T10:32:49Z</time>
      </trkpt>
      <trkpt lat="48.45052" lon="-3.77799">
        <ele>239.02490234375</ele>
        <time>2017-05-25T10:32:55Z</time>
      </trkpt>
      <trkpt lat="48.45052" lon="-3.77792">
        <ele>239.02490234375</ele>
        <time>2017-05-25T10:32:59Z</time>
      </trkpt>
      <trkpt lat="48.45051" lon="-3.7778">
        <ele>239.02490234375</ele>
        <time>2017-05-25T10:33:05Z</time>
      </trkpt>
      <trkpt lat="48.45049" lon="-3.77767">
        <ele>238.54431152344</ele>
        <time>2017-05-25T10:33:12Z</time>
      </trkpt>
      <trkpt lat="48.45049" lon="-3.77764">
        <ele>238.06359863281</ele>
        <time>2017-05-25T10:33:14Z</time>
      </trkpt>
      <trkpt lat="48.45046" lon="-3.7775">
        <ele>237.58288574219</ele>
        <time>2017-05-25T10:33:22Z</time>
      </trkpt>
      <trkpt lat="48.45044" lon="-3.77739">
        <ele>237.10229492188</ele>
        <time>2017-05-25T10:33:28Z</time>
      </trkpt>
      <trkpt lat="48.45042" lon="-3.77725">
        <ele>236.14099121094</ele>
        <time>2017-05-25T10:33:36Z</time>
      </trkpt>
      <trkpt lat="48.4504" lon="-3.77717">
        <ele>236.14099121094</ele>
        <time>2017-05-25T10:33:41Z</time>
      </trkpt>
      <trkpt lat="48.45038" lon="-3.77705">
        <ele>236.14099121094</ele>
        <time>2017-05-25T10:33:49Z</time>
      </trkpt>
      <trkpt lat="48.45039" lon="-3.77698">
        <ele>235.66027832031</ele>
        <time>2017-05-25T10:33:54Z</time>
      </trkpt>
      <trkpt lat="48.4504" lon="-3.77696">
        <ele>235.66027832031</ele>
        <time>2017-05-25T10:33:55Z</time>
      </trkpt>
      <trkpt lat="48.45045" lon="-3.7769">
        <ele>235.1796875</ele>
        <time>2017-05-25T10:34:00Z</time>
      </trkpt>
      <trkpt lat="48.45047" lon="-3.77687">
        <ele>234.69909667969</ele>
        <time>2017-05-25T10:34:03Z</time>
      </trkpt>
      <trkpt lat="48.45052" lon="-3.77689">
        <ele>233.73767089844</ele>
        <time>2017-05-25T10:34:08Z</time>
      </trkpt>
      <trkpt lat="48.45059" lon="-3.7769">
        <ele>233.73767089844</ele>
        <time>2017-05-25T10:34:13Z</time>
      </trkpt>
      <trkpt lat="48.45065" lon="-3.7769">
        <ele>233.73767089844</ele>
        <time>2017-05-25T10:34:17Z</time>
      </trkpt>
      <trkpt lat="48.45073" lon="-3.7769">
        <ele>233.25708007812</ele>
        <time>2017-05-25T10:34:24Z</time>
      </trkpt>
      <trkpt lat="48.45075" lon="-3.77689">
        <ele>233.25708007812</ele>
        <time>2017-05-25T10:34:25Z</time>
      </trkpt>
      <trkpt lat="48.45084" lon="-3.7769">
        <ele>232.77648925781</ele>
        <time>2017-05-25T10:34:32Z</time>
      </trkpt>
      <trkpt lat="48.45091" lon="-3.7769">
        <ele>232.29577636719</ele>
        <time>2017-05-25T10:34:38Z</time>
      </trkpt>
      <trkpt lat="48.45093" lon="-3.7769">
        <ele>232.29577636719</ele>
        <time>2017-05-25T10:34:39Z</time>
      </trkpt>
      <trkpt lat="48.45102" lon="-3.77692">
        <ele>233.25708007812</ele>
        <time>2017-05-25T10:34:47Z</time>
      </trkpt>
      <trkpt lat="48.45113" lon="-3.77692">
        <ele>233.25708007812</ele>
        <time>2017-05-25T10:34:55Z</time>
      </trkpt>
      <trkpt lat="48.45121" lon="-3.77693">
        <ele>233.25708007812</ele>
        <time>2017-05-25T10:35:02Z</time>
      </trkpt>
      <trkpt lat="48.45132" lon="-3.77693">
        <ele>233.25708007812</ele>
        <time>2017-05-25T10:35:10Z</time>
      </trkpt>
      <trkpt lat="48.45144" lon="-3.77693">
        <ele>232.29577636719</ele>
        <time>2017-05-25T10:35:19Z</time>
      </trkpt>
      <trkpt lat="48.45153" lon="-3.77693">
        <ele>231.33435058594</ele>
        <time>2017-05-25T10:35:27Z</time>
      </trkpt>
      <trkpt lat="48.45162" lon="-3.77692">
        <ele>230.85375976562</ele>
        <time>2017-05-25T10:35:35Z</time>
      </trkpt>
      <trkpt lat="48.45174" lon="-3.77692">
        <ele>231.33435058594</ele>
        <time>2017-05-25T10:35:44Z</time>
      </trkpt>
      <trkpt lat="48.45179" lon="-3.77692">
        <ele>230.85375976562</ele>
        <time>2017-05-25T10:35:49Z</time>
      </trkpt>
      <trkpt lat="48.45187" lon="-3.77693">
        <ele>230.373046875</ele>
        <time>2017-05-25T10:35:56Z</time>
      </trkpt>
      <trkpt lat="48.45194" lon="-3.77695">
        <ele>229.89233398438</ele>
        <time>2017-05-25T10:36:02Z</time>
      </trkpt>
      <trkpt lat="48.45198" lon="-3.77695">
        <ele>230.373046875</ele>
        <time>2017-05-25T10:36:06Z</time>
      </trkpt>
      <trkpt lat="48.45209" lon="-3.77696">
        <ele>230.85375976562</ele>
        <time>2017-05-25T10:36:14Z</time>
      </trkpt>
      <trkpt lat="48.45218" lon="-3.77696">
        <ele>230.85375976562</ele>
        <time>2017-05-25T10:36:21Z</time>
      </trkpt>
      <trkpt lat="48.45228" lon="-3.77696">
        <ele>230.85375976562</ele>
        <time>2017-05-25T10:36:28Z</time>
      </trkpt>
      <trkpt lat="48.4523" lon="-3.77696">
        <ele>230.373046875</ele>
        <time>2017-05-25T10:36:30Z</time>
      </trkpt>
      <trkpt lat="48.45236" lon="-3.77695">
        <ele>229.41174316406</ele>
        <time>2017-05-25T10:36:35Z</time>
      </trkpt>
      <trkpt lat="48.45242" lon="-3.77697">
        <ele>228.93115234375</ele>
        <time>2017-05-25T10:36:40Z</time>
      </trkpt>
      <trkpt lat="48.45249" lon="-3.77698">
        <ele>229.41174316406</ele>
        <time>2017-05-25T10:36:45Z</time>
      </trkpt>
      <trkpt lat="48.45257" lon="-3.77697">
        <ele>229.89233398438</ele>
        <time>2017-05-25T10:36:51Z</time>
      </trkpt>
      <trkpt lat="48.45266" lon="-3.77698">
        <ele>230.373046875</ele>
        <time>2017-05-25T10:36:59Z</time>
      </trkpt>
      <trkpt lat="48.45268" lon="-3.77697">
        <ele>230.373046875</ele>
        <time>2017-05-25T10:37:00Z</time>
      </trkpt>
      <trkpt lat="48.4527" lon="-3.77687">
        <ele>229.41174316406</ele>
        <time>2017-05-25T10:37:06Z</time>
      </trkpt>
      <trkpt lat="48.45265" lon="-3.7768">
        <ele>227.48913574219</ele>
        <time>2017-05-25T10:37:12Z</time>
      </trkpt>
      <trkpt lat="48.45259" lon="-3.77676">
        <ele>226.52783203125</ele>
        <time>2017-05-25T10:37:18Z</time>
      </trkpt>
      <trkpt lat="48.45258" lon="-3.77675">
        <ele>226.04711914062</ele>
        <time>2017-05-25T10:37:19Z</time>
      </trkpt>
      <trkpt lat="48.45255" lon="-3.77673">
        <ele>225.56652832031</ele>
        <time>2017-05-25T10:37:22Z</time>
      </trkpt>
      <trkpt lat="48.45247" lon="-3.77667">
        <ele>224.12451171875</ele>
        <time>2017-05-25T10:37:29Z</time>
      </trkpt>
      <trkpt lat="48.45244" lon="-3.77664">
        <ele>223.64379882812</ele>
        <time>2017-05-25T10:37:32Z</time>
      </trkpt>
      <trkpt lat="48.45244" lon="-3.77667">
        <ele>223.64379882812</ele>
        <time>2017-05-25T10:37:36Z</time>
      </trkpt>
      <trkpt lat="48.45248" lon="-3.77672">
        <ele>222.20178222656</ele>
        <time>2017-05-25T10:37:45Z</time>
      </trkpt>
      <trkpt lat="48.45247" lon="-3.77677">
        <ele>222.68249511719</ele>
        <time>2017-05-25T10:37:51Z</time>
      </trkpt>
      <trkpt lat="48.45244" lon="-3.77679">
        <ele>221.72119140625</ele>
        <time>2017-05-25T10:37:57Z</time>
      </trkpt>
      <trkpt lat="48.45239" lon="-3.77679">
        <ele>221.72119140625</ele>
        <time>2017-05-25T10:38:03Z</time>
      </trkpt>
      <trkpt lat="48.45238" lon="-3.77678">
        <ele>222.20178222656</ele>
        <time>2017-05-25T10:38:08Z</time>
      </trkpt>
      <trkpt lat="48.45236" lon="-3.77674">
        <ele>222.68249511719</ele>
        <time>2017-05-25T10:38:16Z</time>
      </trkpt>
      <trkpt lat="48.45235" lon="-3.77674">
        <ele>222.20178222656</ele>
        <time>2017-05-25T10:38:22Z</time>
      </trkpt>
      <trkpt lat="48.45233" lon="-3.77673">
        <ele>222.20178222656</ele>
        <time>2017-05-25T10:38:29Z</time>
      </trkpt>
      <trkpt lat="48.45228" lon="-3.77671">
        <ele>222.20178222656</ele>
        <time>2017-05-25T10:38:34Z</time>
      </trkpt>
      <trkpt lat="48.45224" lon="-3.77666">
        <ele>222.20178222656</ele>
        <time>2017-05-25T10:38:39Z</time>
      </trkpt>
      <trkpt lat="48.45219" lon="-3.77661">
        <ele>222.68249511719</ele>
        <time>2017-05-25T10:38:45Z</time>
      </trkpt>
      <trkpt lat="48.45216" lon="-3.77661">
        <ele>224.60522460938</ele>
        <time>2017-05-25T10:38:54Z</time>
      </trkpt>
      <trkpt lat="48.45216" lon="-3.77662">
        <ele>225.0859375</ele>
        <time>2017-05-25T10:38:58Z</time>
      </trkpt>
      <trkpt lat="48.45216" lon="-3.77663">
        <ele>226.04711914062</ele>
        <time>2017-05-25T10:39:07Z</time>
      </trkpt>
      <trkpt lat="48.45215" lon="-3.77664">
        <ele>225.56652832031</ele>
        <time>2017-05-25T10:39:13Z</time>
      </trkpt>
      <trkpt lat="48.45223" lon="-3.77648">
        <ele>225.56652832031</ele>
        <time>2017-05-25T11:48:29Z</time>
      </trkpt>
      <trkpt lat="48.45216" lon="-3.77643">
        <ele>226.04711914062</ele>
        <time>2017-05-25T11:48:35Z</time>
      </trkpt>
      <trkpt lat="48.45215" lon="-3.77643">
        <ele>225.56652832031</ele>
        <time>2017-05-25T11:48:36Z</time>
      </trkpt>
      <trkpt lat="48.45207" lon="-3.77636">
        <ele>225.56652832031</ele>
        <time>2017-05-25T11:48:45Z</time>
      </trkpt>
      <trkpt lat="48.45202" lon="-3.77632">
        <ele>227.9697265625</ele>
        <time>2017-05-25T11:48:51Z</time>
      </trkpt>
      <trkpt lat="48.45195" lon="-3.77625">
        <ele>228.93115234375</ele>
        <time>2017-05-25T11:48:59Z</time>
      </trkpt>
      <trkpt lat="48.45187" lon="-3.77617">
        <ele>227.48913574219</ele>
        <time>2017-05-25T11:49:08Z</time>
      </trkpt>
      <trkpt lat="48.45179" lon="-3.77611">
        <ele>226.52783203125</ele>
        <time>2017-05-25T11:49:16Z</time>
      </trkpt>
      <trkpt lat="48.45173" lon="-3.77608">
        <ele>224.60522460938</ele>
        <time>2017-05-25T11:49:22Z</time>
      </trkpt>
      <trkpt lat="48.45168" lon="-3.77603">
        <ele>224.60522460938</ele>
        <time>2017-05-25T11:49:27Z</time>
      </trkpt>
      <trkpt lat="48.4516" lon="-3.77597">
        <ele>226.04711914062</ele>
        <time>2017-05-25T11:49:35Z</time>
      </trkpt>
      <trkpt lat="48.45156" lon="-3.77595">
        <ele>226.52783203125</ele>
        <time>2017-05-25T11:49:38Z</time>
      </trkpt>
      <trkpt lat="48.45148" lon="-3.77588">
        <ele>227.48913574219</ele>
        <time>2017-05-25T11:49:46Z</time>
      </trkpt>
      <trkpt lat="48.45142" lon="-3.77582">
        <ele>227.00854492188</ele>
        <time>2017-05-25T11:49:53Z</time>
      </trkpt>
      <trkpt lat="48.45141" lon="-3.7758">
        <ele>227.48913574219</ele>
        <time>2017-05-25T11:49:54Z</time>
      </trkpt>
      <trkpt lat="48.45143" lon="-3.77577">
        <ele>231.33435058594</ele>
        <time>2017-05-25T11:50:01Z</time>
      </trkpt>
      <trkpt lat="48.45144" lon="-3.77573">
        <ele>232.29577636719</ele>
        <time>2017-05-25T11:50:05Z</time>
      </trkpt>
      <trkpt lat="48.45144" lon="-3.77563">
        <ele>232.77648925781</ele>
        <time>2017-05-25T11:50:10Z</time>
      </trkpt>
      <trkpt lat="48.45144" lon="-3.7755">
        <ele>232.29577636719</ele>
        <time>2017-05-25T11:50:17Z</time>
      </trkpt>
      <trkpt lat="48.45145" lon="-3.77548">
        <ele>232.29577636719</ele>
        <time>2017-05-25T11:50:18Z</time>
      </trkpt>
      <trkpt lat="48.45145" lon="-3.77527">
        <ele>230.85375976562</ele>
        <time>2017-05-25T11:50:29Z</time>
      </trkpt>
      <trkpt lat="48.45144" lon="-3.77505">
        <ele>229.41174316406</ele>
        <time>2017-05-25T11:50:41Z</time>
      </trkpt>
      <trkpt lat="48.45142" lon="-3.7749">
        <ele>228.93115234375</ele>
        <time>2017-05-25T11:50:50Z</time>
      </trkpt>
      <trkpt lat="48.4514" lon="-3.77477">
        <ele>227.9697265625</ele>
        <time>2017-05-25T11:50:58Z</time>
      </trkpt>
      <trkpt lat="48.45137" lon="-3.77464">
        <ele>227.00854492188</ele>
        <time>2017-05-25T11:51:07Z</time>
      </trkpt>
      <trkpt lat="48.45134" lon="-3.77456">
        <ele>226.04711914062</ele>
        <time>2017-05-25T11:51:14Z</time>
      </trkpt>
      <trkpt lat="48.45133" lon="-3.77444">
        <ele>226.04711914062</ele>
        <time>2017-05-25T11:51:22Z</time>
      </trkpt>
      <trkpt lat="48.45133" lon="-3.77437">
        <ele>226.04711914062</ele>
        <time>2017-05-25T11:51:27Z</time>
      </trkpt>
      <trkpt lat="48.45135" lon="-3.77433">
        <ele>226.04711914062</ele>
        <time>2017-05-25T11:51:30Z</time>
      </trkpt>
      <trkpt lat="48.4514" lon="-3.77421">
        <ele>226.04711914062</ele>
        <time>2017-05-25T11:51:41Z</time>
      </trkpt>
      <trkpt lat="48.4514" lon="-3.77419">
        <ele>226.04711914062</ele>
        <time>2017-05-25T11:51:47Z</time>
      </trkpt>
      <trkpt lat="48.4514" lon="-3.77417">
        <ele>227.00854492188</ele>
        <time>2017-05-25T11:51:56Z</time>
      </trkpt>
      <trkpt lat="48.45142" lon="-3.77414">
        <ele>225.56652832031</ele>
        <time>2017-05-25T11:52:01Z</time>
      </trkpt>
      <trkpt lat="48.45148" lon="-3.77415">
        <ele>225.56652832031</ele>
        <time>2017-05-25T11:52:07Z</time>
      </trkpt>
      <trkpt lat="48.45151" lon="-3.77416">
        <ele>226.04711914062</ele>
        <time>2017-05-25T11:52:10Z</time>
      </trkpt>
      <trkpt lat="48.45155" lon="-3.77414">
        <ele>226.52783203125</ele>
        <time>2017-05-25T11:52:14Z</time>
      </trkpt>
      <trkpt lat="48.4516" lon="-3.77402">
        <ele>225.56652832031</ele>
        <time>2017-05-25T11:52:23Z</time>
      </trkpt>
      <trkpt lat="48.45166" lon="-3.77389">
        <ele>224.60522460938</ele>
        <time>2017-05-25T11:52:33Z</time>
      </trkpt>
      <trkpt lat="48.45172" lon="-3.77377">
        <ele>224.12451171875</ele>
        <time>2017-05-25T11:52:42Z</time>
      </trkpt>
      <trkpt lat="48.45175" lon="-3.77371">
        <ele>224.60522460938</ele>
        <time>2017-05-25T11:52:50Z</time>
      </trkpt>
      <trkpt lat="48.45177" lon="-3.77367">
        <ele>224.12451171875</ele>
        <time>2017-05-25T11:52:57Z</time>
      </trkpt>
      <trkpt lat="48.45177" lon="-3.77366">
        <ele>224.60522460938</ele>
        <time>2017-05-25T11:53:05Z</time>
      </trkpt>
      <trkpt lat="48.4518" lon="-3.77361">
        <ele>224.12451171875</ele>
        <time>2017-05-25T11:53:12Z</time>
      </trkpt>
      <trkpt lat="48.45183" lon="-3.77353">
        <ele>223.64379882812</ele>
        <time>2017-05-25T11:53:18Z</time>
      </trkpt>
      <trkpt lat="48.45187" lon="-3.77347">
        <ele>222.20178222656</ele>
        <time>2017-05-25T11:53:26Z</time>
      </trkpt>
      <trkpt lat="48.45188" lon="-3.77344">
        <ele>222.20178222656</ele>
        <time>2017-05-25T11:53:32Z</time>
      </trkpt>
      <trkpt lat="48.45191" lon="-3.77342">
        <ele>221.24060058594</ele>
        <time>2017-05-25T11:53:37Z</time>
      </trkpt>
      <trkpt lat="48.45202" lon="-3.77339">
        <ele>220.27917480469</ele>
        <time>2017-05-25T11:53:46Z</time>
      </trkpt>
      <trkpt lat="48.4521" lon="-3.77337">
        <ele>219.31799316406</ele>
        <time>2017-05-25T11:53:54Z</time>
      </trkpt>
      <trkpt lat="48.45219" lon="-3.77337">
        <ele>219.31799316406</ele>
        <time>2017-05-25T11:54:02Z</time>
      </trkpt>
      <trkpt lat="48.45228" lon="-3.77339">
        <ele>219.31799316406</ele>
        <time>2017-05-25T11:54:09Z</time>
      </trkpt>
      <trkpt lat="48.4523" lon="-3.77338">
        <ele>219.79858398438</ele>
        <time>2017-05-25T11:54:10Z</time>
      </trkpt>
      <trkpt lat="48.45237" lon="-3.7734">
        <ele>220.27917480469</ele>
        <time>2017-05-25T11:54:15Z</time>
      </trkpt>
      <trkpt lat="48.45239" lon="-3.7734">
        <ele>220.27917480469</ele>
        <time>2017-05-25T11:54:17Z</time>
      </trkpt>
      <trkpt lat="48.45243" lon="-3.7734">
        <ele>220.27917480469</ele>
        <time>2017-05-25T11:54:21Z</time>
      </trkpt>
      <trkpt lat="48.45248" lon="-3.77341">
        <ele>220.75988769531</ele>
        <time>2017-05-25T11:54:26Z</time>
      </trkpt>
      <trkpt lat="48.45253" lon="-3.77342">
        <ele>220.75988769531</ele>
        <time>2017-05-25T11:54:32Z</time>
      </trkpt>
      <trkpt lat="48.45261" lon="-3.77343">
        <ele>220.75988769531</ele>
        <time>2017-05-25T11:54:39Z</time>
      </trkpt>
      <trkpt lat="48.45263" lon="-3.77344">
        <ele>221.24060058594</ele>
        <time>2017-05-25T11:54:41Z</time>
      </trkpt>
      <trkpt lat="48.4527" lon="-3.77344">
        <ele>221.72119140625</ele>
        <time>2017-05-25T11:54:47Z</time>
      </trkpt>
      <trkpt lat="48.45275" lon="-3.77344">
        <ele>222.20178222656</ele>
        <time>2017-05-25T11:54:53Z</time>
      </trkpt>
      <trkpt lat="48.45281" lon="-3.77347">
        <ele>222.68249511719</ele>
        <time>2017-05-25T11:54:57Z</time>
      </trkpt>
      <trkpt lat="48.45282" lon="-3.77348">
        <ele>222.68249511719</ele>
        <time>2017-05-25T11:54:58Z</time>
      </trkpt>
      <trkpt lat="48.4529" lon="-3.77348">
        <ele>222.20178222656</ele>
        <time>2017-05-25T11:55:05Z</time>
      </trkpt>
      <trkpt lat="48.453" lon="-3.77348">
        <ele>222.20178222656</ele>
        <time>2017-05-25T11:55:13Z</time>
      </trkpt>
      <trkpt lat="48.45307" lon="-3.77349">
        <ele>222.20178222656</ele>
        <time>2017-05-25T11:55:20Z</time>
      </trkpt>
      <trkpt lat="48.45315" lon="-3.77353">
        <ele>222.20178222656</ele>
        <time>2017-05-25T11:55:26Z</time>
      </trkpt>
      <trkpt lat="48.4532" lon="-3.77353">
        <ele>222.68249511719</ele>
        <time>2017-05-25T11:55:31Z</time>
      </trkpt>
      <trkpt lat="48.45322" lon="-3.77353">
        <ele>222.68249511719</ele>
        <time>2017-05-25T11:55:33Z</time>
      </trkpt>
      <trkpt lat="48.45327" lon="-3.77353">
        <ele>222.68249511719</ele>
        <time>2017-05-25T11:55:39Z</time>
      </trkpt>
      <trkpt lat="48.4533" lon="-3.77352">
        <ele>222.68249511719</ele>
        <time>2017-05-25T11:55:41Z</time>
      </trkpt>
      <trkpt lat="48.45336" lon="-3.77355">
        <ele>221.24060058594</ele>
        <time>2017-05-25T11:55:46Z</time>
      </trkpt>
      <trkpt lat="48.45347" lon="-3.77357">
        <ele>218.83728027344</ele>
        <time>2017-05-25T11:55:56Z</time>
      </trkpt>
      <trkpt lat="48.45354" lon="-3.77359">
        <ele>218.83728027344</ele>
        <time>2017-05-25T11:56:02Z</time>
      </trkpt>
      <trkpt lat="48.45358" lon="-3.7736">
        <ele>218.83728027344</ele>
        <time>2017-05-25T11:56:05Z</time>
      </trkpt>
      <trkpt lat="48.45366" lon="-3.77362">
        <ele>220.27917480469</ele>
        <time>2017-05-25T11:56:12Z</time>
      </trkpt>
      <trkpt lat="48.45373" lon="-3.77363">
        <ele>221.24060058594</ele>
        <time>2017-05-25T11:56:17Z</time>
      </trkpt>
      <trkpt lat="48.45381" lon="-3.77365">
        <ele>222.20178222656</ele>
        <time>2017-05-25T11:56:22Z</time>
      </trkpt>
      <trkpt lat="48.45384" lon="-3.77365">
        <ele>222.20178222656</ele>
        <time>2017-05-25T11:56:25Z</time>
      </trkpt>
      <trkpt lat="48.45386" lon="-3.77366">
        <ele>222.20178222656</ele>
        <time>2017-05-25T11:56:28Z</time>
      </trkpt>
      <trkpt lat="48.45391" lon="-3.77367">
        <ele>220.75988769531</ele>
        <time>2017-05-25T11:56:33Z</time>
      </trkpt>
      <trkpt lat="48.45393" lon="-3.77367">
        <ele>220.75988769531</ele>
        <time>2017-05-25T11:56:34Z</time>
      </trkpt>
      <trkpt lat="48.45396" lon="-3.77365">
        <ele>220.75988769531</ele>
        <time>2017-05-25T11:56:38Z</time>
      </trkpt>
      <trkpt lat="48.454" lon="-3.77364">
        <ele>221.72119140625</ele>
        <time>2017-05-25T11:56:42Z</time>
      </trkpt>
      <trkpt lat="48.45405" lon="-3.77365">
        <ele>222.68249511719</ele>
        <time>2017-05-25T11:56:47Z</time>
      </trkpt>
      <trkpt lat="48.4541" lon="-3.77366">
        <ele>223.64379882812</ele>
        <time>2017-05-25T11:56:50Z</time>
      </trkpt>
      <trkpt lat="48.45413" lon="-3.77366">
        <ele>223.64379882812</ele>
        <time>2017-05-25T11:56:53Z</time>
      </trkpt>
      <trkpt lat="48.4542" lon="-3.77367">
        <ele>223.64379882812</ele>
        <time>2017-05-25T11:57:00Z</time>
      </trkpt>
      <trkpt lat="48.45423" lon="-3.77367">
        <ele>223.64379882812</ele>
        <time>2017-05-25T11:57:03Z</time>
      </trkpt>
      <trkpt lat="48.45427" lon="-3.77366">
        <ele>223.64379882812</ele>
        <time>2017-05-25T11:57:06Z</time>
      </trkpt>
      <trkpt lat="48.45431" lon="-3.77361">
        <ele>223.64379882812</ele>
        <time>2017-05-25T11:57:12Z</time>
      </trkpt>
      <trkpt lat="48.45434" lon="-3.77355">
        <ele>221.72119140625</ele>
        <time>2017-05-25T11:57:16Z</time>
      </trkpt>
      <trkpt lat="48.45438" lon="-3.77349">
        <ele>218.83728027344</ele>
        <time>2017-05-25T11:57:21Z</time>
      </trkpt>
      <trkpt lat="48.45442" lon="-3.77341">
        <ele>218.83728027344</ele>
        <time>2017-05-25T11:57:27Z</time>
      </trkpt>
      <trkpt lat="48.45444" lon="-3.77336">
        <ele>216.43395996094</ele>
        <time>2017-05-25T11:57:32Z</time>
      </trkpt>
      <trkpt lat="48.45445" lon="-3.77328">
        <ele>214.03063964844</ele>
        <time>2017-05-25T11:57:38Z</time>
      </trkpt>
      <trkpt lat="48.45444" lon="-3.77319">
        <ele>218.83728027344</ele>
        <time>2017-05-25T11:57:43Z</time>
      </trkpt>
      <trkpt lat="48.45442" lon="-3.77312">
        <ele>219.79858398438</ele>
        <time>2017-05-25T11:57:48Z</time>
      </trkpt>
      <trkpt lat="48.45443" lon="-3.77308">
        <ele>220.75988769531</ele>
        <time>2017-05-25T11:57:53Z</time>
      </trkpt>
      <trkpt lat="48.45443" lon="-3.77306">
        <ele>220.75988769531</ele>
        <time>2017-05-25T11:57:54Z</time>
      </trkpt>
      <trkpt lat="48.4544" lon="-3.77297">
        <ele>221.72119140625</ele>
        <time>2017-05-25T11:58:00Z</time>
      </trkpt>
      <trkpt lat="48.45439" lon="-3.77286">
        <ele>219.31799316406</ele>
        <time>2017-05-25T11:58:07Z</time>
      </trkpt>
      <trkpt lat="48.4544" lon="-3.77284">
        <ele>219.31799316406</ele>
        <time>2017-05-25T11:58:08Z</time>
      </trkpt>
      <trkpt lat="48.45446" lon="-3.77281">
        <ele>218.83728027344</ele>
        <time>2017-05-25T11:58:15Z</time>
      </trkpt>
      <trkpt lat="48.45452" lon="-3.77282">
        <ele>217.39538574219</ele>
        <time>2017-05-25T11:58:20Z</time>
      </trkpt>
      <trkpt lat="48.4546" lon="-3.77282">
        <ele>215.47265625</ele>
        <time>2017-05-25T11:58:27Z</time>
      </trkpt>
      <trkpt lat="48.45467" lon="-3.7728">
        <ele>216.91467285156</ele>
        <time>2017-05-25T11:58:33Z</time>
      </trkpt>
      <trkpt lat="48.45474" lon="-3.7728">
        <ele>218.35656738281</ele>
        <time>2017-05-25T11:58:39Z</time>
      </trkpt>
      <trkpt lat="48.45482" lon="-3.77278">
        <ele>219.31799316406</ele>
        <time>2017-05-25T11:58:44Z</time>
      </trkpt>
      <trkpt lat="48.45483" lon="-3.77278">
        <ele>219.31799316406</ele>
        <time>2017-05-25T11:58:45Z</time>
      </trkpt>
      <trkpt lat="48.45488" lon="-3.77278">
        <ele>220.27917480469</ele>
        <time>2017-05-25T11:58:49Z</time>
      </trkpt>
      <trkpt lat="48.4549" lon="-3.77277">
        <ele>220.27917480469</ele>
        <time>2017-05-25T11:58:51Z</time>
      </trkpt>
      <trkpt lat="48.45495" lon="-3.77278">
        <ele>220.75988769531</ele>
        <time>2017-05-25T11:58:56Z</time>
      </trkpt>
      <trkpt lat="48.45503" lon="-3.77278">
        <ele>219.31799316406</ele>
        <time>2017-05-25T11:59:03Z</time>
      </trkpt>
      <trkpt lat="48.45511" lon="-3.77281">
        <ele>219.79858398438</ele>
        <time>2017-05-25T11:59:08Z</time>
      </trkpt>
      <trkpt lat="48.45516" lon="-3.77281">
        <ele>219.31799316406</ele>
        <time>2017-05-25T11:59:13Z</time>
      </trkpt>
      <trkpt lat="48.45523" lon="-3.77281">
        <ele>219.79858398438</ele>
        <time>2017-05-25T11:59:18Z</time>
      </trkpt>
      <trkpt lat="48.45527" lon="-3.77281">
        <ele>220.27917480469</ele>
        <time>2017-05-25T11:59:22Z</time>
      </trkpt>
      <trkpt lat="48.45533" lon="-3.77282">
        <ele>221.24060058594</ele>
        <time>2017-05-25T11:59:28Z</time>
      </trkpt>
      <trkpt lat="48.45543" lon="-3.77284">
        <ele>223.64379882812</ele>
        <time>2017-05-25T11:59:35Z</time>
      </trkpt>
      <trkpt lat="48.45555" lon="-3.77281">
        <ele>225.0859375</ele>
        <time>2017-05-25T11:59:43Z</time>
      </trkpt>
      <trkpt lat="48.45562" lon="-3.77278">
        <ele>225.56652832031</ele>
        <time>2017-05-25T11:59:50Z</time>
      </trkpt>
      <trkpt lat="48.45564" lon="-3.77277">
        <ele>225.56652832031</ele>
        <time>2017-05-25T11:59:51Z</time>
      </trkpt>
      <trkpt lat="48.45571" lon="-3.77274">
        <ele>224.60522460938</ele>
        <time>2017-05-25T11:59:57Z</time>
      </trkpt>
      <trkpt lat="48.45578" lon="-3.77268">
        <ele>224.12451171875</ele>
        <time>2017-05-25T12:00:04Z</time>
      </trkpt>
      <trkpt lat="48.45583" lon="-3.77266">
        <ele>224.12451171875</ele>
        <time>2017-05-25T12:00:08Z</time>
      </trkpt>
      <trkpt lat="48.45592" lon="-3.7726">
        <ele>224.60522460938</ele>
        <time>2017-05-25T12:00:16Z</time>
      </trkpt>
      <trkpt lat="48.45601" lon="-3.77257">
        <ele>226.04711914062</ele>
        <time>2017-05-25T12:00:23Z</time>
      </trkpt>
      <trkpt lat="48.45608" lon="-3.77255">
        <ele>227.00854492188</ele>
        <time>2017-05-25T12:00:28Z</time>
      </trkpt>
      <trkpt lat="48.45617" lon="-3.77256">
        <ele>227.48913574219</ele>
        <time>2017-05-25T12:00:36Z</time>
      </trkpt>
      <trkpt lat="48.45625" lon="-3.77259">
        <ele>227.48913574219</ele>
        <time>2017-05-25T12:00:42Z</time>
      </trkpt>
      <trkpt lat="48.45633" lon="-3.77265">
        <ele>228.45043945312</ele>
        <time>2017-05-25T12:00:50Z</time>
      </trkpt>
      <trkpt lat="48.45639" lon="-3.77268">
        <ele>229.41174316406</ele>
        <time>2017-05-25T12:00:55Z</time>
      </trkpt>
      <trkpt lat="48.45648" lon="-3.77268">
        <ele>229.41174316406</ele>
        <time>2017-05-25T12:01:02Z</time>
      </trkpt>
      <trkpt lat="48.45658" lon="-3.77266">
        <ele>228.93115234375</ele>
        <time>2017-05-25T12:01:10Z</time>
      </trkpt>
      <trkpt lat="48.45665" lon="-3.77265">
        <ele>228.93115234375</ele>
        <time>2017-05-25T12:01:16Z</time>
      </trkpt>
      <trkpt lat="48.45674" lon="-3.77264">
        <ele>229.41174316406</ele>
        <time>2017-05-25T12:01:23Z</time>
      </trkpt>
      <trkpt lat="48.45679" lon="-3.77265">
        <ele>230.85375976562</ele>
        <time>2017-05-25T12:01:27Z</time>
      </trkpt>
      <trkpt lat="48.45689" lon="-3.77264">
        <ele>231.81494140625</ele>
        <time>2017-05-25T12:01:35Z</time>
      </trkpt>
      <trkpt lat="48.45691" lon="-3.77264">
        <ele>231.81494140625</ele>
        <time>2017-05-25T12:01:37Z</time>
      </trkpt>
      <trkpt lat="48.45698" lon="-3.77263">
        <ele>232.29577636719</ele>
        <time>2017-05-25T12:01:43Z</time>
      </trkpt>
      <trkpt lat="48.45707" lon="-3.77263">
        <ele>232.29577636719</ele>
        <time>2017-05-25T12:01:50Z</time>
      </trkpt>
      <trkpt lat="48.45712" lon="-3.77262">
        <ele>232.29577636719</ele>
        <time>2017-05-25T12:01:54Z</time>
      </trkpt>
      <trkpt lat="48.45717" lon="-3.77261">
        <ele>232.29577636719</ele>
        <time>2017-05-25T12:01:58Z</time>
      </trkpt>
      <trkpt lat="48.45724" lon="-3.7726">
        <ele>232.77648925781</ele>
        <time>2017-05-25T12:02:03Z</time>
      </trkpt>
      <trkpt lat="48.45727" lon="-3.77259">
        <ele>232.29577636719</ele>
        <time>2017-05-25T12:02:07Z</time>
      </trkpt>
      <trkpt lat="48.45737" lon="-3.77257">
        <ele>233.73767089844</ele>
        <time>2017-05-25T12:02:15Z</time>
      </trkpt>
      <trkpt lat="48.45748" lon="-3.77255">
        <ele>233.73767089844</ele>
        <time>2017-05-25T12:02:24Z</time>
      </trkpt>
      <trkpt lat="48.45762" lon="-3.77256">
        <ele>234.21838378906</ele>
        <time>2017-05-25T12:02:35Z</time>
      </trkpt>
      <trkpt lat="48.45774" lon="-3.77256">
        <ele>233.73767089844</ele>
        <time>2017-05-25T12:02:45Z</time>
      </trkpt>
      <trkpt lat="48.45781" lon="-3.77245">
        <ele>233.25708007812</ele>
        <time>2017-05-25T12:02:53Z</time>
      </trkpt>
      <trkpt lat="48.45789" lon="-3.77222">
        <ele>231.81494140625</ele>
        <time>2017-05-25T12:03:06Z</time>
      </trkpt>
      <trkpt lat="48.45793" lon="-3.77208">
        <ele>231.33435058594</ele>
        <time>2017-05-25T12:03:14Z</time>
      </trkpt>
      <trkpt lat="48.45798" lon="-3.77193">
        <ele>230.373046875</ele>
        <time>2017-05-25T12:03:23Z</time>
      </trkpt>
      <trkpt lat="48.45804" lon="-3.77173">
        <ele>229.41174316406</ele>
        <time>2017-05-25T12:03:34Z</time>
      </trkpt>
      <trkpt lat="48.45811" lon="-3.77151">
        <ele>227.9697265625</ele>
        <time>2017-05-25T12:03:47Z</time>
      </trkpt>
      <trkpt lat="48.45819" lon="-3.77128">
        <ele>227.48913574219</ele>
        <time>2017-05-25T12:04:00Z</time>
      </trkpt>
      <trkpt lat="48.45826" lon="-3.77108">
        <ele>226.52783203125</ele>
        <time>2017-05-25T12:04:12Z</time>
      </trkpt>
      <trkpt lat="48.45833" lon="-3.77088">
        <ele>226.04711914062</ele>
        <time>2017-05-25T12:04:23Z</time>
      </trkpt>
      <trkpt lat="48.45839" lon="-3.77075">
        <ele>225.0859375</ele>
        <time>2017-05-25T12:04:31Z</time>
      </trkpt>
      <trkpt lat="48.45849" lon="-3.77055">
        <ele>224.12451171875</ele>
        <time>2017-05-25T12:04:44Z</time>
      </trkpt>
      <trkpt lat="48.45858" lon="-3.77036">
        <ele>222.68249511719</ele>
        <time>2017-05-25T12:04:56Z</time>
      </trkpt>
      <trkpt lat="48.45867" lon="-3.77021">
        <ele>222.20178222656</ele>
        <time>2017-05-25T12:05:06Z</time>
      </trkpt>
      <trkpt lat="48.45877" lon="-3.77007">
        <ele>221.24060058594</ele>
        <time>2017-05-25T12:05:16Z</time>
      </trkpt>
      <trkpt lat="48.45887" lon="-3.76991">
        <ele>220.75988769531</ele>
        <time>2017-05-25T12:05:27Z</time>
      </trkpt>
      <trkpt lat="48.45897" lon="-3.76976">
        <ele>220.27917480469</ele>
        <time>2017-05-25T12:05:38Z</time>
      </trkpt>
      <trkpt lat="48.45907" lon="-3.76963">
        <ele>219.79858398438</ele>
        <time>2017-05-25T12:05:48Z</time>
      </trkpt>
      <trkpt lat="48.45916" lon="-3.76952">
        <ele>219.31799316406</ele>
        <time>2017-05-25T12:05:57Z</time>
      </trkpt>
      <trkpt lat="48.45923" lon="-3.76941">
        <ele>219.31799316406</ele>
        <time>2017-05-25T12:06:05Z</time>
      </trkpt>
      <trkpt lat="48.45935" lon="-3.76923">
        <ele>218.83728027344</ele>
        <time>2017-05-25T12:06:18Z</time>
      </trkpt>
      <trkpt lat="48.45946" lon="-3.76906">
        <ele>218.35656738281</ele>
        <time>2017-05-25T12:06:30Z</time>
      </trkpt>
      <trkpt lat="48.45959" lon="-3.76888">
        <ele>218.83728027344</ele>
        <time>2017-05-25T12:06:43Z</time>
      </trkpt>
      <trkpt lat="48.45969" lon="-3.76869">
        <ele>219.31799316406</ele>
        <time>2017-05-25T12:06:56Z</time>
      </trkpt>
      <trkpt lat="48.45976" lon="-3.7685">
        <ele>219.79858398438</ele>
        <time>2017-05-25T12:07:07Z</time>
      </trkpt>
      <trkpt lat="48.45981" lon="-3.76832">
        <ele>219.79858398438</ele>
        <time>2017-05-25T12:07:17Z</time>
      </trkpt>
      <trkpt lat="48.45984" lon="-3.76811">
        <ele>219.79858398438</ele>
        <time>2017-05-25T12:07:28Z</time>
      </trkpt>
      <trkpt lat="48.45983" lon="-3.76792">
        <ele>220.75988769531</ele>
        <time>2017-05-25T12:07:38Z</time>
      </trkpt>
      <trkpt lat="48.45983" lon="-3.76779">
        <ele>220.75988769531</ele>
        <time>2017-05-25T12:07:46Z</time>
      </trkpt>
      <trkpt lat="48.45987" lon="-3.76773">
        <ele>220.75988769531</ele>
        <time>2017-05-25T12:07:51Z</time>
      </trkpt>
      <trkpt lat="48.45988" lon="-3.76768">
        <ele>220.75988769531</ele>
        <time>2017-05-25T12:07:55Z</time>
      </trkpt>
      <trkpt lat="48.45989" lon="-3.76763">
        <ele>220.75988769531</ele>
        <time>2017-05-25T12:07:58Z</time>
      </trkpt>
      <trkpt lat="48.45991" lon="-3.76751">
        <ele>220.27917480469</ele>
        <time>2017-05-25T12:08:06Z</time>
      </trkpt>
      <trkpt lat="48.45992" lon="-3.76737">
        <ele>220.75988769531</ele>
        <time>2017-05-25T12:08:14Z</time>
      </trkpt>
      <trkpt lat="48.45992" lon="-3.76725">
        <ele>220.75988769531</ele>
        <time>2017-05-25T12:08:21Z</time>
      </trkpt>
      <trkpt lat="48.45993" lon="-3.76711">
        <ele>222.68249511719</ele>
        <time>2017-05-25T12:08:30Z</time>
      </trkpt>
      <trkpt lat="48.45994" lon="-3.76697">
        <ele>223.64379882812</ele>
        <time>2017-05-25T12:08:38Z</time>
      </trkpt>
      <trkpt lat="48.45995" lon="-3.76686">
        <ele>224.12451171875</ele>
        <time>2017-05-25T12:08:46Z</time>
      </trkpt>
      <trkpt lat="48.45997" lon="-3.76674">
        <ele>224.60522460938</ele>
        <time>2017-05-25T12:08:54Z</time>
      </trkpt>
      <trkpt lat="48.45998" lon="-3.76665">
        <ele>225.56652832031</ele>
        <time>2017-05-25T12:09:02Z</time>
      </trkpt>
      <trkpt lat="48.45999" lon="-3.76657">
        <ele>224.60522460938</ele>
        <time>2017-05-25T12:09:08Z</time>
      </trkpt>
      <trkpt lat="48.45999" lon="-3.76646">
        <ele>225.0859375</ele>
        <time>2017-05-25T12:09:15Z</time>
      </trkpt>
      <trkpt lat="48.46002" lon="-3.76635">
        <ele>226.52783203125</ele>
        <time>2017-05-25T12:09:21Z</time>
      </trkpt>
      <trkpt lat="48.46004" lon="-3.76623">
        <ele>227.00854492188</ele>
        <time>2017-05-25T12:09:29Z</time>
      </trkpt>
      <trkpt lat="48.46006" lon="-3.76611">
        <ele>227.00854492188</ele>
        <time>2017-05-25T12:09:36Z</time>
      </trkpt>
      <trkpt lat="48.46006" lon="-3.76606">
        <ele>226.52783203125</ele>
        <time>2017-05-25T12:09:39Z</time>
      </trkpt>
      <trkpt lat="48.46008" lon="-3.76598">
        <ele>227.00854492188</ele>
        <time>2017-05-25T12:09:44Z</time>
      </trkpt>
      <trkpt lat="48.4601" lon="-3.7659">
        <ele>226.52783203125</ele>
        <time>2017-05-25T12:09:49Z</time>
      </trkpt>
      <trkpt lat="48.46011" lon="-3.76576">
        <ele>226.52783203125</ele>
        <time>2017-05-25T12:09:57Z</time>
      </trkpt>
      <trkpt lat="48.46013" lon="-3.76568">
        <ele>226.52783203125</ele>
        <time>2017-05-25T12:10:02Z</time>
      </trkpt>
      <trkpt lat="48.46016" lon="-3.76553">
        <ele>227.00854492188</ele>
        <time>2017-05-25T12:10:11Z</time>
      </trkpt>
      <trkpt lat="48.46019" lon="-3.7654">
        <ele>227.9697265625</ele>
        <time>2017-05-25T12:10:18Z</time>
      </trkpt>
      <trkpt lat="48.46022" lon="-3.76527">
        <ele>229.89233398438</ele>
        <time>2017-05-25T12:10:25Z</time>
      </trkpt>
      <trkpt lat="48.46026" lon="-3.76511">
        <ele>234.21838378906</ele>
        <time>2017-05-25T12:10:34Z</time>
      </trkpt>
      <trkpt lat="48.46026" lon="-3.76505">
        <ele>235.1796875</ele>
        <time>2017-05-25T12:10:37Z</time>
      </trkpt>
      <trkpt lat="48.46029" lon="-3.76496">
        <ele>237.10229492188</ele>
        <time>2017-05-25T12:10:42Z</time>
      </trkpt>
      <trkpt lat="48.46032" lon="-3.76481">
        <ele>236.62170410156</ele>
        <time>2017-05-25T12:10:50Z</time>
      </trkpt>
      <trkpt lat="48.46035" lon="-3.76468">
        <ele>236.62170410156</ele>
        <time>2017-05-25T12:10:57Z</time>
      </trkpt>
      <trkpt lat="48.46036" lon="-3.76467">
        <ele>236.62170410156</ele>
        <time>2017-05-25T12:10:58Z</time>
      </trkpt>
      <trkpt lat="48.4603" lon="-3.76456">
        <ele>233.73767089844</ele>
        <time>2017-05-25T12:11:06Z</time>
      </trkpt>
      <trkpt lat="48.46029" lon="-3.7645">
        <ele>234.21838378906</ele>
        <time>2017-05-25T12:11:09Z</time>
      </trkpt>
      <trkpt lat="48.4603" lon="-3.76436">
        <ele>234.21838378906</ele>
        <time>2017-05-25T12:11:16Z</time>
      </trkpt>
      <trkpt lat="48.4603" lon="-3.76434">
        <ele>234.21838378906</ele>
        <time>2017-05-25T12:11:17Z</time>
      </trkpt>
      <trkpt lat="48.46034" lon="-3.76416">
        <ele>233.73767089844</ele>
        <time>2017-05-25T12:11:26Z</time>
      </trkpt>
      <trkpt lat="48.46034" lon="-3.76408">
        <ele>233.25708007812</ele>
        <time>2017-05-25T12:11:30Z</time>
      </trkpt>
      <trkpt lat="48.46035" lon="-3.7639">
        <ele>232.29577636719</ele>
        <time>2017-05-25T12:11:39Z</time>
      </trkpt>
      <trkpt lat="48.46035" lon="-3.76372">
        <ele>232.29577636719</ele>
        <time>2017-05-25T12:11:49Z</time>
      </trkpt>
      <trkpt lat="48.46035" lon="-3.76356">
        <ele>232.29577636719</ele>
        <time>2017-05-25T12:11:57Z</time>
      </trkpt>
      <trkpt lat="48.46037" lon="-3.76343">
        <ele>232.77648925781</ele>
        <time>2017-05-25T12:12:04Z</time>
      </trkpt>
      <trkpt lat="48.46038" lon="-3.7633">
        <ele>233.25708007812</ele>
        <time>2017-05-25T12:12:11Z</time>
      </trkpt>
      <trkpt lat="48.46041" lon="-3.76316">
        <ele>233.73767089844</ele>
        <time>2017-05-25T12:12:18Z</time>
      </trkpt>
      <trkpt lat="48.46044" lon="-3.76303">
        <ele>233.73767089844</ele>
        <time>2017-05-25T12:12:25Z</time>
      </trkpt>
      <trkpt lat="48.46046" lon="-3.76288">
        <ele>233.73767089844</ele>
        <time>2017-05-25T12:12:33Z</time>
      </trkpt>
      <trkpt lat="48.4605" lon="-3.76276">
        <ele>233.73767089844</ele>
        <time>2017-05-25T12:12:40Z</time>
      </trkpt>
      <trkpt lat="48.46055" lon="-3.76259">
        <ele>232.77648925781</ele>
        <time>2017-05-25T12:12:50Z</time>
      </trkpt>
      <trkpt lat="48.46056" lon="-3.76255">
        <ele>232.29577636719</ele>
        <time>2017-05-25T12:12:52Z</time>
      </trkpt>
      <trkpt lat="48.46059" lon="-3.76248">
        <ele>232.29577636719</ele>
        <time>2017-05-25T12:12:56Z</time>
      </trkpt>
      <trkpt lat="48.46062" lon="-3.76235">
        <ele>232.29577636719</ele>
        <time>2017-05-25T12:13:03Z</time>
      </trkpt>
      <trkpt lat="48.46066" lon="-3.76217">
        <ele>233.25708007812</ele>
        <time>2017-05-25T12:13:12Z</time>
      </trkpt>
      <trkpt lat="48.46069" lon="-3.76205">
        <ele>232.77648925781</ele>
        <time>2017-05-25T12:13:19Z</time>
      </trkpt>
      <trkpt lat="48.46075" lon="-3.76192">
        <ele>232.77648925781</ele>
        <time>2017-05-25T12:13:27Z</time>
      </trkpt>
      <trkpt lat="48.4608" lon="-3.76178">
        <ele>233.73767089844</ele>
        <time>2017-05-25T12:13:35Z</time>
      </trkpt>
      <trkpt lat="48.46088" lon="-3.76163">
        <ele>234.21838378906</ele>
        <time>2017-05-25T12:13:45Z</time>
      </trkpt>
      <trkpt lat="48.46096" lon="-3.7615">
        <ele>234.69909667969</ele>
        <time>2017-05-25T12:13:54Z</time>
      </trkpt>
      <trkpt lat="48.46104" lon="-3.76136">
        <ele>235.66027832031</ele>
        <time>2017-05-25T12:14:03Z</time>
      </trkpt>
      <trkpt lat="48.46112" lon="-3.76122">
        <ele>238.06359863281</ele>
        <time>2017-05-25T12:14:13Z</time>
      </trkpt>
      <trkpt lat="48.46118" lon="-3.76106">
        <ele>238.54431152344</ele>
        <time>2017-05-25T12:14:22Z</time>
      </trkpt>
      <trkpt lat="48.46122" lon="-3.76092">
        <ele>238.54431152344</ele>
        <time>2017-05-25T12:14:30Z</time>
      </trkpt>
      <trkpt lat="48.46129" lon="-3.76074">
        <ele>237.10229492188</ele>
        <time>2017-05-25T12:14:40Z</time>
      </trkpt>
      <trkpt lat="48.46136" lon="-3.76057">
        <ele>236.14099121094</ele>
        <time>2017-05-25T12:14:50Z</time>
      </trkpt>
      <trkpt lat="48.46142" lon="-3.76055">
        <ele>237.58288574219</ele>
        <time>2017-05-25T12:14:55Z</time>
      </trkpt>
      <trkpt lat="48.46146" lon="-3.76049">
        <ele>237.58288574219</ele>
        <time>2017-05-25T12:14:59Z</time>
      </trkpt>
      <trkpt lat="48.46154" lon="-3.76035">
        <ele>238.06359863281</ele>
        <time>2017-05-25T12:15:09Z</time>
      </trkpt>
      <trkpt lat="48.46157" lon="-3.7603">
        <ele>237.58288574219</ele>
        <time>2017-05-25T12:15:13Z</time>
      </trkpt>
      <trkpt lat="48.4616" lon="-3.76024">
        <ele>236.14099121094</ele>
        <time>2017-05-25T12:15:17Z</time>
      </trkpt>
      <trkpt lat="48.46168" lon="-3.76011">
        <ele>233.73767089844</ele>
        <time>2017-05-25T12:15:26Z</time>
      </trkpt>
      <trkpt lat="48.46177" lon="-3.76001">
        <ele>233.73767089844</ele>
        <time>2017-05-25T12:15:35Z</time>
      </trkpt>
      <trkpt lat="48.46184" lon="-3.75985">
        <ele>234.21838378906</ele>
        <time>2017-05-25T12:15:44Z</time>
      </trkpt>
      <trkpt lat="48.46191" lon="-3.75975">
        <ele>234.21838378906</ele>
        <time>2017-05-25T12:15:51Z</time>
      </trkpt>
      <trkpt lat="48.46198" lon="-3.75963">
        <ele>236.14099121094</ele>
        <time>2017-05-25T12:16:00Z</time>
      </trkpt>
      <trkpt lat="48.46205" lon="-3.7595">
        <ele>235.66027832031</ele>
        <time>2017-05-25T12:16:08Z</time>
      </trkpt>
      <trkpt lat="48.46211" lon="-3.75941">
        <ele>234.21838378906</ele>
        <time>2017-05-25T12:16:15Z</time>
      </trkpt>
      <trkpt lat="48.46218" lon="-3.75932">
        <ele>234.69909667969</ele>
        <time>2017-05-25T12:16:22Z</time>
      </trkpt>
      <trkpt lat="48.46227" lon="-3.75918">
        <ele>235.66027832031</ele>
        <time>2017-05-25T12:16:31Z</time>
      </trkpt>
      <trkpt lat="48.46235" lon="-3.75907">
        <ele>237.10229492188</ele>
        <time>2017-05-25T12:16:39Z</time>
      </trkpt>
      <trkpt lat="48.46246" lon="-3.75903">
        <ele>241.42822265625</ele>
        <time>2017-05-25T12:16:48Z</time>
      </trkpt>
      <trkpt lat="48.46253" lon="-3.75898">
        <ele>245.2734375</ele>
        <time>2017-05-25T12:16:55Z</time>
      </trkpt>
      <trkpt lat="48.46259" lon="-3.75889">
        <ele>244.79284667969</ele>
        <time>2017-05-25T12:17:02Z</time>
      </trkpt>
      <trkpt lat="48.46261" lon="-3.75885">
        <ele>243.83154296875</ele>
        <time>2017-05-25T12:17:05Z</time>
      </trkpt>
      <trkpt lat="48.46269" lon="-3.75872">
        <ele>245.2734375</ele>
        <time>2017-05-25T12:17:13Z</time>
      </trkpt>
      <trkpt lat="48.46275" lon="-3.75862">
        <ele>246.23486328125</ele>
        <time>2017-05-25T12:17:20Z</time>
      </trkpt>
      <trkpt lat="48.46282" lon="-3.75851">
        <ele>245.2734375</ele>
        <time>2017-05-25T12:17:27Z</time>
      </trkpt>
      <trkpt lat="48.46288" lon="-3.75834">
        <ele>240.46704101562</ele>
        <time>2017-05-25T12:17:37Z</time>
      </trkpt>
      <trkpt lat="48.46295" lon="-3.7582">
        <ele>239.98620605469</ele>
        <time>2017-05-25T12:17:45Z</time>
      </trkpt>
      <trkpt lat="48.46298" lon="-3.75813">
        <ele>240.94763183594</ele>
        <time>2017-05-25T12:17:49Z</time>
      </trkpt>
      <trkpt lat="48.46301" lon="-3.75803">
        <ele>240.94763183594</ele>
        <time>2017-05-25T12:17:55Z</time>
      </trkpt>
      <trkpt lat="48.46308" lon="-3.75791">
        <ele>243.35083007812</ele>
        <time>2017-05-25T12:18:03Z</time>
      </trkpt>
      <trkpt lat="48.46315" lon="-3.7578">
        <ele>243.35083007812</ele>
        <time>2017-05-25T12:18:11Z</time>
      </trkpt>
      <trkpt lat="48.46321" lon="-3.75763">
        <ele>239.02490234375</ele>
        <time>2017-05-25T12:18:19Z</time>
      </trkpt>
      <trkpt lat="48.46327" lon="-3.75746">
        <ele>236.62170410156</ele>
        <time>2017-05-25T12:18:27Z</time>
      </trkpt>
      <trkpt lat="48.46333" lon="-3.75729">
        <ele>236.62170410156</ele>
        <time>2017-05-25T12:18:36Z</time>
      </trkpt>
      <trkpt lat="48.46338" lon="-3.75713">
        <ele>236.14099121094</ele>
        <time>2017-05-25T12:18:45Z</time>
      </trkpt>
      <trkpt lat="48.46345" lon="-3.75696">
        <ele>235.66027832031</ele>
        <time>2017-05-25T12:18:54Z</time>
      </trkpt>
      <trkpt lat="48.46352" lon="-3.75683">
        <ele>235.66027832031</ele>
        <time>2017-05-25T12:19:02Z</time>
      </trkpt>
      <trkpt lat="48.46359" lon="-3.75666">
        <ele>234.69909667969</ele>
        <time>2017-05-25T12:19:11Z</time>
      </trkpt>
      <trkpt lat="48.46368" lon="-3.7565">
        <ele>233.73767089844</ele>
        <time>2017-05-25T12:19:21Z</time>
      </trkpt>
      <trkpt lat="48.46376" lon="-3.75631">
        <ele>233.25708007812</ele>
        <time>2017-05-25T12:19:31Z</time>
      </trkpt>
      <trkpt lat="48.46384" lon="-3.75609">
        <ele>232.77648925781</ele>
        <time>2017-05-25T12:19:43Z</time>
      </trkpt>
      <trkpt lat="48.46388" lon="-3.75597">
        <ele>232.29577636719</ele>
        <time>2017-05-25T12:19:49Z</time>
      </trkpt>
      <trkpt lat="48.46391" lon="-3.75586">
        <ele>233.73767089844</ele>
        <time>2017-05-25T12:19:54Z</time>
      </trkpt>
      <trkpt lat="48.46392" lon="-3.75585">
        <ele>233.73767089844</ele>
        <time>2017-05-25T12:19:55Z</time>
      </trkpt>
      <trkpt lat="48.46396" lon="-3.75575">
        <ele>233.25708007812</ele>
        <time>2017-05-25T12:20:01Z</time>
      </trkpt>
      <trkpt lat="48.46401" lon="-3.75563">
        <ele>232.77648925781</ele>
        <time>2017-05-25T12:20:08Z</time>
      </trkpt>
      <trkpt lat="48.46405" lon="-3.75553">
        <ele>232.77648925781</ele>
        <time>2017-05-25T12:20:14Z</time>
      </trkpt>
      <trkpt lat="48.46409" lon="-3.75546">
        <ele>233.73767089844</ele>
        <time>2017-05-25T12:20:19Z</time>
      </trkpt>
      <trkpt lat="48.46411" lon="-3.75541">
        <ele>234.69909667969</ele>
        <time>2017-05-25T12:20:22Z</time>
      </trkpt>
      <trkpt lat="48.46412" lon="-3.75537">
        <ele>234.69909667969</ele>
        <time>2017-05-25T12:20:24Z</time>
      </trkpt>
      <trkpt lat="48.46417" lon="-3.7553">
        <ele>235.1796875</ele>
        <time>2017-05-25T12:20:29Z</time>
      </trkpt>
      <trkpt lat="48.4642" lon="-3.75521">
        <ele>233.73767089844</ele>
        <time>2017-05-25T12:20:34Z</time>
      </trkpt>
      <trkpt lat="48.46421" lon="-3.75517">
        <ele>233.25708007812</ele>
        <time>2017-05-25T12:20:36Z</time>
      </trkpt>
      <trkpt lat="48.46423" lon="-3.75508">
        <ele>232.77648925781</ele>
        <time>2017-05-25T12:20:41Z</time>
      </trkpt>
      <trkpt lat="48.46425" lon="-3.75489">
        <ele>232.77648925781</ele>
        <time>2017-05-25T12:20:50Z</time>
      </trkpt>
      <trkpt lat="48.46425" lon="-3.75483">
        <ele>232.29577636719</ele>
        <time>2017-05-25T12:20:53Z</time>
      </trkpt>
      <trkpt lat="48.46427" lon="-3.75464">
        <ele>230.373046875</ele>
        <time>2017-05-25T12:21:02Z</time>
      </trkpt>
      <trkpt lat="48.46428" lon="-3.75447">
        <ele>230.373046875</ele>
        <time>2017-05-25T12:21:11Z</time>
      </trkpt>
      <trkpt lat="48.46428" lon="-3.75432">
        <ele>230.373046875</ele>
        <time>2017-05-25T12:21:18Z</time>
      </trkpt>
      <trkpt lat="48.46428" lon="-3.75416">
        <ele>229.89233398438</ele>
        <time>2017-05-25T12:21:26Z</time>
      </trkpt>
      <trkpt lat="48.46428" lon="-3.75394">
        <ele>229.89233398438</ele>
        <time>2017-05-25T12:21:37Z</time>
      </trkpt>
      <trkpt lat="48.46428" lon="-3.75375">
        <ele>228.45043945312</ele>
        <time>2017-05-25T12:21:47Z</time>
      </trkpt>
      <trkpt lat="48.46429" lon="-3.75359">
        <ele>227.9697265625</ele>
        <time>2017-05-25T12:21:55Z</time>
      </trkpt>
      <trkpt lat="48.4643" lon="-3.75339">
        <ele>227.9697265625</ele>
        <time>2017-05-25T12:22:05Z</time>
      </trkpt>
      <trkpt lat="48.46429" lon="-3.75337">
        <ele>227.48913574219</ele>
        <time>2017-05-25T12:22:06Z</time>
      </trkpt>
      <trkpt lat="48.4643" lon="-3.75315">
        <ele>226.52783203125</ele>
        <time>2017-05-25T12:22:17Z</time>
      </trkpt>
      <trkpt lat="48.46431" lon="-3.75301">
        <ele>227.00854492188</ele>
        <time>2017-05-25T12:22:25Z</time>
      </trkpt>
      <trkpt lat="48.46431" lon="-3.75288">
        <ele>227.48913574219</ele>
        <time>2017-05-25T12:22:32Z</time>
      </trkpt>
      <trkpt lat="48.46433" lon="-3.75276">
        <ele>226.52783203125</ele>
        <time>2017-05-25T12:22:38Z</time>
      </trkpt>
      <trkpt lat="48.46435" lon="-3.75259">
        <ele>226.04711914062</ele>
        <time>2017-05-25T12:22:46Z</time>
      </trkpt>
      <trkpt lat="48.46436" lon="-3.75244">
        <ele>226.04711914062</ele>
        <time>2017-05-25T12:22:54Z</time>
      </trkpt>
      <trkpt lat="48.46437" lon="-3.7524">
        <ele>225.56652832031</ele>
        <time>2017-05-25T12:22:56Z</time>
      </trkpt>
      <trkpt lat="48.46439" lon="-3.75227">
        <ele>226.52783203125</ele>
        <time>2017-05-25T12:23:03Z</time>
      </trkpt>
      <trkpt lat="48.4644" lon="-3.75219">
        <ele>227.00854492188</ele>
        <time>2017-05-25T12:23:07Z</time>
      </trkpt>
      <trkpt lat="48.46438" lon="-3.75214">
        <ele>227.00854492188</ele>
        <time>2017-05-25T12:23:09Z</time>
      </trkpt>
      <trkpt lat="48.4644" lon="-3.75202">
        <ele>227.48913574219</ele>
        <time>2017-05-25T12:23:15Z</time>
      </trkpt>
      <trkpt lat="48.4644" lon="-3.75198">
        <ele>227.9697265625</ele>
        <time>2017-05-25T12:23:17Z</time>
      </trkpt>
      <trkpt lat="48.46443" lon="-3.75189">
        <ele>228.45043945312</ele>
        <time>2017-05-25T12:23:22Z</time>
      </trkpt>
      <trkpt lat="48.46444" lon="-3.75181">
        <ele>226.52783203125</ele>
        <time>2017-05-25T12:23:26Z</time>
      </trkpt>
      <trkpt lat="48.46443" lon="-3.75168">
        <ele>226.04711914062</ele>
        <time>2017-05-25T12:23:33Z</time>
      </trkpt>
      <trkpt lat="48.46441" lon="-3.75153">
        <ele>225.0859375</ele>
        <time>2017-05-25T12:23:41Z</time>
      </trkpt>
      <trkpt lat="48.46441" lon="-3.75152">
        <ele>225.0859375</ele>
        <time>2017-05-25T12:23:42Z</time>
      </trkpt>
      <trkpt lat="48.46443" lon="-3.75144">
        <ele>225.0859375</ele>
        <time>2017-05-25T12:23:46Z</time>
      </trkpt>
      <trkpt lat="48.46444" lon="-3.75137">
        <ele>225.56652832031</ele>
        <time>2017-05-25T12:23:50Z</time>
      </trkpt>
      <trkpt lat="48.46443" lon="-3.7513">
        <ele>225.56652832031</ele>
        <time>2017-05-25T12:23:53Z</time>
      </trkpt>
      <trkpt lat="48.46442" lon="-3.75124">
        <ele>226.04711914062</ele>
        <time>2017-05-25T12:23:57Z</time>
      </trkpt>
      <trkpt lat="48.46441" lon="-3.75117">
        <ele>227.00854492188</ele>
        <time>2017-05-25T12:24:02Z</time>
      </trkpt>
      <trkpt lat="48.4644" lon="-3.75106">
        <ele>224.12451171875</ele>
        <time>2017-05-25T12:24:08Z</time>
      </trkpt>
      <trkpt lat="48.4644" lon="-3.75098">
        <ele>224.12451171875</ele>
        <time>2017-05-25T12:24:12Z</time>
      </trkpt>
      <trkpt lat="48.46439" lon="-3.75089">
        <ele>223.64379882812</ele>
        <time>2017-05-25T12:24:17Z</time>
      </trkpt>
      <trkpt lat="48.46438" lon="-3.75078">
        <ele>223.64379882812</ele>
        <time>2017-05-25T12:24:22Z</time>
      </trkpt>
      <trkpt lat="48.46438" lon="-3.75076">
        <ele>222.68249511719</ele>
        <time>2017-05-25T12:24:23Z</time>
      </trkpt>
      <trkpt lat="48.46436" lon="-3.75067">
        <ele>220.27917480469</ele>
        <time>2017-05-25T12:24:29Z</time>
      </trkpt>
      <trkpt lat="48.46434" lon="-3.75062">
        <ele>220.27917480469</ele>
        <time>2017-05-25T12:24:32Z</time>
      </trkpt>
      <trkpt lat="48.4643" lon="-3.75053">
        <ele>219.79858398438</ele>
        <time>2017-05-25T12:24:37Z</time>
      </trkpt>
      <trkpt lat="48.46427" lon="-3.75039">
        <ele>220.75988769531</ele>
        <time>2017-05-25T12:24:44Z</time>
      </trkpt>
      <trkpt lat="48.46427" lon="-3.75037">
        <ele>220.75988769531</ele>
        <time>2017-05-25T12:24:45Z</time>
      </trkpt>
      <trkpt lat="48.46426" lon="-3.75031">
        <ele>221.24060058594</ele>
        <time>2017-05-25T12:24:49Z</time>
      </trkpt>
      <trkpt lat="48.46426" lon="-3.75017">
        <ele>221.72119140625</ele>
        <time>2017-05-25T12:24:56Z</time>
      </trkpt>
      <trkpt lat="48.46429" lon="-3.75006">
        <ele>224.12451171875</ele>
        <time>2017-05-25T12:25:01Z</time>
      </trkpt>
      <trkpt lat="48.4643" lon="-3.74993">
        <ele>223.64379882812</ele>
        <time>2017-05-25T12:25:07Z</time>
      </trkpt>
      <trkpt lat="48.46431" lon="-3.74983">
        <ele>223.16320800781</ele>
        <time>2017-05-25T12:25:12Z</time>
      </trkpt>
      <trkpt lat="48.4643" lon="-3.74977">
        <ele>222.68249511719</ele>
        <time>2017-05-25T12:25:15Z</time>
      </trkpt>
      <trkpt lat="48.46429" lon="-3.74969">
        <ele>222.68249511719</ele>
        <time>2017-05-25T12:25:19Z</time>
      </trkpt>
      <trkpt lat="48.46428" lon="-3.74954">
        <ele>222.68249511719</ele>
        <time>2017-05-25T12:25:27Z</time>
      </trkpt>
      <trkpt lat="48.4643" lon="-3.74946">
        <ele>223.64379882812</ele>
        <time>2017-05-25T12:25:31Z</time>
      </trkpt>
      <trkpt lat="48.46432" lon="-3.74931">
        <ele>221.72119140625</ele>
        <time>2017-05-25T12:25:39Z</time>
      </trkpt>
      <trkpt lat="48.46433" lon="-3.74923">
        <ele>222.20178222656</ele>
        <time>2017-05-25T12:25:43Z</time>
      </trkpt>
      <trkpt lat="48.46436" lon="-3.74909">
        <ele>222.68249511719</ele>
        <time>2017-05-25T12:25:51Z</time>
      </trkpt>
      <trkpt lat="48.46438" lon="-3.74896">
        <ele>222.20178222656</ele>
        <time>2017-05-25T12:25:58Z</time>
      </trkpt>
      <trkpt lat="48.46441" lon="-3.74883">
        <ele>221.24060058594</ele>
        <time>2017-05-25T12:26:05Z</time>
      </trkpt>
      <trkpt lat="48.46445" lon="-3.74869">
        <ele>220.75988769531</ele>
        <time>2017-05-25T12:26:12Z</time>
      </trkpt>
      <trkpt lat="48.46446" lon="-3.74864">
        <ele>221.24060058594</ele>
        <time>2017-05-25T12:26:15Z</time>
      </trkpt>
      <trkpt lat="48.46448" lon="-3.74855">
        <ele>221.72119140625</ele>
        <time>2017-05-25T12:26:20Z</time>
      </trkpt>
      <trkpt lat="48.46455" lon="-3.7484">
        <ele>223.64379882812</ele>
        <time>2017-05-25T12:26:29Z</time>
      </trkpt>
      <trkpt lat="48.46462" lon="-3.74826">
        <ele>224.60522460938</ele>
        <time>2017-05-25T12:26:38Z</time>
      </trkpt>
      <trkpt lat="48.4647" lon="-3.74811">
        <ele>223.16320800781</ele>
        <time>2017-05-25T12:26:47Z</time>
      </trkpt>
      <trkpt lat="48.46478" lon="-3.74795">
        <ele>224.12451171875</ele>
        <time>2017-05-25T12:26:56Z</time>
      </trkpt>
      <trkpt lat="48.46482" lon="-3.74785">
        <ele>226.04711914062</ele>
        <time>2017-05-25T12:27:02Z</time>
      </trkpt>
      <trkpt lat="48.46492" lon="-3.74782">
        <ele>225.0859375</ele>
        <time>2017-05-25T12:27:05Z</time>
      </trkpt>
      <trkpt lat="48.46494" lon="-3.74779">
        <ele>224.60522460938</ele>
        <time>2017-05-25T12:27:07Z</time>
      </trkpt>
      <trkpt lat="48.46498" lon="-3.74771">
        <ele>223.16320800781</ele>
        <time>2017-05-25T12:27:13Z</time>
      </trkpt>
      <trkpt lat="48.46502" lon="-3.74764">
        <ele>222.20178222656</ele>
        <time>2017-05-25T12:27:18Z</time>
      </trkpt>
      <trkpt lat="48.46505" lon="-3.74752">
        <ele>222.68249511719</ele>
        <time>2017-05-25T12:27:24Z</time>
      </trkpt>
      <trkpt lat="48.46511" lon="-3.7475">
        <ele>223.16320800781</ele>
        <time>2017-05-25T12:27:27Z</time>
      </trkpt>
      <trkpt lat="48.46516" lon="-3.74745">
        <ele>223.64379882812</ele>
        <time>2017-05-25T12:27:31Z</time>
      </trkpt>
      <trkpt lat="48.46516" lon="-3.74741">
        <ele>224.60522460938</ele>
        <time>2017-05-25T12:27:33Z</time>
      </trkpt>
      <trkpt lat="48.4652" lon="-3.74725">
        <ele>225.56652832031</ele>
        <time>2017-05-25T12:27:42Z</time>
      </trkpt>
      <trkpt lat="48.46525" lon="-3.74716">
        <ele>225.0859375</ele>
        <time>2017-05-25T12:27:48Z</time>
      </trkpt>
      <trkpt lat="48.4653" lon="-3.74704">
        <ele>225.56652832031</ele>
        <time>2017-05-25T12:27:55Z</time>
      </trkpt>
      <trkpt lat="48.46535" lon="-3.74695">
        <ele>225.56652832031</ele>
        <time>2017-05-25T12:28:01Z</time>
      </trkpt>
      <trkpt lat="48.46541" lon="-3.74682">
        <ele>225.56652832031</ele>
        <time>2017-05-25T12:28:09Z</time>
      </trkpt>
      <trkpt lat="48.46547" lon="-3.74671">
        <ele>226.04711914062</ele>
        <time>2017-05-25T12:28:16Z</time>
      </trkpt>
      <trkpt lat="48.46552" lon="-3.7467">
        <ele>227.48913574219</ele>
        <time>2017-05-25T12:28:21Z</time>
      </trkpt>
      <trkpt lat="48.46552" lon="-3.7467">
        <ele>227.48913574219</ele>
        <time>2017-05-25T12:28:22Z</time>
      </trkpt>
      <trkpt lat="48.46556" lon="-3.74673">
        <ele>227.48913574219</ele>
        <time>2017-05-25T12:28:26Z</time>
      </trkpt>
      <trkpt lat="48.46561" lon="-3.74678">
        <ele>227.48913574219</ele>
        <time>2017-05-25T12:28:32Z</time>
      </trkpt>
      <trkpt lat="48.46565" lon="-3.74682">
        <ele>227.00854492188</ele>
        <time>2017-05-25T12:28:36Z</time>
      </trkpt>
      <trkpt lat="48.4657" lon="-3.74687">
        <ele>225.0859375</ele>
        <time>2017-05-25T12:28:41Z</time>
      </trkpt>
      <trkpt lat="48.46577" lon="-3.74696">
        <ele>219.31799316406</ele>
        <time>2017-05-25T12:28:48Z</time>
      </trkpt>
      <trkpt lat="48.46579" lon="-3.74698">
        <ele>218.35656738281</ele>
        <time>2017-05-25T12:28:49Z</time>
      </trkpt>
      <trkpt lat="48.46583" lon="-3.74701">
        <ele>216.43395996094</ele>
        <time>2017-05-25T12:28:51Z</time>
      </trkpt>
      <trkpt lat="48.4659" lon="-3.74711">
        <ele>214.51123046875</ele>
        <time>2017-05-25T12:28:58Z</time>
      </trkpt>
      <trkpt lat="48.46596" lon="-3.74718">
        <ele>214.03063964844</ele>
        <time>2017-05-25T12:29:04Z</time>
      </trkpt>
      <trkpt lat="48.46603" lon="-3.74725">
        <ele>214.99194335938</ele>
        <time>2017-05-25T12:29:11Z</time>
      </trkpt>
      <trkpt lat="48.46604" lon="-3.74726">
        <ele>214.99194335938</ele>
        <time>2017-05-25T12:29:12Z</time>
      </trkpt>
      <trkpt lat="48.46604" lon="-3.74729">
        <ele>215.47265625</ele>
        <time>2017-05-25T12:29:14Z</time>
      </trkpt>
      <trkpt lat="48.46608" lon="-3.74733">
        <ele>216.43395996094</ele>
        <time>2017-05-25T12:29:18Z</time>
      </trkpt>
      <trkpt lat="48.4661" lon="-3.74735">
        <ele>216.43395996094</ele>
        <time>2017-05-25T12:29:20Z</time>
      </trkpt>
      <trkpt lat="48.46616" lon="-3.74743">
        <ele>215.47265625</ele>
        <time>2017-05-25T12:29:25Z</time>
      </trkpt>
      <trkpt lat="48.4662" lon="-3.74748">
        <ele>214.99194335938</ele>
        <time>2017-05-25T12:29:30Z</time>
      </trkpt>
      <trkpt lat="48.46623" lon="-3.74748">
        <ele>216.43395996094</ele>
        <time>2017-05-25T12:29:35Z</time>
      </trkpt>
      <trkpt lat="48.46628" lon="-3.74749">
        <ele>217.8759765625</ele>
        <time>2017-05-25T12:29:43Z</time>
      </trkpt>
      <trkpt lat="48.46631" lon="-3.7475">
        <ele>217.39538574219</ele>
        <time>2017-05-25T12:29:45Z</time>
      </trkpt>
      <trkpt lat="48.46639" lon="-3.74743">
        <ele>217.39538574219</ele>
        <time>2017-05-25T12:29:54Z</time>
      </trkpt>
      <trkpt lat="48.46642" lon="-3.74741">
        <ele>218.35656738281</ele>
        <time>2017-05-25T12:29:59Z</time>
      </trkpt>
      <trkpt lat="48.46647" lon="-3.7474">
        <ele>220.27917480469</ele>
        <time>2017-05-25T12:30:06Z</time>
      </trkpt>
      <trkpt lat="48.4665" lon="-3.74745">
        <ele>221.24060058594</ele>
        <time>2017-05-25T12:30:13Z</time>
      </trkpt>
      <trkpt lat="48.46651" lon="-3.74744">
        <ele>221.24060058594</ele>
        <time>2017-05-25T12:30:20Z</time>
      </trkpt>
      <trkpt lat="48.4665" lon="-3.74741">
        <ele>219.79858398438</ele>
        <time>2017-05-25T12:30:26Z</time>
      </trkpt>
      <trkpt lat="48.46646" lon="-3.7474">
        <ele>219.79858398438</ele>
        <time>2017-05-25T12:30:31Z</time>
      </trkpt>
      <trkpt lat="48.46646" lon="-3.74744">
        <ele>220.27917480469</ele>
        <time>2017-05-25T12:30:36Z</time>
      </trkpt>
      <trkpt lat="48.46646" lon="-3.74744">
        <ele>221.24060058594</ele>
        <time>2017-05-25T12:30:46Z</time>
      </trkpt>
      <trkpt lat="48.46646" lon="-3.74741">
        <ele>221.72119140625</ele>
        <time>2017-05-25T12:30:58Z</time>
      </trkpt>
      <trkpt lat="48.46647" lon="-3.74736">
        <ele>223.16320800781</ele>
        <time>2017-05-25T12:31:09Z</time>
      </trkpt>
      <trkpt lat="48.46653" lon="-3.74735">
        <ele>224.60522460938</ele>
        <time>2017-05-25T12:31:27Z</time>
      </trkpt>
      <trkpt lat="48.46654" lon="-3.74737">
        <ele>225.56652832031</ele>
        <time>2017-05-25T12:31:38Z</time>
      </trkpt>
      <trkpt lat="48.46655" lon="-3.74738">
        <ele>225.0859375</ele>
        <time>2017-05-25T12:31:43Z</time>
      </trkpt>
      <trkpt lat="48.46653" lon="-3.74737">
        <ele>225.56652832031</ele>
        <time>2017-05-25T12:31:59Z</time>
      </trkpt>
      <trkpt lat="48.46652" lon="-3.74731">
        <ele>229.89233398438</ele>
        <time>2017-05-25T12:32:09Z</time>
      </trkpt>
      <trkpt lat="48.46656" lon="-3.74721">
        <ele>236.62170410156</ele>
        <time>2017-05-25T12:32:28Z</time>
      </trkpt>
      <trkpt lat="48.46669" lon="-3.74727">
        <ele>238.06359863281</ele>
        <time>2017-05-25T12:32:38Z</time>
      </trkpt>
      <trkpt lat="48.4666" lon="-3.74726">
        <ele>236.62170410156</ele>
        <time>2017-05-25T12:32:47Z</time>
      </trkpt>
      <trkpt lat="48.46655" lon="-3.7473">
        <ele>233.25708007812</ele>
        <time>2017-05-25T12:32:52Z</time>
      </trkpt>
      <trkpt lat="48.46652" lon="-3.74724">
        <ele>228.93115234375</ele>
        <time>2017-05-25T12:32:58Z</time>
      </trkpt>
      <trkpt lat="48.46654" lon="-3.74725">
        <ele>226.04711914062</ele>
        <time>2017-05-25T12:33:04Z</time>
      </trkpt>
      <trkpt lat="48.46656" lon="-3.7473">
        <ele>221.24060058594</ele>
        <time>2017-05-25T12:33:11Z</time>
      </trkpt>
      <trkpt lat="48.46658" lon="-3.74731">
        <ele>220.75988769531</ele>
        <time>2017-05-25T12:33:15Z</time>
      </trkpt>
      <trkpt lat="48.4666" lon="-3.74736">
        <ele>220.75988769531</ele>
        <time>2017-05-25T12:33:19Z</time>
      </trkpt>
      <trkpt lat="48.46662" lon="-3.74738">
        <ele>220.75988769531</ele>
        <time>2017-05-25T12:33:21Z</time>
      </trkpt>
      <trkpt lat="48.46668" lon="-3.74746">
        <ele>220.75988769531</ele>
        <time>2017-05-25T12:33:27Z</time>
      </trkpt>
      <trkpt lat="48.46672" lon="-3.74752">
        <ele>221.24060058594</ele>
        <time>2017-05-25T12:33:32Z</time>
      </trkpt>
      <trkpt lat="48.46674" lon="-3.74754">
        <ele>220.75988769531</ele>
        <time>2017-05-25T12:33:34Z</time>
      </trkpt>
      <trkpt lat="48.4668" lon="-3.74762">
        <ele>220.27917480469</ele>
        <time>2017-05-25T12:33:41Z</time>
      </trkpt>
      <trkpt lat="48.46685" lon="-3.74767">
        <ele>220.27917480469</ele>
        <time>2017-05-25T12:33:46Z</time>
      </trkpt>
      <trkpt lat="48.46689" lon="-3.74771">
        <ele>219.79858398438</ele>
        <time>2017-05-25T12:33:50Z</time>
      </trkpt>
      <trkpt lat="48.46695" lon="-3.74779">
        <ele>220.27917480469</ele>
        <time>2017-05-25T12:33:57Z</time>
      </trkpt>
      <trkpt lat="48.46705" lon="-3.74791">
        <ele>220.27917480469</ele>
        <time>2017-05-25T12:34:07Z</time>
      </trkpt>
      <trkpt lat="48.46713" lon="-3.748">
        <ele>219.79858398438</ele>
        <time>2017-05-25T12:34:15Z</time>
      </trkpt>
      <trkpt lat="48.46722" lon="-3.74811">
        <ele>220.27917480469</ele>
        <time>2017-05-25T12:34:24Z</time>
      </trkpt>
      <trkpt lat="48.46729" lon="-3.74816">
        <ele>219.79858398438</ele>
        <time>2017-05-25T12:34:31Z</time>
      </trkpt>
      <trkpt lat="48.46731" lon="-3.74819">
        <ele>220.27917480469</ele>
        <time>2017-05-25T12:34:33Z</time>
      </trkpt>
      <trkpt lat="48.46737" lon="-3.74829">
        <ele>221.24060058594</ele>
        <time>2017-05-25T12:34:40Z</time>
      </trkpt>
      <trkpt lat="48.46742" lon="-3.74834">
        <ele>221.24060058594</ele>
        <time>2017-05-25T12:34:45Z</time>
      </trkpt>
      <trkpt lat="48.46756" lon="-3.74853">
        <ele>222.20178222656</ele>
        <time>2017-05-25T12:34:59Z</time>
      </trkpt>
      <trkpt lat="48.46757" lon="-3.74855">
        <ele>221.24060058594</ele>
        <time>2017-05-25T12:35:01Z</time>
      </trkpt>
      <trkpt lat="48.46764" lon="-3.74864">
        <ele>220.27917480469</ele>
        <time>2017-05-25T12:35:08Z</time>
      </trkpt>
      <trkpt lat="48.46767" lon="-3.74867">
        <ele>218.83728027344</ele>
        <time>2017-05-25T12:35:11Z</time>
      </trkpt>
      <trkpt lat="48.46773" lon="-3.74873">
        <ele>215.95324707031</ele>
        <time>2017-05-25T12:35:17Z</time>
      </trkpt>
      <trkpt lat="48.46779" lon="-3.74881">
        <ele>215.47265625</ele>
        <time>2017-05-25T12:35:23Z</time>
      </trkpt>
      <trkpt lat="48.46783" lon="-3.74887">
        <ele>215.95324707031</ele>
        <time>2017-05-25T12:35:28Z</time>
      </trkpt>
      <trkpt lat="48.46787" lon="-3.74893">
        <ele>216.91467285156</ele>
        <time>2017-05-25T12:35:33Z</time>
      </trkpt>
      <trkpt lat="48.46788" lon="-3.74895">
        <ele>217.39538574219</ele>
        <time>2017-05-25T12:35:35Z</time>
      </trkpt>
      <trkpt lat="48.46793" lon="-3.74901">
        <ele>217.8759765625</ele>
        <time>2017-05-25T12:35:40Z</time>
      </trkpt>
      <trkpt lat="48.46796" lon="-3.74904">
        <ele>218.83728027344</ele>
        <time>2017-05-25T12:35:43Z</time>
      </trkpt>
      <trkpt lat="48.46801" lon="-3.74912">
        <ele>217.39538574219</ele>
        <time>2017-05-25T12:35:50Z</time>
      </trkpt>
      <trkpt lat="48.46803" lon="-3.74913">
        <ele>217.39538574219</ele>
        <time>2017-05-25T12:35:52Z</time>
      </trkpt>
      <trkpt lat="48.46807" lon="-3.74919">
        <ele>218.83728027344</ele>
        <time>2017-05-25T12:35:57Z</time>
      </trkpt>
      <trkpt lat="48.46816" lon="-3.74928">
        <ele>217.8759765625</ele>
        <time>2017-05-25T12:36:05Z</time>
      </trkpt>
      <trkpt lat="48.46821" lon="-3.74934">
        <ele>221.24060058594</ele>
        <time>2017-05-25T12:36:10Z</time>
      </trkpt>
      <trkpt lat="48.46825" lon="-3.74937">
        <ele>220.75988769531</ele>
        <time>2017-05-25T12:36:13Z</time>
      </trkpt>
      <trkpt lat="48.46835" lon="-3.74945">
        <ele>219.31799316406</ele>
        <time>2017-05-25T12:36:21Z</time>
      </trkpt>
      <trkpt lat="48.46838" lon="-3.74947">
        <ele>218.83728027344</ele>
        <time>2017-05-25T12:36:23Z</time>
      </trkpt>
      <trkpt lat="48.46845" lon="-3.74954">
        <ele>218.83728027344</ele>
        <time>2017-05-25T12:36:30Z</time>
      </trkpt>
      <trkpt lat="48.46849" lon="-3.74957">
        <ele>219.31799316406</ele>
        <time>2017-05-25T12:36:33Z</time>
      </trkpt>
      <trkpt lat="48.46856" lon="-3.74961">
        <ele>219.31799316406</ele>
        <time>2017-05-25T12:36:39Z</time>
      </trkpt>
      <trkpt lat="48.4686" lon="-3.74963">
        <ele>218.35656738281</ele>
        <time>2017-05-25T12:36:42Z</time>
      </trkpt>
      <trkpt lat="48.46866" lon="-3.74967">
        <ele>218.35656738281</ele>
        <time>2017-05-25T12:36:48Z</time>
      </trkpt>
      <trkpt lat="48.46872" lon="-3.74971">
        <ele>219.31799316406</ele>
        <time>2017-05-25T12:36:53Z</time>
      </trkpt>
      <trkpt lat="48.46879" lon="-3.74976">
        <ele>219.79858398438</ele>
        <time>2017-05-25T12:36:59Z</time>
      </trkpt>
      <trkpt lat="48.46883" lon="-3.74979">
        <ele>220.75988769531</ele>
        <time>2017-05-25T12:37:02Z</time>
      </trkpt>
      <trkpt lat="48.46885" lon="-3.7498">
        <ele>220.27917480469</ele>
        <time>2017-05-25T12:37:04Z</time>
      </trkpt>
      <trkpt lat="48.46887" lon="-3.7498">
        <ele>218.83728027344</ele>
        <time>2017-05-25T12:37:06Z</time>
      </trkpt>
      <trkpt lat="48.46894" lon="-3.74985">
        <ele>219.31799316406</ele>
        <time>2017-05-25T12:37:13Z</time>
      </trkpt>
      <trkpt lat="48.46903" lon="-3.74989">
        <ele>220.27917480469</ele>
        <time>2017-05-25T12:37:20Z</time>
      </trkpt>
      <trkpt lat="48.46909" lon="-3.74991">
        <ele>219.79858398438</ele>
        <time>2017-05-25T12:37:25Z</time>
      </trkpt>
      <trkpt lat="48.46918" lon="-3.74992">
        <ele>220.75988769531</ele>
        <time>2017-05-25T12:37:31Z</time>
      </trkpt>
      <trkpt lat="48.46922" lon="-3.74994">
        <ele>221.24060058594</ele>
        <time>2017-05-25T12:37:34Z</time>
      </trkpt>
      <trkpt lat="48.46932" lon="-3.74999">
        <ele>219.79858398438</ele>
        <time>2017-05-25T12:37:42Z</time>
      </trkpt>
      <trkpt lat="48.46935" lon="-3.74999">
        <ele>219.31799316406</ele>
        <time>2017-05-25T12:37:44Z</time>
      </trkpt>
      <trkpt lat="48.46942" lon="-3.75002">
        <ele>216.91467285156</ele>
        <time>2017-05-25T12:37:50Z</time>
      </trkpt>
      <trkpt lat="48.46947" lon="-3.75004">
        <ele>218.35656738281</ele>
        <time>2017-05-25T12:37:54Z</time>
      </trkpt>
      <trkpt lat="48.46955" lon="-3.75005">
        <ele>220.75988769531</ele>
        <time>2017-05-25T12:38:00Z</time>
      </trkpt>
      <trkpt lat="48.46955" lon="-3.75005">
        <ele>220.27917480469</ele>
        <time>2017-05-25T12:38:01Z</time>
      </trkpt>
      <trkpt lat="48.46962" lon="-3.75006">
        <ele>219.79858398438</ele>
        <time>2017-05-25T12:38:07Z</time>
      </trkpt>
      <trkpt lat="48.46966" lon="-3.75007">
        <ele>220.27917480469</ele>
        <time>2017-05-25T12:38:10Z</time>
      </trkpt>
      <trkpt lat="48.46972" lon="-3.75008">
        <ele>222.68249511719</ele>
        <time>2017-05-25T12:38:15Z</time>
      </trkpt>
      <trkpt lat="48.46981" lon="-3.7501">
        <ele>225.0859375</ele>
        <time>2017-05-25T12:38:22Z</time>
      </trkpt>
      <trkpt lat="48.46982" lon="-3.7501">
        <ele>225.0859375</ele>
        <time>2017-05-25T12:38:23Z</time>
      </trkpt>
      <trkpt lat="48.46984" lon="-3.75012">
        <ele>225.0859375</ele>
        <time>2017-05-25T12:38:25Z</time>
      </trkpt>
      <trkpt lat="48.46992" lon="-3.75015">
        <ele>223.16320800781</ele>
        <time>2017-05-25T12:38:31Z</time>
      </trkpt>
      <trkpt lat="48.46999" lon="-3.75015">
        <ele>222.20178222656</ele>
        <time>2017-05-25T12:38:36Z</time>
      </trkpt>
      <trkpt lat="48.47006" lon="-3.75014">
        <ele>220.75988769531</ele>
        <time>2017-05-25T12:38:42Z</time>
      </trkpt>
      <trkpt lat="48.47012" lon="-3.75012">
        <ele>219.31799316406</ele>
        <time>2017-05-25T12:38:47Z</time>
      </trkpt>
      <trkpt lat="48.4702" lon="-3.75013">
        <ele>221.24060058594</ele>
        <time>2017-05-25T12:38:52Z</time>
      </trkpt>
      <trkpt lat="48.47021" lon="-3.75013">
        <ele>220.75988769531</ele>
        <time>2017-05-25T12:38:53Z</time>
      </trkpt>
      <trkpt lat="48.47027" lon="-3.75012">
        <ele>218.83728027344</ele>
        <time>2017-05-25T12:38:59Z</time>
      </trkpt>
      <trkpt lat="48.47034" lon="-3.75011">
        <ele>218.83728027344</ele>
        <time>2017-05-25T12:39:04Z</time>
      </trkpt>
      <trkpt lat="48.47041" lon="-3.75012">
        <ele>217.39538574219</ele>
        <time>2017-05-25T12:39:09Z</time>
      </trkpt>
      <trkpt lat="48.47049" lon="-3.75014">
        <ele>217.8759765625</ele>
        <time>2017-05-25T12:39:14Z</time>
      </trkpt>
      <trkpt lat="48.47052" lon="-3.75014">
        <ele>218.35656738281</ele>
        <time>2017-05-25T12:39:16Z</time>
      </trkpt>
      <trkpt lat="48.4706" lon="-3.75013">
        <ele>221.72119140625</ele>
        <time>2017-05-25T12:39:22Z</time>
      </trkpt>
      <trkpt lat="48.47068" lon="-3.75012">
        <ele>222.20178222656</ele>
        <time>2017-05-25T12:39:27Z</time>
      </trkpt>
      <trkpt lat="48.47074" lon="-3.75011">
        <ele>220.27917480469</ele>
        <time>2017-05-25T12:39:32Z</time>
      </trkpt>
      <trkpt lat="48.4708" lon="-3.7501">
        <ele>218.83728027344</ele>
        <time>2017-05-25T12:39:37Z</time>
      </trkpt>
      <trkpt lat="48.47089" lon="-3.75009">
        <ele>217.8759765625</ele>
        <time>2017-05-25T12:39:45Z</time>
      </trkpt>
      <trkpt lat="48.47097" lon="-3.7501">
        <ele>217.39538574219</ele>
        <time>2017-05-25T12:39:51Z</time>
      </trkpt>
      <trkpt lat="48.47104" lon="-3.7501">
        <ele>216.91467285156</ele>
        <time>2017-05-25T12:39:56Z</time>
      </trkpt>
      <trkpt lat="48.47111" lon="-3.75009">
        <ele>215.95324707031</ele>
        <time>2017-05-25T12:40:02Z</time>
      </trkpt>
      <trkpt lat="48.47114" lon="-3.75008">
        <ele>216.43395996094</ele>
        <time>2017-05-25T12:40:04Z</time>
      </trkpt>
      <trkpt lat="48.4712" lon="-3.75008">
        <ele>215.95324707031</ele>
        <time>2017-05-25T12:40:08Z</time>
      </trkpt>
      <trkpt lat="48.47124" lon="-3.75008">
        <ele>214.51123046875</ele>
        <time>2017-05-25T12:40:13Z</time>
      </trkpt>
      <trkpt lat="48.4713" lon="-3.75006">
        <ele>212.58862304688</ele>
        <time>2017-05-25T12:40:18Z</time>
      </trkpt>
      <trkpt lat="48.47138" lon="-3.75008">
        <ele>208.74340820312</ele>
        <time>2017-05-25T12:40:25Z</time>
      </trkpt>
      <trkpt lat="48.47144" lon="-3.75007">
        <ele>207.30139160156</ele>
        <time>2017-05-25T12:40:30Z</time>
      </trkpt>
      <trkpt lat="48.47148" lon="-3.75005">
        <ele>208.26281738281</ele>
        <time>2017-05-25T12:40:34Z</time>
      </trkpt>
      <trkpt lat="48.47157" lon="-3.75003">
        <ele>210.18542480469</ele>
        <time>2017-05-25T12:40:40Z</time>
      </trkpt>
      <trkpt lat="48.4716" lon="-3.75003">
        <ele>210.18542480469</ele>
        <time>2017-05-25T12:40:42Z</time>
      </trkpt>
      <trkpt lat="48.47166" lon="-3.75005">
        <ele>210.18542480469</ele>
        <time>2017-05-25T12:40:48Z</time>
      </trkpt>
      <trkpt lat="48.47167" lon="-3.75004">
        <ele>210.666015625</ele>
        <time>2017-05-25T12:40:49Z</time>
      </trkpt>
      <trkpt lat="48.47171" lon="-3.75005">
        <ele>212.58862304688</ele>
        <time>2017-05-25T12:40:52Z</time>
      </trkpt>
      <trkpt lat="48.47182" lon="-3.75003">
        <ele>213.55004882812</ele>
        <time>2017-05-25T12:40:58Z</time>
      </trkpt>
      <trkpt lat="48.47184" lon="-3.75003">
        <ele>213.55004882812</ele>
        <time>2017-05-25T12:41:00Z</time>
      </trkpt>
      <trkpt lat="48.47191" lon="-3.75002">
        <ele>214.51123046875</ele>
        <time>2017-05-25T12:41:06Z</time>
      </trkpt>
      <trkpt lat="48.47192" lon="-3.75002">
        <ele>214.03063964844</ele>
        <time>2017-05-25T12:41:07Z</time>
      </trkpt>
      <trkpt lat="48.472" lon="-3.75001">
        <ele>213.0693359375</ele>
        <time>2017-05-25T12:41:13Z</time>
      </trkpt>
      <trkpt lat="48.47207" lon="-3.75">
        <ele>212.10803222656</ele>
        <time>2017-05-25T12:41:19Z</time>
      </trkpt>
      <trkpt lat="48.47214" lon="-3.75001">
        <ele>212.58862304688</ele>
        <time>2017-05-25T12:41:23Z</time>
      </trkpt>
      <trkpt lat="48.47222" lon="-3.75011">
        <ele>214.99194335938</ele>
        <time>2017-05-25T12:41:31Z</time>
      </trkpt>
      <trkpt lat="48.47231" lon="-3.75012">
        <ele>214.99194335938</ele>
        <time>2017-05-25T12:41:38Z</time>
      </trkpt>
      <trkpt lat="48.47236" lon="-3.75013">
        <ele>212.58862304688</ele>
        <time>2017-05-25T12:41:44Z</time>
      </trkpt>
      <trkpt lat="48.47245" lon="-3.75012">
        <ele>213.55004882812</ele>
        <time>2017-05-25T12:41:51Z</time>
      </trkpt>
      <trkpt lat="48.47247" lon="-3.75012">
        <ele>214.51123046875</ele>
        <time>2017-05-25T12:41:52Z</time>
      </trkpt>
      <trkpt lat="48.47256" lon="-3.75012">
        <ele>214.99194335938</ele>
        <time>2017-05-25T12:41:58Z</time>
      </trkpt>
      <trkpt lat="48.47258" lon="-3.75012">
        <ele>214.99194335938</ele>
        <time>2017-05-25T12:42:00Z</time>
      </trkpt>
      <trkpt lat="48.47268" lon="-3.75011">
        <ele>214.99194335938</ele>
        <time>2017-05-25T12:42:08Z</time>
      </trkpt>
      <trkpt lat="48.47271" lon="-3.75011">
        <ele>214.51123046875</ele>
        <time>2017-05-25T12:42:11Z</time>
      </trkpt>
      <trkpt lat="48.47276" lon="-3.75011">
        <ele>215.47265625</ele>
        <time>2017-05-25T12:42:16Z</time>
      </trkpt>
      <trkpt lat="48.47281" lon="-3.7501">
        <ele>216.43395996094</ele>
        <time>2017-05-25T12:42:20Z</time>
      </trkpt>
      <trkpt lat="48.47288" lon="-3.75008">
        <ele>214.51123046875</ele>
        <time>2017-05-25T12:42:25Z</time>
      </trkpt>
      <trkpt lat="48.47293" lon="-3.75008">
        <ele>213.0693359375</ele>
        <time>2017-05-25T12:42:29Z</time>
      </trkpt>
      <trkpt lat="48.47294" lon="-3.75009">
        <ele>213.0693359375</ele>
        <time>2017-05-25T12:42:31Z</time>
      </trkpt>
      <trkpt lat="48.47295" lon="-3.75008">
        <ele>213.0693359375</ele>
        <time>2017-05-25T12:42:33Z</time>
      </trkpt>
      <trkpt lat="48.47304" lon="-3.75006">
        <ele>214.03063964844</ele>
        <time>2017-05-25T12:42:41Z</time>
      </trkpt>
      <trkpt lat="48.47314" lon="-3.7501">
        <ele>217.39538574219</ele>
        <time>2017-05-25T12:42:48Z</time>
      </trkpt>
      <trkpt lat="48.47319" lon="-3.75021">
        <ele>216.91467285156</ele>
        <time>2017-05-25T12:42:55Z</time>
      </trkpt>
      <trkpt lat="48.4732" lon="-3.75029">
        <ele>216.91467285156</ele>
        <time>2017-05-25T12:43:00Z</time>
      </trkpt>
      <trkpt lat="48.4732" lon="-3.75038">
        <ele>217.39538574219</ele>
        <time>2017-05-25T12:43:04Z</time>
      </trkpt>
      <trkpt lat="48.4732" lon="-3.75041">
        <ele>216.91467285156</ele>
        <time>2017-05-25T12:43:06Z</time>
      </trkpt>
      <trkpt lat="48.4732" lon="-3.75052">
        <ele>217.39538574219</ele>
        <time>2017-05-25T12:43:12Z</time>
      </trkpt>
      <trkpt lat="48.47319" lon="-3.75059">
        <ele>216.43395996094</ele>
        <time>2017-05-25T12:43:16Z</time>
      </trkpt>
      <trkpt lat="48.4732" lon="-3.75068">
        <ele>216.43395996094</ele>
        <time>2017-05-25T12:43:21Z</time>
      </trkpt>
      <trkpt lat="48.4732" lon="-3.75071">
        <ele>216.91467285156</ele>
        <time>2017-05-25T12:43:23Z</time>
      </trkpt>
      <trkpt lat="48.47321" lon="-3.7508">
        <ele>216.91467285156</ele>
        <time>2017-05-25T12:43:28Z</time>
      </trkpt>
      <trkpt lat="48.47321" lon="-3.75087">
        <ele>216.43395996094</ele>
        <time>2017-05-25T12:43:32Z</time>
      </trkpt>
      <trkpt lat="48.47322" lon="-3.75098">
        <ele>215.95324707031</ele>
        <time>2017-05-25T12:43:38Z</time>
      </trkpt>
      <trkpt lat="48.47321" lon="-3.75109">
        <ele>215.47265625</ele>
        <time>2017-05-25T12:43:43Z</time>
      </trkpt>
      <trkpt lat="48.47321" lon="-3.75112">
        <ele>215.95324707031</ele>
        <time>2017-05-25T12:43:45Z</time>
      </trkpt>
      <trkpt lat="48.4732" lon="-3.75124">
        <ele>215.47265625</ele>
        <time>2017-05-25T12:43:51Z</time>
      </trkpt>
      <trkpt lat="48.47321" lon="-3.75135">
        <ele>215.47265625</ele>
        <time>2017-05-25T12:43:58Z</time>
      </trkpt>
      <trkpt lat="48.47321" lon="-3.75143">
        <ele>215.47265625</ele>
        <time>2017-05-25T12:44:03Z</time>
      </trkpt>
      <trkpt lat="48.47322" lon="-3.75153">
        <ele>215.47265625</ele>
        <time>2017-05-25T12:44:09Z</time>
      </trkpt>
      <trkpt lat="48.47322" lon="-3.75165">
        <ele>217.39538574219</ele>
        <time>2017-05-25T12:44:17Z</time>
      </trkpt>
      <trkpt lat="48.4732" lon="-3.75173">
        <ele>216.43395996094</ele>
        <time>2017-05-25T12:44:22Z</time>
      </trkpt>
      <trkpt lat="48.47319" lon="-3.75186">
        <ele>214.99194335938</ele>
        <time>2017-05-25T12:44:30Z</time>
      </trkpt>
      <trkpt lat="48.47318" lon="-3.752">
        <ele>214.51123046875</ele>
        <time>2017-05-25T12:44:37Z</time>
      </trkpt>
      <trkpt lat="48.47318" lon="-3.75214">
        <ele>216.91467285156</ele>
        <time>2017-05-25T12:44:45Z</time>
      </trkpt>
      <trkpt lat="48.47318" lon="-3.75226">
        <ele>218.83728027344</ele>
        <time>2017-05-25T12:44:51Z</time>
      </trkpt>
      <trkpt lat="48.47317" lon="-3.75235">
        <ele>219.79858398438</ele>
        <time>2017-05-25T12:44:56Z</time>
      </trkpt>
      <trkpt lat="48.47318" lon="-3.75245">
        <ele>221.24060058594</ele>
        <time>2017-05-25T12:45:02Z</time>
      </trkpt>
      <trkpt lat="48.47318" lon="-3.75257">
        <ele>220.75988769531</ele>
        <time>2017-05-25T12:45:09Z</time>
      </trkpt>
      <trkpt lat="48.47318" lon="-3.7526">
        <ele>220.75988769531</ele>
        <time>2017-05-25T12:45:10Z</time>
      </trkpt>
      <trkpt lat="48.47318" lon="-3.75264">
        <ele>221.24060058594</ele>
        <time>2017-05-25T12:45:12Z</time>
      </trkpt>
      <trkpt lat="48.47318" lon="-3.75275">
        <ele>220.27917480469</ele>
        <time>2017-05-25T12:45:17Z</time>
      </trkpt>
      <trkpt lat="48.47319" lon="-3.75291">
        <ele>220.75988769531</ele>
        <time>2017-05-25T12:45:26Z</time>
      </trkpt>
      <trkpt lat="48.47321" lon="-3.75303">
        <ele>220.75988769531</ele>
        <time>2017-05-25T12:45:33Z</time>
      </trkpt>
      <trkpt lat="48.47322" lon="-3.75318">
        <ele>221.72119140625</ele>
        <time>2017-05-25T12:45:41Z</time>
      </trkpt>
      <trkpt lat="48.47324" lon="-3.75332">
        <ele>221.72119140625</ele>
        <time>2017-05-25T12:45:49Z</time>
      </trkpt>
      <trkpt lat="48.47326" lon="-3.75345">
        <ele>222.68249511719</ele>
        <time>2017-05-25T12:45:56Z</time>
      </trkpt>
      <trkpt lat="48.47325" lon="-3.7536">
        <ele>221.24060058594</ele>
        <time>2017-05-25T12:46:05Z</time>
      </trkpt>
      <trkpt lat="48.47323" lon="-3.75372">
        <ele>221.72119140625</ele>
        <time>2017-05-25T12:46:11Z</time>
      </trkpt>
      <trkpt lat="48.47323" lon="-3.75374">
        <ele>221.24060058594</ele>
        <time>2017-05-25T12:46:12Z</time>
      </trkpt>
      <trkpt lat="48.47321" lon="-3.75395">
        <ele>220.75988769531</ele>
        <time>2017-05-25T12:46:23Z</time>
      </trkpt>
      <trkpt lat="48.47321" lon="-3.75402">
        <ele>220.75988769531</ele>
        <time>2017-05-25T12:46:27Z</time>
      </trkpt>
      <trkpt lat="48.47319" lon="-3.75418">
        <ele>221.72119140625</ele>
        <time>2017-05-25T12:46:35Z</time>
      </trkpt>
      <trkpt lat="48.47317" lon="-3.75434">
        <ele>222.20178222656</ele>
        <time>2017-05-25T12:46:43Z</time>
      </trkpt>
      <trkpt lat="48.47317" lon="-3.7545">
        <ele>223.16320800781</ele>
        <time>2017-05-25T12:46:51Z</time>
      </trkpt>
      <trkpt lat="48.47317" lon="-3.75466">
        <ele>222.68249511719</ele>
        <time>2017-05-25T12:46:59Z</time>
      </trkpt>
      <trkpt lat="48.47318" lon="-3.75485">
        <ele>223.64379882812</ele>
        <time>2017-05-25T12:47:08Z</time>
      </trkpt>
      <trkpt lat="48.4732" lon="-3.755">
        <ele>223.16320800781</ele>
        <time>2017-05-25T12:47:16Z</time>
      </trkpt>
      <trkpt lat="48.47322" lon="-3.75521">
        <ele>224.12451171875</ele>
        <time>2017-05-25T12:47:26Z</time>
      </trkpt>
      <trkpt lat="48.47324" lon="-3.75536">
        <ele>223.64379882812</ele>
        <time>2017-05-25T12:47:33Z</time>
      </trkpt>
      <trkpt lat="48.47326" lon="-3.75559">
        <ele>224.60522460938</ele>
        <time>2017-05-25T12:47:44Z</time>
      </trkpt>
      <trkpt lat="48.47326" lon="-3.75563">
        <ele>224.60522460938</ele>
        <time>2017-05-25T12:47:46Z</time>
      </trkpt>
      <trkpt lat="48.47326" lon="-3.7558">
        <ele>224.12451171875</ele>
        <time>2017-05-25T12:47:54Z</time>
      </trkpt>
      <trkpt lat="48.47326" lon="-3.75599">
        <ele>223.64379882812</ele>
        <time>2017-05-25T12:48:03Z</time>
      </trkpt>
      <trkpt lat="48.47325" lon="-3.75617">
        <ele>223.16320800781</ele>
        <time>2017-05-25T12:48:12Z</time>
      </trkpt>
      <trkpt lat="48.47324" lon="-3.75628">
        <ele>222.68249511719</ele>
        <time>2017-05-25T12:48:18Z</time>
      </trkpt>
      <trkpt lat="48.47323" lon="-3.75644">
        <ele>222.20178222656</ele>
        <time>2017-05-25T12:48:26Z</time>
      </trkpt>
      <trkpt lat="48.47324" lon="-3.75648">
        <ele>221.72119140625</ele>
        <time>2017-05-25T12:48:28Z</time>
      </trkpt>
      <trkpt lat="48.4732" lon="-3.75662">
        <ele>220.75988769531</ele>
        <time>2017-05-25T12:48:36Z</time>
      </trkpt>
      <trkpt lat="48.47318" lon="-3.7567">
        <ele>220.75988769531</ele>
        <time>2017-05-25T12:48:40Z</time>
      </trkpt>
      <trkpt lat="48.47314" lon="-3.75677">
        <ele>221.72119140625</ele>
        <time>2017-05-25T12:48:45Z</time>
      </trkpt>
      <trkpt lat="48.47311" lon="-3.75687">
        <ele>222.20178222656</ele>
        <time>2017-05-25T12:48:51Z</time>
      </trkpt>
      <trkpt lat="48.47308" lon="-3.75699">
        <ele>222.68249511719</ele>
        <time>2017-05-25T12:48:58Z</time>
      </trkpt>
      <trkpt lat="48.47305" lon="-3.75712">
        <ele>223.16320800781</ele>
        <time>2017-05-25T12:49:05Z</time>
      </trkpt>
      <trkpt lat="48.47304" lon="-3.7572">
        <ele>222.20178222656</ele>
        <time>2017-05-25T12:49:10Z</time>
      </trkpt>
      <trkpt lat="48.47301" lon="-3.75733">
        <ele>223.64379882812</ele>
        <time>2017-05-25T12:49:17Z</time>
      </trkpt>
      <trkpt lat="48.47298" lon="-3.75747">
        <ele>226.04711914062</ele>
        <time>2017-05-25T12:49:24Z</time>
      </trkpt>
      <trkpt lat="48.47295" lon="-3.75758">
        <ele>227.9697265625</ele>
        <time>2017-05-25T12:49:30Z</time>
      </trkpt>
      <trkpt lat="48.47293" lon="-3.75769">
        <ele>229.41174316406</ele>
        <time>2017-05-25T12:49:36Z</time>
      </trkpt>
      <trkpt lat="48.47289" lon="-3.7578">
        <ele>230.85375976562</ele>
        <time>2017-05-25T12:49:41Z</time>
      </trkpt>
      <trkpt lat="48.47283" lon="-3.7579">
        <ele>229.89233398438</ele>
        <time>2017-05-25T12:49:46Z</time>
      </trkpt>
      <trkpt lat="48.47281" lon="-3.75794">
        <ele>228.93115234375</ele>
        <time>2017-05-25T12:49:48Z</time>
      </trkpt>
      <trkpt lat="48.47276" lon="-3.75807">
        <ele>227.00854492188</ele>
        <time>2017-05-25T12:49:55Z</time>
      </trkpt>
      <trkpt lat="48.47275" lon="-3.75812">
        <ele>226.52783203125</ele>
        <time>2017-05-25T12:49:58Z</time>
      </trkpt>
      <trkpt lat="48.47275" lon="-3.75814">
        <ele>225.56652832031</ele>
        <time>2017-05-25T12:50:00Z</time>
      </trkpt>
      <trkpt lat="48.47271" lon="-3.75819">
        <ele>226.04711914062</ele>
        <time>2017-05-25T12:50:04Z</time>
      </trkpt>
      <trkpt lat="48.4727" lon="-3.75821">
        <ele>226.04711914062</ele>
        <time>2017-05-25T12:50:05Z</time>
      </trkpt>
      <trkpt lat="48.47267" lon="-3.75832">
        <ele>225.56652832031</ele>
        <time>2017-05-25T12:50:10Z</time>
      </trkpt>
      <trkpt lat="48.47265" lon="-3.75841">
        <ele>225.0859375</ele>
        <time>2017-05-25T12:50:15Z</time>
      </trkpt>
      <trkpt lat="48.47264" lon="-3.75848">
        <ele>225.56652832031</ele>
        <time>2017-05-25T12:50:19Z</time>
      </trkpt>
      <trkpt lat="48.47263" lon="-3.75857">
        <ele>225.0859375</ele>
        <time>2017-05-25T12:50:24Z</time>
      </trkpt>
      <trkpt lat="48.4726" lon="-3.75876">
        <ele>225.56652832031</ele>
        <time>2017-05-25T12:50:33Z</time>
      </trkpt>
      <trkpt lat="48.47258" lon="-3.75885">
        <ele>225.0859375</ele>
        <time>2017-05-25T12:50:38Z</time>
      </trkpt>
      <trkpt lat="48.47258" lon="-3.75899">
        <ele>225.0859375</ele>
        <time>2017-05-25T12:50:46Z</time>
      </trkpt>
      <trkpt lat="48.47258" lon="-3.75913">
        <ele>225.56652832031</ele>
        <time>2017-05-25T12:50:53Z</time>
      </trkpt>
      <trkpt lat="48.47258" lon="-3.75925">
        <ele>227.48913574219</ele>
        <time>2017-05-25T12:50:59Z</time>
      </trkpt>
      <trkpt lat="48.47258" lon="-3.75927">
        <ele>227.48913574219</ele>
        <time>2017-05-25T12:51:00Z</time>
      </trkpt>
      <trkpt lat="48.47261" lon="-3.7594">
        <ele>227.00854492188</ele>
        <time>2017-05-25T12:51:07Z</time>
      </trkpt>
      <trkpt lat="48.47262" lon="-3.75944">
        <ele>227.00854492188</ele>
        <time>2017-05-25T12:51:09Z</time>
      </trkpt>
      <trkpt lat="48.47264" lon="-3.75952">
        <ele>227.9697265625</ele>
        <time>2017-05-25T12:51:14Z</time>
      </trkpt>
      <trkpt lat="48.47269" lon="-3.75966">
        <ele>227.9697265625</ele>
        <time>2017-05-25T12:51:22Z</time>
      </trkpt>
      <trkpt lat="48.47275" lon="-3.75977">
        <ele>228.45043945312</ele>
        <time>2017-05-25T12:51:29Z</time>
      </trkpt>
      <trkpt lat="48.47281" lon="-3.75985">
        <ele>228.93115234375</ele>
        <time>2017-05-25T12:51:34Z</time>
      </trkpt>
      <trkpt lat="48.47289" lon="-3.75996">
        <ele>229.89233398438</ele>
        <time>2017-05-25T12:51:42Z</time>
      </trkpt>
      <trkpt lat="48.47293" lon="-3.76003">
        <ele>229.89233398438</ele>
        <time>2017-05-25T12:51:47Z</time>
      </trkpt>
      <trkpt lat="48.473" lon="-3.76014">
        <ele>229.89233398438</ele>
        <time>2017-05-25T12:51:54Z</time>
      </trkpt>
      <trkpt lat="48.47307" lon="-3.76024">
        <ele>229.89233398438</ele>
        <time>2017-05-25T12:52:01Z</time>
      </trkpt>
      <trkpt lat="48.47314" lon="-3.76033">
        <ele>230.373046875</ele>
        <time>2017-05-25T12:52:08Z</time>
      </trkpt>
      <trkpt lat="48.47319" lon="-3.76042">
        <ele>230.373046875</ele>
        <time>2017-05-25T12:52:14Z</time>
      </trkpt>
      <trkpt lat="48.47325" lon="-3.76051">
        <ele>230.85375976562</ele>
        <time>2017-05-25T12:52:20Z</time>
      </trkpt>
      <trkpt lat="48.4733" lon="-3.7606">
        <ele>231.81494140625</ele>
        <time>2017-05-25T12:52:26Z</time>
      </trkpt>
      <trkpt lat="48.47332" lon="-3.76064">
        <ele>231.33435058594</ele>
        <time>2017-05-25T12:52:29Z</time>
      </trkpt>
      <trkpt lat="48.47339" lon="-3.76076">
        <ele>231.33435058594</ele>
        <time>2017-05-25T12:52:37Z</time>
      </trkpt>
      <trkpt lat="48.47345" lon="-3.76085">
        <ele>232.29577636719</ele>
        <time>2017-05-25T12:52:43Z</time>
      </trkpt>
      <trkpt lat="48.47351" lon="-3.76096">
        <ele>231.81494140625</ele>
        <time>2017-05-25T12:52:50Z</time>
      </trkpt>
      <trkpt lat="48.47355" lon="-3.76101">
        <ele>231.81494140625</ele>
        <time>2017-05-25T12:52:54Z</time>
      </trkpt>
      <trkpt lat="48.47361" lon="-3.76112">
        <ele>232.77648925781</ele>
        <time>2017-05-25T12:53:01Z</time>
      </trkpt>
      <trkpt lat="48.47367" lon="-3.76123">
        <ele>233.25708007812</ele>
        <time>2017-05-25T12:53:08Z</time>
      </trkpt>
      <trkpt lat="48.47372" lon="-3.76135">
        <ele>233.73767089844</ele>
        <time>2017-05-25T12:53:15Z</time>
      </trkpt>
      <trkpt lat="48.47377" lon="-3.76144">
        <ele>234.21838378906</ele>
        <time>2017-05-25T12:53:21Z</time>
      </trkpt>
      <trkpt lat="48.47382" lon="-3.76155">
        <ele>234.69909667969</ele>
        <time>2017-05-25T12:53:28Z</time>
      </trkpt>
      <trkpt lat="48.47387" lon="-3.76167">
        <ele>236.14099121094</ele>
        <time>2017-05-25T12:53:35Z</time>
      </trkpt>
      <trkpt lat="48.47392" lon="-3.7618">
        <ele>235.66027832031</ele>
        <time>2017-05-25T12:53:43Z</time>
      </trkpt>
      <trkpt lat="48.47394" lon="-3.76183">
        <ele>235.66027832031</ele>
        <time>2017-05-25T12:53:45Z</time>
      </trkpt>
      <trkpt lat="48.47397" lon="-3.76195">
        <ele>236.14099121094</ele>
        <time>2017-05-25T12:53:52Z</time>
      </trkpt>
      <trkpt lat="48.47401" lon="-3.76207">
        <ele>236.62170410156</ele>
        <time>2017-05-25T12:53:59Z</time>
      </trkpt>
      <trkpt lat="48.47403" lon="-3.76214">
        <ele>236.62170410156</ele>
        <time>2017-05-25T12:54:03Z</time>
      </trkpt>
      <trkpt lat="48.47405" lon="-3.76223">
        <ele>236.14099121094</ele>
        <time>2017-05-25T12:54:09Z</time>
      </trkpt>
      <trkpt lat="48.47407" lon="-3.76233">
        <ele>236.62170410156</ele>
        <time>2017-05-25T12:54:14Z</time>
      </trkpt>
      <trkpt lat="48.47408" lon="-3.76235">
        <ele>237.10229492188</ele>
        <time>2017-05-25T12:54:15Z</time>
      </trkpt>
      <trkpt lat="48.47411" lon="-3.76247">
        <ele>237.10229492188</ele>
        <time>2017-05-25T12:54:21Z</time>
      </trkpt>
      <trkpt lat="48.47416" lon="-3.76265">
        <ele>236.62170410156</ele>
        <time>2017-05-25T12:54:30Z</time>
      </trkpt>
      <trkpt lat="48.47417" lon="-3.76268">
        <ele>236.62170410156</ele>
        <time>2017-05-25T12:54:32Z</time>
      </trkpt>
      <trkpt lat="48.4742" lon="-3.76276">
        <ele>237.10229492188</ele>
        <time>2017-05-25T12:54:37Z</time>
      </trkpt>
      <trkpt lat="48.47422" lon="-3.76287">
        <ele>237.58288574219</ele>
        <time>2017-05-25T12:54:42Z</time>
      </trkpt>
      <trkpt lat="48.47423" lon="-3.76296">
        <ele>237.10229492188</ele>
        <time>2017-05-25T12:54:47Z</time>
      </trkpt>
      <trkpt lat="48.47425" lon="-3.76304">
        <ele>237.10229492188</ele>
        <time>2017-05-25T12:54:51Z</time>
      </trkpt>
      <trkpt lat="48.47429" lon="-3.76317">
        <ele>233.73767089844</ele>
        <time>2017-05-25T12:54:58Z</time>
      </trkpt>
      <trkpt lat="48.4743" lon="-3.76318">
        <ele>233.25708007812</ele>
        <time>2017-05-25T12:54:59Z</time>
      </trkpt>
      <trkpt lat="48.47432" lon="-3.7633">
        <ele>232.29577636719</ele>
        <time>2017-05-25T12:55:05Z</time>
      </trkpt>
      <trkpt lat="48.47433" lon="-3.76341">
        <ele>230.373046875</ele>
        <time>2017-05-25T12:55:10Z</time>
      </trkpt>
      <trkpt lat="48.47433" lon="-3.76345">
        <ele>230.373046875</ele>
        <time>2017-05-25T12:55:12Z</time>
      </trkpt>
      <trkpt lat="48.47434" lon="-3.76352">
        <ele>229.89233398438</ele>
        <time>2017-05-25T12:55:16Z</time>
      </trkpt>
      <trkpt lat="48.47437" lon="-3.76366">
        <ele>228.93115234375</ele>
        <time>2017-05-25T12:55:22Z</time>
      </trkpt>
      <trkpt lat="48.47437" lon="-3.76376">
        <ele>228.45043945312</ele>
        <time>2017-05-25T12:55:27Z</time>
      </trkpt>
      <trkpt lat="48.47437" lon="-3.76378">
        <ele>227.9697265625</ele>
        <time>2017-05-25T12:55:28Z</time>
      </trkpt>
      <trkpt lat="48.47439" lon="-3.76389">
        <ele>224.60522460938</ele>
        <time>2017-05-25T12:55:35Z</time>
      </trkpt>
      <trkpt lat="48.47438" lon="-3.76394">
        <ele>223.16320800781</ele>
        <time>2017-05-25T12:55:38Z</time>
      </trkpt>
      <trkpt lat="48.47436" lon="-3.76407">
        <ele>226.52783203125</ele>
        <time>2017-05-25T12:55:45Z</time>
      </trkpt>
      <trkpt lat="48.47435" lon="-3.76413">
        <ele>227.48913574219</ele>
        <time>2017-05-25T12:55:48Z</time>
      </trkpt>
      <trkpt lat="48.47433" lon="-3.76426">
        <ele>228.45043945312</ele>
        <time>2017-05-25T12:55:54Z</time>
      </trkpt>
      <trkpt lat="48.47432" lon="-3.76433">
        <ele>227.48913574219</ele>
        <time>2017-05-25T12:55:58Z</time>
      </trkpt>
      <trkpt lat="48.47432" lon="-3.76444">
        <ele>226.52783203125</ele>
        <time>2017-05-25T12:56:03Z</time>
      </trkpt>
      <trkpt lat="48.47431" lon="-3.76451">
        <ele>225.56652832031</ele>
        <time>2017-05-25T12:56:07Z</time>
      </trkpt>
      <trkpt lat="48.47428" lon="-3.76468">
        <ele>230.85375976562</ele>
        <time>2017-05-25T12:56:14Z</time>
      </trkpt>
      <trkpt lat="48.47427" lon="-3.76481">
        <ele>234.21838378906</ele>
        <time>2017-05-25T12:56:19Z</time>
      </trkpt>
      <trkpt lat="48.47427" lon="-3.76493">
        <ele>232.29577636719</ele>
        <time>2017-05-25T12:56:26Z</time>
      </trkpt>
      <trkpt lat="48.47427" lon="-3.76497">
        <ele>230.85375976562</ele>
        <time>2017-05-25T12:56:28Z</time>
      </trkpt>
      <trkpt lat="48.47427" lon="-3.76501">
        <ele>230.373046875</ele>
        <time>2017-05-25T12:56:30Z</time>
      </trkpt>
      <trkpt lat="48.47428" lon="-3.76512">
        <ele>231.33435058594</ele>
        <time>2017-05-25T12:56:36Z</time>
      </trkpt>
      <trkpt lat="48.47428" lon="-3.76515">
        <ele>231.81494140625</ele>
        <time>2017-05-25T12:56:37Z</time>
      </trkpt>
      <trkpt lat="48.47429" lon="-3.76528">
        <ele>230.85375976562</ele>
        <time>2017-05-25T12:56:43Z</time>
      </trkpt>
      <trkpt lat="48.47431" lon="-3.76546">
        <ele>229.89233398438</ele>
        <time>2017-05-25T12:56:52Z</time>
      </trkpt>
      <trkpt lat="48.47431" lon="-3.76562">
        <ele>227.9697265625</ele>
        <time>2017-05-25T12:57:01Z</time>
      </trkpt>
      <trkpt lat="48.47431" lon="-3.76567">
        <ele>227.00854492188</ele>
        <time>2017-05-25T12:57:04Z</time>
      </trkpt>
      <trkpt lat="48.47429" lon="-3.76579">
        <ele>225.56652832031</ele>
        <time>2017-05-25T12:57:11Z</time>
      </trkpt>
      <trkpt lat="48.47427" lon="-3.7659">
        <ele>224.12451171875</ele>
        <time>2017-05-25T12:57:17Z</time>
      </trkpt>
      <trkpt lat="48.47428" lon="-3.76596">
        <ele>223.16320800781</ele>
        <time>2017-05-25T12:57:20Z</time>
      </trkpt>
      <trkpt lat="48.47429" lon="-3.76608">
        <ele>221.72119140625</ele>
        <time>2017-05-25T12:57:26Z</time>
      </trkpt>
      <trkpt lat="48.4743" lon="-3.7662">
        <ele>220.27917480469</ele>
        <time>2017-05-25T12:57:32Z</time>
      </trkpt>
      <trkpt lat="48.47434" lon="-3.76629">
        <ele>217.39538574219</ele>
        <time>2017-05-25T12:57:38Z</time>
      </trkpt>
      <trkpt lat="48.47437" lon="-3.76635">
        <ele>215.47265625</ele>
        <time>2017-05-25T12:57:42Z</time>
      </trkpt>
      <trkpt lat="48.47437" lon="-3.76638">
        <ele>214.03063964844</ele>
        <time>2017-05-25T12:57:44Z</time>
      </trkpt>
      <trkpt lat="48.47437" lon="-3.76642">
        <ele>213.0693359375</ele>
        <time>2017-05-25T12:57:47Z</time>
      </trkpt>
      <trkpt lat="48.4744" lon="-3.76654">
        <ele>211.62744140625</ele>
        <time>2017-05-25T12:57:53Z</time>
      </trkpt>
      <trkpt lat="48.47439" lon="-3.76666">
        <ele>210.18542480469</ele>
        <time>2017-05-25T12:57:59Z</time>
      </trkpt>
      <trkpt lat="48.47439" lon="-3.76672">
        <ele>210.666015625</ele>
        <time>2017-05-25T12:58:02Z</time>
      </trkpt>
      <trkpt lat="48.4744" lon="-3.76682">
        <ele>213.55004882812</ele>
        <time>2017-05-25T12:58:06Z</time>
      </trkpt>
      <trkpt lat="48.47442" lon="-3.76692">
        <ele>215.47265625</ele>
        <time>2017-05-25T12:58:12Z</time>
      </trkpt>
      <trkpt lat="48.47441" lon="-3.76698">
        <ele>214.99194335938</ele>
        <time>2017-05-25T12:58:16Z</time>
      </trkpt>
      <trkpt lat="48.47437" lon="-3.76703">
        <ele>213.55004882812</ele>
        <time>2017-05-25T12:58:21Z</time>
      </trkpt>
      <trkpt lat="48.4743" lon="-3.76704">
        <ele>212.10803222656</ele>
        <time>2017-05-25T12:58:26Z</time>
      </trkpt>
      <trkpt lat="48.47428" lon="-3.76705">
        <ele>212.10803222656</ele>
        <time>2017-05-25T12:58:28Z</time>
      </trkpt>
      <trkpt lat="48.47424" lon="-3.76707">
        <ele>210.18542480469</ele>
        <time>2017-05-25T12:58:32Z</time>
      </trkpt>
      <trkpt lat="48.47419" lon="-3.7671">
        <ele>208.26281738281</ele>
        <time>2017-05-25T12:58:36Z</time>
      </trkpt>
      <trkpt lat="48.47409" lon="-3.76713">
        <ele>207.30139160156</ele>
        <time>2017-05-25T12:58:42Z</time>
      </trkpt>
      <trkpt lat="48.47407" lon="-3.7672">
        <ele>208.26281738281</ele>
        <time>2017-05-25T12:58:46Z</time>
      </trkpt>
      <trkpt lat="48.47405" lon="-3.76722">
        <ele>208.74340820312</ele>
        <time>2017-05-25T12:58:48Z</time>
      </trkpt>
      <trkpt lat="48.47399" lon="-3.76728">
        <ele>208.74340820312</ele>
        <time>2017-05-25T12:58:53Z</time>
      </trkpt>
      <trkpt lat="48.47396" lon="-3.76737">
        <ele>206.82067871094</ele>
        <time>2017-05-25T12:58:59Z</time>
      </trkpt>
      <trkpt lat="48.47394" lon="-3.76742">
        <ele>207.30139160156</ele>
        <time>2017-05-25T12:59:02Z</time>
      </trkpt>
      <trkpt lat="48.47391" lon="-3.76755">
        <ele>209.22412109375</ele>
        <time>2017-05-25T12:59:09Z</time>
      </trkpt>
      <trkpt lat="48.47389" lon="-3.76762">
        <ele>210.666015625</ele>
        <time>2017-05-25T12:59:12Z</time>
      </trkpt>
      <trkpt lat="48.47388" lon="-3.76767">
        <ele>211.14672851562</ele>
        <time>2017-05-25T12:59:15Z</time>
      </trkpt>
      <trkpt lat="48.47388" lon="-3.76774">
        <ele>210.666015625</ele>
        <time>2017-05-25T12:59:19Z</time>
      </trkpt>
      <trkpt lat="48.47388" lon="-3.76777">
        <ele>210.666015625</ele>
        <time>2017-05-25T12:59:21Z</time>
      </trkpt>
      <trkpt lat="48.47389" lon="-3.76779">
        <ele>210.18542480469</ele>
        <time>2017-05-25T12:59:23Z</time>
      </trkpt>
      <trkpt lat="48.47392" lon="-3.76786">
        <ele>210.666015625</ele>
        <time>2017-05-25T12:59:27Z</time>
      </trkpt>
      <trkpt lat="48.47392" lon="-3.76791">
        <ele>210.666015625</ele>
        <time>2017-05-25T12:59:30Z</time>
      </trkpt>
      <trkpt lat="48.47392" lon="-3.76802">
        <ele>211.14672851562</ele>
        <time>2017-05-25T12:59:36Z</time>
      </trkpt>
      <trkpt lat="48.47392" lon="-3.76811">
        <ele>212.10803222656</ele>
        <time>2017-05-25T12:59:42Z</time>
      </trkpt>
      <trkpt lat="48.47393" lon="-3.76815">
        <ele>212.10803222656</ele>
        <time>2017-05-25T12:59:45Z</time>
      </trkpt>
      <trkpt lat="48.47398" lon="-3.76817">
        <ele>212.10803222656</ele>
        <time>2017-05-25T12:59:50Z</time>
      </trkpt>
      <trkpt lat="48.47406" lon="-3.76817">
        <ele>212.10803222656</ele>
        <time>2017-05-25T12:59:58Z</time>
      </trkpt>
      <trkpt lat="48.47411" lon="-3.76814">
        <ele>210.666015625</ele>
        <time>2017-05-25T13:00:03Z</time>
      </trkpt>
      <trkpt lat="48.4742" lon="-3.76811">
        <ele>209.70483398438</ele>
        <time>2017-05-25T13:00:10Z</time>
      </trkpt>
      <trkpt lat="48.47426" lon="-3.76808">
        <ele>211.62744140625</ele>
        <time>2017-05-25T13:00:14Z</time>
      </trkpt>
      <trkpt lat="48.47432" lon="-3.76806">
        <ele>210.666015625</ele>
        <time>2017-05-25T13:00:18Z</time>
      </trkpt>
      <trkpt lat="48.47442" lon="-3.76804">
        <ele>211.62744140625</ele>
        <time>2017-05-25T13:00:25Z</time>
      </trkpt>
      <trkpt lat="48.47451" lon="-3.768">
        <ele>213.55004882812</ele>
        <time>2017-05-25T13:00:31Z</time>
      </trkpt>
      <trkpt lat="48.47456" lon="-3.76798">
        <ele>213.55004882812</ele>
        <time>2017-05-25T13:00:36Z</time>
      </trkpt>
      <trkpt lat="48.47464" lon="-3.76796">
        <ele>213.55004882812</ele>
        <time>2017-05-25T13:00:42Z</time>
      </trkpt>
      <trkpt lat="48.47473" lon="-3.76795">
        <ele>214.51123046875</ele>
        <time>2017-05-25T13:00:48Z</time>
      </trkpt>
      <trkpt lat="48.47479" lon="-3.76794">
        <ele>214.03063964844</ele>
        <time>2017-05-25T13:00:53Z</time>
      </trkpt>
      <trkpt lat="48.47483" lon="-3.76794">
        <ele>214.03063964844</ele>
        <time>2017-05-25T13:00:56Z</time>
      </trkpt>
      <trkpt lat="48.47487" lon="-3.76793">
        <ele>214.03063964844</ele>
        <time>2017-05-25T13:01:00Z</time>
      </trkpt>
      <trkpt lat="48.47495" lon="-3.76792">
        <ele>213.55004882812</ele>
        <time>2017-05-25T13:01:06Z</time>
      </trkpt>
      <trkpt lat="48.47496" lon="-3.76793">
        <ele>213.55004882812</ele>
        <time>2017-05-25T13:01:07Z</time>
      </trkpt>
      <trkpt lat="48.47503" lon="-3.76793">
        <ele>215.47265625</ele>
        <time>2017-05-25T13:01:12Z</time>
      </trkpt>
      <trkpt lat="48.47509" lon="-3.76794">
        <ele>215.95324707031</ele>
        <time>2017-05-25T13:01:16Z</time>
      </trkpt>
      <trkpt lat="48.47512" lon="-3.76794">
        <ele>214.99194335938</ele>
        <time>2017-05-25T13:01:18Z</time>
      </trkpt>
      <trkpt lat="48.47515" lon="-3.76791">
        <ele>213.0693359375</ele>
        <time>2017-05-25T13:01:23Z</time>
      </trkpt>
      <trkpt lat="48.47521" lon="-3.76788">
        <ele>212.58862304688</ele>
        <time>2017-05-25T13:01:28Z</time>
      </trkpt>
      <trkpt lat="48.47528" lon="-3.76786">
        <ele>211.62744140625</ele>
        <time>2017-05-25T13:01:35Z</time>
      </trkpt>
      <trkpt lat="48.47533" lon="-3.76784">
        <ele>211.14672851562</ele>
        <time>2017-05-25T13:01:39Z</time>
      </trkpt>
      <trkpt lat="48.4754" lon="-3.76781">
        <ele>209.22412109375</ele>
        <time>2017-05-25T13:01:43Z</time>
      </trkpt>
      <trkpt lat="48.47545" lon="-3.76779">
        <ele>209.22412109375</ele>
        <time>2017-05-25T13:01:47Z</time>
      </trkpt>
      <trkpt lat="48.47554" lon="-3.76774">
        <ele>209.22412109375</ele>
        <time>2017-05-25T13:01:54Z</time>
      </trkpt>
      <trkpt lat="48.47557" lon="-3.76773">
        <ele>208.74340820312</ele>
        <time>2017-05-25T13:01:56Z</time>
      </trkpt>
      <trkpt lat="48.47561" lon="-3.76768">
        <ele>208.26281738281</ele>
        <time>2017-05-25T13:02:03Z</time>
      </trkpt>
      <trkpt lat="48.47564" lon="-3.76766">
        <ele>207.78210449219</ele>
        <time>2017-05-25T13:02:05Z</time>
      </trkpt>
      <trkpt lat="48.47573" lon="-3.76762">
        <ele>207.30139160156</ele>
        <time>2017-05-25T13:02:12Z</time>
      </trkpt>
      <trkpt lat="48.4758" lon="-3.76759">
        <ele>208.74340820312</ele>
        <time>2017-05-25T13:02:16Z</time>
      </trkpt>
      <trkpt lat="48.47591" lon="-3.76755">
        <ele>208.74340820312</ele>
        <time>2017-05-25T13:02:23Z</time>
      </trkpt>
      <trkpt lat="48.47597" lon="-3.76751">
        <ele>209.22412109375</ele>
        <time>2017-05-25T13:02:29Z</time>
      </trkpt>
      <trkpt lat="48.47598" lon="-3.7675">
        <ele>209.22412109375</ele>
        <time>2017-05-25T13:02:30Z</time>
      </trkpt>
      <trkpt lat="48.47608" lon="-3.76747">
        <ele>210.666015625</ele>
        <time>2017-05-25T13:02:36Z</time>
      </trkpt>
      <trkpt lat="48.47613" lon="-3.76745">
        <ele>211.62744140625</ele>
        <time>2017-05-25T13:02:41Z</time>
      </trkpt>
      <trkpt lat="48.47621" lon="-3.76739">
        <ele>210.666015625</ele>
        <time>2017-05-25T13:02:48Z</time>
      </trkpt>
      <trkpt lat="48.47628" lon="-3.76736">
        <ele>208.26281738281</ele>
        <time>2017-05-25T13:02:54Z</time>
      </trkpt>
      <trkpt lat="48.4763" lon="-3.76736">
        <ele>209.70483398438</ele>
        <time>2017-05-25T13:02:56Z</time>
      </trkpt>
      <trkpt lat="48.47636" lon="-3.76737">
        <ele>210.666015625</ele>
        <time>2017-05-25T13:03:01Z</time>
      </trkpt>
      <trkpt lat="48.47645" lon="-3.7674">
        <ele>211.62744140625</ele>
        <time>2017-05-25T13:03:08Z</time>
      </trkpt>
      <trkpt lat="48.47652" lon="-3.76744">
        <ele>211.62744140625</ele>
        <time>2017-05-25T13:03:13Z</time>
      </trkpt>
      <trkpt lat="48.47656" lon="-3.76745">
        <ele>212.10803222656</ele>
        <time>2017-05-25T13:03:16Z</time>
      </trkpt>
      <trkpt lat="48.47665" lon="-3.76751">
        <ele>211.62744140625</ele>
        <time>2017-05-25T13:03:22Z</time>
      </trkpt>
      <trkpt lat="48.47669" lon="-3.76753">
        <ele>212.58862304688</ele>
        <time>2017-05-25T13:03:25Z</time>
      </trkpt>
      <trkpt lat="48.47672" lon="-3.76759">
        <ele>211.62744140625</ele>
        <time>2017-05-25T13:03:29Z</time>
      </trkpt>
      <trkpt lat="48.47677" lon="-3.7677">
        <ele>209.22412109375</ele>
        <time>2017-05-25T13:03:36Z</time>
      </trkpt>
      <trkpt lat="48.47677" lon="-3.76773">
        <ele>208.26281738281</ele>
        <time>2017-05-25T13:03:38Z</time>
      </trkpt>
      <trkpt lat="48.47681" lon="-3.76779">
        <ele>205.85949707031</ele>
        <time>2017-05-25T13:03:42Z</time>
      </trkpt>
      <trkpt lat="48.47685" lon="-3.76785">
        <ele>203.93688964844</ele>
        <time>2017-05-25T13:03:47Z</time>
      </trkpt>
      <trkpt lat="48.47688" lon="-3.76789">
        <ele>204.41748046875</ele>
        <time>2017-05-25T13:03:52Z</time>
      </trkpt>
      <trkpt lat="48.47689" lon="-3.76789">
        <ele>204.41748046875</ele>
        <time>2017-05-25T13:03:54Z</time>
      </trkpt>
      <trkpt lat="48.47696" lon="-3.76786">
        <ele>203.45617675781</ele>
        <time>2017-05-25T13:04:00Z</time>
      </trkpt>
      <trkpt lat="48.47697" lon="-3.76785">
        <ele>203.45617675781</ele>
        <time>2017-05-25T13:04:02Z</time>
      </trkpt>
      <trkpt lat="48.47708" lon="-3.7678">
        <ele>203.93688964844</ele>
        <time>2017-05-25T13:04:09Z</time>
      </trkpt>
      <trkpt lat="48.47715" lon="-3.76776">
        <ele>206.34008789062</ele>
        <time>2017-05-25T13:04:14Z</time>
      </trkpt>
      <trkpt lat="48.47722" lon="-3.76771">
        <ele>206.34008789062</ele>
        <time>2017-05-25T13:04:20Z</time>
      </trkpt>
      <trkpt lat="48.47727" lon="-3.76771">
        <ele>206.82067871094</ele>
        <time>2017-05-25T13:04:24Z</time>
      </trkpt>
      <trkpt lat="48.47732" lon="-3.76766">
        <ele>205.37878417969</ele>
        <time>2017-05-25T13:04:31Z</time>
      </trkpt>
      <trkpt lat="48.47742" lon="-3.76765">
        <ele>204.41748046875</ele>
        <time>2017-05-25T13:04:37Z</time>
      </trkpt>
      <trkpt lat="48.47746" lon="-3.76762">
        <ele>204.89807128906</ele>
        <time>2017-05-25T13:04:42Z</time>
      </trkpt>
      <trkpt lat="48.47747" lon="-3.76761">
        <ele>204.89807128906</ele>
        <time>2017-05-25T13:04:43Z</time>
      </trkpt>
      <trkpt lat="48.4775" lon="-3.7676">
        <ele>205.85949707031</ele>
        <time>2017-05-25T13:04:45Z</time>
      </trkpt>
      <trkpt lat="48.47756" lon="-3.76757">
        <ele>205.37878417969</ele>
        <time>2017-05-25T13:04:49Z</time>
      </trkpt>
      <trkpt lat="48.47764" lon="-3.76756">
        <ele>202.49487304688</ele>
        <time>2017-05-25T13:04:55Z</time>
      </trkpt>
      <trkpt lat="48.47772" lon="-3.76753">
        <ele>201.05285644531</ele>
        <time>2017-05-25T13:05:02Z</time>
      </trkpt>
      <trkpt lat="48.47775" lon="-3.76753">
        <ele>201.53356933594</ele>
        <time>2017-05-25T13:05:04Z</time>
      </trkpt>
      <trkpt lat="48.47783" lon="-3.76751">
        <ele>200.572265625</ele>
        <time>2017-05-25T13:05:09Z</time>
      </trkpt>
      <trkpt lat="48.47793" lon="-3.76748">
        <ele>200.572265625</ele>
        <time>2017-05-25T13:05:17Z</time>
      </trkpt>
      <trkpt lat="48.47795" lon="-3.76749">
        <ele>201.05285644531</ele>
        <time>2017-05-25T13:05:19Z</time>
      </trkpt>
      <trkpt lat="48.47797" lon="-3.76753">
        <ele>202.49487304688</ele>
        <time>2017-05-25T13:05:27Z</time>
      </trkpt>
      <trkpt lat="48.47799" lon="-3.76758">
        <ele>202.97546386719</ele>
        <time>2017-05-25T13:05:33Z</time>
      </trkpt>
      <trkpt lat="48.478" lon="-3.76763">
        <ele>204.41748046875</ele>
        <time>2017-05-25T13:05:37Z</time>
      </trkpt>
      <trkpt lat="48.47801" lon="-3.76771">
        <ele>205.85949707031</ele>
        <time>2017-05-25T13:05:43Z</time>
      </trkpt>
      <trkpt lat="48.47802" lon="-3.76776">
        <ele>207.30139160156</ele>
        <time>2017-05-25T13:05:47Z</time>
      </trkpt>
      <trkpt lat="48.478" lon="-3.76782">
        <ele>208.74340820312</ele>
        <time>2017-05-25T13:05:52Z</time>
      </trkpt>
      <trkpt lat="48.47801" lon="-3.76786">
        <ele>208.74340820312</ele>
        <time>2017-05-25T13:05:54Z</time>
      </trkpt>
      <trkpt lat="48.47803" lon="-3.76793">
        <ele>208.26281738281</ele>
        <time>2017-05-25T13:05:58Z</time>
      </trkpt>
      <trkpt lat="48.47806" lon="-3.76801">
        <ele>208.26281738281</ele>
        <time>2017-05-25T13:06:02Z</time>
      </trkpt>
      <trkpt lat="48.47813" lon="-3.76818">
        <ele>206.34008789062</ele>
        <time>2017-05-25T13:06:11Z</time>
      </trkpt>
      <trkpt lat="48.47815" lon="-3.7683">
        <ele>206.82067871094</ele>
        <time>2017-05-25T13:06:17Z</time>
      </trkpt>
      <trkpt lat="48.47817" lon="-3.76836">
        <ele>204.89807128906</ele>
        <time>2017-05-25T13:06:21Z</time>
      </trkpt>
      <trkpt lat="48.47818" lon="-3.7684">
        <ele>203.45617675781</ele>
        <time>2017-05-25T13:06:24Z</time>
      </trkpt>
      <trkpt lat="48.47817" lon="-3.76847">
        <ele>204.89807128906</ele>
        <time>2017-05-25T13:06:28Z</time>
      </trkpt>
      <trkpt lat="48.47817" lon="-3.7685">
        <ele>205.85949707031</ele>
        <time>2017-05-25T13:06:30Z</time>
      </trkpt>
      <trkpt lat="48.47817" lon="-3.76855">
        <ele>208.26281738281</ele>
        <time>2017-05-25T13:06:33Z</time>
      </trkpt>
      <trkpt lat="48.47819" lon="-3.76862">
        <ele>210.666015625</ele>
        <time>2017-05-25T13:06:39Z</time>
      </trkpt>
      <trkpt lat="48.47817" lon="-3.76869">
        <ele>211.14672851562</ele>
        <time>2017-05-25T13:06:45Z</time>
      </trkpt>
      <trkpt lat="48.47819" lon="-3.76876">
        <ele>205.85949707031</ele>
        <time>2017-05-25T13:06:50Z</time>
      </trkpt>
      <trkpt lat="48.47821" lon="-3.76878">
        <ele>204.41748046875</ele>
        <time>2017-05-25T13:06:52Z</time>
      </trkpt>
      <trkpt lat="48.47826" lon="-3.76891">
        <ele>201.53356933594</ele>
        <time>2017-05-25T13:07:00Z</time>
      </trkpt>
      <trkpt lat="48.47826" lon="-3.76892">
        <ele>201.05285644531</ele>
        <time>2017-05-25T13:07:01Z</time>
      </trkpt>
      <trkpt lat="48.4783" lon="-3.76905">
        <ele>199.61083984375</ele>
        <time>2017-05-25T13:07:07Z</time>
      </trkpt>
      <trkpt lat="48.47834" lon="-3.76919">
        <ele>201.05285644531</ele>
        <time>2017-05-25T13:07:15Z</time>
      </trkpt>
      <trkpt lat="48.47837" lon="-3.76933">
        <ele>202.01428222656</ele>
        <time>2017-05-25T13:07:22Z</time>
      </trkpt>
      <trkpt lat="48.47834" lon="-3.76944">
        <ele>204.89807128906</ele>
        <time>2017-05-25T13:07:28Z</time>
      </trkpt>
      <trkpt lat="48.47832" lon="-3.76947">
        <ele>205.85949707031</ele>
        <time>2017-05-25T13:07:30Z</time>
      </trkpt>
      <trkpt lat="48.47827" lon="-3.76954">
        <ele>206.82067871094</ele>
        <time>2017-05-25T13:07:35Z</time>
      </trkpt>
      <trkpt lat="48.47827" lon="-3.76956">
        <ele>206.82067871094</ele>
        <time>2017-05-25T13:07:36Z</time>
      </trkpt>
      <trkpt lat="48.47819" lon="-3.76963">
        <ele>206.82067871094</ele>
        <time>2017-05-25T13:07:44Z</time>
      </trkpt>
      <trkpt lat="48.47814" lon="-3.76966">
        <ele>205.85949707031</ele>
        <time>2017-05-25T13:07:49Z</time>
      </trkpt>
      <trkpt lat="48.47809" lon="-3.76968">
        <ele>204.89807128906</ele>
        <time>2017-05-25T13:07:52Z</time>
      </trkpt>
      <trkpt lat="48.47798" lon="-3.76975">
        <ele>204.89807128906</ele>
        <time>2017-05-25T13:08:01Z</time>
      </trkpt>
      <trkpt lat="48.47791" lon="-3.76978">
        <ele>203.93688964844</ele>
        <time>2017-05-25T13:08:07Z</time>
      </trkpt>
      <trkpt lat="48.47786" lon="-3.76982">
        <ele>203.93688964844</ele>
        <time>2017-05-25T13:08:12Z</time>
      </trkpt>
      <trkpt lat="48.4778" lon="-3.76986">
        <ele>205.85949707031</ele>
        <time>2017-05-25T13:08:18Z</time>
      </trkpt>
      <trkpt lat="48.47774" lon="-3.76989">
        <ele>207.30139160156</ele>
        <time>2017-05-25T13:08:23Z</time>
      </trkpt>
      <trkpt lat="48.47767" lon="-3.76993">
        <ele>208.74340820312</ele>
        <time>2017-05-25T13:08:29Z</time>
      </trkpt>
      <trkpt lat="48.47761" lon="-3.76998">
        <ele>210.666015625</ele>
        <time>2017-05-25T13:08:35Z</time>
      </trkpt>
      <trkpt lat="48.47753" lon="-3.77004">
        <ele>213.0693359375</ele>
        <time>2017-05-25T13:08:41Z</time>
      </trkpt>
      <trkpt lat="48.47747" lon="-3.7701">
        <ele>212.58862304688</ele>
        <time>2017-05-25T13:08:47Z</time>
      </trkpt>
      <trkpt lat="48.47739" lon="-3.77017">
        <ele>213.55004882812</ele>
        <time>2017-05-25T13:08:54Z</time>
      </trkpt>
      <trkpt lat="48.47732" lon="-3.77023">
        <ele>214.99194335938</ele>
        <time>2017-05-25T13:09:00Z</time>
      </trkpt>
      <trkpt lat="48.47729" lon="-3.77024">
        <ele>215.47265625</ele>
        <time>2017-05-25T13:09:02Z</time>
      </trkpt>
      <trkpt lat="48.47725" lon="-3.77029">
        <ele>216.43395996094</ele>
        <time>2017-05-25T13:09:06Z</time>
      </trkpt>
      <trkpt lat="48.47724" lon="-3.77035">
        <ele>216.43395996094</ele>
        <time>2017-05-25T13:09:09Z</time>
      </trkpt>
      <trkpt lat="48.47718" lon="-3.77045">
        <ele>215.95324707031</ele>
        <time>2017-05-25T13:09:16Z</time>
      </trkpt>
      <trkpt lat="48.47712" lon="-3.77056">
        <ele>216.91467285156</ele>
        <time>2017-05-25T13:09:23Z</time>
      </trkpt>
      <trkpt lat="48.47708" lon="-3.77069">
        <ele>216.91467285156</ele>
        <time>2017-05-25T13:09:30Z</time>
      </trkpt>
      <trkpt lat="48.47708" lon="-3.77073">
        <ele>216.91467285156</ele>
        <time>2017-05-25T13:09:32Z</time>
      </trkpt>
      <trkpt lat="48.47707" lon="-3.77078">
        <ele>216.43395996094</ele>
        <time>2017-05-25T13:09:35Z</time>
      </trkpt>
      <trkpt lat="48.47705" lon="-3.77088">
        <ele>215.95324707031</ele>
        <time>2017-05-25T13:09:41Z</time>
      </trkpt>
      <trkpt lat="48.47705" lon="-3.77093">
        <ele>215.95324707031</ele>
        <time>2017-05-25T13:09:43Z</time>
      </trkpt>
      <trkpt lat="48.47703" lon="-3.77099">
        <ele>215.47265625</ele>
        <time>2017-05-25T13:09:46Z</time>
      </trkpt>
      <trkpt lat="48.477" lon="-3.77105">
        <ele>212.58862304688</ele>
        <time>2017-05-25T13:09:50Z</time>
      </trkpt>
      <trkpt lat="48.47698" lon="-3.7711">
        <ele>210.18542480469</ele>
        <time>2017-05-25T13:09:53Z</time>
      </trkpt>
      <trkpt lat="48.47696" lon="-3.77118">
        <ele>209.22412109375</ele>
        <time>2017-05-25T13:09:58Z</time>
      </trkpt>
      <trkpt lat="48.47697" lon="-3.77129">
        <ele>208.26281738281</ele>
        <time>2017-05-25T13:10:03Z</time>
      </trkpt>
      <trkpt lat="48.47697" lon="-3.77139">
        <ele>209.22412109375</ele>
        <time>2017-05-25T13:10:08Z</time>
      </trkpt>
      <trkpt lat="48.47697" lon="-3.77144">
        <ele>209.70483398438</ele>
        <time>2017-05-25T13:10:10Z</time>
      </trkpt>
      <trkpt lat="48.47695" lon="-3.77158">
        <ele>210.18542480469</ele>
        <time>2017-05-25T13:10:17Z</time>
      </trkpt>
      <trkpt lat="48.47694" lon="-3.77173">
        <ele>211.62744140625</ele>
        <time>2017-05-25T13:10:24Z</time>
      </trkpt>
      <trkpt lat="48.47695" lon="-3.77186">
        <ele>211.14672851562</ele>
        <time>2017-05-25T13:10:30Z</time>
      </trkpt>
      <trkpt lat="48.47699" lon="-3.77201">
        <ele>210.666015625</ele>
        <time>2017-05-25T13:10:38Z</time>
      </trkpt>
      <trkpt lat="48.47704" lon="-3.77214">
        <ele>211.14672851562</ele>
        <time>2017-05-25T13:10:44Z</time>
      </trkpt>
      <trkpt lat="48.47705" lon="-3.77215">
        <ele>211.14672851562</ele>
        <time>2017-05-25T13:10:45Z</time>
      </trkpt>
      <trkpt lat="48.4771" lon="-3.77229">
        <ele>210.666015625</ele>
        <time>2017-05-25T13:10:51Z</time>
      </trkpt>
      <trkpt lat="48.47715" lon="-3.77245">
        <ele>210.18542480469</ele>
        <time>2017-05-25T13:10:58Z</time>
      </trkpt>
      <trkpt lat="48.47718" lon="-3.77252">
        <ele>208.26281738281</ele>
        <time>2017-05-25T13:11:02Z</time>
      </trkpt>
      <trkpt lat="48.47721" lon="-3.7726">
        <ele>207.30139160156</ele>
        <time>2017-05-25T13:11:08Z</time>
      </trkpt>
      <trkpt lat="48.47726" lon="-3.77274">
        <ele>206.82067871094</ele>
        <time>2017-05-25T13:11:15Z</time>
      </trkpt>
      <trkpt lat="48.4773" lon="-3.7728">
        <ele>206.34008789062</ele>
        <time>2017-05-25T13:11:19Z</time>
      </trkpt>
      <trkpt lat="48.47733" lon="-3.77292">
        <ele>205.85949707031</ele>
        <time>2017-05-25T13:11:26Z</time>
      </trkpt>
      <trkpt lat="48.47733" lon="-3.77294">
        <ele>205.85949707031</ele>
        <time>2017-05-25T13:11:27Z</time>
      </trkpt>
      <trkpt lat="48.47737" lon="-3.77305">
        <ele>206.34008789062</ele>
        <time>2017-05-25T13:11:33Z</time>
      </trkpt>
      <trkpt lat="48.47738" lon="-3.77309">
        <ele>206.82067871094</ele>
        <time>2017-05-25T13:11:35Z</time>
      </trkpt>
      <trkpt lat="48.4774" lon="-3.77317">
        <ele>207.78210449219</ele>
        <time>2017-05-25T13:11:39Z</time>
      </trkpt>
      <trkpt lat="48.47742" lon="-3.77326">
        <ele>209.22412109375</ele>
        <time>2017-05-25T13:11:44Z</time>
      </trkpt>
      <trkpt lat="48.47745" lon="-3.77334">
        <ele>209.70483398438</ele>
        <time>2017-05-25T13:11:49Z</time>
      </trkpt>
      <trkpt lat="48.47742" lon="-3.77352">
        <ele>211.62744140625</ele>
        <time>2017-05-25T13:11:58Z</time>
      </trkpt>
      <trkpt lat="48.4774" lon="-3.77358">
        <ele>212.58862304688</ele>
        <time>2017-05-25T13:12:01Z</time>
      </trkpt>
      <trkpt lat="48.47735" lon="-3.77373">
        <ele>214.99194335938</ele>
        <time>2017-05-25T13:12:09Z</time>
      </trkpt>
      <trkpt lat="48.47733" lon="-3.77377">
        <ele>215.95324707031</ele>
        <time>2017-05-25T13:12:12Z</time>
      </trkpt>
      <trkpt lat="48.47731" lon="-3.7739">
        <ele>215.95324707031</ele>
        <time>2017-05-25T13:12:19Z</time>
      </trkpt>
      <trkpt lat="48.47728" lon="-3.77396">
        <ele>215.47265625</ele>
        <time>2017-05-25T13:12:23Z</time>
      </trkpt>
      <trkpt lat="48.4772" lon="-3.77404">
        <ele>214.03063964844</ele>
        <time>2017-05-25T13:12:30Z</time>
      </trkpt>
      <trkpt lat="48.47713" lon="-3.7741">
        <ele>213.0693359375</ele>
        <time>2017-05-25T13:12:37Z</time>
      </trkpt>
      <trkpt lat="48.47711" lon="-3.77412">
        <ele>214.03063964844</ele>
        <time>2017-05-25T13:12:39Z</time>
      </trkpt>
      <trkpt lat="48.47705" lon="-3.77417">
        <ele>213.0693359375</ele>
        <time>2017-05-25T13:12:45Z</time>
      </trkpt>
      <trkpt lat="48.47701" lon="-3.7742">
        <ele>214.51123046875</ele>
        <time>2017-05-25T13:12:48Z</time>
      </trkpt>
      <trkpt lat="48.477" lon="-3.77423">
        <ele>215.47265625</ele>
        <time>2017-05-25T13:12:50Z</time>
      </trkpt>
      <trkpt lat="48.47696" lon="-3.7743">
        <ele>215.95324707031</ele>
        <time>2017-05-25T13:12:55Z</time>
      </trkpt>
      <trkpt lat="48.47693" lon="-3.77433">
        <ele>215.95324707031</ele>
        <time>2017-05-25T13:12:59Z</time>
      </trkpt>
      <trkpt lat="48.47689" lon="-3.77437">
        <ele>215.95324707031</ele>
        <time>2017-05-25T13:13:03Z</time>
      </trkpt>
      <trkpt lat="48.47688" lon="-3.77438">
        <ele>215.95324707031</ele>
        <time>2017-05-25T13:13:05Z</time>
      </trkpt>
      <trkpt lat="48.47682" lon="-3.77447">
        <ele>219.79858398438</ele>
        <time>2017-05-25T13:13:11Z</time>
      </trkpt>
      <trkpt lat="48.47676" lon="-3.77451">
        <ele>220.27917480469</ele>
        <time>2017-05-25T13:13:16Z</time>
      </trkpt>
      <trkpt lat="48.47672" lon="-3.77457">
        <ele>220.75988769531</ele>
        <time>2017-05-25T13:13:21Z</time>
      </trkpt>
      <trkpt lat="48.47667" lon="-3.77463">
        <ele>221.24060058594</ele>
        <time>2017-05-25T13:13:26Z</time>
      </trkpt>
      <trkpt lat="48.47662" lon="-3.77467">
        <ele>221.72119140625</ele>
        <time>2017-05-25T13:13:30Z</time>
      </trkpt>
      <trkpt lat="48.47656" lon="-3.7747">
        <ele>221.72119140625</ele>
        <time>2017-05-25T13:13:34Z</time>
      </trkpt>
      <trkpt lat="48.47651" lon="-3.77474">
        <ele>222.68249511719</ele>
        <time>2017-05-25T13:13:38Z</time>
      </trkpt>
      <trkpt lat="48.47644" lon="-3.7748">
        <ele>222.20178222656</ele>
        <time>2017-05-25T13:13:44Z</time>
      </trkpt>
      <trkpt lat="48.47638" lon="-3.77484">
        <ele>222.20178222656</ele>
        <time>2017-05-25T13:13:48Z</time>
      </trkpt>
      <trkpt lat="48.47635" lon="-3.77491">
        <ele>222.20178222656</ele>
        <time>2017-05-25T13:13:52Z</time>
      </trkpt>
      <trkpt lat="48.47632" lon="-3.77493">
        <ele>221.72119140625</ele>
        <time>2017-05-25T13:13:54Z</time>
      </trkpt>
      <trkpt lat="48.47625" lon="-3.77498">
        <ele>220.75988769531</ele>
        <time>2017-05-25T13:13:59Z</time>
      </trkpt>
      <trkpt lat="48.4762" lon="-3.77509">
        <ele>220.27917480469</ele>
        <time>2017-05-25T13:14:05Z</time>
      </trkpt>
      <trkpt lat="48.47615" lon="-3.77516">
        <ele>220.27917480469</ele>
        <time>2017-05-25T13:14:10Z</time>
      </trkpt>
      <trkpt lat="48.47612" lon="-3.77523">
        <ele>219.79858398438</ele>
        <time>2017-05-25T13:14:14Z</time>
      </trkpt>
      <trkpt lat="48.47605" lon="-3.77538">
        <ele>220.27917480469</ele>
        <time>2017-05-25T13:14:22Z</time>
      </trkpt>
      <trkpt lat="48.47604" lon="-3.77541">
        <ele>220.75988769531</ele>
        <time>2017-05-25T13:14:24Z</time>
      </trkpt>
      <trkpt lat="48.47598" lon="-3.77554">
        <ele>221.72119140625</ele>
        <time>2017-05-25T13:14:31Z</time>
      </trkpt>
      <trkpt lat="48.47597" lon="-3.77556">
        <ele>222.20178222656</ele>
        <time>2017-05-25T13:14:32Z</time>
      </trkpt>
      <trkpt lat="48.47591" lon="-3.77568">
        <ele>222.68249511719</ele>
        <time>2017-05-25T13:14:39Z</time>
      </trkpt>
      <trkpt lat="48.47587" lon="-3.77581">
        <ele>224.60522460938</ele>
        <time>2017-05-25T13:14:47Z</time>
      </trkpt>
      <trkpt lat="48.47582" lon="-3.77593">
        <ele>225.56652832031</ele>
        <time>2017-05-25T13:14:54Z</time>
      </trkpt>
      <trkpt lat="48.47578" lon="-3.77598">
        <ele>226.52783203125</ele>
        <time>2017-05-25T13:14:58Z</time>
      </trkpt>
      <trkpt lat="48.47571" lon="-3.77609">
        <ele>228.45043945312</ele>
        <time>2017-05-25T13:15:04Z</time>
      </trkpt>
      <trkpt lat="48.47569" lon="-3.77613">
        <ele>228.45043945312</ele>
        <time>2017-05-25T13:15:07Z</time>
      </trkpt>
      <trkpt lat="48.47564" lon="-3.77621">
        <ele>228.45043945312</ele>
        <time>2017-05-25T13:15:12Z</time>
      </trkpt>
      <trkpt lat="48.4756" lon="-3.77627">
        <ele>228.45043945312</ele>
        <time>2017-05-25T13:15:17Z</time>
      </trkpt>
      <trkpt lat="48.47554" lon="-3.77636">
        <ele>228.45043945312</ele>
        <time>2017-05-25T13:15:23Z</time>
      </trkpt>
      <trkpt lat="48.47548" lon="-3.77644">
        <ele>228.45043945312</ele>
        <time>2017-05-25T13:15:29Z</time>
      </trkpt>
      <trkpt lat="48.47542" lon="-3.77651">
        <ele>227.9697265625</ele>
        <time>2017-05-25T13:15:35Z</time>
      </trkpt>
      <trkpt lat="48.47541" lon="-3.77653">
        <ele>227.9697265625</ele>
        <time>2017-05-25T13:15:36Z</time>
      </trkpt>
      <trkpt lat="48.47534" lon="-3.7766">
        <ele>227.9697265625</ele>
        <time>2017-05-25T13:15:42Z</time>
      </trkpt>
      <trkpt lat="48.47527" lon="-3.77669">
        <ele>227.9697265625</ele>
        <time>2017-05-25T13:15:49Z</time>
      </trkpt>
      <trkpt lat="48.47522" lon="-3.77675">
        <ele>227.48913574219</ele>
        <time>2017-05-25T13:15:54Z</time>
      </trkpt>
      <trkpt lat="48.47514" lon="-3.77682">
        <ele>227.9697265625</ele>
        <time>2017-05-25T13:16:01Z</time>
      </trkpt>
      <trkpt lat="48.47509" lon="-3.77687">
        <ele>227.9697265625</ele>
        <time>2017-05-25T13:16:06Z</time>
      </trkpt>
      <trkpt lat="48.47506" lon="-3.77688">
        <ele>227.9697265625</ele>
        <time>2017-05-25T13:16:08Z</time>
      </trkpt>
      <trkpt lat="48.47503" lon="-3.77691">
        <ele>228.45043945312</ele>
        <time>2017-05-25T13:16:11Z</time>
      </trkpt>
      <trkpt lat="48.47497" lon="-3.77697">
        <ele>227.9697265625</ele>
        <time>2017-05-25T13:16:17Z</time>
      </trkpt>
      <trkpt lat="48.47493" lon="-3.77705">
        <ele>227.9697265625</ele>
        <time>2017-05-25T13:16:23Z</time>
      </trkpt>
      <trkpt lat="48.47487" lon="-3.77708">
        <ele>227.48913574219</ele>
        <time>2017-05-25T13:16:27Z</time>
      </trkpt>
      <trkpt lat="48.47485" lon="-3.77709">
        <ele>227.48913574219</ele>
        <time>2017-05-25T13:16:28Z</time>
      </trkpt>
      <trkpt lat="48.47476" lon="-3.77716">
        <ele>227.00854492188</ele>
        <time>2017-05-25T13:16:35Z</time>
      </trkpt>
      <trkpt lat="48.47469" lon="-3.77721">
        <ele>227.00854492188</ele>
        <time>2017-05-25T13:16:41Z</time>
      </trkpt>
      <trkpt lat="48.4746" lon="-3.77727">
        <ele>228.45043945312</ele>
        <time>2017-05-25T13:16:48Z</time>
      </trkpt>
      <trkpt lat="48.47453" lon="-3.77732">
        <ele>229.89233398438</ele>
        <time>2017-05-25T13:16:54Z</time>
      </trkpt>
      <trkpt lat="48.4745" lon="-3.77736">
        <ele>229.89233398438</ele>
        <time>2017-05-25T13:16:57Z</time>
      </trkpt>
      <trkpt lat="48.47441" lon="-3.77742">
        <ele>231.33435058594</ele>
        <time>2017-05-25T13:17:05Z</time>
      </trkpt>
      <trkpt lat="48.47439" lon="-3.77743">
        <ele>231.81494140625</ele>
        <time>2017-05-25T13:17:06Z</time>
      </trkpt>
      <trkpt lat="48.47433" lon="-3.77747">
        <ele>231.81494140625</ele>
        <time>2017-05-25T13:17:11Z</time>
      </trkpt>
      <trkpt lat="48.47428" lon="-3.77749">
        <ele>232.29577636719</ele>
        <time>2017-05-25T13:17:14Z</time>
      </trkpt>
      <trkpt lat="48.47428" lon="-3.7775">
        <ele>232.29577636719</ele>
        <time>2017-05-25T13:17:15Z</time>
      </trkpt>
      <trkpt lat="48.47419" lon="-3.77755">
        <ele>233.25708007812</ele>
        <time>2017-05-25T13:17:21Z</time>
      </trkpt>
      <trkpt lat="48.47412" lon="-3.77762">
        <ele>233.73767089844</ele>
        <time>2017-05-25T13:17:28Z</time>
      </trkpt>
      <trkpt lat="48.47406" lon="-3.77764">
        <ele>234.21838378906</ele>
        <time>2017-05-25T13:17:32Z</time>
      </trkpt>
      <trkpt lat="48.47403" lon="-3.77771">
        <ele>233.73767089844</ele>
        <time>2017-05-25T13:17:36Z</time>
      </trkpt>
      <trkpt lat="48.47402" lon="-3.77777">
        <ele>233.73767089844</ele>
        <time>2017-05-25T13:17:39Z</time>
      </trkpt>
      <trkpt lat="48.47403" lon="-3.77787">
        <ele>232.77648925781</ele>
        <time>2017-05-25T13:17:44Z</time>
      </trkpt>
      <trkpt lat="48.47411" lon="-3.77799">
        <ele>233.25708007812</ele>
        <time>2017-05-25T13:17:53Z</time>
      </trkpt>
      <trkpt lat="48.4742" lon="-3.77807">
        <ele>232.77648925781</ele>
        <time>2017-05-25T13:18:01Z</time>
      </trkpt>
      <trkpt lat="48.47422" lon="-3.77808">
        <ele>232.77648925781</ele>
        <time>2017-05-25T13:18:02Z</time>
      </trkpt>
      <trkpt lat="48.47427" lon="-3.7781">
        <ele>232.77648925781</ele>
        <time>2017-05-25T13:18:06Z</time>
      </trkpt>
      <trkpt lat="48.47435" lon="-3.77815">
        <ele>232.29577636719</ele>
        <time>2017-05-25T13:18:12Z</time>
      </trkpt>
      <trkpt lat="48.47443" lon="-3.7782">
        <ele>232.77648925781</ele>
        <time>2017-05-25T13:18:19Z</time>
      </trkpt>
      <trkpt lat="48.47452" lon="-3.77825">
        <ele>232.29577636719</ele>
        <time>2017-05-25T13:18:26Z</time>
      </trkpt>
      <trkpt lat="48.47459" lon="-3.77829">
        <ele>231.33435058594</ele>
        <time>2017-05-25T13:18:32Z</time>
      </trkpt>
      <trkpt lat="48.4747" lon="-3.77835">
        <ele>231.33435058594</ele>
        <time>2017-05-25T13:18:40Z</time>
      </trkpt>
      <trkpt lat="48.47478" lon="-3.7784">
        <ele>231.81494140625</ele>
        <time>2017-05-25T13:18:47Z</time>
      </trkpt>
      <trkpt lat="48.47487" lon="-3.77845">
        <ele>232.29577636719</ele>
        <time>2017-05-25T13:18:54Z</time>
      </trkpt>
      <trkpt lat="48.47494" lon="-3.77849">
        <ele>232.29577636719</ele>
        <time>2017-05-25T13:19:00Z</time>
      </trkpt>
      <trkpt lat="48.47504" lon="-3.77855">
        <ele>232.29577636719</ele>
        <time>2017-05-25T13:19:08Z</time>
      </trkpt>
      <trkpt lat="48.47511" lon="-3.7786">
        <ele>232.77648925781</ele>
        <time>2017-05-25T13:19:14Z</time>
      </trkpt>
      <trkpt lat="48.47517" lon="-3.77864">
        <ele>231.81494140625</ele>
        <time>2017-05-25T13:19:20Z</time>
      </trkpt>
      <trkpt lat="48.47522" lon="-3.77868">
        <ele>229.89233398438</ele>
        <time>2017-05-25T13:19:24Z</time>
      </trkpt>
      <trkpt lat="48.47526" lon="-3.7787">
        <ele>229.41174316406</ele>
        <time>2017-05-25T13:19:28Z</time>
      </trkpt>
      <trkpt lat="48.47535" lon="-3.77873">
        <ele>229.89233398438</ele>
        <time>2017-05-25T13:19:35Z</time>
      </trkpt>
      <trkpt lat="48.47537" lon="-3.77874">
        <ele>229.41174316406</ele>
        <time>2017-05-25T13:19:37Z</time>
      </trkpt>
      <trkpt lat="48.47546" lon="-3.77877">
        <ele>228.93115234375</ele>
        <time>2017-05-25T13:19:46Z</time>
      </trkpt>
      <trkpt lat="48.47557" lon="-3.7788">
        <ele>231.33435058594</ele>
        <time>2017-05-25T13:19:53Z</time>
      </trkpt>
      <trkpt lat="48.47566" lon="-3.77883">
        <ele>231.81494140625</ele>
        <time>2017-05-25T13:20:00Z</time>
      </trkpt>
      <trkpt lat="48.47572" lon="-3.77882">
        <ele>231.81494140625</ele>
        <time>2017-05-25T13:20:04Z</time>
      </trkpt>
      <trkpt lat="48.47579" lon="-3.77886">
        <ele>230.373046875</ele>
        <time>2017-05-25T13:20:11Z</time>
      </trkpt>
      <trkpt lat="48.47592" lon="-3.77888">
        <ele>228.45043945312</ele>
        <time>2017-05-25T13:20:19Z</time>
      </trkpt>
      <trkpt lat="48.47604" lon="-3.7789">
        <ele>229.41174316406</ele>
        <time>2017-05-25T13:20:26Z</time>
      </trkpt>
      <trkpt lat="48.47612" lon="-3.77892">
        <ele>229.41174316406</ele>
        <time>2017-05-25T13:20:32Z</time>
      </trkpt>
      <trkpt lat="48.47622" lon="-3.77894">
        <ele>228.93115234375</ele>
        <time>2017-05-25T13:20:39Z</time>
      </trkpt>
      <trkpt lat="48.47632" lon="-3.77896">
        <ele>230.373046875</ele>
        <time>2017-05-25T13:20:47Z</time>
      </trkpt>
      <trkpt lat="48.47637" lon="-3.77898">
        <ele>231.33435058594</ele>
        <time>2017-05-25T13:20:52Z</time>
      </trkpt>
      <trkpt lat="48.47644" lon="-3.779">
        <ele>230.85375976562</ele>
        <time>2017-05-25T13:20:57Z</time>
      </trkpt>
      <trkpt lat="48.47645" lon="-3.77901">
        <ele>230.85375976562</ele>
        <time>2017-05-25T13:20:58Z</time>
      </trkpt>
      <trkpt lat="48.47651" lon="-3.77902">
        <ele>231.33435058594</ele>
        <time>2017-05-25T13:21:02Z</time>
      </trkpt>
      <trkpt lat="48.47662" lon="-3.77906">
        <ele>232.77648925781</ele>
        <time>2017-05-25T13:21:10Z</time>
      </trkpt>
      <trkpt lat="48.47672" lon="-3.77911">
        <ele>235.66027832031</ele>
        <time>2017-05-25T13:21:17Z</time>
      </trkpt>
      <trkpt lat="48.47673" lon="-3.77912">
        <ele>235.66027832031</ele>
        <time>2017-05-25T13:21:18Z</time>
      </trkpt>
      <trkpt lat="48.4768" lon="-3.77918">
        <ele>237.10229492188</ele>
        <time>2017-05-25T13:21:24Z</time>
      </trkpt>
      <trkpt lat="48.47691" lon="-3.7793">
        <ele>238.06359863281</ele>
        <time>2017-05-25T13:21:34Z</time>
      </trkpt>
      <trkpt lat="48.47698" lon="-3.77942">
        <ele>239.98620605469</ele>
        <time>2017-05-25T13:21:42Z</time>
      </trkpt>
      <trkpt lat="48.47704" lon="-3.77953">
        <ele>239.98620605469</ele>
        <time>2017-05-25T13:21:49Z</time>
      </trkpt>
      <trkpt lat="48.47709" lon="-3.77963">
        <ele>240.46704101562</ele>
        <time>2017-05-25T13:21:55Z</time>
      </trkpt>
      <trkpt lat="48.47714" lon="-3.77972">
        <ele>240.94763183594</ele>
        <time>2017-05-25T13:22:01Z</time>
      </trkpt>
      <trkpt lat="48.47718" lon="-3.7798">
        <ele>241.42822265625</ele>
        <time>2017-05-25T13:22:06Z</time>
      </trkpt>
      <trkpt lat="48.47723" lon="-3.7799">
        <ele>241.90893554688</ele>
        <time>2017-05-25T13:22:12Z</time>
      </trkpt>
      <trkpt lat="48.47729" lon="-3.78001">
        <ele>242.3896484375</ele>
        <time>2017-05-25T13:22:19Z</time>
      </trkpt>
      <trkpt lat="48.47734" lon="-3.7801">
        <ele>241.90893554688</ele>
        <time>2017-05-25T13:22:25Z</time>
      </trkpt>
      <trkpt lat="48.47738" lon="-3.78019">
        <ele>243.35083007812</ele>
        <time>2017-05-25T13:22:31Z</time>
      </trkpt>
      <trkpt lat="48.47744" lon="-3.78028">
        <ele>242.87023925781</ele>
        <time>2017-05-25T13:22:36Z</time>
      </trkpt>
      <trkpt lat="48.47748" lon="-3.78036">
        <ele>243.83154296875</ele>
        <time>2017-05-25T13:22:42Z</time>
      </trkpt>
      <trkpt lat="48.47752" lon="-3.78043">
        <ele>244.31225585938</ele>
        <time>2017-05-25T13:22:47Z</time>
      </trkpt>
      <trkpt lat="48.47758" lon="-3.78053">
        <ele>244.31225585938</ele>
        <time>2017-05-25T13:22:53Z</time>
      </trkpt>
      <trkpt lat="48.47763" lon="-3.78064">
        <ele>243.35083007812</ele>
        <time>2017-05-25T13:23:00Z</time>
      </trkpt>
      <trkpt lat="48.47767" lon="-3.78071">
        <ele>243.35083007812</ele>
        <time>2017-05-25T13:23:04Z</time>
      </trkpt>
      <trkpt lat="48.47776" lon="-3.78088">
        <ele>242.87023925781</ele>
        <time>2017-05-25T13:23:14Z</time>
      </trkpt>
      <trkpt lat="48.47781" lon="-3.78096">
        <ele>241.42822265625</ele>
        <time>2017-05-25T13:23:19Z</time>
      </trkpt>
      <trkpt lat="48.47786" lon="-3.78105">
        <ele>240.94763183594</ele>
        <time>2017-05-25T13:23:25Z</time>
      </trkpt>
      <trkpt lat="48.47794" lon="-3.7812">
        <ele>240.94763183594</ele>
        <time>2017-05-25T13:23:34Z</time>
      </trkpt>
      <trkpt lat="48.47801" lon="-3.78132">
        <ele>239.98620605469</ele>
        <time>2017-05-25T13:23:42Z</time>
      </trkpt>
      <trkpt lat="48.4781" lon="-3.7815">
        <ele>237.58288574219</ele>
        <time>2017-05-25T13:23:52Z</time>
      </trkpt>
      <trkpt lat="48.47818" lon="-3.78169">
        <ele>235.66027832031</ele>
        <time>2017-05-25T13:24:04Z</time>
      </trkpt>
      <trkpt lat="48.47822" lon="-3.78181">
        <ele>236.14099121094</ele>
        <time>2017-05-25T13:24:10Z</time>
      </trkpt>
      <trkpt lat="48.47827" lon="-3.78197">
        <ele>235.1796875</ele>
        <time>2017-05-25T13:24:19Z</time>
      </trkpt>
      <trkpt lat="48.47833" lon="-3.78215">
        <ele>233.25708007812</ele>
        <time>2017-05-25T13:24:28Z</time>
      </trkpt>
      <trkpt lat="48.47837" lon="-3.78228">
        <ele>232.77648925781</ele>
        <time>2017-05-25T13:24:35Z</time>
      </trkpt>
      <trkpt lat="48.4784" lon="-3.78241">
        <ele>232.29577636719</ele>
        <time>2017-05-25T13:24:41Z</time>
      </trkpt>
      <trkpt lat="48.47841" lon="-3.78247">
        <ele>232.29577636719</ele>
        <time>2017-05-25T13:24:44Z</time>
      </trkpt>
      <trkpt lat="48.47846" lon="-3.78264">
        <ele>231.33435058594</ele>
        <time>2017-05-25T13:24:53Z</time>
      </trkpt>
      <trkpt lat="48.47849" lon="-3.78274">
        <ele>231.33435058594</ele>
        <time>2017-05-25T13:24:57Z</time>
      </trkpt>
      <trkpt lat="48.47855" lon="-3.78286">
        <ele>228.93115234375</ele>
        <time>2017-05-25T13:25:04Z</time>
      </trkpt>
      <trkpt lat="48.4786" lon="-3.78298">
        <ele>227.00854492188</ele>
        <time>2017-05-25T13:25:11Z</time>
      </trkpt>
      <trkpt lat="48.47864" lon="-3.78309">
        <ele>226.04711914062</ele>
        <time>2017-05-25T13:25:17Z</time>
      </trkpt>
      <trkpt lat="48.47865" lon="-3.78311">
        <ele>226.04711914062</ele>
        <time>2017-05-25T13:25:18Z</time>
      </trkpt>
      <trkpt lat="48.47866" lon="-3.78324">
        <ele>227.00854492188</ele>
        <time>2017-05-25T13:25:25Z</time>
      </trkpt>
      <trkpt lat="48.47866" lon="-3.78333">
        <ele>227.48913574219</ele>
        <time>2017-05-25T13:25:30Z</time>
      </trkpt>
      <trkpt lat="48.47869" lon="-3.78341">
        <ele>226.04711914062</ele>
        <time>2017-05-25T13:25:34Z</time>
      </trkpt>
      <trkpt lat="48.47872" lon="-3.78356">
        <ele>225.56652832031</ele>
        <time>2017-05-25T13:25:42Z</time>
      </trkpt>
      <trkpt lat="48.47873" lon="-3.78363">
        <ele>226.04711914062</ele>
        <time>2017-05-25T13:25:45Z</time>
      </trkpt>
      <trkpt lat="48.47874" lon="-3.78375">
        <ele>226.04711914062</ele>
        <time>2017-05-25T13:25:50Z</time>
      </trkpt>
      <trkpt lat="48.47876" lon="-3.78384">
        <ele>224.60522460938</ele>
        <time>2017-05-25T13:25:55Z</time>
      </trkpt>
      <trkpt lat="48.47878" lon="-3.78393">
        <ele>223.64379882812</ele>
        <time>2017-05-25T13:25:59Z</time>
      </trkpt>
      <trkpt lat="48.47878" lon="-3.78397">
        <ele>224.12451171875</ele>
        <time>2017-05-25T13:26:01Z</time>
      </trkpt>
      <trkpt lat="48.47877" lon="-3.78405">
        <ele>225.56652832031</ele>
        <time>2017-05-25T13:26:05Z</time>
      </trkpt>
      <trkpt lat="48.47877" lon="-3.78422">
        <ele>227.00854492188</ele>
        <time>2017-05-25T13:26:13Z</time>
      </trkpt>
      <trkpt lat="48.47876" lon="-3.7844">
        <ele>228.93115234375</ele>
        <time>2017-05-25T13:26:22Z</time>
      </trkpt>
      <trkpt lat="48.47877" lon="-3.78457">
        <ele>228.93115234375</ele>
        <time>2017-05-25T13:26:30Z</time>
      </trkpt>
      <trkpt lat="48.47879" lon="-3.78468">
        <ele>228.45043945312</ele>
        <time>2017-05-25T13:26:36Z</time>
      </trkpt>
      <trkpt lat="48.47879" lon="-3.7847">
        <ele>228.45043945312</ele>
        <time>2017-05-25T13:26:37Z</time>
      </trkpt>
      <trkpt lat="48.47879" lon="-3.78482">
        <ele>228.45043945312</ele>
        <time>2017-05-25T13:26:43Z</time>
      </trkpt>
      <trkpt lat="48.4788" lon="-3.78489">
        <ele>228.45043945312</ele>
        <time>2017-05-25T13:26:46Z</time>
      </trkpt>
      <trkpt lat="48.47881" lon="-3.78502">
        <ele>227.9697265625</ele>
        <time>2017-05-25T13:26:53Z</time>
      </trkpt>
      <trkpt lat="48.47879" lon="-3.78518">
        <ele>229.89233398438</ele>
        <time>2017-05-25T13:27:01Z</time>
      </trkpt>
      <trkpt lat="48.47879" lon="-3.78526">
        <ele>231.33435058594</ele>
        <time>2017-05-25T13:27:05Z</time>
      </trkpt>
      <trkpt lat="48.47879" lon="-3.78543">
        <ele>231.33435058594</ele>
        <time>2017-05-25T13:27:13Z</time>
      </trkpt>
      <trkpt lat="48.47881" lon="-3.78549">
        <ele>230.85375976562</ele>
        <time>2017-05-25T13:27:16Z</time>
      </trkpt>
      <trkpt lat="48.47881" lon="-3.78565">
        <ele>231.33435058594</ele>
        <time>2017-05-25T13:27:24Z</time>
      </trkpt>
      <trkpt lat="48.47882" lon="-3.78582">
        <ele>232.29577636719</ele>
        <time>2017-05-25T13:27:32Z</time>
      </trkpt>
      <trkpt lat="48.47884" lon="-3.78597">
        <ele>232.77648925781</ele>
        <time>2017-05-25T13:27:39Z</time>
      </trkpt>
      <trkpt lat="48.47885" lon="-3.78607">
        <ele>232.77648925781</ele>
        <time>2017-05-25T13:27:43Z</time>
      </trkpt>
      <trkpt lat="48.47885" lon="-3.78619">
        <ele>234.21838378906</ele>
        <time>2017-05-25T13:27:49Z</time>
      </trkpt>
      <trkpt lat="48.47884" lon="-3.78631">
        <ele>236.62170410156</ele>
        <time>2017-05-25T13:27:55Z</time>
      </trkpt>
      <trkpt lat="48.47883" lon="-3.78648">
        <ele>239.98620605469</ele>
        <time>2017-05-25T13:28:03Z</time>
      </trkpt>
      <trkpt lat="48.47884" lon="-3.78662">
        <ele>240.46704101562</ele>
        <time>2017-05-25T13:28:09Z</time>
      </trkpt>
      <trkpt lat="48.47885" lon="-3.78679">
        <ele>241.90893554688</ele>
        <time>2017-05-25T13:28:17Z</time>
      </trkpt>
      <trkpt lat="48.47887" lon="-3.78696">
        <ele>243.35083007812</ele>
        <time>2017-05-25T13:28:25Z</time>
      </trkpt>
      <trkpt lat="48.47886" lon="-3.78707">
        <ele>244.31225585938</ele>
        <time>2017-05-25T13:28:31Z</time>
      </trkpt>
      <trkpt lat="48.47886" lon="-3.78709">
        <ele>245.2734375</ele>
        <time>2017-05-25T13:28:32Z</time>
      </trkpt>
      <trkpt lat="48.47886" lon="-3.78719">
        <ele>246.23486328125</ele>
        <time>2017-05-25T13:28:36Z</time>
      </trkpt>
      <trkpt lat="48.47888" lon="-3.78733">
        <ele>246.71545410156</ele>
        <time>2017-05-25T13:28:43Z</time>
      </trkpt>
      <trkpt lat="48.4789" lon="-3.78742">
        <ele>245.75415039062</ele>
        <time>2017-05-25T13:28:48Z</time>
      </trkpt>
      <trkpt lat="48.47896" lon="-3.78753">
        <ele>243.35083007812</ele>
        <time>2017-05-25T13:28:54Z</time>
      </trkpt>
      <trkpt lat="48.47898" lon="-3.78758">
        <ele>243.35083007812</ele>
        <time>2017-05-25T13:28:58Z</time>
      </trkpt>
      <trkpt lat="48.479" lon="-3.78768">
        <ele>243.35083007812</ele>
        <time>2017-05-25T13:29:03Z</time>
      </trkpt>
      <trkpt lat="48.47901" lon="-3.78776">
        <ele>242.87023925781</ele>
        <time>2017-05-25T13:29:08Z</time>
      </trkpt>
      <trkpt lat="48.47902" lon="-3.78784">
        <ele>242.87023925781</ele>
        <time>2017-05-25T13:29:13Z</time>
      </trkpt>
      <trkpt lat="48.47903" lon="-3.78795">
        <ele>241.90893554688</ele>
        <time>2017-05-25T13:29:18Z</time>
      </trkpt>
      <trkpt lat="48.47903" lon="-3.78808">
        <ele>242.3896484375</ele>
        <time>2017-05-25T13:29:23Z</time>
      </trkpt>
      <trkpt lat="48.47904" lon="-3.78818">
        <ele>240.46704101562</ele>
        <time>2017-05-25T13:29:28Z</time>
      </trkpt>
      <trkpt lat="48.47903" lon="-3.78823">
        <ele>239.50549316406</ele>
        <time>2017-05-25T13:29:31Z</time>
      </trkpt>
      <trkpt lat="48.47903" lon="-3.78826">
        <ele>239.02490234375</ele>
        <time>2017-05-25T13:29:33Z</time>
      </trkpt>
      <trkpt lat="48.47901" lon="-3.78834">
        <ele>239.98620605469</ele>
        <time>2017-05-25T13:29:38Z</time>
      </trkpt>
      <trkpt lat="48.47898" lon="-3.78842">
        <ele>239.98620605469</ele>
        <time>2017-05-25T13:29:42Z</time>
      </trkpt>
      <trkpt lat="48.47896" lon="-3.78845">
        <ele>239.98620605469</ele>
        <time>2017-05-25T13:29:44Z</time>
      </trkpt>
      <trkpt lat="48.47896" lon="-3.78854">
        <ele>240.46704101562</ele>
        <time>2017-05-25T13:29:48Z</time>
      </trkpt>
      <trkpt lat="48.47896" lon="-3.78856">
        <ele>240.46704101562</ele>
        <time>2017-05-25T13:29:49Z</time>
      </trkpt>
      <trkpt lat="48.47894" lon="-3.78868">
        <ele>239.02490234375</ele>
        <time>2017-05-25T13:29:55Z</time>
      </trkpt>
      <trkpt lat="48.47893" lon="-3.78882">
        <ele>237.58288574219</ele>
        <time>2017-05-25T13:30:02Z</time>
      </trkpt>
      <trkpt lat="48.47893" lon="-3.78892">
        <ele>235.1796875</ele>
        <time>2017-05-25T13:30:07Z</time>
      </trkpt>
      <trkpt lat="48.47892" lon="-3.78905">
        <ele>234.21838378906</ele>
        <time>2017-05-25T13:30:14Z</time>
      </trkpt>
      <trkpt lat="48.47887" lon="-3.78915">
        <ele>236.14099121094</ele>
        <time>2017-05-25T13:30:19Z</time>
      </trkpt>
      <trkpt lat="48.47885" lon="-3.78932">
        <ele>236.14099121094</ele>
        <time>2017-05-25T13:30:27Z</time>
      </trkpt>
      <trkpt lat="48.47884" lon="-3.7894">
        <ele>235.66027832031</ele>
        <time>2017-05-25T13:30:31Z</time>
      </trkpt>
      <trkpt lat="48.47885" lon="-3.78949">
        <ele>235.66027832031</ele>
        <time>2017-05-25T13:30:35Z</time>
      </trkpt>
      <trkpt lat="48.47885" lon="-3.78959">
        <ele>234.69909667969</ele>
        <time>2017-05-25T13:30:40Z</time>
      </trkpt>
      <trkpt lat="48.47886" lon="-3.7897">
        <ele>232.29577636719</ele>
        <time>2017-05-25T13:30:46Z</time>
      </trkpt>
      <trkpt lat="48.47889" lon="-3.78975">
        <ele>230.85375976562</ele>
        <time>2017-05-25T13:30:48Z</time>
      </trkpt>
      <trkpt lat="48.47888" lon="-3.7898">
        <ele>230.85375976562</ele>
        <time>2017-05-25T13:30:51Z</time>
      </trkpt>
      <trkpt lat="48.47884" lon="-3.78987">
        <ele>231.81494140625</ele>
        <time>2017-05-25T13:30:55Z</time>
      </trkpt>
      <trkpt lat="48.47883" lon="-3.78991">
        <ele>232.29577636719</ele>
        <time>2017-05-25T13:30:57Z</time>
      </trkpt>
      <trkpt lat="48.47876" lon="-3.79001">
        <ele>234.21838378906</ele>
        <time>2017-05-25T13:31:04Z</time>
      </trkpt>
      <trkpt lat="48.47872" lon="-3.79004">
        <ele>235.66027832031</ele>
        <time>2017-05-25T13:31:09Z</time>
      </trkpt>
      <trkpt lat="48.47865" lon="-3.79004">
        <ele>235.1796875</ele>
        <time>2017-05-25T13:31:17Z</time>
      </trkpt>
      <trkpt lat="48.47865" lon="-3.79007">
        <ele>235.66027832031</ele>
        <time>2017-05-25T13:31:23Z</time>
      </trkpt>
      <trkpt lat="48.4787" lon="-3.79012">
        <ele>234.21838378906</ele>
        <time>2017-05-25T13:31:29Z</time>
      </trkpt>
      <trkpt lat="48.47871" lon="-3.79012">
        <ele>234.21838378906</ele>
        <time>2017-05-25T13:31:30Z</time>
      </trkpt>
      <trkpt lat="48.47878" lon="-3.79015">
        <ele>233.25708007812</ele>
        <time>2017-05-25T13:31:36Z</time>
      </trkpt>
      <trkpt lat="48.47882" lon="-3.79018">
        <ele>232.77648925781</ele>
        <time>2017-05-25T13:31:41Z</time>
      </trkpt>
      <trkpt lat="48.47888" lon="-3.79025">
        <ele>230.85375976562</ele>
        <time>2017-05-25T13:31:46Z</time>
      </trkpt>
      <trkpt lat="48.47895" lon="-3.79037">
        <ele>229.41174316406</ele>
        <time>2017-05-25T13:31:53Z</time>
      </trkpt>
      <trkpt lat="48.47898" lon="-3.7904">
        <ele>228.93115234375</ele>
        <time>2017-05-25T13:31:55Z</time>
      </trkpt>
      <trkpt lat="48.47904" lon="-3.79048">
        <ele>227.9697265625</ele>
        <time>2017-05-25T13:32:00Z</time>
      </trkpt>
      <trkpt lat="48.47904" lon="-3.79052">
        <ele>227.9697265625</ele>
        <time>2017-05-25T13:32:03Z</time>
      </trkpt>
      <trkpt lat="48.47906" lon="-3.79059">
        <ele>227.48913574219</ele>
        <time>2017-05-25T13:32:08Z</time>
      </trkpt>
      <trkpt lat="48.47908" lon="-3.79062">
        <ele>227.00854492188</ele>
        <time>2017-05-25T13:32:10Z</time>
      </trkpt>
      <trkpt lat="48.47914" lon="-3.7907">
        <ele>225.56652832031</ele>
        <time>2017-05-25T13:32:15Z</time>
      </trkpt>
      <trkpt lat="48.47918" lon="-3.79076">
        <ele>226.52783203125</ele>
        <time>2017-05-25T13:32:19Z</time>
      </trkpt>
      <trkpt lat="48.47919" lon="-3.79085">
        <ele>227.00854492188</ele>
        <time>2017-05-25T13:32:24Z</time>
      </trkpt>
      <trkpt lat="48.47923" lon="-3.79096">
        <ele>226.52783203125</ele>
        <time>2017-05-25T13:32:30Z</time>
      </trkpt>
      <trkpt lat="48.47927" lon="-3.79105">
        <ele>226.52783203125</ele>
        <time>2017-05-25T13:32:36Z</time>
      </trkpt>
      <trkpt lat="48.4793" lon="-3.79113">
        <ele>226.04711914062</ele>
        <time>2017-05-25T13:32:40Z</time>
      </trkpt>
      <trkpt lat="48.4793" lon="-3.79123">
        <ele>226.04711914062</ele>
        <time>2017-05-25T13:32:45Z</time>
      </trkpt>
      <trkpt lat="48.47929" lon="-3.7913">
        <ele>226.52783203125</ele>
        <time>2017-05-25T13:32:49Z</time>
      </trkpt>
      <trkpt lat="48.47931" lon="-3.79141">
        <ele>225.56652832031</ele>
        <time>2017-05-25T13:32:56Z</time>
      </trkpt>
      <trkpt lat="48.47932" lon="-3.7915">
        <ele>225.56652832031</ele>
        <time>2017-05-25T13:33:01Z</time>
      </trkpt>
      <trkpt lat="48.47933" lon="-3.79159">
        <ele>226.04711914062</ele>
        <time>2017-05-25T13:33:06Z</time>
      </trkpt>
      <trkpt lat="48.47933" lon="-3.79175">
        <ele>228.45043945312</ele>
        <time>2017-05-25T13:33:14Z</time>
      </trkpt>
      <trkpt lat="48.47933" lon="-3.79181">
        <ele>229.41174316406</ele>
        <time>2017-05-25T13:33:17Z</time>
      </trkpt>
      <trkpt lat="48.47934" lon="-3.79193">
        <ele>230.373046875</ele>
        <time>2017-05-25T13:33:24Z</time>
      </trkpt>
      <trkpt lat="48.47933" lon="-3.79209">
        <ele>231.33435058594</ele>
        <time>2017-05-25T13:33:32Z</time>
      </trkpt>
      <trkpt lat="48.47936" lon="-3.79223">
        <ele>230.85375976562</ele>
        <time>2017-05-25T13:33:39Z</time>
      </trkpt>
      <trkpt lat="48.47939" lon="-3.79234">
        <ele>227.9697265625</ele>
        <time>2017-05-25T13:33:45Z</time>
      </trkpt>
      <trkpt lat="48.47941" lon="-3.79243">
        <ele>227.00854492188</ele>
        <time>2017-05-25T13:33:50Z</time>
      </trkpt>
      <trkpt lat="48.47942" lon="-3.79244">
        <ele>226.52783203125</ele>
        <time>2017-05-25T13:33:51Z</time>
      </trkpt>
      <trkpt lat="48.47942" lon="-3.79253">
        <ele>226.04711914062</ele>
        <time>2017-05-25T13:33:55Z</time>
      </trkpt>
      <trkpt lat="48.47943" lon="-3.79264">
        <ele>224.60522460938</ele>
        <time>2017-05-25T13:34:01Z</time>
      </trkpt>
      <trkpt lat="48.47946" lon="-3.79278">
        <ele>224.12451171875</ele>
        <time>2017-05-25T13:34:08Z</time>
      </trkpt>
      <trkpt lat="48.47947" lon="-3.79284">
        <ele>223.64379882812</ele>
        <time>2017-05-25T13:34:11Z</time>
      </trkpt>
      <trkpt lat="48.47948" lon="-3.79293">
        <ele>223.64379882812</ele>
        <time>2017-05-25T13:34:16Z</time>
      </trkpt>
      <trkpt lat="48.47948" lon="-3.79297">
        <ele>223.16320800781</ele>
        <time>2017-05-25T13:34:18Z</time>
      </trkpt>
      <trkpt lat="48.47948" lon="-3.79307">
        <ele>221.72119140625</ele>
        <time>2017-05-25T13:34:24Z</time>
      </trkpt>
      <trkpt lat="48.47948" lon="-3.79313">
        <ele>221.24060058594</ele>
        <time>2017-05-25T13:34:28Z</time>
      </trkpt>
      <trkpt lat="48.47949" lon="-3.79319">
        <ele>221.72119140625</ele>
        <time>2017-05-25T13:34:31Z</time>
      </trkpt>
      <trkpt lat="48.4795" lon="-3.79328">
        <ele>220.75988769531</ele>
        <time>2017-05-25T13:34:36Z</time>
      </trkpt>
      <trkpt lat="48.4795" lon="-3.79334">
        <ele>220.27917480469</ele>
        <time>2017-05-25T13:34:39Z</time>
      </trkpt>
      <trkpt lat="48.4795" lon="-3.79347">
        <ele>222.68249511719</ele>
        <time>2017-05-25T13:34:46Z</time>
      </trkpt>
      <trkpt lat="48.47949" lon="-3.79349">
        <ele>222.68249511719</ele>
        <time>2017-05-25T13:34:47Z</time>
      </trkpt>
      <trkpt lat="48.47951" lon="-3.79361">
        <ele>223.64379882812</ele>
        <time>2017-05-25T13:34:54Z</time>
      </trkpt>
      <trkpt lat="48.47951" lon="-3.79368">
        <ele>224.12451171875</ele>
        <time>2017-05-25T13:34:58Z</time>
      </trkpt>
      <trkpt lat="48.47953" lon="-3.79376">
        <ele>223.64379882812</ele>
        <time>2017-05-25T13:35:03Z</time>
      </trkpt>
      <trkpt lat="48.47954" lon="-3.79386">
        <ele>224.12451171875</ele>
        <time>2017-05-25T13:35:11Z</time>
      </trkpt>
      <trkpt lat="48.47955" lon="-3.79389">
        <ele>223.16320800781</ele>
        <time>2017-05-25T13:35:18Z</time>
      </trkpt>
      <trkpt lat="48.47955" lon="-3.79392">
        <ele>224.12451171875</ele>
        <time>2017-05-25T13:35:25Z</time>
      </trkpt>
      <trkpt lat="48.47955" lon="-3.79395">
        <ele>225.0859375</ele>
        <time>2017-05-25T13:35:31Z</time>
      </trkpt>
      <trkpt lat="48.47956" lon="-3.79398">
        <ele>225.0859375</ele>
        <time>2017-05-25T13:35:35Z</time>
      </trkpt>
      <trkpt lat="48.47959" lon="-3.79398">
        <ele>224.60522460938</ele>
        <time>2017-05-25T13:35:43Z</time>
      </trkpt>
      <trkpt lat="48.4796" lon="-3.79399">
        <ele>223.16320800781</ele>
        <time>2017-05-25T13:35:49Z</time>
      </trkpt>
      <trkpt lat="48.47962" lon="-3.79403">
        <ele>223.64379882812</ele>
        <time>2017-05-25T13:35:55Z</time>
      </trkpt>
      <trkpt lat="48.47964" lon="-3.79404">
        <ele>223.64379882812</ele>
        <time>2017-05-25T13:36:03Z</time>
      </trkpt>
      <trkpt lat="48.47965" lon="-3.79403">
        <ele>223.16320800781</ele>
        <time>2017-05-25T13:36:11Z</time>
      </trkpt>
      <trkpt lat="48.47967" lon="-3.79402">
        <ele>223.16320800781</ele>
        <time>2017-05-25T13:36:27Z</time>
      </trkpt>
    </trkseg>
  </trk>
</gpx>